<?xml version="1.0" encoding="UTF-8" standalone="no" ?>
<gpx xmlns="http://www.topografix.com/GPX/1/1" xmlns:xsi="http://www.w3.org/2001/XMLSchema-instance" xsi:schemaLocation="http://www.topografix.com/GPX/1/1 http://www.topografix.com/GPX/1/1/gpx.xsd" version="1.1" creator="VisuGPX - https://www.visugpx.com">
  <metadata>
    <name>023SG74-8096784</name>
    <desc><![CDATA[
02]]></desc>
  </metadata>
  <trk>
    <name><![CDATA[023SG74-8096784]]></name>
    <trkseg>
      <trkpt lat="46.69891" lon="-1.93396">
        <ele>4</ele>
        <time>2018-03-07T22:24:47Z</time>
      </trkpt>
      <trkpt lat="46.69864" lon="-1.93406">
        <ele>5</ele>
        <time>2018-03-07T22:25:47Z</time>
      </trkpt>
      <trkpt lat="46.69825" lon="-1.93419">
        <ele>5</ele>
        <time>2018-03-07T22:26:47Z</time>
      </trkpt>
      <trkpt lat="46.69812" lon="-1.93424">
        <ele>5</ele>
        <time>2018-03-07T22:27:47Z</time>
      </trkpt>
      <trkpt lat="46.69805" lon="-1.93425">
        <ele>5</ele>
        <time>2018-03-07T22:28:47Z</time>
      </trkpt>
      <trkpt lat="46.69798" lon="-1.93426">
        <ele>5</ele>
        <time>2018-03-07T22:29:47Z</time>
      </trkpt>
      <trkpt lat="46.69792" lon="-1.93425">
        <ele>5</ele>
        <time>2018-03-07T22:30:47Z</time>
      </trkpt>
      <trkpt lat="46.69792" lon="-1.93425">
        <ele>5</ele>
        <time>2018-03-07T22:31:47Z</time>
      </trkpt>
      <trkpt lat="46.69792" lon="-1.93426">
        <ele>5</ele>
        <time>2018-03-07T22:32:47Z</time>
      </trkpt>
      <trkpt lat="46.69791" lon="-1.93426">
        <ele>5</ele>
        <time>2018-03-07T22:33:47Z</time>
      </trkpt>
      <trkpt lat="46.69791" lon="-1.93427">
        <ele>5</ele>
        <time>2018-03-07T22:34:47Z</time>
      </trkpt>
      <trkpt lat="46.6979" lon="-1.93427">
        <ele>5</ele>
        <time>2018-03-07T22:35:47Z</time>
      </trkpt>
      <trkpt lat="46.6979" lon="-1.93428">
        <ele>5</ele>
        <time>2018-03-07T22:36:47Z</time>
      </trkpt>
      <trkpt lat="46.69789" lon="-1.93428">
        <ele>5</ele>
        <time>2018-03-07T22:37:47Z</time>
      </trkpt>
      <trkpt lat="46.69788" lon="-1.93428">
        <ele>5</ele>
        <time>2018-03-07T22:38:47Z</time>
      </trkpt>
      <trkpt lat="46.69788" lon="-1.93427">
        <ele>5</ele>
        <time>2018-03-07T22:39:47Z</time>
      </trkpt>
      <trkpt lat="46.69787" lon="-1.93427">
        <ele>5</ele>
        <time>2018-03-07T22:40:47Z</time>
      </trkpt>
      <trkpt lat="46.69787" lon="-1.93426">
        <ele>5</ele>
        <time>2018-03-07T22:41:47Z</time>
      </trkpt>
      <trkpt lat="46.69786" lon="-1.93426">
        <ele>5</ele>
        <time>2018-03-07T22:42:47Z</time>
      </trkpt>
      <trkpt lat="46.69786" lon="-1.93425">
        <ele>5</ele>
        <time>2018-03-07T22:43:47Z</time>
      </trkpt>
      <trkpt lat="46.69786" lon="-1.93424">
        <ele>5</ele>
        <time>2018-03-07T22:44:47Z</time>
      </trkpt>
      <trkpt lat="46.69785" lon="-1.93424">
        <ele>5</ele>
        <time>2018-03-07T22:45:47Z</time>
      </trkpt>
      <trkpt lat="46.69785" lon="-1.93423">
        <ele>5</ele>
        <time>2018-03-07T22:46:47Z</time>
      </trkpt>
      <trkpt lat="46.69785" lon="-1.93422">
        <ele>5</ele>
        <time>2018-03-07T22:47:47Z</time>
      </trkpt>
      <trkpt lat="46.69779" lon="-1.9342">
        <ele>5</ele>
        <time>2018-03-07T22:48:47Z</time>
      </trkpt>
      <trkpt lat="46.69776" lon="-1.9342">
        <ele>5</ele>
        <time>2018-03-07T22:49:47Z</time>
      </trkpt>
      <trkpt lat="46.69772" lon="-1.9342">
        <ele>5</ele>
        <time>2018-03-07T22:50:47Z</time>
      </trkpt>
      <trkpt lat="46.69762" lon="-1.93423">
        <ele>5</ele>
        <time>2018-03-07T22:51:47Z</time>
      </trkpt>
      <trkpt lat="46.69759" lon="-1.93424">
        <ele>5</ele>
        <time>2018-03-07T22:52:47Z</time>
      </trkpt>
      <trkpt lat="46.69721" lon="-1.93434">
        <ele>5</ele>
        <time>2018-03-07T22:53:47Z</time>
      </trkpt>
      <trkpt lat="46.69714" lon="-1.93435">
        <ele>5</ele>
        <time>2018-03-07T22:54:47Z</time>
      </trkpt>
      <trkpt lat="46.69697" lon="-1.93436">
        <ele>5</ele>
        <time>2018-03-07T22:55:47Z</time>
      </trkpt>
      <trkpt lat="46.69685" lon="-1.93435">
        <ele>5</ele>
        <time>2018-03-07T22:56:47Z</time>
      </trkpt>
      <trkpt lat="46.69633" lon="-1.93423">
        <ele>5</ele>
        <time>2018-03-07T22:57:47Z</time>
      </trkpt>
      <trkpt lat="46.69633" lon="-1.93423">
        <ele>5</ele>
        <time>2018-03-07T22:58:47Z</time>
      </trkpt>
      <trkpt lat="46.69633" lon="-1.93424">
        <ele>4</ele>
        <time>2018-03-07T22:59:47Z</time>
      </trkpt>
      <trkpt lat="46.69633" lon="-1.93425">
        <ele>4</ele>
        <time>2018-03-07T23:00:47Z</time>
      </trkpt>
      <trkpt lat="46.69633" lon="-1.93426">
        <ele>4</ele>
        <time>2018-03-07T23:01:47Z</time>
      </trkpt>
      <trkpt lat="46.69633" lon="-1.93427">
        <ele>4</ele>
        <time>2018-03-07T23:02:47Z</time>
      </trkpt>
      <trkpt lat="46.69633" lon="-1.93428">
        <ele>4</ele>
        <time>2018-03-07T23:03:47Z</time>
      </trkpt>
      <trkpt lat="46.69633" lon="-1.93429">
        <ele>4</ele>
        <time>2018-03-07T23:04:47Z</time>
      </trkpt>
      <trkpt lat="46.69633" lon="-1.9343">
        <ele>4</ele>
        <time>2018-03-07T23:05:47Z</time>
      </trkpt>
      <trkpt lat="46.69632" lon="-1.9343">
        <ele>4</ele>
        <time>2018-03-07T23:06:47Z</time>
      </trkpt>
      <trkpt lat="46.69632" lon="-1.93431">
        <ele>4</ele>
        <time>2018-03-07T23:07:47Z</time>
      </trkpt>
      <trkpt lat="46.69632" lon="-1.93432">
        <ele>4</ele>
        <time>2018-03-07T23:08:47Z</time>
      </trkpt>
      <trkpt lat="46.69631" lon="-1.93432">
        <ele>4</ele>
        <time>2018-03-07T23:09:47Z</time>
      </trkpt>
      <trkpt lat="46.69631" lon="-1.93433">
        <ele>4</ele>
        <time>2018-03-07T23:10:47Z</time>
      </trkpt>
      <trkpt lat="46.69631" lon="-1.93434">
        <ele>4</ele>
        <time>2018-03-07T23:11:47Z</time>
      </trkpt>
      <trkpt lat="46.6963" lon="-1.93434">
        <ele>4</ele>
        <time>2018-03-07T23:12:47Z</time>
      </trkpt>
      <trkpt lat="46.6963" lon="-1.93435">
        <ele>4</ele>
        <time>2018-03-07T23:13:47Z</time>
      </trkpt>
      <trkpt lat="46.69629" lon="-1.93435">
        <ele>4</ele>
        <time>2018-03-07T23:14:47Z</time>
      </trkpt>
      <trkpt lat="46.69629" lon="-1.93436">
        <ele>4</ele>
        <time>2018-03-07T23:15:47Z</time>
      </trkpt>
      <trkpt lat="46.69628" lon="-1.93436">
        <ele>4</ele>
        <time>2018-03-07T23:16:47Z</time>
      </trkpt>
      <trkpt lat="46.69627" lon="-1.93436">
        <ele>4</ele>
        <time>2018-03-07T23:17:47Z</time>
      </trkpt>
      <trkpt lat="46.69627" lon="-1.93437">
        <ele>4</ele>
        <time>2018-03-07T23:18:47Z</time>
      </trkpt>
      <trkpt lat="46.69626" lon="-1.93437">
        <ele>4</ele>
        <time>2018-03-07T23:19:47Z</time>
      </trkpt>
      <trkpt lat="46.69625" lon="-1.93437">
        <ele>4</ele>
        <time>2018-03-07T23:20:47Z</time>
      </trkpt>
      <trkpt lat="46.69624" lon="-1.93437">
        <ele>4</ele>
        <time>2018-03-07T23:21:47Z</time>
      </trkpt>
      <trkpt lat="46.69623" lon="-1.93437">
        <ele>4</ele>
        <time>2018-03-07T23:22:47Z</time>
      </trkpt>
      <trkpt lat="46.69622" lon="-1.93436">
        <ele>4</ele>
        <time>2018-03-07T23:23:47Z</time>
      </trkpt>
      <trkpt lat="46.69619" lon="-1.93445">
        <ele>4</ele>
        <time>2018-03-07T23:24:47Z</time>
      </trkpt>
      <trkpt lat="46.69613" lon="-1.93483">
        <ele>4</ele>
        <time>2018-03-07T23:25:47Z</time>
      </trkpt>
      <trkpt lat="46.69606" lon="-1.93531">
        <ele>4</ele>
        <time>2018-03-07T23:26:47Z</time>
      </trkpt>
      <trkpt lat="46.69602" lon="-1.9355">
        <ele>4</ele>
        <time>2018-03-07T23:27:47Z</time>
      </trkpt>
      <trkpt lat="46.696" lon="-1.93576">
        <ele>4</ele>
        <time>2018-03-07T23:28:47Z</time>
      </trkpt>
      <trkpt lat="46.696" lon="-1.93576">
        <ele>4</ele>
        <time>2018-03-07T23:29:47Z</time>
      </trkpt>
      <trkpt lat="46.696" lon="-1.93577">
        <ele>4</ele>
        <time>2018-03-07T23:30:47Z</time>
      </trkpt>
      <trkpt lat="46.69601" lon="-1.93577">
        <ele>4</ele>
        <time>2018-03-07T23:31:47Z</time>
      </trkpt>
      <trkpt lat="46.69601" lon="-1.93578">
        <ele>4</ele>
        <time>2018-03-07T23:32:47Z</time>
      </trkpt>
      <trkpt lat="46.69602" lon="-1.93578">
        <ele>4</ele>
        <time>2018-03-07T23:33:47Z</time>
      </trkpt>
      <trkpt lat="46.69602" lon="-1.93579">
        <ele>4</ele>
        <time>2018-03-07T23:34:47Z</time>
      </trkpt>
      <trkpt lat="46.69603" lon="-1.93579">
        <ele>4</ele>
        <time>2018-03-07T23:35:47Z</time>
      </trkpt>
      <trkpt lat="46.69603" lon="-1.9358">
        <ele>4</ele>
        <time>2018-03-07T23:36:47Z</time>
      </trkpt>
      <trkpt lat="46.69603" lon="-1.93581">
        <ele>4</ele>
        <time>2018-03-07T23:37:47Z</time>
      </trkpt>
      <trkpt lat="46.69604" lon="-1.93581">
        <ele>4</ele>
        <time>2018-03-07T23:38:47Z</time>
      </trkpt>
      <trkpt lat="46.69604" lon="-1.93582">
        <ele>4</ele>
        <time>2018-03-07T23:39:47Z</time>
      </trkpt>
      <trkpt lat="46.69604" lon="-1.93583">
        <ele>4</ele>
        <time>2018-03-07T23:40:47Z</time>
      </trkpt>
      <trkpt lat="46.69604" lon="-1.93584">
        <ele>4</ele>
        <time>2018-03-07T23:41:47Z</time>
      </trkpt>
      <trkpt lat="46.69605" lon="-1.93585">
        <ele>4</ele>
        <time>2018-03-07T23:42:47Z</time>
      </trkpt>
      <trkpt lat="46.69605" lon="-1.93586">
        <ele>4</ele>
        <time>2018-03-07T23:43:47Z</time>
      </trkpt>
      <trkpt lat="46.69605" lon="-1.93587">
        <ele>4</ele>
        <time>2018-03-07T23:44:47Z</time>
      </trkpt>
      <trkpt lat="46.69605" lon="-1.93588">
        <ele>4</ele>
        <time>2018-03-07T23:45:47Z</time>
      </trkpt>
      <trkpt lat="46.69605" lon="-1.93589">
        <ele>4</ele>
        <time>2018-03-07T23:46:47Z</time>
      </trkpt>
      <trkpt lat="46.69604" lon="-1.93589">
        <ele>4</ele>
        <time>2018-03-07T23:47:47Z</time>
      </trkpt>
      <trkpt lat="46.69604" lon="-1.9359">
        <ele>4</ele>
        <time>2018-03-07T23:48:47Z</time>
      </trkpt>
      <trkpt lat="46.69604" lon="-1.93591">
        <ele>4</ele>
        <time>2018-03-07T23:49:47Z</time>
      </trkpt>
      <trkpt lat="46.69604" lon="-1.93592">
        <ele>4</ele>
        <time>2018-03-07T23:50:47Z</time>
      </trkpt>
      <trkpt lat="46.69604" lon="-1.93593">
        <ele>4</ele>
        <time>2018-03-07T23:51:47Z</time>
      </trkpt>
      <trkpt lat="46.69604" lon="-1.93594">
        <ele>4</ele>
        <time>2018-03-07T23:52:47Z</time>
      </trkpt>
      <trkpt lat="46.69604" lon="-1.93595">
        <ele>4</ele>
        <time>2018-03-07T23:53:47Z</time>
      </trkpt>
      <trkpt lat="46.69603" lon="-1.93595">
        <ele>4</ele>
        <time>2018-03-07T23:54:47Z</time>
      </trkpt>
      <trkpt lat="46.69603" lon="-1.93596">
        <ele>4</ele>
        <time>2018-03-07T23:55:47Z</time>
      </trkpt>
      <trkpt lat="46.69603" lon="-1.93597">
        <ele>4</ele>
        <time>2018-03-07T23:56:47Z</time>
      </trkpt>
      <trkpt lat="46.69602" lon="-1.93598">
        <ele>4</ele>
        <time>2018-03-07T23:57:47Z</time>
      </trkpt>
      <trkpt lat="46.69602" lon="-1.93599">
        <ele>4</ele>
        <time>2018-03-07T23:58:47Z</time>
      </trkpt>
      <trkpt lat="46.69601" lon="-1.93599">
        <ele>4</ele>
        <time>2018-03-07T23:59:47Z</time>
      </trkpt>
      <trkpt lat="46.69601" lon="-1.936">
        <ele>4</ele>
        <time>2018-03-08T00:00:47Z</time>
      </trkpt>
      <trkpt lat="46.696" lon="-1.936">
        <ele>4</ele>
        <time>2018-03-08T00:01:47Z</time>
      </trkpt>
      <trkpt lat="46.696" lon="-1.93601">
        <ele>4</ele>
        <time>2018-03-08T00:02:47Z</time>
      </trkpt>
      <trkpt lat="46.69599" lon="-1.93601">
        <ele>4</ele>
        <time>2018-03-08T00:03:47Z</time>
      </trkpt>
      <trkpt lat="46.69599" lon="-1.93602">
        <ele>4</ele>
        <time>2018-03-08T00:04:47Z</time>
      </trkpt>
      <trkpt lat="46.69598" lon="-1.93602">
        <ele>4</ele>
        <time>2018-03-08T00:05:47Z</time>
      </trkpt>
      <trkpt lat="46.69597" lon="-1.93602">
        <ele>4</ele>
        <time>2018-03-08T00:06:47Z</time>
      </trkpt>
      <trkpt lat="46.69596" lon="-1.93602">
        <ele>4</ele>
        <time>2018-03-08T00:07:47Z</time>
      </trkpt>
      <trkpt lat="46.69596" lon="-1.93603">
        <ele>4</ele>
        <time>2018-03-08T00:08:47Z</time>
      </trkpt>
      <trkpt lat="46.69595" lon="-1.93603">
        <ele>4</ele>
        <time>2018-03-08T00:09:47Z</time>
      </trkpt>
      <trkpt lat="46.69594" lon="-1.93602">
        <ele>4</ele>
        <time>2018-03-08T00:10:47Z</time>
      </trkpt>
      <trkpt lat="46.69593" lon="-1.93602">
        <ele>4</ele>
        <time>2018-03-08T00:11:47Z</time>
      </trkpt>
      <trkpt lat="46.69592" lon="-1.93602">
        <ele>4</ele>
        <time>2018-03-08T00:12:47Z</time>
      </trkpt>
      <trkpt lat="46.69592" lon="-1.93601">
        <ele>4</ele>
        <time>2018-03-08T00:13:47Z</time>
      </trkpt>
      <trkpt lat="46.69591" lon="-1.93601">
        <ele>4</ele>
        <time>2018-03-08T00:14:47Z</time>
      </trkpt>
      <trkpt lat="46.6959" lon="-1.936">
        <ele>4</ele>
        <time>2018-03-08T00:15:47Z</time>
      </trkpt>
      <trkpt lat="46.69589" lon="-1.936">
        <ele>4</ele>
        <time>2018-03-08T00:16:47Z</time>
      </trkpt>
      <trkpt lat="46.69589" lon="-1.93599">
        <ele>4</ele>
        <time>2018-03-08T00:17:47Z</time>
      </trkpt>
      <trkpt lat="46.69588" lon="-1.93598">
        <ele>4</ele>
        <time>2018-03-08T00:18:47Z</time>
      </trkpt>
      <trkpt lat="46.69588" lon="-1.93597">
        <ele>4</ele>
        <time>2018-03-08T00:19:47Z</time>
      </trkpt>
      <trkpt lat="46.69587" lon="-1.93597">
        <ele>4</ele>
        <time>2018-03-08T00:20:47Z</time>
      </trkpt>
      <trkpt lat="46.69587" lon="-1.93596">
        <ele>4</ele>
        <time>2018-03-08T00:21:47Z</time>
      </trkpt>
      <trkpt lat="46.69587" lon="-1.93595">
        <ele>4</ele>
        <time>2018-03-08T00:22:47Z</time>
      </trkpt>
      <trkpt lat="46.69586" lon="-1.93595">
        <ele>4</ele>
        <time>2018-03-08T00:23:47Z</time>
      </trkpt>
      <trkpt lat="46.69581" lon="-1.93596">
        <ele>4</ele>
        <time>2018-03-08T00:24:47Z</time>
      </trkpt>
      <trkpt lat="46.69575" lon="-1.93596">
        <ele>4</ele>
        <time>2018-03-08T00:25:47Z</time>
      </trkpt>
      <trkpt lat="46.69564" lon="-1.93594">
        <ele>4</ele>
        <time>2018-03-08T00:26:47Z</time>
      </trkpt>
      <trkpt lat="46.69561" lon="-1.93593">
        <ele>4</ele>
        <time>2018-03-08T00:27:47Z</time>
      </trkpt>
      <trkpt lat="46.69552" lon="-1.93588">
        <ele>4</ele>
        <time>2018-03-08T00:28:47Z</time>
      </trkpt>
      <trkpt lat="46.69542" lon="-1.93584">
        <ele>4</ele>
        <time>2018-03-08T00:29:47Z</time>
      </trkpt>
      <trkpt lat="46.6953" lon="-1.93579">
        <ele>3</ele>
        <time>2018-03-08T00:30:47Z</time>
      </trkpt>
      <trkpt lat="46.69519" lon="-1.93575">
        <ele>3</ele>
        <time>2018-03-08T00:31:47Z</time>
      </trkpt>
      <trkpt lat="46.69514" lon="-1.93574">
        <ele>3</ele>
        <time>2018-03-08T00:32:47Z</time>
      </trkpt>
      <trkpt lat="46.6951" lon="-1.93574">
        <ele>3</ele>
        <time>2018-03-08T00:33:47Z</time>
      </trkpt>
      <trkpt lat="46.69507" lon="-1.93574">
        <ele>3</ele>
        <time>2018-03-08T00:34:47Z</time>
      </trkpt>
      <trkpt lat="46.69498" lon="-1.93578">
        <ele>3</ele>
        <time>2018-03-08T00:35:47Z</time>
      </trkpt>
      <trkpt lat="46.69488" lon="-1.93581">
        <ele>3</ele>
        <time>2018-03-08T00:36:47Z</time>
      </trkpt>
      <trkpt lat="46.69478" lon="-1.93583">
        <ele>2</ele>
        <time>2018-03-08T00:37:47Z</time>
      </trkpt>
      <trkpt lat="46.69455" lon="-1.9359">
        <ele>2</ele>
        <time>2018-03-08T00:38:47Z</time>
      </trkpt>
      <trkpt lat="46.6944" lon="-1.93596">
        <ele>2</ele>
        <time>2018-03-08T00:39:47Z</time>
      </trkpt>
      <trkpt lat="46.69433" lon="-1.93601">
        <ele>2</ele>
        <time>2018-03-08T00:40:47Z</time>
      </trkpt>
      <trkpt lat="46.69428" lon="-1.93608">
        <ele>2</ele>
        <time>2018-03-08T00:41:47Z</time>
      </trkpt>
      <trkpt lat="46.69427" lon="-1.9361">
        <ele>2</ele>
        <time>2018-03-08T00:42:47Z</time>
      </trkpt>
      <trkpt lat="46.69427" lon="-1.93617">
        <ele>2</ele>
        <time>2018-03-08T00:43:47Z</time>
      </trkpt>
      <trkpt lat="46.69426" lon="-1.93624">
        <ele>2</ele>
        <time>2018-03-08T00:44:47Z</time>
      </trkpt>
      <trkpt lat="46.69426" lon="-1.93633">
        <ele>2</ele>
        <time>2018-03-08T00:45:47Z</time>
      </trkpt>
      <trkpt lat="46.69425" lon="-1.9364">
        <ele>2</ele>
        <time>2018-03-08T00:46:47Z</time>
      </trkpt>
      <trkpt lat="46.69426" lon="-1.93647">
        <ele>3</ele>
        <time>2018-03-08T00:47:47Z</time>
      </trkpt>
      <trkpt lat="46.69428" lon="-1.9366">
        <ele>3</ele>
        <time>2018-03-08T00:48:47Z</time>
      </trkpt>
      <trkpt lat="46.69436" lon="-1.93692">
        <ele>3</ele>
        <time>2018-03-08T00:49:47Z</time>
      </trkpt>
      <trkpt lat="46.69442" lon="-1.93715">
        <ele>3</ele>
        <time>2018-03-08T00:50:47Z</time>
      </trkpt>
      <trkpt lat="46.69446" lon="-1.93727">
        <ele>3</ele>
        <time>2018-03-08T00:51:47Z</time>
      </trkpt>
      <trkpt lat="46.69447" lon="-1.93732">
        <ele>3</ele>
        <time>2018-03-08T00:52:47Z</time>
      </trkpt>
      <trkpt lat="46.69449" lon="-1.93738">
        <ele>3</ele>
        <time>2018-03-08T00:53:47Z</time>
      </trkpt>
      <trkpt lat="46.69455" lon="-1.93753">
        <ele>3</ele>
        <time>2018-03-08T00:54:47Z</time>
      </trkpt>
      <trkpt lat="46.69455" lon="-1.93754">
        <ele>3</ele>
        <time>2018-03-08T00:55:47Z</time>
      </trkpt>
      <trkpt lat="46.69463" lon="-1.93773">
        <ele>3</ele>
        <time>2018-03-08T00:56:47Z</time>
      </trkpt>
      <trkpt lat="46.69466" lon="-1.93779">
        <ele>3</ele>
        <time>2018-03-08T00:57:47Z</time>
      </trkpt>
      <trkpt lat="46.69472" lon="-1.93792">
        <ele>3</ele>
        <time>2018-03-08T00:58:47Z</time>
      </trkpt>
      <trkpt lat="46.69493" lon="-1.93837">
        <ele>3</ele>
        <time>2018-03-08T00:59:47Z</time>
      </trkpt>
      <trkpt lat="46.69495" lon="-1.93843">
        <ele>3</ele>
        <time>2018-03-08T01:00:47Z</time>
      </trkpt>
      <trkpt lat="46.69505" lon="-1.93865">
        <ele>4</ele>
        <time>2018-03-08T01:01:47Z</time>
      </trkpt>
      <trkpt lat="46.69507" lon="-1.93869">
        <ele>4</ele>
        <time>2018-03-08T01:02:47Z</time>
      </trkpt>
      <trkpt lat="46.6951" lon="-1.93875">
        <ele>4</ele>
        <time>2018-03-08T01:03:47Z</time>
      </trkpt>
      <trkpt lat="46.69511" lon="-1.93878">
        <ele>4</ele>
        <time>2018-03-08T01:04:47Z</time>
      </trkpt>
      <trkpt lat="46.69522" lon="-1.93898">
        <ele>4</ele>
        <time>2018-03-08T01:05:47Z</time>
      </trkpt>
      <trkpt lat="46.69525" lon="-1.93905">
        <ele>4</ele>
        <time>2018-03-08T01:06:47Z</time>
      </trkpt>
      <trkpt lat="46.69529" lon="-1.93909">
        <ele>4</ele>
        <time>2018-03-08T01:07:47Z</time>
      </trkpt>
      <trkpt lat="46.69536" lon="-1.93928">
        <ele>4</ele>
        <time>2018-03-08T01:08:47Z</time>
      </trkpt>
      <trkpt lat="46.69547" lon="-1.93956">
        <ele>4</ele>
        <time>2018-03-08T01:09:47Z</time>
      </trkpt>
      <trkpt lat="46.69549" lon="-1.93962">
        <ele>4</ele>
        <time>2018-03-08T01:10:47Z</time>
      </trkpt>
      <trkpt lat="46.69554" lon="-1.93974">
        <ele>4</ele>
        <time>2018-03-08T01:11:47Z</time>
      </trkpt>
      <trkpt lat="46.69568" lon="-1.94001">
        <ele>4</ele>
        <time>2018-03-08T01:12:47Z</time>
      </trkpt>
      <trkpt lat="46.69581" lon="-1.94025">
        <ele>4</ele>
        <time>2018-03-08T01:13:47Z</time>
      </trkpt>
      <trkpt lat="46.69583" lon="-1.9403">
        <ele>4</ele>
        <time>2018-03-08T01:14:47Z</time>
      </trkpt>
      <trkpt lat="46.69587" lon="-1.94036">
        <ele>4</ele>
        <time>2018-03-08T01:15:47Z</time>
      </trkpt>
      <trkpt lat="46.6959" lon="-1.94041">
        <ele>3</ele>
        <time>2018-03-08T01:16:47Z</time>
      </trkpt>
      <trkpt lat="46.69593" lon="-1.94042">
        <ele>3</ele>
        <time>2018-03-08T01:17:47Z</time>
      </trkpt>
      <trkpt lat="46.69595" lon="-1.94042">
        <ele>3</ele>
        <time>2018-03-08T01:18:47Z</time>
      </trkpt>
      <trkpt lat="46.69598" lon="-1.94042">
        <ele>3</ele>
        <time>2018-03-08T01:19:47Z</time>
      </trkpt>
      <trkpt lat="46.69602" lon="-1.94042">
        <ele>3</ele>
        <time>2018-03-08T01:20:47Z</time>
      </trkpt>
      <trkpt lat="46.69606" lon="-1.94037">
        <ele>3</ele>
        <time>2018-03-08T01:21:47Z</time>
      </trkpt>
      <trkpt lat="46.69612" lon="-1.94035">
        <ele>3</ele>
        <time>2018-03-08T01:22:47Z</time>
      </trkpt>
      <trkpt lat="46.6962" lon="-1.9403">
        <ele>3</ele>
        <time>2018-03-08T01:23:47Z</time>
      </trkpt>
      <trkpt lat="46.69623" lon="-1.94029">
        <ele>3</ele>
        <time>2018-03-08T01:24:47Z</time>
      </trkpt>
      <trkpt lat="46.69627" lon="-1.94029">
        <ele>3</ele>
        <time>2018-03-08T01:25:47Z</time>
      </trkpt>
      <trkpt lat="46.69629" lon="-1.9403">
        <ele>3</ele>
        <time>2018-03-08T01:26:47Z</time>
      </trkpt>
      <trkpt lat="46.69632" lon="-1.94033">
        <ele>3</ele>
        <time>2018-03-08T01:27:47Z</time>
      </trkpt>
      <trkpt lat="46.69633" lon="-1.94034">
        <ele>3</ele>
        <time>2018-03-08T01:28:47Z</time>
      </trkpt>
      <trkpt lat="46.69634" lon="-1.94038">
        <ele>3</ele>
        <time>2018-03-08T01:29:47Z</time>
      </trkpt>
      <trkpt lat="46.69641" lon="-1.94064">
        <ele>3</ele>
        <time>2018-03-08T01:30:47Z</time>
      </trkpt>
      <trkpt lat="46.69647" lon="-1.94085">
        <ele>2</ele>
        <time>2018-03-08T01:31:47Z</time>
      </trkpt>
      <trkpt lat="46.6965" lon="-1.941">
        <ele>3</ele>
        <time>2018-03-08T01:32:47Z</time>
      </trkpt>
      <trkpt lat="46.69653" lon="-1.9411">
        <ele>3</ele>
        <time>2018-03-08T01:33:47Z</time>
      </trkpt>
      <trkpt lat="46.69658" lon="-1.94132">
        <ele>4</ele>
        <time>2018-03-08T01:34:47Z</time>
      </trkpt>
      <trkpt lat="46.6966" lon="-1.94143">
        <ele>4</ele>
        <time>2018-03-08T01:35:47Z</time>
      </trkpt>
      <trkpt lat="46.69675" lon="-1.94202">
        <ele>5</ele>
        <time>2018-03-08T01:36:47Z</time>
      </trkpt>
      <trkpt lat="46.69688" lon="-1.94251">
        <ele>4</ele>
        <time>2018-03-08T01:37:47Z</time>
      </trkpt>
      <trkpt lat="46.69696" lon="-1.94286">
        <ele>4</ele>
        <time>2018-03-08T01:38:47Z</time>
      </trkpt>
      <trkpt lat="46.697" lon="-1.94303">
        <ele>4</ele>
        <time>2018-03-08T01:39:47Z</time>
      </trkpt>
      <trkpt lat="46.69703" lon="-1.94314">
        <ele>4</ele>
        <time>2018-03-08T01:40:47Z</time>
      </trkpt>
      <trkpt lat="46.69709" lon="-1.94333">
        <ele>4</ele>
        <time>2018-03-08T01:41:47Z</time>
      </trkpt>
      <trkpt lat="46.69718" lon="-1.9436">
        <ele>4</ele>
        <time>2018-03-08T01:42:47Z</time>
      </trkpt>
      <trkpt lat="46.69727" lon="-1.94384">
        <ele>4</ele>
        <time>2018-03-08T01:43:47Z</time>
      </trkpt>
      <trkpt lat="46.69732" lon="-1.944">
        <ele>4</ele>
        <time>2018-03-08T01:44:47Z</time>
      </trkpt>
      <trkpt lat="46.69735" lon="-1.94411">
        <ele>3</ele>
        <time>2018-03-08T01:45:47Z</time>
      </trkpt>
      <trkpt lat="46.69745" lon="-1.9444">
        <ele>2</ele>
        <time>2018-03-08T01:46:47Z</time>
      </trkpt>
      <trkpt lat="46.69748" lon="-1.94448">
        <ele>2</ele>
        <time>2018-03-08T01:47:47Z</time>
      </trkpt>
      <trkpt lat="46.69753" lon="-1.94463">
        <ele>4</ele>
        <time>2018-03-08T01:48:47Z</time>
      </trkpt>
      <trkpt lat="46.69758" lon="-1.94477">
        <ele>4</ele>
        <time>2018-03-08T01:49:47Z</time>
      </trkpt>
      <trkpt lat="46.69765" lon="-1.94496">
        <ele>4</ele>
        <time>2018-03-08T01:50:47Z</time>
      </trkpt>
      <trkpt lat="46.6978" lon="-1.94548">
        <ele>3</ele>
        <time>2018-03-08T01:51:47Z</time>
      </trkpt>
      <trkpt lat="46.69799" lon="-1.94634">
        <ele>4</ele>
        <time>2018-03-08T01:52:47Z</time>
      </trkpt>
      <trkpt lat="46.69805" lon="-1.94657">
        <ele>4</ele>
        <time>2018-03-08T01:53:47Z</time>
      </trkpt>
      <trkpt lat="46.69809" lon="-1.94676">
        <ele>4</ele>
        <time>2018-03-08T01:54:47Z</time>
      </trkpt>
      <trkpt lat="46.69814" lon="-1.94695">
        <ele>4</ele>
        <time>2018-03-08T01:55:47Z</time>
      </trkpt>
      <trkpt lat="46.69819" lon="-1.94712">
        <ele>4</ele>
        <time>2018-03-08T01:56:47Z</time>
      </trkpt>
      <trkpt lat="46.69825" lon="-1.94732">
        <ele>5</ele>
        <time>2018-03-08T01:57:47Z</time>
      </trkpt>
      <trkpt lat="46.69826" lon="-1.94736">
        <ele>5</ele>
        <time>2018-03-08T01:58:47Z</time>
      </trkpt>
      <trkpt lat="46.69828" lon="-1.94745">
        <ele>5</ele>
        <time>2018-03-08T01:59:47Z</time>
      </trkpt>
      <trkpt lat="46.69828" lon="-1.94745">
        <ele>5</ele>
        <time>2018-03-08T02:00:47Z</time>
      </trkpt>
      <trkpt lat="46.69836" lon="-1.94769">
        <ele>5</ele>
        <time>2018-03-08T02:01:47Z</time>
      </trkpt>
      <trkpt lat="46.69848" lon="-1.94802">
        <ele>5</ele>
        <time>2018-03-08T02:02:47Z</time>
      </trkpt>
      <trkpt lat="46.6986" lon="-1.94828">
        <ele>5</ele>
        <time>2018-03-08T02:03:47Z</time>
      </trkpt>
      <trkpt lat="46.69867" lon="-1.94841">
        <ele>5</ele>
        <time>2018-03-08T02:04:47Z</time>
      </trkpt>
      <trkpt lat="46.69874" lon="-1.94856">
        <ele>6</ele>
        <time>2018-03-08T02:05:47Z</time>
      </trkpt>
      <trkpt lat="46.69896" lon="-1.94891">
        <ele>6</ele>
        <time>2018-03-08T02:06:47Z</time>
      </trkpt>
      <trkpt lat="46.69911" lon="-1.94912">
        <ele>7</ele>
        <time>2018-03-08T02:07:47Z</time>
      </trkpt>
      <trkpt lat="46.69918" lon="-1.94924">
        <ele>7</ele>
        <time>2018-03-08T02:08:47Z</time>
      </trkpt>
      <trkpt lat="46.69934" lon="-1.94944">
        <ele>8</ele>
        <time>2018-03-08T02:09:47Z</time>
      </trkpt>
      <trkpt lat="46.69949" lon="-1.94964">
        <ele>8</ele>
        <time>2018-03-08T02:10:47Z</time>
      </trkpt>
      <trkpt lat="46.69963" lon="-1.9498">
        <ele>8</ele>
        <time>2018-03-08T02:11:47Z</time>
      </trkpt>
      <trkpt lat="46.69981" lon="-1.94999">
        <ele>7</ele>
        <time>2018-03-08T02:12:47Z</time>
      </trkpt>
      <trkpt lat="46.69997" lon="-1.95014">
        <ele>7</ele>
        <time>2018-03-08T02:13:47Z</time>
      </trkpt>
      <trkpt lat="46.70007" lon="-1.95023">
        <ele>7</ele>
        <time>2018-03-08T02:14:47Z</time>
      </trkpt>
      <trkpt lat="46.70013" lon="-1.95027">
        <ele>7</ele>
        <time>2018-03-08T02:15:47Z</time>
      </trkpt>
      <trkpt lat="46.70019" lon="-1.9503">
        <ele>7</ele>
        <time>2018-03-08T02:16:47Z</time>
      </trkpt>
      <trkpt lat="46.70034" lon="-1.95036">
        <ele>7</ele>
        <time>2018-03-08T02:17:47Z</time>
      </trkpt>
      <trkpt lat="46.7005" lon="-1.95039">
        <ele>6</ele>
        <time>2018-03-08T02:18:47Z</time>
      </trkpt>
      <trkpt lat="46.70069" lon="-1.95044">
        <ele>6</ele>
        <time>2018-03-08T02:19:47Z</time>
      </trkpt>
      <trkpt lat="46.70103" lon="-1.9505">
        <ele>5</ele>
        <time>2018-03-08T02:20:47Z</time>
      </trkpt>
      <trkpt lat="46.70125" lon="-1.95054">
        <ele>5</ele>
        <time>2018-03-08T02:21:47Z</time>
      </trkpt>
      <trkpt lat="46.70148" lon="-1.95058">
        <ele>5</ele>
        <time>2018-03-08T02:22:47Z</time>
      </trkpt>
      <trkpt lat="46.70148" lon="-1.95058">
        <ele>5</ele>
        <time>2018-03-08T02:23:47Z</time>
      </trkpt>
      <trkpt lat="46.70148" lon="-1.95057">
        <ele>5</ele>
        <time>2018-03-08T02:24:47Z</time>
      </trkpt>
      <trkpt lat="46.70148" lon="-1.95056">
        <ele>5</ele>
        <time>2018-03-08T02:25:47Z</time>
      </trkpt>
      <trkpt lat="46.70148" lon="-1.95055">
        <ele>5</ele>
        <time>2018-03-08T02:26:47Z</time>
      </trkpt>
      <trkpt lat="46.70149" lon="-1.95055">
        <ele>5</ele>
        <time>2018-03-08T02:27:47Z</time>
      </trkpt>
      <trkpt lat="46.70149" lon="-1.95054">
        <ele>5</ele>
        <time>2018-03-08T02:28:47Z</time>
      </trkpt>
      <trkpt lat="46.70149" lon="-1.95053">
        <ele>5</ele>
        <time>2018-03-08T02:29:47Z</time>
      </trkpt>
      <trkpt lat="46.7015" lon="-1.95053">
        <ele>5</ele>
        <time>2018-03-08T02:30:47Z</time>
      </trkpt>
      <trkpt lat="46.7015" lon="-1.95052">
        <ele>5</ele>
        <time>2018-03-08T02:31:47Z</time>
      </trkpt>
      <trkpt lat="46.7015" lon="-1.95051">
        <ele>5</ele>
        <time>2018-03-08T02:32:47Z</time>
      </trkpt>
      <trkpt lat="46.70151" lon="-1.95051">
        <ele>4</ele>
        <time>2018-03-08T02:33:47Z</time>
      </trkpt>
      <trkpt lat="46.70151" lon="-1.9505">
        <ele>4</ele>
        <time>2018-03-08T02:34:47Z</time>
      </trkpt>
      <trkpt lat="46.70152" lon="-1.9505">
        <ele>4</ele>
        <time>2018-03-08T02:35:47Z</time>
      </trkpt>
      <trkpt lat="46.70153" lon="-1.9505">
        <ele>4</ele>
        <time>2018-03-08T02:36:47Z</time>
      </trkpt>
      <trkpt lat="46.70153" lon="-1.95049">
        <ele>4</ele>
        <time>2018-03-08T02:37:47Z</time>
      </trkpt>
      <trkpt lat="46.70154" lon="-1.95049">
        <ele>4</ele>
        <time>2018-03-08T02:38:47Z</time>
      </trkpt>
      <trkpt lat="46.70155" lon="-1.95049">
        <ele>4</ele>
        <time>2018-03-08T02:39:47Z</time>
      </trkpt>
      <trkpt lat="46.70156" lon="-1.95049">
        <ele>4</ele>
        <time>2018-03-08T02:40:47Z</time>
      </trkpt>
      <trkpt lat="46.70157" lon="-1.95049">
        <ele>4</ele>
        <time>2018-03-08T02:41:47Z</time>
      </trkpt>
      <trkpt lat="46.70157" lon="-1.9505">
        <ele>4</ele>
        <time>2018-03-08T02:42:47Z</time>
      </trkpt>
      <trkpt lat="46.70158" lon="-1.9505">
        <ele>4</ele>
        <time>2018-03-08T02:43:47Z</time>
      </trkpt>
      <trkpt lat="46.70159" lon="-1.95051">
        <ele>4</ele>
        <time>2018-03-08T02:44:47Z</time>
      </trkpt>
      <trkpt lat="46.7016" lon="-1.95052">
        <ele>4</ele>
        <time>2018-03-08T02:45:47Z</time>
      </trkpt>
      <trkpt lat="46.7016" lon="-1.95053">
        <ele>4</ele>
        <time>2018-03-08T02:46:47Z</time>
      </trkpt>
      <trkpt lat="46.70161" lon="-1.95053">
        <ele>4</ele>
        <time>2018-03-08T02:47:47Z</time>
      </trkpt>
      <trkpt lat="46.70161" lon="-1.95054">
        <ele>4</ele>
        <time>2018-03-08T02:48:47Z</time>
      </trkpt>
      <trkpt lat="46.70161" lon="-1.95055">
        <ele>4</ele>
        <time>2018-03-08T02:49:47Z</time>
      </trkpt>
      <trkpt lat="46.70161" lon="-1.95056">
        <ele>4</ele>
        <time>2018-03-08T02:50:47Z</time>
      </trkpt>
      <trkpt lat="46.70162" lon="-1.95056">
        <ele>4</ele>
        <time>2018-03-08T02:51:47Z</time>
      </trkpt>
      <trkpt lat="46.70162" lon="-1.95057">
        <ele>4</ele>
        <time>2018-03-08T02:52:47Z</time>
      </trkpt>
      <trkpt lat="46.70162" lon="-1.95058">
        <ele>4</ele>
        <time>2018-03-08T02:53:47Z</time>
      </trkpt>
      <trkpt lat="46.70162" lon="-1.95059">
        <ele>4</ele>
        <time>2018-03-08T02:54:47Z</time>
      </trkpt>
      <trkpt lat="46.70162" lon="-1.9506">
        <ele>5</ele>
        <time>2018-03-08T02:55:47Z</time>
      </trkpt>
      <trkpt lat="46.70162" lon="-1.95061">
        <ele>5</ele>
        <time>2018-03-08T02:56:47Z</time>
      </trkpt>
      <trkpt lat="46.70162" lon="-1.95062">
        <ele>5</ele>
        <time>2018-03-08T02:57:47Z</time>
      </trkpt>
      <trkpt lat="46.70161" lon="-1.95063">
        <ele>5</ele>
        <time>2018-03-08T02:58:47Z</time>
      </trkpt>
      <trkpt lat="46.70161" lon="-1.95064">
        <ele>5</ele>
        <time>2018-03-08T02:59:47Z</time>
      </trkpt>
      <trkpt lat="46.70161" lon="-1.95065">
        <ele>5</ele>
        <time>2018-03-08T03:00:47Z</time>
      </trkpt>
      <trkpt lat="46.7016" lon="-1.95066">
        <ele>5</ele>
        <time>2018-03-08T03:01:47Z</time>
      </trkpt>
      <trkpt lat="46.7016" lon="-1.95067">
        <ele>5</ele>
        <time>2018-03-08T03:02:47Z</time>
      </trkpt>
      <trkpt lat="46.70159" lon="-1.95067">
        <ele>5</ele>
        <time>2018-03-08T03:03:47Z</time>
      </trkpt>
      <trkpt lat="46.70159" lon="-1.95068">
        <ele>5</ele>
        <time>2018-03-08T03:04:47Z</time>
      </trkpt>
      <trkpt lat="46.70158" lon="-1.95068">
        <ele>5</ele>
        <time>2018-03-08T03:05:47Z</time>
      </trkpt>
      <trkpt lat="46.70158" lon="-1.95069">
        <ele>5</ele>
        <time>2018-03-08T03:06:47Z</time>
      </trkpt>
      <trkpt lat="46.70157" lon="-1.95069">
        <ele>5</ele>
        <time>2018-03-08T03:07:47Z</time>
      </trkpt>
      <trkpt lat="46.70156" lon="-1.95069">
        <ele>5</ele>
        <time>2018-03-08T03:08:47Z</time>
      </trkpt>
      <trkpt lat="46.70156" lon="-1.95089">
        <ele>5</ele>
        <time>2018-03-08T03:09:47Z</time>
      </trkpt>
      <trkpt lat="46.70157" lon="-1.95107">
        <ele>5</ele>
        <time>2018-03-08T03:10:47Z</time>
      </trkpt>
      <trkpt lat="46.70158" lon="-1.95126">
        <ele>6</ele>
        <time>2018-03-08T03:11:47Z</time>
      </trkpt>
      <trkpt lat="46.7016" lon="-1.95145">
        <ele>6</ele>
        <time>2018-03-08T03:12:47Z</time>
      </trkpt>
      <trkpt lat="46.70162" lon="-1.95161">
        <ele>6</ele>
        <time>2018-03-08T03:13:47Z</time>
      </trkpt>
      <trkpt lat="46.70166" lon="-1.95179">
        <ele>6</ele>
        <time>2018-03-08T03:14:47Z</time>
      </trkpt>
      <trkpt lat="46.70167" lon="-1.95198">
        <ele>6</ele>
        <time>2018-03-08T03:15:47Z</time>
      </trkpt>
      <trkpt lat="46.70168" lon="-1.95219">
        <ele>5</ele>
        <time>2018-03-08T03:16:47Z</time>
      </trkpt>
      <trkpt lat="46.70167" lon="-1.95226">
        <ele>5</ele>
        <time>2018-03-08T03:17:47Z</time>
      </trkpt>
      <trkpt lat="46.70167" lon="-1.95232">
        <ele>5</ele>
        <time>2018-03-08T03:18:47Z</time>
      </trkpt>
      <trkpt lat="46.70163" lon="-1.95279">
        <ele>6</ele>
        <time>2018-03-08T03:19:47Z</time>
      </trkpt>
      <trkpt lat="46.70147" lon="-1.95382">
        <ele>8</ele>
        <time>2018-03-08T03:20:47Z</time>
      </trkpt>
      <trkpt lat="46.70142" lon="-1.95447">
        <ele>9</ele>
        <time>2018-03-08T03:21:47Z</time>
      </trkpt>
      <trkpt lat="46.70143" lon="-1.95473">
        <ele>9</ele>
        <time>2018-03-08T03:22:47Z</time>
      </trkpt>
      <trkpt lat="46.70153" lon="-1.9555">
        <ele>10</ele>
        <time>2018-03-08T03:23:47Z</time>
      </trkpt>
      <trkpt lat="46.70163" lon="-1.9561">
        <ele>11</ele>
        <time>2018-03-08T03:24:47Z</time>
      </trkpt>
      <trkpt lat="46.70164" lon="-1.95618">
        <ele>11</ele>
        <time>2018-03-08T03:25:47Z</time>
      </trkpt>
      <trkpt lat="46.70165" lon="-1.95628">
        <ele>11</ele>
        <time>2018-03-08T03:26:47Z</time>
      </trkpt>
      <trkpt lat="46.70166" lon="-1.95633">
        <ele>11</ele>
        <time>2018-03-08T03:27:47Z</time>
      </trkpt>
      <trkpt lat="46.70166" lon="-1.95633">
        <ele>11</ele>
        <time>2018-03-08T03:28:47Z</time>
      </trkpt>
      <trkpt lat="46.70167" lon="-1.95633">
        <ele>11</ele>
        <time>2018-03-08T03:29:47Z</time>
      </trkpt>
      <trkpt lat="46.70168" lon="-1.95634">
        <ele>11</ele>
        <time>2018-03-08T03:30:47Z</time>
      </trkpt>
      <trkpt lat="46.70169" lon="-1.95634">
        <ele>11</ele>
        <time>2018-03-08T03:31:47Z</time>
      </trkpt>
      <trkpt lat="46.70169" lon="-1.95635">
        <ele>11</ele>
        <time>2018-03-08T03:32:47Z</time>
      </trkpt>
      <trkpt lat="46.7017" lon="-1.95636">
        <ele>11</ele>
        <time>2018-03-08T03:33:47Z</time>
      </trkpt>
      <trkpt lat="46.7017" lon="-1.95637">
        <ele>11</ele>
        <time>2018-03-08T03:34:47Z</time>
      </trkpt>
      <trkpt lat="46.7017" lon="-1.95638">
        <ele>11</ele>
        <time>2018-03-08T03:35:47Z</time>
      </trkpt>
      <trkpt lat="46.70171" lon="-1.95638">
        <ele>11</ele>
        <time>2018-03-08T03:36:47Z</time>
      </trkpt>
      <trkpt lat="46.70171" lon="-1.95639">
        <ele>11</ele>
        <time>2018-03-08T03:37:47Z</time>
      </trkpt>
      <trkpt lat="46.70171" lon="-1.9564">
        <ele>11</ele>
        <time>2018-03-08T03:38:47Z</time>
      </trkpt>
      <trkpt lat="46.70171" lon="-1.95641">
        <ele>11</ele>
        <time>2018-03-08T03:39:47Z</time>
      </trkpt>
      <trkpt lat="46.70171" lon="-1.95642">
        <ele>11</ele>
        <time>2018-03-08T03:40:47Z</time>
      </trkpt>
      <trkpt lat="46.70171" lon="-1.95643">
        <ele>11</ele>
        <time>2018-03-08T03:41:47Z</time>
      </trkpt>
      <trkpt lat="46.70171" lon="-1.95644">
        <ele>11</ele>
        <time>2018-03-08T03:42:47Z</time>
      </trkpt>
      <trkpt lat="46.70171" lon="-1.95645">
        <ele>11</ele>
        <time>2018-03-08T03:43:47Z</time>
      </trkpt>
      <trkpt lat="46.70171" lon="-1.95646">
        <ele>11</ele>
        <time>2018-03-08T03:44:47Z</time>
      </trkpt>
      <trkpt lat="46.70171" lon="-1.95647">
        <ele>12</ele>
        <time>2018-03-08T03:45:47Z</time>
      </trkpt>
      <trkpt lat="46.70171" lon="-1.95648">
        <ele>12</ele>
        <time>2018-03-08T03:46:47Z</time>
      </trkpt>
      <trkpt lat="46.7017" lon="-1.95648">
        <ele>12</ele>
        <time>2018-03-08T03:47:47Z</time>
      </trkpt>
      <trkpt lat="46.7017" lon="-1.95649">
        <ele>12</ele>
        <time>2018-03-08T03:48:47Z</time>
      </trkpt>
      <trkpt lat="46.70171" lon="-1.95652">
        <ele>12</ele>
        <time>2018-03-08T03:49:47Z</time>
      </trkpt>
      <trkpt lat="46.70173" lon="-1.95667">
        <ele>12</ele>
        <time>2018-03-08T03:50:47Z</time>
      </trkpt>
      <trkpt lat="46.70175" lon="-1.95682">
        <ele>12</ele>
        <time>2018-03-08T03:51:47Z</time>
      </trkpt>
      <trkpt lat="46.70176" lon="-1.95686">
        <ele>12</ele>
        <time>2018-03-08T03:52:47Z</time>
      </trkpt>
      <trkpt lat="46.70181" lon="-1.95706">
        <ele>12</ele>
        <time>2018-03-08T03:53:47Z</time>
      </trkpt>
      <trkpt lat="46.70187" lon="-1.95726">
        <ele>12</ele>
        <time>2018-03-08T03:54:47Z</time>
      </trkpt>
      <trkpt lat="46.70197" lon="-1.95753">
        <ele>13</ele>
        <time>2018-03-08T03:55:47Z</time>
      </trkpt>
      <trkpt lat="46.70208" lon="-1.95777">
        <ele>12</ele>
        <time>2018-03-08T03:56:47Z</time>
      </trkpt>
      <trkpt lat="46.70217" lon="-1.95794">
        <ele>12</ele>
        <time>2018-03-08T03:57:47Z</time>
      </trkpt>
      <trkpt lat="46.70228" lon="-1.95813">
        <ele>12</ele>
        <time>2018-03-08T03:58:47Z</time>
      </trkpt>
      <trkpt lat="46.70241" lon="-1.95834">
        <ele>12</ele>
        <time>2018-03-08T03:59:47Z</time>
      </trkpt>
      <trkpt lat="46.70256" lon="-1.95852">
        <ele>12</ele>
        <time>2018-03-08T04:00:47Z</time>
      </trkpt>
      <trkpt lat="46.70274" lon="-1.95872">
        <ele>13</ele>
        <time>2018-03-08T04:01:47Z</time>
      </trkpt>
      <trkpt lat="46.70296" lon="-1.95894">
        <ele>13</ele>
        <time>2018-03-08T04:02:47Z</time>
      </trkpt>
      <trkpt lat="46.70302" lon="-1.95899">
        <ele>13</ele>
        <time>2018-03-08T04:03:47Z</time>
      </trkpt>
      <trkpt lat="46.70313" lon="-1.9591">
        <ele>14</ele>
        <time>2018-03-08T04:04:47Z</time>
      </trkpt>
      <trkpt lat="46.70333" lon="-1.95927">
        <ele>14</ele>
        <time>2018-03-08T04:05:47Z</time>
      </trkpt>
      <trkpt lat="46.70345" lon="-1.95938">
        <ele>14</ele>
        <time>2018-03-08T04:06:47Z</time>
      </trkpt>
      <trkpt lat="46.70348" lon="-1.95935">
        <ele>14</ele>
        <time>2018-03-08T04:07:47Z</time>
      </trkpt>
      <trkpt lat="46.7035" lon="-1.95934">
        <ele>14</ele>
        <time>2018-03-08T04:08:47Z</time>
      </trkpt>
      <trkpt lat="46.70352" lon="-1.95934">
        <ele>14</ele>
        <time>2018-03-08T04:09:47Z</time>
      </trkpt>
      <trkpt lat="46.70355" lon="-1.95935">
        <ele>14</ele>
        <time>2018-03-08T04:10:47Z</time>
      </trkpt>
      <trkpt lat="46.70358" lon="-1.95938">
        <ele>15</ele>
        <time>2018-03-08T04:11:47Z</time>
      </trkpt>
      <trkpt lat="46.7036" lon="-1.95943">
        <ele>15</ele>
        <time>2018-03-08T04:12:47Z</time>
      </trkpt>
      <trkpt lat="46.7036" lon="-1.95948">
        <ele>15</ele>
        <time>2018-03-08T04:13:47Z</time>
      </trkpt>
      <trkpt lat="46.70369" lon="-1.95955">
        <ele>15</ele>
        <time>2018-03-08T04:14:47Z</time>
      </trkpt>
      <trkpt lat="46.70393" lon="-1.95972">
        <ele>15</ele>
        <time>2018-03-08T04:15:47Z</time>
      </trkpt>
      <trkpt lat="46.70419" lon="-1.95986">
        <ele>16</ele>
        <time>2018-03-08T04:16:47Z</time>
      </trkpt>
      <trkpt lat="46.70447" lon="-1.96003">
        <ele>16</ele>
        <time>2018-03-08T04:17:47Z</time>
      </trkpt>
      <trkpt lat="46.70475" lon="-1.96016">
        <ele>15</ele>
        <time>2018-03-08T04:18:47Z</time>
      </trkpt>
      <trkpt lat="46.70506" lon="-1.96029">
        <ele>15</ele>
        <time>2018-03-08T04:19:47Z</time>
      </trkpt>
      <trkpt lat="46.70533" lon="-1.96039">
        <ele>16</ele>
        <time>2018-03-08T04:20:47Z</time>
      </trkpt>
      <trkpt lat="46.70555" lon="-1.96046">
        <ele>16</ele>
        <time>2018-03-08T04:21:47Z</time>
      </trkpt>
      <trkpt lat="46.70579" lon="-1.96052">
        <ele>16</ele>
        <time>2018-03-08T04:22:47Z</time>
      </trkpt>
      <trkpt lat="46.70615" lon="-1.96059">
        <ele>16</ele>
        <time>2018-03-08T04:23:47Z</time>
      </trkpt>
      <trkpt lat="46.7063" lon="-1.96062">
        <ele>16</ele>
        <time>2018-03-08T04:24:47Z</time>
      </trkpt>
      <trkpt lat="46.70647" lon="-1.96064">
        <ele>16</ele>
        <time>2018-03-08T04:25:47Z</time>
      </trkpt>
      <trkpt lat="46.70684" lon="-1.96067">
        <ele>16</ele>
        <time>2018-03-08T04:26:47Z</time>
      </trkpt>
      <trkpt lat="46.70717" lon="-1.96071">
        <ele>16</ele>
        <time>2018-03-08T04:27:47Z</time>
      </trkpt>
      <trkpt lat="46.70722" lon="-1.96071">
        <ele>16</ele>
        <time>2018-03-08T04:28:47Z</time>
      </trkpt>
      <trkpt lat="46.70763" lon="-1.96074">
        <ele>16</ele>
        <time>2018-03-08T04:29:47Z</time>
      </trkpt>
      <trkpt lat="46.7081" lon="-1.96079">
        <ele>15</ele>
        <time>2018-03-08T04:30:47Z</time>
      </trkpt>
      <trkpt lat="46.70848" lon="-1.96082">
        <ele>15</ele>
        <time>2018-03-08T04:31:47Z</time>
      </trkpt>
      <trkpt lat="46.70896" lon="-1.96087">
        <ele>16</ele>
        <time>2018-03-08T04:32:47Z</time>
      </trkpt>
      <trkpt lat="46.7092" lon="-1.9609">
        <ele>16</ele>
        <time>2018-03-08T04:33:47Z</time>
      </trkpt>
      <trkpt lat="46.70938" lon="-1.96092">
        <ele>16</ele>
        <time>2018-03-08T04:34:47Z</time>
      </trkpt>
      <trkpt lat="46.70954" lon="-1.96093">
        <ele>16</ele>
        <time>2018-03-08T04:35:47Z</time>
      </trkpt>
      <trkpt lat="46.70967" lon="-1.96095">
        <ele>16</ele>
        <time>2018-03-08T04:36:47Z</time>
      </trkpt>
      <trkpt lat="46.70967" lon="-1.96095">
        <ele>16</ele>
        <time>2018-03-08T04:37:47Z</time>
      </trkpt>
      <trkpt lat="46.70968" lon="-1.9609">
        <ele>16</ele>
        <time>2018-03-08T04:38:47Z</time>
      </trkpt>
      <trkpt lat="46.7097" lon="-1.96085">
        <ele>17</ele>
        <time>2018-03-08T04:39:47Z</time>
      </trkpt>
      <trkpt lat="46.70972" lon="-1.96082">
        <ele>17</ele>
        <time>2018-03-08T04:40:47Z</time>
      </trkpt>
      <trkpt lat="46.70975" lon="-1.9608">
        <ele>17</ele>
        <time>2018-03-08T04:41:47Z</time>
      </trkpt>
      <trkpt lat="46.7098" lon="-1.9608">
        <ele>17</ele>
        <time>2018-03-08T04:42:47Z</time>
      </trkpt>
      <trkpt lat="46.70984" lon="-1.96081">
        <ele>17</ele>
        <time>2018-03-08T04:43:47Z</time>
      </trkpt>
      <trkpt lat="46.70987" lon="-1.96084">
        <ele>17</ele>
        <time>2018-03-08T04:44:47Z</time>
      </trkpt>
      <trkpt lat="46.70989" lon="-1.96088">
        <ele>17</ele>
        <time>2018-03-08T04:45:47Z</time>
      </trkpt>
      <trkpt lat="46.70991" lon="-1.96094">
        <ele>16</ele>
        <time>2018-03-08T04:46:47Z</time>
      </trkpt>
      <trkpt lat="46.70991" lon="-1.96098">
        <ele>16</ele>
        <time>2018-03-08T04:47:47Z</time>
      </trkpt>
      <trkpt lat="46.7099" lon="-1.96103">
        <ele>16</ele>
        <time>2018-03-08T04:48:47Z</time>
      </trkpt>
      <trkpt lat="46.70987" lon="-1.96109">
        <ele>16</ele>
        <time>2018-03-08T04:49:47Z</time>
      </trkpt>
      <trkpt lat="46.70984" lon="-1.96112">
        <ele>16</ele>
        <time>2018-03-08T04:50:47Z</time>
      </trkpt>
      <trkpt lat="46.70982" lon="-1.96114">
        <ele>15</ele>
        <time>2018-03-08T04:51:47Z</time>
      </trkpt>
      <trkpt lat="46.70977" lon="-1.96114">
        <ele>15</ele>
        <time>2018-03-08T04:52:47Z</time>
      </trkpt>
      <trkpt lat="46.70976" lon="-1.96124">
        <ele>15</ele>
        <time>2018-03-08T04:53:47Z</time>
      </trkpt>
      <trkpt lat="46.70976" lon="-1.96132">
        <ele>15</ele>
        <time>2018-03-08T04:54:47Z</time>
      </trkpt>
      <trkpt lat="46.70977" lon="-1.96155">
        <ele>14</ele>
        <time>2018-03-08T04:55:47Z</time>
      </trkpt>
      <trkpt lat="46.70978" lon="-1.96188">
        <ele>13</ele>
        <time>2018-03-08T04:56:47Z</time>
      </trkpt>
      <trkpt lat="46.70978" lon="-1.96214">
        <ele>13</ele>
        <time>2018-03-08T04:57:47Z</time>
      </trkpt>
      <trkpt lat="46.70978" lon="-1.96247">
        <ele>13</ele>
        <time>2018-03-08T04:58:47Z</time>
      </trkpt>
      <trkpt lat="46.70979" lon="-1.96277">
        <ele>13</ele>
        <time>2018-03-08T04:59:47Z</time>
      </trkpt>
      <trkpt lat="46.70979" lon="-1.96306">
        <ele>13</ele>
        <time>2018-03-08T05:00:47Z</time>
      </trkpt>
      <trkpt lat="46.70978" lon="-1.9633">
        <ele>13</ele>
        <time>2018-03-08T05:01:47Z</time>
      </trkpt>
      <trkpt lat="46.70976" lon="-1.96356">
        <ele>13</ele>
        <time>2018-03-08T05:02:47Z</time>
      </trkpt>
      <trkpt lat="46.70975" lon="-1.96369">
        <ele>13</ele>
        <time>2018-03-08T05:03:47Z</time>
      </trkpt>
      <trkpt lat="46.70972" lon="-1.96386">
        <ele>13</ele>
        <time>2018-03-08T05:04:47Z</time>
      </trkpt>
      <trkpt lat="46.70969" lon="-1.96404">
        <ele>14</ele>
        <time>2018-03-08T05:05:47Z</time>
      </trkpt>
      <trkpt lat="46.70966" lon="-1.96422">
        <ele>14</ele>
        <time>2018-03-08T05:06:47Z</time>
      </trkpt>
      <trkpt lat="46.70963" lon="-1.96436">
        <ele>14</ele>
        <time>2018-03-08T05:07:47Z</time>
      </trkpt>
      <trkpt lat="46.70959" lon="-1.96453">
        <ele>14</ele>
        <time>2018-03-08T05:08:47Z</time>
      </trkpt>
      <trkpt lat="46.70955" lon="-1.9647">
        <ele>14</ele>
        <time>2018-03-08T05:09:47Z</time>
      </trkpt>
      <trkpt lat="46.7095" lon="-1.96493">
        <ele>14</ele>
        <time>2018-03-08T05:10:47Z</time>
      </trkpt>
      <trkpt lat="46.70946" lon="-1.96512">
        <ele>14</ele>
        <time>2018-03-08T05:11:47Z</time>
      </trkpt>
      <trkpt lat="46.70942" lon="-1.96531">
        <ele>13</ele>
        <time>2018-03-08T05:12:47Z</time>
      </trkpt>
      <trkpt lat="46.7094" lon="-1.96544">
        <ele>13</ele>
        <time>2018-03-08T05:13:47Z</time>
      </trkpt>
      <trkpt lat="46.70938" lon="-1.96557">
        <ele>13</ele>
        <time>2018-03-08T05:14:47Z</time>
      </trkpt>
      <trkpt lat="46.70938" lon="-1.96567">
        <ele>13</ele>
        <time>2018-03-08T05:15:47Z</time>
      </trkpt>
      <trkpt lat="46.70938" lon="-1.96578">
        <ele>13</ele>
        <time>2018-03-08T05:16:47Z</time>
      </trkpt>
      <trkpt lat="46.70939" lon="-1.96593">
        <ele>13</ele>
        <time>2018-03-08T05:17:47Z</time>
      </trkpt>
      <trkpt lat="46.70941" lon="-1.96605">
        <ele>13</ele>
        <time>2018-03-08T05:18:47Z</time>
      </trkpt>
      <trkpt lat="46.70943" lon="-1.96619">
        <ele>13</ele>
        <time>2018-03-08T05:19:47Z</time>
      </trkpt>
      <trkpt lat="46.70947" lon="-1.9663">
        <ele>13</ele>
        <time>2018-03-08T05:20:47Z</time>
      </trkpt>
      <trkpt lat="46.7095" lon="-1.9664">
        <ele>13</ele>
        <time>2018-03-08T05:21:47Z</time>
      </trkpt>
      <trkpt lat="46.70955" lon="-1.96651">
        <ele>13</ele>
        <time>2018-03-08T05:22:47Z</time>
      </trkpt>
      <trkpt lat="46.70963" lon="-1.96669">
        <ele>13</ele>
        <time>2018-03-08T05:23:47Z</time>
      </trkpt>
      <trkpt lat="46.70969" lon="-1.96685">
        <ele>13</ele>
        <time>2018-03-08T05:24:47Z</time>
      </trkpt>
      <trkpt lat="46.70973" lon="-1.96697">
        <ele>13</ele>
        <time>2018-03-08T05:25:47Z</time>
      </trkpt>
      <trkpt lat="46.70976" lon="-1.96705">
        <ele>13</ele>
        <time>2018-03-08T05:26:47Z</time>
      </trkpt>
      <trkpt lat="46.70981" lon="-1.96714">
        <ele>13</ele>
        <time>2018-03-08T05:27:47Z</time>
      </trkpt>
      <trkpt lat="46.70982" lon="-1.96719">
        <ele>13</ele>
        <time>2018-03-08T05:28:47Z</time>
      </trkpt>
      <trkpt lat="46.70988" lon="-1.96726">
        <ele>13</ele>
        <time>2018-03-08T05:29:47Z</time>
      </trkpt>
      <trkpt lat="46.70991" lon="-1.96733">
        <ele>13</ele>
        <time>2018-03-08T05:30:47Z</time>
      </trkpt>
      <trkpt lat="46.70992" lon="-1.96736">
        <ele>13</ele>
        <time>2018-03-08T05:31:47Z</time>
      </trkpt>
      <trkpt lat="46.70995" lon="-1.96741">
        <ele>13</ele>
        <time>2018-03-08T05:32:47Z</time>
      </trkpt>
      <trkpt lat="46.70998" lon="-1.96744">
        <ele>13</ele>
        <time>2018-03-08T05:33:47Z</time>
      </trkpt>
      <trkpt lat="46.71001" lon="-1.96747">
        <ele>13</ele>
        <time>2018-03-08T05:34:47Z</time>
      </trkpt>
      <trkpt lat="46.71001" lon="-1.96747">
        <ele>13</ele>
        <time>2018-03-08T05:35:47Z</time>
      </trkpt>
      <trkpt lat="46.71005" lon="-1.96746">
        <ele>13</ele>
        <time>2018-03-08T05:36:47Z</time>
      </trkpt>
      <trkpt lat="46.71009" lon="-1.96746">
        <ele>13</ele>
        <time>2018-03-08T05:37:47Z</time>
      </trkpt>
      <trkpt lat="46.71013" lon="-1.96746">
        <ele>13</ele>
        <time>2018-03-08T05:38:47Z</time>
      </trkpt>
      <trkpt lat="46.71016" lon="-1.96749">
        <ele>13</ele>
        <time>2018-03-08T05:39:47Z</time>
      </trkpt>
      <trkpt lat="46.71023" lon="-1.96757">
        <ele>13</ele>
        <time>2018-03-08T05:40:47Z</time>
      </trkpt>
      <trkpt lat="46.71029" lon="-1.96761">
        <ele>13</ele>
        <time>2018-03-08T05:41:47Z</time>
      </trkpt>
      <trkpt lat="46.71034" lon="-1.96764">
        <ele>13</ele>
        <time>2018-03-08T05:42:47Z</time>
      </trkpt>
      <trkpt lat="46.71039" lon="-1.96766">
        <ele>13</ele>
        <time>2018-03-08T05:43:47Z</time>
      </trkpt>
      <trkpt lat="46.71065" lon="-1.96766">
        <ele>14</ele>
        <time>2018-03-08T05:44:47Z</time>
      </trkpt>
      <trkpt lat="46.71081" lon="-1.96765">
        <ele>14</ele>
        <time>2018-03-08T05:45:47Z</time>
      </trkpt>
      <trkpt lat="46.71128" lon="-1.96765">
        <ele>14</ele>
        <time>2018-03-08T05:46:47Z</time>
      </trkpt>
      <trkpt lat="46.71179" lon="-1.96765">
        <ele>15</ele>
        <time>2018-03-08T05:47:47Z</time>
      </trkpt>
      <trkpt lat="46.71215" lon="-1.96763">
        <ele>15</ele>
        <time>2018-03-08T05:48:47Z</time>
      </trkpt>
      <trkpt lat="46.71239" lon="-1.96763">
        <ele>15</ele>
        <time>2018-03-08T05:49:47Z</time>
      </trkpt>
      <trkpt lat="46.71248" lon="-1.9676">
        <ele>15</ele>
        <time>2018-03-08T05:50:47Z</time>
      </trkpt>
      <trkpt lat="46.71248" lon="-1.9676">
        <ele>15</ele>
        <time>2018-03-08T05:51:47Z</time>
      </trkpt>
      <trkpt lat="46.71268" lon="-1.96753">
        <ele>15</ele>
        <time>2018-03-08T05:52:47Z</time>
      </trkpt>
      <trkpt lat="46.7128" lon="-1.96751">
        <ele>16</ele>
        <time>2018-03-08T05:53:47Z</time>
      </trkpt>
      <trkpt lat="46.71292" lon="-1.9675">
        <ele>16</ele>
        <time>2018-03-08T05:54:47Z</time>
      </trkpt>
      <trkpt lat="46.713" lon="-1.9675">
        <ele>16</ele>
        <time>2018-03-08T05:55:47Z</time>
      </trkpt>
      <trkpt lat="46.7131" lon="-1.96749">
        <ele>16</ele>
        <time>2018-03-08T05:56:47Z</time>
      </trkpt>
      <trkpt lat="46.7132" lon="-1.9675">
        <ele>17</ele>
        <time>2018-03-08T05:57:47Z</time>
      </trkpt>
      <trkpt lat="46.71332" lon="-1.96753">
        <ele>17</ele>
        <time>2018-03-08T05:58:47Z</time>
      </trkpt>
      <trkpt lat="46.71348" lon="-1.96755">
        <ele>16</ele>
        <time>2018-03-08T05:59:47Z</time>
      </trkpt>
      <trkpt lat="46.71362" lon="-1.96758">
        <ele>16</ele>
        <time>2018-03-08T06:00:47Z</time>
      </trkpt>
      <trkpt lat="46.7137" lon="-1.96762">
        <ele>15</ele>
        <time>2018-03-08T06:01:47Z</time>
      </trkpt>
      <trkpt lat="46.71382" lon="-1.96767">
        <ele>15</ele>
        <time>2018-03-08T06:02:47Z</time>
      </trkpt>
      <trkpt lat="46.71395" lon="-1.96774">
        <ele>14</ele>
        <time>2018-03-08T06:03:47Z</time>
      </trkpt>
      <trkpt lat="46.71403" lon="-1.96777">
        <ele>14</ele>
        <time>2018-03-08T06:04:47Z</time>
      </trkpt>
      <trkpt lat="46.71403" lon="-1.96777">
        <ele>14</ele>
        <time>2018-03-08T06:05:47Z</time>
      </trkpt>
      <trkpt lat="46.71424" lon="-1.96783">
        <ele>13</ele>
        <time>2018-03-08T06:06:47Z</time>
      </trkpt>
      <trkpt lat="46.71442" lon="-1.96789">
        <ele>13</ele>
        <time>2018-03-08T06:07:47Z</time>
      </trkpt>
      <trkpt lat="46.71474" lon="-1.96801">
        <ele>13</ele>
        <time>2018-03-08T06:08:47Z</time>
      </trkpt>
      <trkpt lat="46.71496" lon="-1.96806">
        <ele>13</ele>
        <time>2018-03-08T06:09:47Z</time>
      </trkpt>
      <trkpt lat="46.71528" lon="-1.96807">
        <ele>14</ele>
        <time>2018-03-08T06:10:47Z</time>
      </trkpt>
      <trkpt lat="46.71543" lon="-1.96807">
        <ele>14</ele>
        <time>2018-03-08T06:11:47Z</time>
      </trkpt>
      <trkpt lat="46.71558" lon="-1.96809">
        <ele>14</ele>
        <time>2018-03-08T06:12:47Z</time>
      </trkpt>
      <trkpt lat="46.71571" lon="-1.9681">
        <ele>14</ele>
        <time>2018-03-08T06:13:47Z</time>
      </trkpt>
      <trkpt lat="46.71581" lon="-1.96809">
        <ele>14</ele>
        <time>2018-03-08T06:14:47Z</time>
      </trkpt>
      <trkpt lat="46.71587" lon="-1.96807">
        <ele>14</ele>
        <time>2018-03-08T06:15:47Z</time>
      </trkpt>
      <trkpt lat="46.71593" lon="-1.96805">
        <ele>14</ele>
        <time>2018-03-08T06:16:47Z</time>
      </trkpt>
      <trkpt lat="46.71598" lon="-1.96802">
        <ele>14</ele>
        <time>2018-03-08T06:17:47Z</time>
      </trkpt>
      <trkpt lat="46.71615" lon="-1.96791">
        <ele>14</ele>
        <time>2018-03-08T06:18:47Z</time>
      </trkpt>
      <trkpt lat="46.71634" lon="-1.9678">
        <ele>14</ele>
        <time>2018-03-08T06:19:47Z</time>
      </trkpt>
      <trkpt lat="46.71643" lon="-1.96776">
        <ele>14</ele>
        <time>2018-03-08T06:20:47Z</time>
      </trkpt>
      <trkpt lat="46.7165" lon="-1.96775">
        <ele>14</ele>
        <time>2018-03-08T06:21:47Z</time>
      </trkpt>
      <trkpt lat="46.71657" lon="-1.96774">
        <ele>14</ele>
        <time>2018-03-08T06:22:47Z</time>
      </trkpt>
      <trkpt lat="46.71664" lon="-1.96774">
        <ele>14</ele>
        <time>2018-03-08T06:23:47Z</time>
      </trkpt>
      <trkpt lat="46.71672" lon="-1.96774">
        <ele>14</ele>
        <time>2018-03-08T06:24:47Z</time>
      </trkpt>
      <trkpt lat="46.7168" lon="-1.96777">
        <ele>14</ele>
        <time>2018-03-08T06:25:47Z</time>
      </trkpt>
      <trkpt lat="46.71689" lon="-1.96781">
        <ele>14</ele>
        <time>2018-03-08T06:26:47Z</time>
      </trkpt>
      <trkpt lat="46.71699" lon="-1.96786">
        <ele>13</ele>
        <time>2018-03-08T06:27:47Z</time>
      </trkpt>
      <trkpt lat="46.71712" lon="-1.96794">
        <ele>13</ele>
        <time>2018-03-08T06:28:47Z</time>
      </trkpt>
      <trkpt lat="46.71726" lon="-1.96803">
        <ele>13</ele>
        <time>2018-03-08T06:29:47Z</time>
      </trkpt>
      <trkpt lat="46.71738" lon="-1.96811">
        <ele>13</ele>
        <time>2018-03-08T06:30:47Z</time>
      </trkpt>
      <trkpt lat="46.71747" lon="-1.96817">
        <ele>13</ele>
        <time>2018-03-08T06:31:47Z</time>
      </trkpt>
      <trkpt lat="46.71755" lon="-1.9682">
        <ele>13</ele>
        <time>2018-03-08T06:32:47Z</time>
      </trkpt>
      <trkpt lat="46.71767" lon="-1.96825">
        <ele>13</ele>
        <time>2018-03-08T06:33:47Z</time>
      </trkpt>
      <trkpt lat="46.71781" lon="-1.9683">
        <ele>13</ele>
        <time>2018-03-08T06:34:47Z</time>
      </trkpt>
      <trkpt lat="46.71796" lon="-1.96835">
        <ele>14</ele>
        <time>2018-03-08T06:35:47Z</time>
      </trkpt>
      <trkpt lat="46.71808" lon="-1.96839">
        <ele>14</ele>
        <time>2018-03-08T06:36:47Z</time>
      </trkpt>
      <trkpt lat="46.71812" lon="-1.96843">
        <ele>14</ele>
        <time>2018-03-08T06:37:47Z</time>
      </trkpt>
      <trkpt lat="46.71812" lon="-1.96843">
        <ele>14</ele>
        <time>2018-03-08T06:38:47Z</time>
      </trkpt>
      <trkpt lat="46.71829" lon="-1.96851">
        <ele>14</ele>
        <time>2018-03-08T06:39:47Z</time>
      </trkpt>
      <trkpt lat="46.71835" lon="-1.96855">
        <ele>14</ele>
        <time>2018-03-08T06:40:47Z</time>
      </trkpt>
      <trkpt lat="46.71855" lon="-1.96862">
        <ele>15</ele>
        <time>2018-03-08T06:41:47Z</time>
      </trkpt>
      <trkpt lat="46.71856" lon="-1.96862">
        <ele>15</ele>
        <time>2018-03-08T06:42:47Z</time>
      </trkpt>
      <trkpt lat="46.7186" lon="-1.96864">
        <ele>15</ele>
        <time>2018-03-08T06:43:47Z</time>
      </trkpt>
      <trkpt lat="46.71865" lon="-1.96867">
        <ele>15</ele>
        <time>2018-03-08T06:44:47Z</time>
      </trkpt>
      <trkpt lat="46.71872" lon="-1.96873">
        <ele>15</ele>
        <time>2018-03-08T06:45:47Z</time>
      </trkpt>
      <trkpt lat="46.71883" lon="-1.96894">
        <ele>15</ele>
        <time>2018-03-08T06:46:47Z</time>
      </trkpt>
      <trkpt lat="46.7189" lon="-1.96905">
        <ele>15</ele>
        <time>2018-03-08T06:47:47Z</time>
      </trkpt>
      <trkpt lat="46.71919" lon="-1.96958">
        <ele>15</ele>
        <time>2018-03-08T06:48:47Z</time>
      </trkpt>
      <trkpt lat="46.7193" lon="-1.96978">
        <ele>15</ele>
        <time>2018-03-08T06:49:47Z</time>
      </trkpt>
      <trkpt lat="46.71944" lon="-1.97005">
        <ele>14</ele>
        <time>2018-03-08T06:50:47Z</time>
      </trkpt>
      <trkpt lat="46.71969" lon="-1.97055">
        <ele>13</ele>
        <time>2018-03-08T06:51:47Z</time>
      </trkpt>
      <trkpt lat="46.7199" lon="-1.97098">
        <ele>12</ele>
        <time>2018-03-08T06:52:47Z</time>
      </trkpt>
      <trkpt lat="46.71999" lon="-1.97111">
        <ele>11</ele>
        <time>2018-03-08T06:53:47Z</time>
      </trkpt>
      <trkpt lat="46.72012" lon="-1.97137">
        <ele>11</ele>
        <time>2018-03-08T06:54:47Z</time>
      </trkpt>
      <trkpt lat="46.72045" lon="-1.972">
        <ele>10</ele>
        <time>2018-03-08T06:55:47Z</time>
      </trkpt>
      <trkpt lat="46.72062" lon="-1.97231">
        <ele>10</ele>
        <time>2018-03-08T06:56:47Z</time>
      </trkpt>
      <trkpt lat="46.72092" lon="-1.97285">
        <ele>9</ele>
        <time>2018-03-08T06:57:47Z</time>
      </trkpt>
      <trkpt lat="46.72114" lon="-1.97324">
        <ele>9</ele>
        <time>2018-03-08T06:58:47Z</time>
      </trkpt>
      <trkpt lat="46.72132" lon="-1.97353">
        <ele>10</ele>
        <time>2018-03-08T06:59:47Z</time>
      </trkpt>
      <trkpt lat="46.72144" lon="-1.97376">
        <ele>10</ele>
        <time>2018-03-08T07:00:47Z</time>
      </trkpt>
      <trkpt lat="46.72182" lon="-1.97442">
        <ele>10</ele>
        <time>2018-03-08T07:01:47Z</time>
      </trkpt>
      <trkpt lat="46.72229" lon="-1.97523">
        <ele>11</ele>
        <time>2018-03-08T07:02:47Z</time>
      </trkpt>
      <trkpt lat="46.72252" lon="-1.97565">
        <ele>12</ele>
        <time>2018-03-08T07:03:47Z</time>
      </trkpt>
      <trkpt lat="46.72268" lon="-1.97595">
        <ele>12</ele>
        <time>2018-03-08T07:04:47Z</time>
      </trkpt>
      <trkpt lat="46.72278" lon="-1.97612">
        <ele>12</ele>
        <time>2018-03-08T07:05:47Z</time>
      </trkpt>
      <trkpt lat="46.72306" lon="-1.97664">
        <ele>11</ele>
        <time>2018-03-08T07:06:47Z</time>
      </trkpt>
      <trkpt lat="46.72345" lon="-1.97737">
        <ele>9</ele>
        <time>2018-03-08T07:07:47Z</time>
      </trkpt>
      <trkpt lat="46.72381" lon="-1.97799">
        <ele>8</ele>
        <time>2018-03-08T07:08:47Z</time>
      </trkpt>
      <trkpt lat="46.72387" lon="-1.97802">
        <ele>7</ele>
        <time>2018-03-08T07:09:47Z</time>
      </trkpt>
      <trkpt lat="46.72403" lon="-1.97824">
        <ele>7</ele>
        <time>2018-03-08T07:10:47Z</time>
      </trkpt>
      <trkpt lat="46.72404" lon="-1.97824">
        <ele>7</ele>
        <time>2018-03-08T07:11:47Z</time>
      </trkpt>
      <trkpt lat="46.72405" lon="-1.97824">
        <ele>7</ele>
        <time>2018-03-08T07:12:47Z</time>
      </trkpt>
      <trkpt lat="46.72406" lon="-1.97824">
        <ele>6</ele>
        <time>2018-03-08T07:13:47Z</time>
      </trkpt>
      <trkpt lat="46.72407" lon="-1.97824">
        <ele>6</ele>
        <time>2018-03-08T07:14:47Z</time>
      </trkpt>
      <trkpt lat="46.72407" lon="-1.97825">
        <ele>6</ele>
        <time>2018-03-08T07:15:47Z</time>
      </trkpt>
      <trkpt lat="46.72408" lon="-1.97825">
        <ele>6</ele>
        <time>2018-03-08T07:16:47Z</time>
      </trkpt>
      <trkpt lat="46.72408" lon="-1.97826">
        <ele>6</ele>
        <time>2018-03-08T07:17:47Z</time>
      </trkpt>
      <trkpt lat="46.72409" lon="-1.97826">
        <ele>6</ele>
        <time>2018-03-08T07:18:47Z</time>
      </trkpt>
      <trkpt lat="46.72409" lon="-1.97827">
        <ele>6</ele>
        <time>2018-03-08T07:19:47Z</time>
      </trkpt>
      <trkpt lat="46.7241" lon="-1.97827">
        <ele>6</ele>
        <time>2018-03-08T07:20:47Z</time>
      </trkpt>
      <trkpt lat="46.7241" lon="-1.97828">
        <ele>6</ele>
        <time>2018-03-08T07:21:47Z</time>
      </trkpt>
      <trkpt lat="46.72411" lon="-1.97829">
        <ele>6</ele>
        <time>2018-03-08T07:22:47Z</time>
      </trkpt>
      <trkpt lat="46.72411" lon="-1.9783">
        <ele>6</ele>
        <time>2018-03-08T07:23:47Z</time>
      </trkpt>
      <trkpt lat="46.72412" lon="-1.97831">
        <ele>6</ele>
        <time>2018-03-08T07:24:47Z</time>
      </trkpt>
      <trkpt lat="46.72412" lon="-1.97832">
        <ele>6</ele>
        <time>2018-03-08T07:25:47Z</time>
      </trkpt>
      <trkpt lat="46.72412" lon="-1.97833">
        <ele>6</ele>
        <time>2018-03-08T07:26:47Z</time>
      </trkpt>
      <trkpt lat="46.72412" lon="-1.97834">
        <ele>6</ele>
        <time>2018-03-08T07:27:47Z</time>
      </trkpt>
      <trkpt lat="46.72412" lon="-1.97835">
        <ele>6</ele>
        <time>2018-03-08T07:28:47Z</time>
      </trkpt>
      <trkpt lat="46.72412" lon="-1.97836">
        <ele>6</ele>
        <time>2018-03-08T07:29:47Z</time>
      </trkpt>
      <trkpt lat="46.72412" lon="-1.97837">
        <ele>6</ele>
        <time>2018-03-08T07:30:47Z</time>
      </trkpt>
      <trkpt lat="46.72412" lon="-1.97838">
        <ele>6</ele>
        <time>2018-03-08T07:31:47Z</time>
      </trkpt>
      <trkpt lat="46.72412" lon="-1.97839">
        <ele>6</ele>
        <time>2018-03-08T07:32:47Z</time>
      </trkpt>
      <trkpt lat="46.72412" lon="-1.9784">
        <ele>6</ele>
        <time>2018-03-08T07:33:47Z</time>
      </trkpt>
      <trkpt lat="46.72425" lon="-1.97862">
        <ele>7</ele>
        <time>2018-03-08T07:34:47Z</time>
      </trkpt>
      <trkpt lat="46.72429" lon="-1.97876">
        <ele>7</ele>
        <time>2018-03-08T07:35:47Z</time>
      </trkpt>
      <trkpt lat="46.72432" lon="-1.97882">
        <ele>8</ele>
        <time>2018-03-08T07:36:47Z</time>
      </trkpt>
      <trkpt lat="46.72448" lon="-1.97908">
        <ele>8</ele>
        <time>2018-03-08T07:37:47Z</time>
      </trkpt>
      <trkpt lat="46.7247" lon="-1.97935">
        <ele>8</ele>
        <time>2018-03-08T07:38:47Z</time>
      </trkpt>
      <trkpt lat="46.7248" lon="-1.97945">
        <ele>8</ele>
        <time>2018-03-08T07:39:47Z</time>
      </trkpt>
      <trkpt lat="46.7249" lon="-1.97955">
        <ele>8</ele>
        <time>2018-03-08T07:40:47Z</time>
      </trkpt>
      <trkpt lat="46.72513" lon="-1.97975">
        <ele>8</ele>
        <time>2018-03-08T07:41:47Z</time>
      </trkpt>
      <trkpt lat="46.7254" lon="-1.97993">
        <ele>8</ele>
        <time>2018-03-08T07:42:47Z</time>
      </trkpt>
      <trkpt lat="46.72577" lon="-1.98018">
        <ele>8</ele>
        <time>2018-03-08T07:43:47Z</time>
      </trkpt>
      <trkpt lat="46.72619" lon="-1.98047">
        <ele>9</ele>
        <time>2018-03-08T07:44:47Z</time>
      </trkpt>
      <trkpt lat="46.72667" lon="-1.98081">
        <ele>10</ele>
        <time>2018-03-08T07:45:47Z</time>
      </trkpt>
      <trkpt lat="46.72704" lon="-1.98105">
        <ele>11</ele>
        <time>2018-03-08T07:46:47Z</time>
      </trkpt>
      <trkpt lat="46.72722" lon="-1.98115">
        <ele>11</ele>
        <time>2018-03-08T07:47:47Z</time>
      </trkpt>
      <trkpt lat="46.72738" lon="-1.98124">
        <ele>11</ele>
        <time>2018-03-08T07:48:47Z</time>
      </trkpt>
      <trkpt lat="46.72753" lon="-1.98131">
        <ele>11</ele>
        <time>2018-03-08T07:49:47Z</time>
      </trkpt>
      <trkpt lat="46.72761" lon="-1.98134">
        <ele>11</ele>
        <time>2018-03-08T07:50:47Z</time>
      </trkpt>
      <trkpt lat="46.72778" lon="-1.98142">
        <ele>10</ele>
        <time>2018-03-08T07:51:47Z</time>
      </trkpt>
      <trkpt lat="46.72793" lon="-1.98149">
        <ele>10</ele>
        <time>2018-03-08T07:52:47Z</time>
      </trkpt>
      <trkpt lat="46.72817" lon="-1.98158">
        <ele>9</ele>
        <time>2018-03-08T07:53:47Z</time>
      </trkpt>
      <trkpt lat="46.72862" lon="-1.98176">
        <ele>9</ele>
        <time>2018-03-08T07:54:47Z</time>
      </trkpt>
      <trkpt lat="46.72964" lon="-1.98218">
        <ele>11</ele>
        <time>2018-03-08T07:55:47Z</time>
      </trkpt>
      <trkpt lat="46.73021" lon="-1.98242">
        <ele>10</ele>
        <time>2018-03-08T07:56:47Z</time>
      </trkpt>
      <trkpt lat="46.73054" lon="-1.98256">
        <ele>11</ele>
        <time>2018-03-08T07:57:47Z</time>
      </trkpt>
      <trkpt lat="46.7307" lon="-1.98262">
        <ele>11</ele>
        <time>2018-03-08T07:58:47Z</time>
      </trkpt>
      <trkpt lat="46.73092" lon="-1.98272">
        <ele>11</ele>
        <time>2018-03-08T07:59:47Z</time>
      </trkpt>
      <trkpt lat="46.73108" lon="-1.98278">
        <ele>11</ele>
        <time>2018-03-08T08:00:47Z</time>
      </trkpt>
      <trkpt lat="46.73123" lon="-1.98284">
        <ele>11</ele>
        <time>2018-03-08T08:01:47Z</time>
      </trkpt>
      <trkpt lat="46.73138" lon="-1.98291">
        <ele>12</ele>
        <time>2018-03-08T08:02:47Z</time>
      </trkpt>
      <trkpt lat="46.73152" lon="-1.98299">
        <ele>12</ele>
        <time>2018-03-08T08:03:47Z</time>
      </trkpt>
      <trkpt lat="46.73162" lon="-1.98305">
        <ele>12</ele>
        <time>2018-03-08T08:04:47Z</time>
      </trkpt>
      <trkpt lat="46.73174" lon="-1.98312">
        <ele>12</ele>
        <time>2018-03-08T08:05:47Z</time>
      </trkpt>
      <trkpt lat="46.7319" lon="-1.98325">
        <ele>12</ele>
        <time>2018-03-08T08:06:47Z</time>
      </trkpt>
      <trkpt lat="46.73213" lon="-1.98346">
        <ele>11</ele>
        <time>2018-03-08T08:07:47Z</time>
      </trkpt>
      <trkpt lat="46.73238" lon="-1.9837">
        <ele>11</ele>
        <time>2018-03-08T08:08:47Z</time>
      </trkpt>
      <trkpt lat="46.73263" lon="-1.98394">
        <ele>10</ele>
        <time>2018-03-08T08:09:47Z</time>
      </trkpt>
      <trkpt lat="46.73291" lon="-1.9842">
        <ele>10</ele>
        <time>2018-03-08T08:10:47Z</time>
      </trkpt>
      <trkpt lat="46.73318" lon="-1.98447">
        <ele>10</ele>
        <time>2018-03-08T08:11:47Z</time>
      </trkpt>
      <trkpt lat="46.73336" lon="-1.98466">
        <ele>10</ele>
        <time>2018-03-08T08:12:47Z</time>
      </trkpt>
      <trkpt lat="46.73347" lon="-1.98478">
        <ele>10</ele>
        <time>2018-03-08T08:13:47Z</time>
      </trkpt>
      <trkpt lat="46.73356" lon="-1.9849">
        <ele>9</ele>
        <time>2018-03-08T08:14:47Z</time>
      </trkpt>
      <trkpt lat="46.73362" lon="-1.98501">
        <ele>9</ele>
        <time>2018-03-08T08:15:47Z</time>
      </trkpt>
      <trkpt lat="46.73369" lon="-1.98518">
        <ele>9</ele>
        <time>2018-03-08T08:16:47Z</time>
      </trkpt>
      <trkpt lat="46.73375" lon="-1.98535">
        <ele>9</ele>
        <time>2018-03-08T08:17:47Z</time>
      </trkpt>
      <trkpt lat="46.7338" lon="-1.98549">
        <ele>9</ele>
        <time>2018-03-08T08:18:47Z</time>
      </trkpt>
      <trkpt lat="46.73383" lon="-1.98564">
        <ele>9</ele>
        <time>2018-03-08T08:19:47Z</time>
      </trkpt>
      <trkpt lat="46.73386" lon="-1.98577">
        <ele>9</ele>
        <time>2018-03-08T08:20:47Z</time>
      </trkpt>
      <trkpt lat="46.73387" lon="-1.98593">
        <ele>9</ele>
        <time>2018-03-08T08:21:47Z</time>
      </trkpt>
      <trkpt lat="46.73388" lon="-1.9861">
        <ele>9</ele>
        <time>2018-03-08T08:22:47Z</time>
      </trkpt>
      <trkpt lat="46.73389" lon="-1.98623">
        <ele>9</ele>
        <time>2018-03-08T08:23:47Z</time>
      </trkpt>
      <trkpt lat="46.73389" lon="-1.98633">
        <ele>9</ele>
        <time>2018-03-08T08:24:47Z</time>
      </trkpt>
      <trkpt lat="46.73389" lon="-1.98637">
        <ele>9</ele>
        <time>2018-03-08T08:25:47Z</time>
      </trkpt>
      <trkpt lat="46.73392" lon="-1.98653">
        <ele>9</ele>
        <time>2018-03-08T08:26:47Z</time>
      </trkpt>
      <trkpt lat="46.73393" lon="-1.9866">
        <ele>9</ele>
        <time>2018-03-08T08:27:47Z</time>
      </trkpt>
      <trkpt lat="46.73394" lon="-1.98667">
        <ele>9</ele>
        <time>2018-03-08T08:28:47Z</time>
      </trkpt>
      <trkpt lat="46.73397" lon="-1.98679">
        <ele>9</ele>
        <time>2018-03-08T08:29:47Z</time>
      </trkpt>
      <trkpt lat="46.73401" lon="-1.98693">
        <ele>9</ele>
        <time>2018-03-08T08:30:47Z</time>
      </trkpt>
      <trkpt lat="46.73404" lon="-1.98702">
        <ele>9</ele>
        <time>2018-03-08T08:31:47Z</time>
      </trkpt>
      <trkpt lat="46.73407" lon="-1.98708">
        <ele>9</ele>
        <time>2018-03-08T08:32:47Z</time>
      </trkpt>
      <trkpt lat="46.73414" lon="-1.9872">
        <ele>9</ele>
        <time>2018-03-08T08:33:47Z</time>
      </trkpt>
      <trkpt lat="46.73425" lon="-1.98734">
        <ele>9</ele>
        <time>2018-03-08T08:34:47Z</time>
      </trkpt>
      <trkpt lat="46.73441" lon="-1.98751">
        <ele>8</ele>
        <time>2018-03-08T08:35:47Z</time>
      </trkpt>
      <trkpt lat="46.73447" lon="-1.98757">
        <ele>8</ele>
        <time>2018-03-08T08:36:47Z</time>
      </trkpt>
      <trkpt lat="46.73474" lon="-1.98783">
        <ele>9</ele>
        <time>2018-03-08T08:37:47Z</time>
      </trkpt>
      <trkpt lat="46.73504" lon="-1.98811">
        <ele>8</ele>
        <time>2018-03-08T08:38:47Z</time>
      </trkpt>
      <trkpt lat="46.73528" lon="-1.98834">
        <ele>8</ele>
        <time>2018-03-08T08:39:47Z</time>
      </trkpt>
      <trkpt lat="46.73544" lon="-1.98848">
        <ele>7</ele>
        <time>2018-03-08T08:40:47Z</time>
      </trkpt>
      <trkpt lat="46.73569" lon="-1.98872">
        <ele>7</ele>
        <time>2018-03-08T08:41:47Z</time>
      </trkpt>
      <trkpt lat="46.73597" lon="-1.98901">
        <ele>7</ele>
        <time>2018-03-08T08:42:47Z</time>
      </trkpt>
      <trkpt lat="46.7363" lon="-1.98933">
        <ele>7</ele>
        <time>2018-03-08T08:43:47Z</time>
      </trkpt>
      <trkpt lat="46.7365" lon="-1.98953">
        <ele>8</ele>
        <time>2018-03-08T08:44:47Z</time>
      </trkpt>
      <trkpt lat="46.73663" lon="-1.98965">
        <ele>8</ele>
        <time>2018-03-08T08:45:47Z</time>
      </trkpt>
      <trkpt lat="46.73664" lon="-1.98966">
        <ele>8</ele>
        <time>2018-03-08T08:46:47Z</time>
      </trkpt>
      <trkpt lat="46.73706" lon="-1.99004">
        <ele>9</ele>
        <time>2018-03-08T08:47:47Z</time>
      </trkpt>
      <trkpt lat="46.73719" lon="-1.99017">
        <ele>8</ele>
        <time>2018-03-08T08:48:47Z</time>
      </trkpt>
      <trkpt lat="46.73748" lon="-1.99044">
        <ele>8</ele>
        <time>2018-03-08T08:49:47Z</time>
      </trkpt>
      <trkpt lat="46.73778" lon="-1.99073">
        <ele>8</ele>
        <time>2018-03-08T08:50:47Z</time>
      </trkpt>
      <trkpt lat="46.73818" lon="-1.99114">
        <ele>8</ele>
        <time>2018-03-08T08:51:47Z</time>
      </trkpt>
      <trkpt lat="46.73849" lon="-1.99145">
        <ele>8</ele>
        <time>2018-03-08T08:52:47Z</time>
      </trkpt>
      <trkpt lat="46.73877" lon="-1.99173">
        <ele>7</ele>
        <time>2018-03-08T08:53:47Z</time>
      </trkpt>
      <trkpt lat="46.73916" lon="-1.99212">
        <ele>8</ele>
        <time>2018-03-08T08:54:47Z</time>
      </trkpt>
      <trkpt lat="46.73934" lon="-1.99226">
        <ele>8</ele>
        <time>2018-03-08T08:55:47Z</time>
      </trkpt>
      <trkpt lat="46.73956" lon="-1.9924">
        <ele>9</ele>
        <time>2018-03-08T08:56:47Z</time>
      </trkpt>
      <trkpt lat="46.7397" lon="-1.99247">
        <ele>9</ele>
        <time>2018-03-08T08:57:47Z</time>
      </trkpt>
      <trkpt lat="46.73992" lon="-1.99255">
        <ele>9</ele>
        <time>2018-03-08T08:58:47Z</time>
      </trkpt>
      <trkpt lat="46.74013" lon="-1.99261">
        <ele>8</ele>
        <time>2018-03-08T08:59:47Z</time>
      </trkpt>
      <trkpt lat="46.74037" lon="-1.99265">
        <ele>7</ele>
        <time>2018-03-08T09:00:47Z</time>
      </trkpt>
      <trkpt lat="46.74042" lon="-1.99266">
        <ele>7</ele>
        <time>2018-03-08T09:01:47Z</time>
      </trkpt>
      <trkpt lat="46.74086" lon="-1.9927">
        <ele>5</ele>
        <time>2018-03-08T09:02:47Z</time>
      </trkpt>
      <trkpt lat="46.74115" lon="-1.99274">
        <ele>5</ele>
        <time>2018-03-08T09:03:47Z</time>
      </trkpt>
      <trkpt lat="46.74161" lon="-1.99278">
        <ele>4</ele>
        <time>2018-03-08T09:04:47Z</time>
      </trkpt>
      <trkpt lat="46.74166" lon="-1.99279">
        <ele>4</ele>
        <time>2018-03-08T09:05:47Z</time>
      </trkpt>
      <trkpt lat="46.7417" lon="-1.99281">
        <ele>4</ele>
        <time>2018-03-08T09:06:47Z</time>
      </trkpt>
      <trkpt lat="46.74177" lon="-1.99282">
        <ele>4</ele>
        <time>2018-03-08T09:07:47Z</time>
      </trkpt>
      <trkpt lat="46.74184" lon="-1.99283">
        <ele>4</ele>
        <time>2018-03-08T09:08:47Z</time>
      </trkpt>
      <trkpt lat="46.74184" lon="-1.99283">
        <ele>4</ele>
        <time>2018-03-08T09:09:47Z</time>
      </trkpt>
      <trkpt lat="46.74187" lon="-1.99281">
        <ele>4</ele>
        <time>2018-03-08T09:10:47Z</time>
      </trkpt>
      <trkpt lat="46.74189" lon="-1.99281">
        <ele>4</ele>
        <time>2018-03-08T09:11:47Z</time>
      </trkpt>
      <trkpt lat="46.74192" lon="-1.9928">
        <ele>4</ele>
        <time>2018-03-08T09:12:47Z</time>
      </trkpt>
      <trkpt lat="46.74194" lon="-1.9928">
        <ele>4</ele>
        <time>2018-03-08T09:13:47Z</time>
      </trkpt>
      <trkpt lat="46.74197" lon="-1.99281">
        <ele>4</ele>
        <time>2018-03-08T09:14:47Z</time>
      </trkpt>
      <trkpt lat="46.74199" lon="-1.99283">
        <ele>4</ele>
        <time>2018-03-08T09:15:47Z</time>
      </trkpt>
      <trkpt lat="46.74202" lon="-1.99285">
        <ele>4</ele>
        <time>2018-03-08T09:16:47Z</time>
      </trkpt>
      <trkpt lat="46.74204" lon="-1.99287">
        <ele>4</ele>
        <time>2018-03-08T09:17:47Z</time>
      </trkpt>
      <trkpt lat="46.74205" lon="-1.9929">
        <ele>4</ele>
        <time>2018-03-08T09:18:47Z</time>
      </trkpt>
      <trkpt lat="46.74207" lon="-1.99294">
        <ele>5</ele>
        <time>2018-03-08T09:19:47Z</time>
      </trkpt>
      <trkpt lat="46.74207" lon="-1.99297">
        <ele>5</ele>
        <time>2018-03-08T09:20:47Z</time>
      </trkpt>
      <trkpt lat="46.74208" lon="-1.993">
        <ele>5</ele>
        <time>2018-03-08T09:21:47Z</time>
      </trkpt>
      <trkpt lat="46.74208" lon="-1.99304">
        <ele>5</ele>
        <time>2018-03-08T09:22:47Z</time>
      </trkpt>
      <trkpt lat="46.74207" lon="-1.99308">
        <ele>5</ele>
        <time>2018-03-08T09:23:47Z</time>
      </trkpt>
      <trkpt lat="46.74208" lon="-1.99315">
        <ele>5</ele>
        <time>2018-03-08T09:24:47Z</time>
      </trkpt>
      <trkpt lat="46.74209" lon="-1.99326">
        <ele>5</ele>
        <time>2018-03-08T09:25:47Z</time>
      </trkpt>
      <trkpt lat="46.74212" lon="-1.99342">
        <ele>5</ele>
        <time>2018-03-08T09:26:47Z</time>
      </trkpt>
      <trkpt lat="46.74215" lon="-1.99356">
        <ele>5</ele>
        <time>2018-03-08T09:27:47Z</time>
      </trkpt>
      <trkpt lat="46.74215" lon="-1.99361">
        <ele>5</ele>
        <time>2018-03-08T09:28:47Z</time>
      </trkpt>
      <trkpt lat="46.74216" lon="-1.99379">
        <ele>5</ele>
        <time>2018-03-08T09:29:47Z</time>
      </trkpt>
      <trkpt lat="46.74216" lon="-1.99393">
        <ele>5</ele>
        <time>2018-03-08T09:30:47Z</time>
      </trkpt>
      <trkpt lat="46.74216" lon="-1.99406">
        <ele>4</ele>
        <time>2018-03-08T09:31:47Z</time>
      </trkpt>
      <trkpt lat="46.74211" lon="-1.99436">
        <ele>5</ele>
        <time>2018-03-08T09:32:47Z</time>
      </trkpt>
      <trkpt lat="46.74206" lon="-1.99468">
        <ele>5</ele>
        <time>2018-03-08T09:33:47Z</time>
      </trkpt>
      <trkpt lat="46.74204" lon="-1.99474">
        <ele>5</ele>
        <time>2018-03-08T09:34:47Z</time>
      </trkpt>
      <trkpt lat="46.742" lon="-1.99493">
        <ele>5</ele>
        <time>2018-03-08T09:35:47Z</time>
      </trkpt>
      <trkpt lat="46.74192" lon="-1.99525">
        <ele>6</ele>
        <time>2018-03-08T09:36:47Z</time>
      </trkpt>
      <trkpt lat="46.74182" lon="-1.99559">
        <ele>6</ele>
        <time>2018-03-08T09:37:47Z</time>
      </trkpt>
      <trkpt lat="46.74174" lon="-1.9959">
        <ele>7</ele>
        <time>2018-03-08T09:38:47Z</time>
      </trkpt>
      <trkpt lat="46.74165" lon="-1.99622">
        <ele>6</ele>
        <time>2018-03-08T09:39:47Z</time>
      </trkpt>
      <trkpt lat="46.74162" lon="-1.99638">
        <ele>6</ele>
        <time>2018-03-08T09:40:47Z</time>
      </trkpt>
      <trkpt lat="46.74158" lon="-1.99666">
        <ele>5</ele>
        <time>2018-03-08T09:41:47Z</time>
      </trkpt>
      <trkpt lat="46.74157" lon="-1.99675">
        <ele>5</ele>
        <time>2018-03-08T09:42:47Z</time>
      </trkpt>
      <trkpt lat="46.74155" lon="-1.99686">
        <ele>5</ele>
        <time>2018-03-08T09:43:47Z</time>
      </trkpt>
      <trkpt lat="46.74154" lon="-1.99732">
        <ele>5</ele>
        <time>2018-03-08T09:44:47Z</time>
      </trkpt>
      <trkpt lat="46.74148" lon="-1.99843">
        <ele>7</ele>
        <time>2018-03-08T09:45:47Z</time>
      </trkpt>
      <trkpt lat="46.74143" lon="-1.99924">
        <ele>7</ele>
        <time>2018-03-08T09:46:47Z</time>
      </trkpt>
      <trkpt lat="46.74142" lon="-1.99944">
        <ele>6</ele>
        <time>2018-03-08T09:47:47Z</time>
      </trkpt>
      <trkpt lat="46.74134" lon="-2.0004">
        <ele>6</ele>
        <time>2018-03-08T09:48:47Z</time>
      </trkpt>
      <trkpt lat="46.74127" lon="-2.001">
        <ele>6</ele>
        <time>2018-03-08T09:49:47Z</time>
      </trkpt>
      <trkpt lat="46.74123" lon="-2.00124">
        <ele>6</ele>
        <time>2018-03-08T09:50:47Z</time>
      </trkpt>
      <trkpt lat="46.74119" lon="-2.00146">
        <ele>5</ele>
        <time>2018-03-08T09:51:47Z</time>
      </trkpt>
      <trkpt lat="46.74115" lon="-2.00164">
        <ele>5</ele>
        <time>2018-03-08T09:52:47Z</time>
      </trkpt>
      <trkpt lat="46.7411" lon="-2.00185">
        <ele>5</ele>
        <time>2018-03-08T09:53:47Z</time>
      </trkpt>
      <trkpt lat="46.74088" lon="-2.00267">
        <ele>4</ele>
        <time>2018-03-08T09:54:47Z</time>
      </trkpt>
      <trkpt lat="46.74085" lon="-2.00279">
        <ele>3</ele>
        <time>2018-03-08T09:55:47Z</time>
      </trkpt>
      <trkpt lat="46.74079" lon="-2.00302">
        <ele>3</ele>
        <time>2018-03-08T09:56:47Z</time>
      </trkpt>
      <trkpt lat="46.74075" lon="-2.00318">
        <ele>3</ele>
        <time>2018-03-08T09:57:47Z</time>
      </trkpt>
      <trkpt lat="46.7407" lon="-2.00339">
        <ele>2</ele>
        <time>2018-03-08T09:58:47Z</time>
      </trkpt>
      <trkpt lat="46.74067" lon="-2.00353">
        <ele>3</ele>
        <time>2018-03-08T09:59:47Z</time>
      </trkpt>
      <trkpt lat="46.74065" lon="-2.00368">
        <ele>3</ele>
        <time>2018-03-08T10:00:47Z</time>
      </trkpt>
      <trkpt lat="46.74065" lon="-2.00382">
        <ele>3</ele>
        <time>2018-03-08T10:01:47Z</time>
      </trkpt>
      <trkpt lat="46.74066" lon="-2.00393">
        <ele>3</ele>
        <time>2018-03-08T10:02:47Z</time>
      </trkpt>
      <trkpt lat="46.74067" lon="-2.00404">
        <ele>3</ele>
        <time>2018-03-08T10:03:47Z</time>
      </trkpt>
      <trkpt lat="46.74073" lon="-2.00423">
        <ele>3</ele>
        <time>2018-03-08T10:04:47Z</time>
      </trkpt>
      <trkpt lat="46.74078" lon="-2.00436">
        <ele>3</ele>
        <time>2018-03-08T10:05:47Z</time>
      </trkpt>
      <trkpt lat="46.74085" lon="-2.00458">
        <ele>3</ele>
        <time>2018-03-08T10:06:47Z</time>
      </trkpt>
      <trkpt lat="46.74096" lon="-2.00481">
        <ele>3</ele>
        <time>2018-03-08T10:07:47Z</time>
      </trkpt>
      <trkpt lat="46.74099" lon="-2.00488">
        <ele>3</ele>
        <time>2018-03-08T10:08:47Z</time>
      </trkpt>
      <trkpt lat="46.74103" lon="-2.00497">
        <ele>3</ele>
        <time>2018-03-08T10:09:47Z</time>
      </trkpt>
      <trkpt lat="46.74108" lon="-2.00504">
        <ele>3</ele>
        <time>2018-03-08T10:10:47Z</time>
      </trkpt>
      <trkpt lat="46.74114" lon="-2.00514">
        <ele>3</ele>
        <time>2018-03-08T10:11:47Z</time>
      </trkpt>
      <trkpt lat="46.74117" lon="-2.00519">
        <ele>3</ele>
        <time>2018-03-08T10:12:47Z</time>
      </trkpt>
      <trkpt lat="46.74124" lon="-2.00529">
        <ele>3</ele>
        <time>2018-03-08T10:13:47Z</time>
      </trkpt>
      <trkpt lat="46.74131" lon="-2.0054">
        <ele>3</ele>
        <time>2018-03-08T10:14:47Z</time>
      </trkpt>
      <trkpt lat="46.74143" lon="-2.00558">
        <ele>3</ele>
        <time>2018-03-08T10:15:47Z</time>
      </trkpt>
      <trkpt lat="46.74148" lon="-2.00565">
        <ele>3</ele>
        <time>2018-03-08T10:16:47Z</time>
      </trkpt>
      <trkpt lat="46.74191" lon="-2.00625">
        <ele>3</ele>
        <time>2018-03-08T10:17:47Z</time>
      </trkpt>
      <trkpt lat="46.74235" lon="-2.00689">
        <ele>3</ele>
        <time>2018-03-08T10:18:47Z</time>
      </trkpt>
      <trkpt lat="46.7425" lon="-2.00711">
        <ele>2</ele>
        <time>2018-03-08T10:19:47Z</time>
      </trkpt>
      <trkpt lat="46.7426" lon="-2.00726">
        <ele>2</ele>
        <time>2018-03-08T10:20:47Z</time>
      </trkpt>
      <trkpt lat="46.74275" lon="-2.00753">
        <ele>2</ele>
        <time>2018-03-08T10:21:47Z</time>
      </trkpt>
      <trkpt lat="46.74283" lon="-2.00765">
        <ele>2</ele>
        <time>2018-03-08T10:22:47Z</time>
      </trkpt>
      <trkpt lat="46.74301" lon="-2.00793">
        <ele>2</ele>
        <time>2018-03-08T10:23:47Z</time>
      </trkpt>
      <trkpt lat="46.74308" lon="-2.00805">
        <ele>2</ele>
        <time>2018-03-08T10:24:47Z</time>
      </trkpt>
      <trkpt lat="46.74312" lon="-2.00812">
        <ele>2</ele>
        <time>2018-03-08T10:25:47Z</time>
      </trkpt>
      <trkpt lat="46.74322" lon="-2.0083">
        <ele>3</ele>
        <time>2018-03-08T10:26:47Z</time>
      </trkpt>
      <trkpt lat="46.7433" lon="-2.00843">
        <ele>3</ele>
        <time>2018-03-08T10:27:47Z</time>
      </trkpt>
      <trkpt lat="46.74337" lon="-2.00853">
        <ele>3</ele>
        <time>2018-03-08T10:28:47Z</time>
      </trkpt>
      <trkpt lat="46.74345" lon="-2.00864">
        <ele>3</ele>
        <time>2018-03-08T10:29:47Z</time>
      </trkpt>
      <trkpt lat="46.74361" lon="-2.0088">
        <ele>3</ele>
        <time>2018-03-08T10:30:47Z</time>
      </trkpt>
      <trkpt lat="46.7439" lon="-2.00906">
        <ele>3</ele>
        <time>2018-03-08T10:31:47Z</time>
      </trkpt>
      <trkpt lat="46.74444" lon="-2.00952">
        <ele>4</ele>
        <time>2018-03-08T10:32:47Z</time>
      </trkpt>
      <trkpt lat="46.74463" lon="-2.00969">
        <ele>4</ele>
        <time>2018-03-08T10:33:47Z</time>
      </trkpt>
      <trkpt lat="46.74482" lon="-2.00986">
        <ele>4</ele>
        <time>2018-03-08T10:34:47Z</time>
      </trkpt>
      <trkpt lat="46.74512" lon="-2.01014">
        <ele>5</ele>
        <time>2018-03-08T10:35:47Z</time>
      </trkpt>
      <trkpt lat="46.74532" lon="-2.0103">
        <ele>5</ele>
        <time>2018-03-08T10:36:47Z</time>
      </trkpt>
      <trkpt lat="46.74538" lon="-2.01036">
        <ele>4</ele>
        <time>2018-03-08T10:37:47Z</time>
      </trkpt>
      <trkpt lat="46.74557" lon="-2.01058">
        <ele>4</ele>
        <time>2018-03-08T10:38:47Z</time>
      </trkpt>
      <trkpt lat="46.74564" lon="-2.01068">
        <ele>4</ele>
        <time>2018-03-08T10:39:47Z</time>
      </trkpt>
      <trkpt lat="46.74582" lon="-2.01089">
        <ele>4</ele>
        <time>2018-03-08T10:40:47Z</time>
      </trkpt>
      <trkpt lat="46.74613" lon="-2.01126">
        <ele>7</ele>
        <time>2018-03-08T10:41:47Z</time>
      </trkpt>
      <trkpt lat="46.74638" lon="-2.01154">
        <ele>8</ele>
        <time>2018-03-08T10:42:47Z</time>
      </trkpt>
      <trkpt lat="46.74646" lon="-2.01164">
        <ele>8</ele>
        <time>2018-03-08T10:43:47Z</time>
      </trkpt>
      <trkpt lat="46.74664" lon="-2.01183">
        <ele>8</ele>
        <time>2018-03-08T10:44:47Z</time>
      </trkpt>
      <trkpt lat="46.74682" lon="-2.01198">
        <ele>8</ele>
        <time>2018-03-08T10:45:47Z</time>
      </trkpt>
      <trkpt lat="46.74693" lon="-2.01205">
        <ele>8</ele>
        <time>2018-03-08T10:46:47Z</time>
      </trkpt>
      <trkpt lat="46.74723" lon="-2.01225">
        <ele>7</ele>
        <time>2018-03-08T10:47:47Z</time>
      </trkpt>
      <trkpt lat="46.74747" lon="-2.0124">
        <ele>7</ele>
        <time>2018-03-08T10:48:47Z</time>
      </trkpt>
      <trkpt lat="46.74784" lon="-2.01263">
        <ele>6</ele>
        <time>2018-03-08T10:49:47Z</time>
      </trkpt>
      <trkpt lat="46.74821" lon="-2.01285">
        <ele>6</ele>
        <time>2018-03-08T10:50:47Z</time>
      </trkpt>
      <trkpt lat="46.74863" lon="-2.01308">
        <ele>7</ele>
        <time>2018-03-08T10:51:47Z</time>
      </trkpt>
      <trkpt lat="46.74895" lon="-2.01325">
        <ele>7</ele>
        <time>2018-03-08T10:52:47Z</time>
      </trkpt>
      <trkpt lat="46.74927" lon="-2.01343">
        <ele>7</ele>
        <time>2018-03-08T10:53:47Z</time>
      </trkpt>
      <trkpt lat="46.74944" lon="-2.01355">
        <ele>6</ele>
        <time>2018-03-08T10:54:47Z</time>
      </trkpt>
      <trkpt lat="46.7495" lon="-2.01362">
        <ele>6</ele>
        <time>2018-03-08T10:55:47Z</time>
      </trkpt>
      <trkpt lat="46.74952" lon="-2.01363">
        <ele>6</ele>
        <time>2018-03-08T10:56:47Z</time>
      </trkpt>
      <trkpt lat="46.74958" lon="-2.01372">
        <ele>5</ele>
        <time>2018-03-08T10:57:47Z</time>
      </trkpt>
      <trkpt lat="46.74969" lon="-2.01389">
        <ele>5</ele>
        <time>2018-03-08T10:58:47Z</time>
      </trkpt>
      <trkpt lat="46.74972" lon="-2.01394">
        <ele>5</ele>
        <time>2018-03-08T10:59:47Z</time>
      </trkpt>
      <trkpt lat="46.74993" lon="-2.01431">
        <ele>4</ele>
        <time>2018-03-08T11:00:47Z</time>
      </trkpt>
      <trkpt lat="46.75018" lon="-2.01472">
        <ele>4</ele>
        <time>2018-03-08T11:01:47Z</time>
      </trkpt>
      <trkpt lat="46.75035" lon="-2.01499">
        <ele>4</ele>
        <time>2018-03-08T11:02:47Z</time>
      </trkpt>
      <trkpt lat="46.75037" lon="-2.01501">
        <ele>4</ele>
        <time>2018-03-08T11:03:47Z</time>
      </trkpt>
      <trkpt lat="46.75057" lon="-2.01531">
        <ele>4</ele>
        <time>2018-03-08T11:04:47Z</time>
      </trkpt>
      <trkpt lat="46.75084" lon="-2.01564">
        <ele>4</ele>
        <time>2018-03-08T11:05:47Z</time>
      </trkpt>
      <trkpt lat="46.75096" lon="-2.01579">
        <ele>4</ele>
        <time>2018-03-08T11:06:47Z</time>
      </trkpt>
      <trkpt lat="46.75104" lon="-2.01586">
        <ele>4</ele>
        <time>2018-03-08T11:07:47Z</time>
      </trkpt>
      <trkpt lat="46.75112" lon="-2.0159">
        <ele>3</ele>
        <time>2018-03-08T11:08:47Z</time>
      </trkpt>
      <trkpt lat="46.75114" lon="-2.01589">
        <ele>3</ele>
        <time>2018-03-08T11:09:47Z</time>
      </trkpt>
      <trkpt lat="46.75115" lon="-2.01589">
        <ele>3</ele>
        <time>2018-03-08T11:10:47Z</time>
      </trkpt>
      <trkpt lat="46.75118" lon="-2.01588">
        <ele>3</ele>
        <time>2018-03-08T11:11:47Z</time>
      </trkpt>
      <trkpt lat="46.75122" lon="-2.01589">
        <ele>3</ele>
        <time>2018-03-08T11:12:47Z</time>
      </trkpt>
      <trkpt lat="46.75125" lon="-2.01591">
        <ele>3</ele>
        <time>2018-03-08T11:13:47Z</time>
      </trkpt>
      <trkpt lat="46.75128" lon="-2.01593">
        <ele>3</ele>
        <time>2018-03-08T11:14:47Z</time>
      </trkpt>
      <trkpt lat="46.7513" lon="-2.01596">
        <ele>3</ele>
        <time>2018-03-08T11:15:47Z</time>
      </trkpt>
      <trkpt lat="46.75132" lon="-2.01601">
        <ele>3</ele>
        <time>2018-03-08T11:16:47Z</time>
      </trkpt>
      <trkpt lat="46.75134" lon="-2.01607">
        <ele>3</ele>
        <time>2018-03-08T11:17:47Z</time>
      </trkpt>
      <trkpt lat="46.75134" lon="-2.0161">
        <ele>3</ele>
        <time>2018-03-08T11:18:47Z</time>
      </trkpt>
      <trkpt lat="46.75134" lon="-2.01615">
        <ele>3</ele>
        <time>2018-03-08T11:19:47Z</time>
      </trkpt>
      <trkpt lat="46.75133" lon="-2.0162">
        <ele>4</ele>
        <time>2018-03-08T11:20:47Z</time>
      </trkpt>
      <trkpt lat="46.75135" lon="-2.01625">
        <ele>4</ele>
        <time>2018-03-08T11:21:47Z</time>
      </trkpt>
      <trkpt lat="46.7514" lon="-2.0164">
        <ele>4</ele>
        <time>2018-03-08T11:22:47Z</time>
      </trkpt>
      <trkpt lat="46.75163" lon="-2.01681">
        <ele>4</ele>
        <time>2018-03-08T11:23:47Z</time>
      </trkpt>
      <trkpt lat="46.75167" lon="-2.01688">
        <ele>4</ele>
        <time>2018-03-08T11:24:47Z</time>
      </trkpt>
      <trkpt lat="46.75196" lon="-2.01732">
        <ele>3</ele>
        <time>2018-03-08T11:25:47Z</time>
      </trkpt>
      <trkpt lat="46.752" lon="-2.01737">
        <ele>3</ele>
        <time>2018-03-08T11:26:47Z</time>
      </trkpt>
      <trkpt lat="46.7522" lon="-2.01766">
        <ele>3</ele>
        <time>2018-03-08T11:27:47Z</time>
      </trkpt>
      <trkpt lat="46.7525" lon="-2.01807">
        <ele>2</ele>
        <time>2018-03-08T11:28:47Z</time>
      </trkpt>
      <trkpt lat="46.75262" lon="-2.01823">
        <ele>2</ele>
        <time>2018-03-08T11:29:47Z</time>
      </trkpt>
      <trkpt lat="46.75285" lon="-2.01854">
        <ele>2</ele>
        <time>2018-03-08T11:30:47Z</time>
      </trkpt>
      <trkpt lat="46.75312" lon="-2.01896">
        <ele>3</ele>
        <time>2018-03-08T11:31:47Z</time>
      </trkpt>
      <trkpt lat="46.75332" lon="-2.01929">
        <ele>3</ele>
        <time>2018-03-08T11:32:47Z</time>
      </trkpt>
      <trkpt lat="46.75345" lon="-2.01949">
        <ele>3</ele>
        <time>2018-03-08T11:33:47Z</time>
      </trkpt>
      <trkpt lat="46.75348" lon="-2.01954">
        <ele>3</ele>
        <time>2018-03-08T11:34:47Z</time>
      </trkpt>
      <trkpt lat="46.75354" lon="-2.01964">
        <ele>3</ele>
        <time>2018-03-08T11:35:47Z</time>
      </trkpt>
      <trkpt lat="46.75375" lon="-2.01991">
        <ele>2</ele>
        <time>2018-03-08T11:36:47Z</time>
      </trkpt>
      <trkpt lat="46.75389" lon="-2.02007">
        <ele>2</ele>
        <time>2018-03-08T11:37:47Z</time>
      </trkpt>
      <trkpt lat="46.75404" lon="-2.02024">
        <ele>2</ele>
        <time>2018-03-08T11:38:47Z</time>
      </trkpt>
      <trkpt lat="46.75417" lon="-2.0204">
        <ele>2</ele>
        <time>2018-03-08T11:39:47Z</time>
      </trkpt>
      <trkpt lat="46.75428" lon="-2.02053">
        <ele>2</ele>
        <time>2018-03-08T11:40:47Z</time>
      </trkpt>
      <trkpt lat="46.75435" lon="-2.02063">
        <ele>2</ele>
        <time>2018-03-08T11:41:47Z</time>
      </trkpt>
      <trkpt lat="46.75445" lon="-2.02076">
        <ele>3</ele>
        <time>2018-03-08T11:42:47Z</time>
      </trkpt>
      <trkpt lat="46.75449" lon="-2.02083">
        <ele>3</ele>
        <time>2018-03-08T11:43:47Z</time>
      </trkpt>
      <trkpt lat="46.75453" lon="-2.02089">
        <ele>3</ele>
        <time>2018-03-08T11:44:47Z</time>
      </trkpt>
      <trkpt lat="46.75454" lon="-2.02092">
        <ele>3</ele>
        <time>2018-03-08T11:45:47Z</time>
      </trkpt>
      <trkpt lat="46.75459" lon="-2.021">
        <ele>3</ele>
        <time>2018-03-08T11:46:47Z</time>
      </trkpt>
      <trkpt lat="46.75466" lon="-2.02113">
        <ele>3</ele>
        <time>2018-03-08T11:47:47Z</time>
      </trkpt>
      <trkpt lat="46.7547" lon="-2.02123">
        <ele>3</ele>
        <time>2018-03-08T11:48:47Z</time>
      </trkpt>
      <trkpt lat="46.75474" lon="-2.02131">
        <ele>2</ele>
        <time>2018-03-08T11:49:47Z</time>
      </trkpt>
      <trkpt lat="46.75479" lon="-2.02148">
        <ele>2</ele>
        <time>2018-03-08T11:50:47Z</time>
      </trkpt>
      <trkpt lat="46.75484" lon="-2.02161">
        <ele>2</ele>
        <time>2018-03-08T11:51:47Z</time>
      </trkpt>
      <trkpt lat="46.75489" lon="-2.02176">
        <ele>2</ele>
        <time>2018-03-08T11:52:47Z</time>
      </trkpt>
      <trkpt lat="46.75493" lon="-2.0219">
        <ele>2</ele>
        <time>2018-03-08T11:53:47Z</time>
      </trkpt>
      <trkpt lat="46.75494" lon="-2.02195">
        <ele>2</ele>
        <time>2018-03-08T11:54:47Z</time>
      </trkpt>
      <trkpt lat="46.75498" lon="-2.02207">
        <ele>2</ele>
        <time>2018-03-08T11:55:47Z</time>
      </trkpt>
      <trkpt lat="46.75501" lon="-2.02214">
        <ele>1</ele>
        <time>2018-03-08T11:56:47Z</time>
      </trkpt>
      <trkpt lat="46.75503" lon="-2.02221">
        <ele>1</ele>
        <time>2018-03-08T11:57:47Z</time>
      </trkpt>
      <trkpt lat="46.75506" lon="-2.02226">
        <ele>1</ele>
        <time>2018-03-08T11:58:47Z</time>
      </trkpt>
      <trkpt lat="46.75509" lon="-2.02232">
        <ele>1</ele>
        <time>2018-03-08T11:59:47Z</time>
      </trkpt>
      <trkpt lat="46.75514" lon="-2.02239">
        <ele>1</ele>
        <time>2018-03-08T12:00:47Z</time>
      </trkpt>
      <trkpt lat="46.75519" lon="-2.02246">
        <ele>1</ele>
        <time>2018-03-08T12:01:47Z</time>
      </trkpt>
      <trkpt lat="46.75524" lon="-2.02253">
        <ele>1</ele>
        <time>2018-03-08T12:02:47Z</time>
      </trkpt>
      <trkpt lat="46.75543" lon="-2.0227">
        <ele>1</ele>
        <time>2018-03-08T12:03:47Z</time>
      </trkpt>
      <trkpt lat="46.75568" lon="-2.02289">
        <ele>1</ele>
        <time>2018-03-08T12:04:47Z</time>
      </trkpt>
      <trkpt lat="46.75594" lon="-2.02308">
        <ele>1</ele>
        <time>2018-03-08T12:05:47Z</time>
      </trkpt>
      <trkpt lat="46.7562" lon="-2.0233">
        <ele>3</ele>
        <time>2018-03-08T12:06:47Z</time>
      </trkpt>
      <trkpt lat="46.75642" lon="-2.02347">
        <ele>4</ele>
        <time>2018-03-08T12:07:47Z</time>
      </trkpt>
      <trkpt lat="46.75663" lon="-2.02374">
        <ele>4</ele>
        <time>2018-03-08T12:08:47Z</time>
      </trkpt>
      <trkpt lat="46.75683" lon="-2.02399">
        <ele>4</ele>
        <time>2018-03-08T12:09:47Z</time>
      </trkpt>
      <trkpt lat="46.75697" lon="-2.0242">
        <ele>4</ele>
        <time>2018-03-08T12:10:47Z</time>
      </trkpt>
      <trkpt lat="46.75704" lon="-2.02428">
        <ele>4</ele>
        <time>2018-03-08T12:11:47Z</time>
      </trkpt>
      <trkpt lat="46.75706" lon="-2.02431">
        <ele>4</ele>
        <time>2018-03-08T12:12:47Z</time>
      </trkpt>
      <trkpt lat="46.75709" lon="-2.02434">
        <ele>4</ele>
        <time>2018-03-08T12:13:47Z</time>
      </trkpt>
      <trkpt lat="46.75712" lon="-2.02438">
        <ele>4</ele>
        <time>2018-03-08T12:14:47Z</time>
      </trkpt>
      <trkpt lat="46.75717" lon="-2.02444">
        <ele>4</ele>
        <time>2018-03-08T12:15:47Z</time>
      </trkpt>
      <trkpt lat="46.75722" lon="-2.02449">
        <ele>4</ele>
        <time>2018-03-08T12:16:47Z</time>
      </trkpt>
      <trkpt lat="46.75728" lon="-2.02453">
        <ele>4</ele>
        <time>2018-03-08T12:17:47Z</time>
      </trkpt>
      <trkpt lat="46.75733" lon="-2.02456">
        <ele>4</ele>
        <time>2018-03-08T12:18:47Z</time>
      </trkpt>
      <trkpt lat="46.75738" lon="-2.02459">
        <ele>5</ele>
        <time>2018-03-08T12:19:47Z</time>
      </trkpt>
      <trkpt lat="46.75741" lon="-2.0246">
        <ele>5</ele>
        <time>2018-03-08T12:20:47Z</time>
      </trkpt>
      <trkpt lat="46.7575" lon="-2.02463">
        <ele>5</ele>
        <time>2018-03-08T12:21:47Z</time>
      </trkpt>
      <trkpt lat="46.75775" lon="-2.02468">
        <ele>5</ele>
        <time>2018-03-08T12:22:47Z</time>
      </trkpt>
      <trkpt lat="46.7578" lon="-2.02469">
        <ele>5</ele>
        <time>2018-03-08T12:23:47Z</time>
      </trkpt>
      <trkpt lat="46.75784" lon="-2.0247">
        <ele>5</ele>
        <time>2018-03-08T12:24:47Z</time>
      </trkpt>
      <trkpt lat="46.75788" lon="-2.02472">
        <ele>5</ele>
        <time>2018-03-08T12:25:47Z</time>
      </trkpt>
      <trkpt lat="46.75795" lon="-2.02474">
        <ele>5</ele>
        <time>2018-03-08T12:26:47Z</time>
      </trkpt>
      <trkpt lat="46.75795" lon="-2.02473">
        <ele>5</ele>
        <time>2018-03-08T12:27:47Z</time>
      </trkpt>
      <trkpt lat="46.75796" lon="-2.02473">
        <ele>5</ele>
        <time>2018-03-08T12:28:47Z</time>
      </trkpt>
      <trkpt lat="46.75796" lon="-2.02472">
        <ele>5</ele>
        <time>2018-03-08T12:29:47Z</time>
      </trkpt>
      <trkpt lat="46.75796" lon="-2.02471">
        <ele>5</ele>
        <time>2018-03-08T12:30:47Z</time>
      </trkpt>
      <trkpt lat="46.75797" lon="-2.02471">
        <ele>5</ele>
        <time>2018-03-08T12:31:47Z</time>
      </trkpt>
      <trkpt lat="46.75797" lon="-2.0247">
        <ele>5</ele>
        <time>2018-03-08T12:32:47Z</time>
      </trkpt>
      <trkpt lat="46.75797" lon="-2.02469">
        <ele>5</ele>
        <time>2018-03-08T12:33:47Z</time>
      </trkpt>
      <trkpt lat="46.75798" lon="-2.02469">
        <ele>5</ele>
        <time>2018-03-08T12:34:47Z</time>
      </trkpt>
      <trkpt lat="46.75799" lon="-2.02469">
        <ele>5</ele>
        <time>2018-03-08T12:35:47Z</time>
      </trkpt>
      <trkpt lat="46.75799" lon="-2.02468">
        <ele>5</ele>
        <time>2018-03-08T12:36:47Z</time>
      </trkpt>
      <trkpt lat="46.758" lon="-2.02468">
        <ele>5</ele>
        <time>2018-03-08T12:37:47Z</time>
      </trkpt>
      <trkpt lat="46.75801" lon="-2.02468">
        <ele>5</ele>
        <time>2018-03-08T12:38:47Z</time>
      </trkpt>
      <trkpt lat="46.75802" lon="-2.02468">
        <ele>5</ele>
        <time>2018-03-08T12:39:47Z</time>
      </trkpt>
      <trkpt lat="46.75802" lon="-2.02469">
        <ele>5</ele>
        <time>2018-03-08T12:40:47Z</time>
      </trkpt>
      <trkpt lat="46.75803" lon="-2.02469">
        <ele>6</ele>
        <time>2018-03-08T12:41:47Z</time>
      </trkpt>
      <trkpt lat="46.75804" lon="-2.0247">
        <ele>6</ele>
        <time>2018-03-08T12:42:47Z</time>
      </trkpt>
      <trkpt lat="46.75804" lon="-2.02471">
        <ele>6</ele>
        <time>2018-03-08T12:43:47Z</time>
      </trkpt>
      <trkpt lat="46.75805" lon="-2.02471">
        <ele>6</ele>
        <time>2018-03-08T12:44:47Z</time>
      </trkpt>
      <trkpt lat="46.75805" lon="-2.02472">
        <ele>6</ele>
        <time>2018-03-08T12:45:47Z</time>
      </trkpt>
      <trkpt lat="46.75805" lon="-2.02473">
        <ele>6</ele>
        <time>2018-03-08T12:46:47Z</time>
      </trkpt>
      <trkpt lat="46.75805" lon="-2.02474">
        <ele>6</ele>
        <time>2018-03-08T12:47:47Z</time>
      </trkpt>
      <trkpt lat="46.75806" lon="-2.02474">
        <ele>6</ele>
        <time>2018-03-08T12:48:47Z</time>
      </trkpt>
      <trkpt lat="46.75806" lon="-2.02475">
        <ele>6</ele>
        <time>2018-03-08T12:49:47Z</time>
      </trkpt>
      <trkpt lat="46.75816" lon="-2.02473">
        <ele>6</ele>
        <time>2018-03-08T12:50:47Z</time>
      </trkpt>
      <trkpt lat="46.75821" lon="-2.02474">
        <ele>6</ele>
        <time>2018-03-08T12:51:47Z</time>
      </trkpt>
      <trkpt lat="46.75847" lon="-2.02478">
        <ele>6</ele>
        <time>2018-03-08T12:52:47Z</time>
      </trkpt>
      <trkpt lat="46.75865" lon="-2.02483">
        <ele>6</ele>
        <time>2018-03-08T12:53:47Z</time>
      </trkpt>
      <trkpt lat="46.75884" lon="-2.0249">
        <ele>6</ele>
        <time>2018-03-08T12:54:47Z</time>
      </trkpt>
      <trkpt lat="46.75887" lon="-2.0249">
        <ele>6</ele>
        <time>2018-03-08T12:55:47Z</time>
      </trkpt>
      <trkpt lat="46.75893" lon="-2.02493">
        <ele>6</ele>
        <time>2018-03-08T12:56:47Z</time>
      </trkpt>
      <trkpt lat="46.75907" lon="-2.02498">
        <ele>6</ele>
        <time>2018-03-08T12:57:47Z</time>
      </trkpt>
      <trkpt lat="46.75922" lon="-2.02504">
        <ele>6</ele>
        <time>2018-03-08T12:58:47Z</time>
      </trkpt>
      <trkpt lat="46.75924" lon="-2.02505">
        <ele>6</ele>
        <time>2018-03-08T12:59:47Z</time>
      </trkpt>
      <trkpt lat="46.75937" lon="-2.02514">
        <ele>6</ele>
        <time>2018-03-08T13:00:47Z</time>
      </trkpt>
      <trkpt lat="46.75953" lon="-2.02526">
        <ele>6</ele>
        <time>2018-03-08T13:01:47Z</time>
      </trkpt>
      <trkpt lat="46.75958" lon="-2.02529">
        <ele>6</ele>
        <time>2018-03-08T13:02:47Z</time>
      </trkpt>
      <trkpt lat="46.7597" lon="-2.02541">
        <ele>6</ele>
        <time>2018-03-08T13:03:47Z</time>
      </trkpt>
      <trkpt lat="46.75972" lon="-2.02545">
        <ele>6</ele>
        <time>2018-03-08T13:04:47Z</time>
      </trkpt>
      <trkpt lat="46.75973" lon="-2.02544">
        <ele>6</ele>
        <time>2018-03-08T13:05:47Z</time>
      </trkpt>
      <trkpt lat="46.75974" lon="-2.02543">
        <ele>6</ele>
        <time>2018-03-08T13:06:47Z</time>
      </trkpt>
      <trkpt lat="46.75975" lon="-2.02542">
        <ele>6</ele>
        <time>2018-03-08T13:07:47Z</time>
      </trkpt>
      <trkpt lat="46.75977" lon="-2.02542">
        <ele>6</ele>
        <time>2018-03-08T13:08:47Z</time>
      </trkpt>
      <trkpt lat="46.75978" lon="-2.02542">
        <ele>6</ele>
        <time>2018-03-08T13:09:47Z</time>
      </trkpt>
      <trkpt lat="46.75979" lon="-2.02542">
        <ele>6</ele>
        <time>2018-03-08T13:10:47Z</time>
      </trkpt>
      <trkpt lat="46.7598" lon="-2.02543">
        <ele>6</ele>
        <time>2018-03-08T13:11:47Z</time>
      </trkpt>
      <trkpt lat="46.75981" lon="-2.02545">
        <ele>6</ele>
        <time>2018-03-08T13:12:47Z</time>
      </trkpt>
      <trkpt lat="46.75982" lon="-2.02546">
        <ele>6</ele>
        <time>2018-03-08T13:13:47Z</time>
      </trkpt>
      <trkpt lat="46.75982" lon="-2.02547">
        <ele>6</ele>
        <time>2018-03-08T13:14:47Z</time>
      </trkpt>
      <trkpt lat="46.75983" lon="-2.02549">
        <ele>6</ele>
        <time>2018-03-08T13:15:47Z</time>
      </trkpt>
      <trkpt lat="46.75983" lon="-2.0255">
        <ele>6</ele>
        <time>2018-03-08T13:16:47Z</time>
      </trkpt>
      <trkpt lat="46.75983" lon="-2.02553">
        <ele>6</ele>
        <time>2018-03-08T13:17:47Z</time>
      </trkpt>
      <trkpt lat="46.75982" lon="-2.02555">
        <ele>6</ele>
        <time>2018-03-08T13:18:47Z</time>
      </trkpt>
      <trkpt lat="46.75982" lon="-2.02556">
        <ele>6</ele>
        <time>2018-03-08T13:19:47Z</time>
      </trkpt>
      <trkpt lat="46.75985" lon="-2.0256">
        <ele>6</ele>
        <time>2018-03-08T13:20:47Z</time>
      </trkpt>
      <trkpt lat="46.76004" lon="-2.02584">
        <ele>6</ele>
        <time>2018-03-08T13:21:47Z</time>
      </trkpt>
      <trkpt lat="46.76015" lon="-2.02602">
        <ele>6</ele>
        <time>2018-03-08T13:22:47Z</time>
      </trkpt>
      <trkpt lat="46.76035" lon="-2.02631">
        <ele>6</ele>
        <time>2018-03-08T13:23:47Z</time>
      </trkpt>
      <trkpt lat="46.76045" lon="-2.02644">
        <ele>7</ele>
        <time>2018-03-08T13:24:47Z</time>
      </trkpt>
      <trkpt lat="46.76049" lon="-2.02649">
        <ele>7</ele>
        <time>2018-03-08T13:25:47Z</time>
      </trkpt>
      <trkpt lat="46.76054" lon="-2.02655">
        <ele>7</ele>
        <time>2018-03-08T13:26:47Z</time>
      </trkpt>
      <trkpt lat="46.76064" lon="-2.02665">
        <ele>7</ele>
        <time>2018-03-08T13:27:47Z</time>
      </trkpt>
      <trkpt lat="46.76072" lon="-2.02672">
        <ele>7</ele>
        <time>2018-03-08T13:28:47Z</time>
      </trkpt>
      <trkpt lat="46.7608" lon="-2.02679">
        <ele>8</ele>
        <time>2018-03-08T13:29:47Z</time>
      </trkpt>
      <trkpt lat="46.76087" lon="-2.02684">
        <ele>8</ele>
        <time>2018-03-08T13:30:47Z</time>
      </trkpt>
      <trkpt lat="46.76094" lon="-2.0269">
        <ele>8</ele>
        <time>2018-03-08T13:31:47Z</time>
      </trkpt>
      <trkpt lat="46.76103" lon="-2.02696">
        <ele>8</ele>
        <time>2018-03-08T13:32:47Z</time>
      </trkpt>
      <trkpt lat="46.76115" lon="-2.02706">
        <ele>9</ele>
        <time>2018-03-08T13:33:47Z</time>
      </trkpt>
      <trkpt lat="46.76142" lon="-2.02727">
        <ele>10</ele>
        <time>2018-03-08T13:34:47Z</time>
      </trkpt>
      <trkpt lat="46.76152" lon="-2.02735">
        <ele>10</ele>
        <time>2018-03-08T13:35:47Z</time>
      </trkpt>
      <trkpt lat="46.76153" lon="-2.02736">
        <ele>10</ele>
        <time>2018-03-08T13:36:47Z</time>
      </trkpt>
      <trkpt lat="46.76193" lon="-2.02769">
        <ele>9</ele>
        <time>2018-03-08T13:37:47Z</time>
      </trkpt>
      <trkpt lat="46.7621" lon="-2.02785">
        <ele>8</ele>
        <time>2018-03-08T13:38:47Z</time>
      </trkpt>
      <trkpt lat="46.76226" lon="-2.02802">
        <ele>8</ele>
        <time>2018-03-08T13:39:47Z</time>
      </trkpt>
      <trkpt lat="46.76248" lon="-2.02831">
        <ele>7</ele>
        <time>2018-03-08T13:40:47Z</time>
      </trkpt>
      <trkpt lat="46.76249" lon="-2.02833">
        <ele>7</ele>
        <time>2018-03-08T13:41:47Z</time>
      </trkpt>
      <trkpt lat="46.76263" lon="-2.02847">
        <ele>8</ele>
        <time>2018-03-08T13:42:47Z</time>
      </trkpt>
      <trkpt lat="46.7627" lon="-2.02853">
        <ele>8</ele>
        <time>2018-03-08T13:43:47Z</time>
      </trkpt>
      <trkpt lat="46.7628" lon="-2.0286">
        <ele>8</ele>
        <time>2018-03-08T13:44:47Z</time>
      </trkpt>
      <trkpt lat="46.76289" lon="-2.02868">
        <ele>8</ele>
        <time>2018-03-08T13:45:47Z</time>
      </trkpt>
      <trkpt lat="46.76295" lon="-2.02871">
        <ele>8</ele>
        <time>2018-03-08T13:46:47Z</time>
      </trkpt>
      <trkpt lat="46.76302" lon="-2.02876">
        <ele>8</ele>
        <time>2018-03-08T13:47:47Z</time>
      </trkpt>
      <trkpt lat="46.76311" lon="-2.02881">
        <ele>8</ele>
        <time>2018-03-08T13:48:47Z</time>
      </trkpt>
      <trkpt lat="46.7632" lon="-2.02886">
        <ele>8</ele>
        <time>2018-03-08T13:49:47Z</time>
      </trkpt>
      <trkpt lat="46.76325" lon="-2.0289">
        <ele>8</ele>
        <time>2018-03-08T13:50:47Z</time>
      </trkpt>
      <trkpt lat="46.76333" lon="-2.02896">
        <ele>9</ele>
        <time>2018-03-08T13:51:47Z</time>
      </trkpt>
      <trkpt lat="46.76339" lon="-2.02903">
        <ele>9</ele>
        <time>2018-03-08T13:52:47Z</time>
      </trkpt>
      <trkpt lat="46.76345" lon="-2.02911">
        <ele>9</ele>
        <time>2018-03-08T13:53:47Z</time>
      </trkpt>
      <trkpt lat="46.7635" lon="-2.0292">
        <ele>9</ele>
        <time>2018-03-08T13:54:47Z</time>
      </trkpt>
      <trkpt lat="46.76354" lon="-2.02927">
        <ele>9</ele>
        <time>2018-03-08T13:55:47Z</time>
      </trkpt>
      <trkpt lat="46.76357" lon="-2.02936">
        <ele>9</ele>
        <time>2018-03-08T13:56:47Z</time>
      </trkpt>
      <trkpt lat="46.76363" lon="-2.0295">
        <ele>9</ele>
        <time>2018-03-08T13:57:47Z</time>
      </trkpt>
      <trkpt lat="46.76367" lon="-2.02964">
        <ele>9</ele>
        <time>2018-03-08T13:58:47Z</time>
      </trkpt>
      <trkpt lat="46.76369" lon="-2.02974">
        <ele>9</ele>
        <time>2018-03-08T13:59:47Z</time>
      </trkpt>
      <trkpt lat="46.76371" lon="-2.02981">
        <ele>9</ele>
        <time>2018-03-08T14:00:47Z</time>
      </trkpt>
      <trkpt lat="46.76372" lon="-2.02988">
        <ele>9</ele>
        <time>2018-03-08T14:01:47Z</time>
      </trkpt>
      <trkpt lat="46.76374" lon="-2.02995">
        <ele>9</ele>
        <time>2018-03-08T14:02:47Z</time>
      </trkpt>
      <trkpt lat="46.76374" lon="-2.02998">
        <ele>9</ele>
        <time>2018-03-08T14:03:47Z</time>
      </trkpt>
      <trkpt lat="46.76375" lon="-2.03002">
        <ele>8</ele>
        <time>2018-03-08T14:04:47Z</time>
      </trkpt>
      <trkpt lat="46.76375" lon="-2.03006">
        <ele>8</ele>
        <time>2018-03-08T14:05:47Z</time>
      </trkpt>
      <trkpt lat="46.76376" lon="-2.03017">
        <ele>8</ele>
        <time>2018-03-08T14:06:47Z</time>
      </trkpt>
      <trkpt lat="46.76377" lon="-2.03027">
        <ele>8</ele>
        <time>2018-03-08T14:07:47Z</time>
      </trkpt>
      <trkpt lat="46.76378" lon="-2.03049">
        <ele>8</ele>
        <time>2018-03-08T14:08:47Z</time>
      </trkpt>
      <trkpt lat="46.76378" lon="-2.03065">
        <ele>8</ele>
        <time>2018-03-08T14:09:47Z</time>
      </trkpt>
      <trkpt lat="46.76378" lon="-2.03082">
        <ele>8</ele>
        <time>2018-03-08T14:10:47Z</time>
      </trkpt>
      <trkpt lat="46.76379" lon="-2.0309">
        <ele>8</ele>
        <time>2018-03-08T14:11:47Z</time>
      </trkpt>
      <trkpt lat="46.76379" lon="-2.03097">
        <ele>8</ele>
        <time>2018-03-08T14:12:47Z</time>
      </trkpt>
      <trkpt lat="46.7638" lon="-2.03102">
        <ele>8</ele>
        <time>2018-03-08T14:13:47Z</time>
      </trkpt>
      <trkpt lat="46.76381" lon="-2.03108">
        <ele>8</ele>
        <time>2018-03-08T14:14:47Z</time>
      </trkpt>
      <trkpt lat="46.76382" lon="-2.03114">
        <ele>8</ele>
        <time>2018-03-08T14:15:47Z</time>
      </trkpt>
      <trkpt lat="46.76383" lon="-2.03123">
        <ele>8</ele>
        <time>2018-03-08T14:16:47Z</time>
      </trkpt>
      <trkpt lat="46.76385" lon="-2.03132">
        <ele>8</ele>
        <time>2018-03-08T14:17:47Z</time>
      </trkpt>
      <trkpt lat="46.76388" lon="-2.03139">
        <ele>8</ele>
        <time>2018-03-08T14:18:47Z</time>
      </trkpt>
      <trkpt lat="46.7639" lon="-2.03145">
        <ele>8</ele>
        <time>2018-03-08T14:19:47Z</time>
      </trkpt>
      <trkpt lat="46.76393" lon="-2.03152">
        <ele>8</ele>
        <time>2018-03-08T14:20:47Z</time>
      </trkpt>
      <trkpt lat="46.76417" lon="-2.03201">
        <ele>8</ele>
        <time>2018-03-08T14:21:47Z</time>
      </trkpt>
      <trkpt lat="46.76443" lon="-2.03252">
        <ele>8</ele>
        <time>2018-03-08T14:22:47Z</time>
      </trkpt>
      <trkpt lat="46.76444" lon="-2.03253">
        <ele>8</ele>
        <time>2018-03-08T14:23:47Z</time>
      </trkpt>
      <trkpt lat="46.76463" lon="-2.0329">
        <ele>7</ele>
        <time>2018-03-08T14:24:47Z</time>
      </trkpt>
      <trkpt lat="46.76476" lon="-2.03317">
        <ele>7</ele>
        <time>2018-03-08T14:25:47Z</time>
      </trkpt>
      <trkpt lat="46.76479" lon="-2.03323">
        <ele>6</ele>
        <time>2018-03-08T14:26:47Z</time>
      </trkpt>
      <trkpt lat="46.76481" lon="-2.03332">
        <ele>6</ele>
        <time>2018-03-08T14:27:47Z</time>
      </trkpt>
      <trkpt lat="46.76488" lon="-2.03352">
        <ele>7</ele>
        <time>2018-03-08T14:28:47Z</time>
      </trkpt>
      <trkpt lat="46.76491" lon="-2.03363">
        <ele>7</ele>
        <time>2018-03-08T14:29:47Z</time>
      </trkpt>
      <trkpt lat="46.765" lon="-2.03393">
        <ele>7</ele>
        <time>2018-03-08T14:30:47Z</time>
      </trkpt>
      <trkpt lat="46.76501" lon="-2.03396">
        <ele>8</ele>
        <time>2018-03-08T14:31:47Z</time>
      </trkpt>
      <trkpt lat="46.76504" lon="-2.03405">
        <ele>8</ele>
        <time>2018-03-08T14:32:47Z</time>
      </trkpt>
      <trkpt lat="46.76511" lon="-2.03423">
        <ele>8</ele>
        <time>2018-03-08T14:33:47Z</time>
      </trkpt>
      <trkpt lat="46.76518" lon="-2.0344">
        <ele>8</ele>
        <time>2018-03-08T14:34:47Z</time>
      </trkpt>
      <trkpt lat="46.76528" lon="-2.0346">
        <ele>9</ele>
        <time>2018-03-08T14:35:47Z</time>
      </trkpt>
      <trkpt lat="46.76542" lon="-2.03482">
        <ele>9</ele>
        <time>2018-03-08T14:36:47Z</time>
      </trkpt>
      <trkpt lat="46.76555" lon="-2.03501">
        <ele>9</ele>
        <time>2018-03-08T14:37:47Z</time>
      </trkpt>
      <trkpt lat="46.76555" lon="-2.03501">
        <ele>9</ele>
        <time>2018-03-08T14:38:47Z</time>
      </trkpt>
      <trkpt lat="46.76566" lon="-2.03511">
        <ele>9</ele>
        <time>2018-03-08T14:39:47Z</time>
      </trkpt>
      <trkpt lat="46.76569" lon="-2.03526">
        <ele>10</ele>
        <time>2018-03-08T14:40:47Z</time>
      </trkpt>
      <trkpt lat="46.76569" lon="-2.03528">
        <ele>10</ele>
        <time>2018-03-08T14:41:47Z</time>
      </trkpt>
      <trkpt lat="46.76576" lon="-2.03554">
        <ele>10</ele>
        <time>2018-03-08T14:42:47Z</time>
      </trkpt>
      <trkpt lat="46.76575" lon="-2.03559">
        <ele>10</ele>
        <time>2018-03-08T14:43:47Z</time>
      </trkpt>
      <trkpt lat="46.76588" lon="-2.03603">
        <ele>11</ele>
        <time>2018-03-08T14:44:47Z</time>
      </trkpt>
      <trkpt lat="46.76596" lon="-2.03635">
        <ele>12</ele>
        <time>2018-03-08T14:45:47Z</time>
      </trkpt>
      <trkpt lat="46.76604" lon="-2.03666">
        <ele>13</ele>
        <time>2018-03-08T14:46:47Z</time>
      </trkpt>
      <trkpt lat="46.76609" lon="-2.03696">
        <ele>13</ele>
        <time>2018-03-08T14:47:47Z</time>
      </trkpt>
      <trkpt lat="46.76613" lon="-2.03723">
        <ele>13</ele>
        <time>2018-03-08T14:48:47Z</time>
      </trkpt>
      <trkpt lat="46.76616" lon="-2.03767">
        <ele>12</ele>
        <time>2018-03-08T14:49:47Z</time>
      </trkpt>
      <trkpt lat="46.76617" lon="-2.03808">
        <ele>11</ele>
        <time>2018-03-08T14:50:47Z</time>
      </trkpt>
      <trkpt lat="46.76618" lon="-2.03859">
        <ele>9</ele>
        <time>2018-03-08T14:51:47Z</time>
      </trkpt>
      <trkpt lat="46.76619" lon="-2.03884">
        <ele>8</ele>
        <time>2018-03-08T14:52:47Z</time>
      </trkpt>
      <trkpt lat="46.76622" lon="-2.03922">
        <ele>7</ele>
        <time>2018-03-08T14:53:47Z</time>
      </trkpt>
      <trkpt lat="46.76625" lon="-2.03949">
        <ele>7</ele>
        <time>2018-03-08T14:54:47Z</time>
      </trkpt>
      <trkpt lat="46.76629" lon="-2.03967">
        <ele>6</ele>
        <time>2018-03-08T14:55:47Z</time>
      </trkpt>
      <trkpt lat="46.76633" lon="-2.03981">
        <ele>6</ele>
        <time>2018-03-08T14:56:47Z</time>
      </trkpt>
      <trkpt lat="46.76634" lon="-2.03987">
        <ele>6</ele>
        <time>2018-03-08T14:57:47Z</time>
      </trkpt>
      <trkpt lat="46.76642" lon="-2.04007">
        <ele>6</ele>
        <time>2018-03-08T14:58:47Z</time>
      </trkpt>
      <trkpt lat="46.76655" lon="-2.04042">
        <ele>5</ele>
        <time>2018-03-08T14:59:47Z</time>
      </trkpt>
      <trkpt lat="46.76682" lon="-2.04112">
        <ele>5</ele>
        <time>2018-03-08T15:00:47Z</time>
      </trkpt>
      <trkpt lat="46.76705" lon="-2.04172">
        <ele>4</ele>
        <time>2018-03-08T15:01:47Z</time>
      </trkpt>
      <trkpt lat="46.76713" lon="-2.04193">
        <ele>3</ele>
        <time>2018-03-08T15:02:47Z</time>
      </trkpt>
      <trkpt lat="46.76729" lon="-2.04227">
        <ele>3</ele>
        <time>2018-03-08T15:03:47Z</time>
      </trkpt>
      <trkpt lat="46.76743" lon="-2.04247">
        <ele>3</ele>
        <time>2018-03-08T15:04:47Z</time>
      </trkpt>
      <trkpt lat="46.76746" lon="-2.04252">
        <ele>3</ele>
        <time>2018-03-08T15:05:47Z</time>
      </trkpt>
      <trkpt lat="46.76758" lon="-2.04267">
        <ele>3</ele>
        <time>2018-03-08T15:06:47Z</time>
      </trkpt>
      <trkpt lat="46.76773" lon="-2.04285">
        <ele>3</ele>
        <time>2018-03-08T15:07:47Z</time>
      </trkpt>
      <trkpt lat="46.76794" lon="-2.04306">
        <ele>2</ele>
        <time>2018-03-08T15:08:47Z</time>
      </trkpt>
      <trkpt lat="46.76819" lon="-2.0433">
        <ele>2</ele>
        <time>2018-03-08T15:09:47Z</time>
      </trkpt>
      <trkpt lat="46.76826" lon="-2.04336">
        <ele>2</ele>
        <time>2018-03-08T15:10:47Z</time>
      </trkpt>
      <trkpt lat="46.7686" lon="-2.04368">
        <ele>3</ele>
        <time>2018-03-08T15:11:47Z</time>
      </trkpt>
      <trkpt lat="46.7687" lon="-2.04378">
        <ele>3</ele>
        <time>2018-03-08T15:12:47Z</time>
      </trkpt>
      <trkpt lat="46.76884" lon="-2.04394">
        <ele>3</ele>
        <time>2018-03-08T15:13:47Z</time>
      </trkpt>
      <trkpt lat="46.76892" lon="-2.04404">
        <ele>3</ele>
        <time>2018-03-08T15:14:47Z</time>
      </trkpt>
      <trkpt lat="46.76911" lon="-2.04432">
        <ele>3</ele>
        <time>2018-03-08T15:15:47Z</time>
      </trkpt>
      <trkpt lat="46.76944" lon="-2.04482">
        <ele>4</ele>
        <time>2018-03-08T15:16:47Z</time>
      </trkpt>
      <trkpt lat="46.76982" lon="-2.04541">
        <ele>4</ele>
        <time>2018-03-08T15:17:47Z</time>
      </trkpt>
      <trkpt lat="46.77025" lon="-2.04607">
        <ele>3</ele>
        <time>2018-03-08T15:18:47Z</time>
      </trkpt>
      <trkpt lat="46.7704" lon="-2.04635">
        <ele>3</ele>
        <time>2018-03-08T15:19:47Z</time>
      </trkpt>
      <trkpt lat="46.77046" lon="-2.04646">
        <ele>3</ele>
        <time>2018-03-08T15:20:47Z</time>
      </trkpt>
      <trkpt lat="46.77052" lon="-2.0466">
        <ele>3</ele>
        <time>2018-03-08T15:21:47Z</time>
      </trkpt>
      <trkpt lat="46.77058" lon="-2.04675">
        <ele>1</ele>
        <time>2018-03-08T15:22:47Z</time>
      </trkpt>
      <trkpt lat="46.77078" lon="-2.04728">
        <ele>1</ele>
        <time>2018-03-08T15:23:47Z</time>
      </trkpt>
      <trkpt lat="46.771" lon="-2.04786">
        <ele>3</ele>
        <time>2018-03-08T15:24:47Z</time>
      </trkpt>
      <trkpt lat="46.77114" lon="-2.04822">
        <ele>3</ele>
        <time>2018-03-08T15:25:47Z</time>
      </trkpt>
      <trkpt lat="46.77122" lon="-2.04838">
        <ele>4</ele>
        <time>2018-03-08T15:26:47Z</time>
      </trkpt>
      <trkpt lat="46.77126" lon="-2.04843">
        <ele>3</ele>
        <time>2018-03-08T15:27:47Z</time>
      </trkpt>
      <trkpt lat="46.77136" lon="-2.04851">
        <ele>3</ele>
        <time>2018-03-08T15:28:47Z</time>
      </trkpt>
      <trkpt lat="46.77143" lon="-2.04856">
        <ele>3</ele>
        <time>2018-03-08T15:29:47Z</time>
      </trkpt>
      <trkpt lat="46.77154" lon="-2.0486">
        <ele>3</ele>
        <time>2018-03-08T15:30:47Z</time>
      </trkpt>
      <trkpt lat="46.77154" lon="-2.0486">
        <ele>3</ele>
        <time>2018-03-08T15:31:47Z</time>
      </trkpt>
      <trkpt lat="46.77156" lon="-2.04858">
        <ele>3</ele>
        <time>2018-03-08T15:32:47Z</time>
      </trkpt>
      <trkpt lat="46.77158" lon="-2.04857">
        <ele>3</ele>
        <time>2018-03-08T15:33:47Z</time>
      </trkpt>
      <trkpt lat="46.7716" lon="-2.04857">
        <ele>3</ele>
        <time>2018-03-08T15:34:47Z</time>
      </trkpt>
      <trkpt lat="46.77163" lon="-2.04857">
        <ele>3</ele>
        <time>2018-03-08T15:35:47Z</time>
      </trkpt>
      <trkpt lat="46.77165" lon="-2.04857">
        <ele>3</ele>
        <time>2018-03-08T15:36:47Z</time>
      </trkpt>
      <trkpt lat="46.77167" lon="-2.04857">
        <ele>3</ele>
        <time>2018-03-08T15:37:47Z</time>
      </trkpt>
      <trkpt lat="46.77169" lon="-2.04858">
        <ele>3</ele>
        <time>2018-03-08T15:38:47Z</time>
      </trkpt>
      <trkpt lat="46.77171" lon="-2.04859">
        <ele>3</ele>
        <time>2018-03-08T15:39:47Z</time>
      </trkpt>
      <trkpt lat="46.77173" lon="-2.0486">
        <ele>3</ele>
        <time>2018-03-08T15:40:47Z</time>
      </trkpt>
      <trkpt lat="46.77175" lon="-2.04862">
        <ele>3</ele>
        <time>2018-03-08T15:41:47Z</time>
      </trkpt>
      <trkpt lat="46.77177" lon="-2.04864">
        <ele>3</ele>
        <time>2018-03-08T15:42:47Z</time>
      </trkpt>
      <trkpt lat="46.77178" lon="-2.04866">
        <ele>3</ele>
        <time>2018-03-08T15:43:47Z</time>
      </trkpt>
      <trkpt lat="46.7718" lon="-2.04868">
        <ele>3</ele>
        <time>2018-03-08T15:44:47Z</time>
      </trkpt>
      <trkpt lat="46.77181" lon="-2.04871">
        <ele>3</ele>
        <time>2018-03-08T15:45:47Z</time>
      </trkpt>
      <trkpt lat="46.77182" lon="-2.04874">
        <ele>3</ele>
        <time>2018-03-08T15:46:47Z</time>
      </trkpt>
      <trkpt lat="46.77183" lon="-2.04877">
        <ele>3</ele>
        <time>2018-03-08T15:47:47Z</time>
      </trkpt>
      <trkpt lat="46.77183" lon="-2.0488">
        <ele>3</ele>
        <time>2018-03-08T15:48:47Z</time>
      </trkpt>
      <trkpt lat="46.77184" lon="-2.04883">
        <ele>3</ele>
        <time>2018-03-08T15:49:47Z</time>
      </trkpt>
      <trkpt lat="46.77184" lon="-2.04886">
        <ele>3</ele>
        <time>2018-03-08T15:50:47Z</time>
      </trkpt>
      <trkpt lat="46.77184" lon="-2.04889">
        <ele>3</ele>
        <time>2018-03-08T15:51:47Z</time>
      </trkpt>
      <trkpt lat="46.77184" lon="-2.04892">
        <ele>3</ele>
        <time>2018-03-08T15:52:47Z</time>
      </trkpt>
      <trkpt lat="46.77183" lon="-2.04898">
        <ele>3</ele>
        <time>2018-03-08T15:53:47Z</time>
      </trkpt>
      <trkpt lat="46.77182" lon="-2.04899">
        <ele>3</ele>
        <time>2018-03-08T15:54:47Z</time>
      </trkpt>
      <trkpt lat="46.77181" lon="-2.04901">
        <ele>3</ele>
        <time>2018-03-08T15:55:47Z</time>
      </trkpt>
      <trkpt lat="46.77181" lon="-2.04903">
        <ele>3</ele>
        <time>2018-03-08T15:56:47Z</time>
      </trkpt>
      <trkpt lat="46.7718" lon="-2.04904">
        <ele>3</ele>
        <time>2018-03-08T15:57:47Z</time>
      </trkpt>
      <trkpt lat="46.77179" lon="-2.04905">
        <ele>3</ele>
        <time>2018-03-08T15:58:47Z</time>
      </trkpt>
      <trkpt lat="46.77179" lon="-2.04907">
        <ele>3</ele>
        <time>2018-03-08T15:59:47Z</time>
      </trkpt>
      <trkpt lat="46.77178" lon="-2.04908">
        <ele>3</ele>
        <time>2018-03-08T16:00:47Z</time>
      </trkpt>
      <trkpt lat="46.77177" lon="-2.0491">
        <ele>3</ele>
        <time>2018-03-08T16:01:47Z</time>
      </trkpt>
      <trkpt lat="46.77176" lon="-2.04911">
        <ele>3</ele>
        <time>2018-03-08T16:02:47Z</time>
      </trkpt>
      <trkpt lat="46.77176" lon="-2.04912">
        <ele>3</ele>
        <time>2018-03-08T16:03:47Z</time>
      </trkpt>
      <trkpt lat="46.77175" lon="-2.04912">
        <ele>3</ele>
        <time>2018-03-08T16:04:47Z</time>
      </trkpt>
      <trkpt lat="46.77175" lon="-2.04913">
        <ele>3</ele>
        <time>2018-03-08T16:05:47Z</time>
      </trkpt>
      <trkpt lat="46.77174" lon="-2.04914">
        <ele>3</ele>
        <time>2018-03-08T16:06:47Z</time>
      </trkpt>
      <trkpt lat="46.77173" lon="-2.04915">
        <ele>3</ele>
        <time>2018-03-08T16:07:47Z</time>
      </trkpt>
      <trkpt lat="46.77172" lon="-2.04916">
        <ele>3</ele>
        <time>2018-03-08T16:08:47Z</time>
      </trkpt>
      <trkpt lat="46.77171" lon="-2.04917">
        <ele>3</ele>
        <time>2018-03-08T16:09:47Z</time>
      </trkpt>
      <trkpt lat="46.7717" lon="-2.04918">
        <ele>3</ele>
        <time>2018-03-08T16:10:47Z</time>
      </trkpt>
      <trkpt lat="46.77169" lon="-2.04918">
        <ele>3</ele>
        <time>2018-03-08T16:11:47Z</time>
      </trkpt>
      <trkpt lat="46.77168" lon="-2.04919">
        <ele>3</ele>
        <time>2018-03-08T16:12:47Z</time>
      </trkpt>
      <trkpt lat="46.77167" lon="-2.04919">
        <ele>3</ele>
        <time>2018-03-08T16:13:47Z</time>
      </trkpt>
      <trkpt lat="46.77165" lon="-2.04926">
        <ele>3</ele>
        <time>2018-03-08T16:14:47Z</time>
      </trkpt>
      <trkpt lat="46.77162" lon="-2.04935">
        <ele>3</ele>
        <time>2018-03-08T16:15:47Z</time>
      </trkpt>
      <trkpt lat="46.77158" lon="-2.04942">
        <ele>4</ele>
        <time>2018-03-08T16:16:47Z</time>
      </trkpt>
      <trkpt lat="46.77156" lon="-2.04949">
        <ele>4</ele>
        <time>2018-03-08T16:17:47Z</time>
      </trkpt>
      <trkpt lat="46.77151" lon="-2.0496">
        <ele>4</ele>
        <time>2018-03-08T16:18:47Z</time>
      </trkpt>
      <trkpt lat="46.7715" lon="-2.0496">
        <ele>4</ele>
        <time>2018-03-08T16:19:47Z</time>
      </trkpt>
      <trkpt lat="46.77145" lon="-2.04979">
        <ele>4</ele>
        <time>2018-03-08T16:20:47Z</time>
      </trkpt>
      <trkpt lat="46.7714" lon="-2.04997">
        <ele>4</ele>
        <time>2018-03-08T16:21:47Z</time>
      </trkpt>
      <trkpt lat="46.77137" lon="-2.05011">
        <ele>5</ele>
        <time>2018-03-08T16:22:47Z</time>
      </trkpt>
      <trkpt lat="46.77133" lon="-2.05024">
        <ele>5</ele>
        <time>2018-03-08T16:23:47Z</time>
      </trkpt>
      <trkpt lat="46.77129" lon="-2.05033">
        <ele>5</ele>
        <time>2018-03-08T16:24:47Z</time>
      </trkpt>
      <trkpt lat="46.77126" lon="-2.05044">
        <ele>5</ele>
        <time>2018-03-08T16:25:47Z</time>
      </trkpt>
      <trkpt lat="46.77116" lon="-2.05066">
        <ele>6</ele>
        <time>2018-03-08T16:26:47Z</time>
      </trkpt>
      <trkpt lat="46.77108" lon="-2.05085">
        <ele>7</ele>
        <time>2018-03-08T16:27:47Z</time>
      </trkpt>
      <trkpt lat="46.77099" lon="-2.05109">
        <ele>7</ele>
        <time>2018-03-08T16:28:47Z</time>
      </trkpt>
      <trkpt lat="46.77094" lon="-2.05121">
        <ele>8</ele>
        <time>2018-03-08T16:29:47Z</time>
      </trkpt>
      <trkpt lat="46.77093" lon="-2.05124">
        <ele>8</ele>
        <time>2018-03-08T16:30:47Z</time>
      </trkpt>
      <trkpt lat="46.77087" lon="-2.05153">
        <ele>9</ele>
        <time>2018-03-08T16:31:47Z</time>
      </trkpt>
      <trkpt lat="46.77087" lon="-2.05153">
        <ele>9</ele>
        <time>2018-03-08T16:32:47Z</time>
      </trkpt>
      <trkpt lat="46.77088" lon="-2.05154">
        <ele>9</ele>
        <time>2018-03-08T16:33:47Z</time>
      </trkpt>
      <trkpt lat="46.77088" lon="-2.05155">
        <ele>9</ele>
        <time>2018-03-08T16:34:47Z</time>
      </trkpt>
      <trkpt lat="46.77088" lon="-2.05156">
        <ele>9</ele>
        <time>2018-03-08T16:35:47Z</time>
      </trkpt>
      <trkpt lat="46.77089" lon="-2.05156">
        <ele>9</ele>
        <time>2018-03-08T16:36:47Z</time>
      </trkpt>
      <trkpt lat="46.77089" lon="-2.05157">
        <ele>9</ele>
        <time>2018-03-08T16:37:47Z</time>
      </trkpt>
      <trkpt lat="46.77089" lon="-2.05158">
        <ele>9</ele>
        <time>2018-03-08T16:38:47Z</time>
      </trkpt>
      <trkpt lat="46.77089" lon="-2.05159">
        <ele>9</ele>
        <time>2018-03-08T16:39:47Z</time>
      </trkpt>
      <trkpt lat="46.77089" lon="-2.0516">
        <ele>9</ele>
        <time>2018-03-08T16:40:47Z</time>
      </trkpt>
      <trkpt lat="46.77089" lon="-2.05161">
        <ele>9</ele>
        <time>2018-03-08T16:41:47Z</time>
      </trkpt>
      <trkpt lat="46.77089" lon="-2.05162">
        <ele>9</ele>
        <time>2018-03-08T16:42:47Z</time>
      </trkpt>
      <trkpt lat="46.77089" lon="-2.05163">
        <ele>9</ele>
        <time>2018-03-08T16:43:47Z</time>
      </trkpt>
      <trkpt lat="46.77089" lon="-2.05164">
        <ele>9</ele>
        <time>2018-03-08T16:44:47Z</time>
      </trkpt>
      <trkpt lat="46.77089" lon="-2.05165">
        <ele>9</ele>
        <time>2018-03-08T16:45:47Z</time>
      </trkpt>
      <trkpt lat="46.77089" lon="-2.05166">
        <ele>9</ele>
        <time>2018-03-08T16:46:47Z</time>
      </trkpt>
      <trkpt lat="46.77089" lon="-2.05167">
        <ele>9</ele>
        <time>2018-03-08T16:47:47Z</time>
      </trkpt>
      <trkpt lat="46.77089" lon="-2.05168">
        <ele>9</ele>
        <time>2018-03-08T16:48:47Z</time>
      </trkpt>
      <trkpt lat="46.77088" lon="-2.05169">
        <ele>9</ele>
        <time>2018-03-08T16:49:47Z</time>
      </trkpt>
      <trkpt lat="46.77088" lon="-2.0517">
        <ele>9</ele>
        <time>2018-03-08T16:50:47Z</time>
      </trkpt>
      <trkpt lat="46.77087" lon="-2.05171">
        <ele>9</ele>
        <time>2018-03-08T16:51:47Z</time>
      </trkpt>
      <trkpt lat="46.77087" lon="-2.05172">
        <ele>9</ele>
        <time>2018-03-08T16:52:47Z</time>
      </trkpt>
      <trkpt lat="46.77086" lon="-2.05172">
        <ele>9</ele>
        <time>2018-03-08T16:53:47Z</time>
      </trkpt>
      <trkpt lat="46.77086" lon="-2.05173">
        <ele>9</ele>
        <time>2018-03-08T16:54:47Z</time>
      </trkpt>
      <trkpt lat="46.77091" lon="-2.05183">
        <ele>8</ele>
        <time>2018-03-08T16:55:47Z</time>
      </trkpt>
      <trkpt lat="46.77146" lon="-2.05259">
        <ele>7</ele>
        <time>2018-03-08T16:56:47Z</time>
      </trkpt>
      <trkpt lat="46.77147" lon="-2.05259">
        <ele>7</ele>
        <time>2018-03-08T16:57:47Z</time>
      </trkpt>
      <trkpt lat="46.77148" lon="-2.05259">
        <ele>7</ele>
        <time>2018-03-08T16:58:47Z</time>
      </trkpt>
      <trkpt lat="46.77149" lon="-2.0526">
        <ele>7</ele>
        <time>2018-03-08T16:59:47Z</time>
      </trkpt>
      <trkpt lat="46.7715" lon="-2.0526">
        <ele>7</ele>
        <time>2018-03-08T17:00:47Z</time>
      </trkpt>
      <trkpt lat="46.77151" lon="-2.05261">
        <ele>7</ele>
        <time>2018-03-08T17:01:47Z</time>
      </trkpt>
      <trkpt lat="46.77152" lon="-2.05261">
        <ele>7</ele>
        <time>2018-03-08T17:02:47Z</time>
      </trkpt>
      <trkpt lat="46.77152" lon="-2.05262">
        <ele>7</ele>
        <time>2018-03-08T17:03:47Z</time>
      </trkpt>
      <trkpt lat="46.77153" lon="-2.05262">
        <ele>7</ele>
        <time>2018-03-08T17:04:47Z</time>
      </trkpt>
      <trkpt lat="46.77153" lon="-2.05263">
        <ele>7</ele>
        <time>2018-03-08T17:05:47Z</time>
      </trkpt>
      <trkpt lat="46.77154" lon="-2.05264">
        <ele>7</ele>
        <time>2018-03-08T17:06:47Z</time>
      </trkpt>
      <trkpt lat="46.77154" lon="-2.05265">
        <ele>7</ele>
        <time>2018-03-08T17:07:47Z</time>
      </trkpt>
      <trkpt lat="46.77154" lon="-2.05266">
        <ele>7</ele>
        <time>2018-03-08T17:08:47Z</time>
      </trkpt>
      <trkpt lat="46.77155" lon="-2.05267">
        <ele>7</ele>
        <time>2018-03-08T17:09:47Z</time>
      </trkpt>
      <trkpt lat="46.77155" lon="-2.05268">
        <ele>7</ele>
        <time>2018-03-08T17:10:47Z</time>
      </trkpt>
      <trkpt lat="46.77155" lon="-2.05269">
        <ele>7</ele>
        <time>2018-03-08T17:11:47Z</time>
      </trkpt>
      <trkpt lat="46.77155" lon="-2.0527">
        <ele>7</ele>
        <time>2018-03-08T17:12:47Z</time>
      </trkpt>
      <trkpt lat="46.77155" lon="-2.05271">
        <ele>7</ele>
        <time>2018-03-08T17:13:47Z</time>
      </trkpt>
      <trkpt lat="46.77178" lon="-2.053">
        <ele>6</ele>
        <time>2018-03-08T17:14:47Z</time>
      </trkpt>
      <trkpt lat="46.77209" lon="-2.05342">
        <ele>5</ele>
        <time>2018-03-08T17:15:47Z</time>
      </trkpt>
      <trkpt lat="46.77231" lon="-2.05371">
        <ele>6</ele>
        <time>2018-03-08T17:16:47Z</time>
      </trkpt>
      <trkpt lat="46.77249" lon="-2.05396">
        <ele>7</ele>
        <time>2018-03-08T17:17:47Z</time>
      </trkpt>
      <trkpt lat="46.77252" lon="-2.05397">
        <ele>7</ele>
        <time>2018-03-08T17:18:47Z</time>
      </trkpt>
      <trkpt lat="46.77253" lon="-2.05397">
        <ele>7</ele>
        <time>2018-03-08T17:19:47Z</time>
      </trkpt>
      <trkpt lat="46.77253" lon="-2.05398">
        <ele>7</ele>
        <time>2018-03-08T17:20:47Z</time>
      </trkpt>
      <trkpt lat="46.77254" lon="-2.05398">
        <ele>7</ele>
        <time>2018-03-08T17:21:47Z</time>
      </trkpt>
      <trkpt lat="46.77254" lon="-2.05399">
        <ele>7</ele>
        <time>2018-03-08T17:22:47Z</time>
      </trkpt>
      <trkpt lat="46.77255" lon="-2.05399">
        <ele>7</ele>
        <time>2018-03-08T17:23:47Z</time>
      </trkpt>
      <trkpt lat="46.77255" lon="-2.054">
        <ele>7</ele>
        <time>2018-03-08T17:24:47Z</time>
      </trkpt>
      <trkpt lat="46.77256" lon="-2.05401">
        <ele>7</ele>
        <time>2018-03-08T17:25:47Z</time>
      </trkpt>
      <trkpt lat="46.77256" lon="-2.05402">
        <ele>7</ele>
        <time>2018-03-08T17:26:47Z</time>
      </trkpt>
      <trkpt lat="46.77257" lon="-2.05403">
        <ele>7</ele>
        <time>2018-03-08T17:27:47Z</time>
      </trkpt>
      <trkpt lat="46.77257" lon="-2.05404">
        <ele>7</ele>
        <time>2018-03-08T17:28:47Z</time>
      </trkpt>
      <trkpt lat="46.77257" lon="-2.05405">
        <ele>7</ele>
        <time>2018-03-08T17:29:47Z</time>
      </trkpt>
      <trkpt lat="46.77257" lon="-2.05406">
        <ele>7</ele>
        <time>2018-03-08T17:30:47Z</time>
      </trkpt>
      <trkpt lat="46.77257" lon="-2.05407">
        <ele>7</ele>
        <time>2018-03-08T17:31:47Z</time>
      </trkpt>
      <trkpt lat="46.77258" lon="-2.05407">
        <ele>7</ele>
        <time>2018-03-08T17:32:47Z</time>
      </trkpt>
      <trkpt lat="46.77258" lon="-2.05408">
        <ele>7</ele>
        <time>2018-03-08T17:33:47Z</time>
      </trkpt>
      <trkpt lat="46.77258" lon="-2.05409">
        <ele>7</ele>
        <time>2018-03-08T17:34:47Z</time>
      </trkpt>
      <trkpt lat="46.77281" lon="-2.05442">
        <ele>8</ele>
        <time>2018-03-08T17:35:47Z</time>
      </trkpt>
      <trkpt lat="46.77309" lon="-2.05483">
        <ele>10</ele>
        <time>2018-03-08T17:36:47Z</time>
      </trkpt>
      <trkpt lat="46.77314" lon="-2.05484">
        <ele>10</ele>
        <time>2018-03-08T17:37:47Z</time>
      </trkpt>
      <trkpt lat="46.77317" lon="-2.05486">
        <ele>11</ele>
        <time>2018-03-08T17:38:47Z</time>
      </trkpt>
      <trkpt lat="46.77319" lon="-2.05489">
        <ele>11</ele>
        <time>2018-03-08T17:39:47Z</time>
      </trkpt>
      <trkpt lat="46.7732" lon="-2.05492">
        <ele>11</ele>
        <time>2018-03-08T17:40:47Z</time>
      </trkpt>
      <trkpt lat="46.7732" lon="-2.05497">
        <ele>11</ele>
        <time>2018-03-08T17:41:47Z</time>
      </trkpt>
      <trkpt lat="46.77327" lon="-2.05506">
        <ele>12</ele>
        <time>2018-03-08T17:42:47Z</time>
      </trkpt>
      <trkpt lat="46.77357" lon="-2.05545">
        <ele>10</ele>
        <time>2018-03-08T17:43:47Z</time>
      </trkpt>
      <trkpt lat="46.77357" lon="-2.05545">
        <ele>10</ele>
        <time>2018-03-08T17:44:47Z</time>
      </trkpt>
      <trkpt lat="46.77364" lon="-2.05555">
        <ele>10</ele>
        <time>2018-03-08T17:45:47Z</time>
      </trkpt>
      <trkpt lat="46.7746" lon="-2.05676">
        <ele>8</ele>
        <time>2018-03-08T17:46:47Z</time>
      </trkpt>
      <trkpt lat="46.77464" lon="-2.05677">
        <ele>8</ele>
        <time>2018-03-08T17:47:47Z</time>
      </trkpt>
      <trkpt lat="46.77468" lon="-2.05678">
        <ele>9</ele>
        <time>2018-03-08T17:48:47Z</time>
      </trkpt>
      <trkpt lat="46.77472" lon="-2.05682">
        <ele>9</ele>
        <time>2018-03-08T17:49:47Z</time>
      </trkpt>
      <trkpt lat="46.77474" lon="-2.05687">
        <ele>9</ele>
        <time>2018-03-08T17:50:47Z</time>
      </trkpt>
      <trkpt lat="46.77475" lon="-2.05693">
        <ele>9</ele>
        <time>2018-03-08T17:51:47Z</time>
      </trkpt>
      <trkpt lat="46.77484" lon="-2.05706">
        <ele>9</ele>
        <time>2018-03-08T17:52:47Z</time>
      </trkpt>
      <trkpt lat="46.77489" lon="-2.05715">
        <ele>10</ele>
        <time>2018-03-08T17:53:47Z</time>
      </trkpt>
      <trkpt lat="46.77571" lon="-2.05843">
        <ele>7</ele>
        <time>2018-03-08T17:54:47Z</time>
      </trkpt>
      <trkpt lat="46.77576" lon="-2.05849">
        <ele>7</ele>
        <time>2018-03-08T17:55:47Z</time>
      </trkpt>
      <trkpt lat="46.77582" lon="-2.05861">
        <ele>7</ele>
        <time>2018-03-08T17:56:47Z</time>
      </trkpt>
      <trkpt lat="46.77585" lon="-2.0586">
        <ele>7</ele>
        <time>2018-03-08T17:57:47Z</time>
      </trkpt>
      <trkpt lat="46.77588" lon="-2.05861">
        <ele>7</ele>
        <time>2018-03-08T17:58:47Z</time>
      </trkpt>
      <trkpt lat="46.77589" lon="-2.05862">
        <ele>7</ele>
        <time>2018-03-08T17:59:47Z</time>
      </trkpt>
      <trkpt lat="46.77591" lon="-2.05863">
        <ele>6</ele>
        <time>2018-03-08T18:00:47Z</time>
      </trkpt>
      <trkpt lat="46.77592" lon="-2.05866">
        <ele>6</ele>
        <time>2018-03-08T18:01:47Z</time>
      </trkpt>
      <trkpt lat="46.77593" lon="-2.05868">
        <ele>6</ele>
        <time>2018-03-08T18:02:47Z</time>
      </trkpt>
      <trkpt lat="46.77594" lon="-2.0587">
        <ele>6</ele>
        <time>2018-03-08T18:03:47Z</time>
      </trkpt>
      <trkpt lat="46.77594" lon="-2.05872">
        <ele>6</ele>
        <time>2018-03-08T18:04:47Z</time>
      </trkpt>
      <trkpt lat="46.77594" lon="-2.05874">
        <ele>6</ele>
        <time>2018-03-08T18:05:47Z</time>
      </trkpt>
      <trkpt lat="46.77593" lon="-2.05876">
        <ele>6</ele>
        <time>2018-03-08T18:06:47Z</time>
      </trkpt>
      <trkpt lat="46.776" lon="-2.05885">
        <ele>6</ele>
        <time>2018-03-08T18:07:47Z</time>
      </trkpt>
      <trkpt lat="46.77607" lon="-2.05895">
        <ele>6</ele>
        <time>2018-03-08T18:08:47Z</time>
      </trkpt>
      <trkpt lat="46.77611" lon="-2.05903">
        <ele>6</ele>
        <time>2018-03-08T18:09:47Z</time>
      </trkpt>
      <trkpt lat="46.77628" lon="-2.05927">
        <ele>6</ele>
        <time>2018-03-08T18:10:47Z</time>
      </trkpt>
      <trkpt lat="46.77667" lon="-2.05987">
        <ele>8</ele>
        <time>2018-03-08T18:11:47Z</time>
      </trkpt>
      <trkpt lat="46.77695" lon="-2.06032">
        <ele>6</ele>
        <time>2018-03-08T18:12:47Z</time>
      </trkpt>
      <trkpt lat="46.77697" lon="-2.06036">
        <ele>6</ele>
        <time>2018-03-08T18:13:47Z</time>
      </trkpt>
      <trkpt lat="46.777" lon="-2.06037">
        <ele>6</ele>
        <time>2018-03-08T18:14:47Z</time>
      </trkpt>
      <trkpt lat="46.77707" lon="-2.06046">
        <ele>6</ele>
        <time>2018-03-08T18:15:47Z</time>
      </trkpt>
      <trkpt lat="46.7771" lon="-2.06046">
        <ele>7</ele>
        <time>2018-03-08T18:16:47Z</time>
      </trkpt>
      <trkpt lat="46.77712" lon="-2.06046">
        <ele>7</ele>
        <time>2018-03-08T18:17:47Z</time>
      </trkpt>
      <trkpt lat="46.77714" lon="-2.06048">
        <ele>7</ele>
        <time>2018-03-08T18:18:47Z</time>
      </trkpt>
      <trkpt lat="46.77716" lon="-2.0605">
        <ele>7</ele>
        <time>2018-03-08T18:19:47Z</time>
      </trkpt>
      <trkpt lat="46.77719" lon="-2.06054">
        <ele>7</ele>
        <time>2018-03-08T18:20:47Z</time>
      </trkpt>
      <trkpt lat="46.7772" lon="-2.06059">
        <ele>7</ele>
        <time>2018-03-08T18:21:47Z</time>
      </trkpt>
      <trkpt lat="46.7772" lon="-2.0606">
        <ele>7</ele>
        <time>2018-03-08T18:22:47Z</time>
      </trkpt>
      <trkpt lat="46.7772" lon="-2.06065">
        <ele>7</ele>
        <time>2018-03-08T18:23:47Z</time>
      </trkpt>
      <trkpt lat="46.77733" lon="-2.06086">
        <ele>9</ele>
        <time>2018-03-08T18:24:47Z</time>
      </trkpt>
      <trkpt lat="46.77736" lon="-2.06094">
        <ele>9</ele>
        <time>2018-03-08T18:25:47Z</time>
      </trkpt>
      <trkpt lat="46.7775" lon="-2.06121">
        <ele>10</ele>
        <time>2018-03-08T18:26:47Z</time>
      </trkpt>
      <trkpt lat="46.77775" lon="-2.06166">
        <ele>9</ele>
        <time>2018-03-08T18:27:47Z</time>
      </trkpt>
      <trkpt lat="46.7778" lon="-2.06169">
        <ele>9</ele>
        <time>2018-03-08T18:28:47Z</time>
      </trkpt>
      <trkpt lat="46.77782" lon="-2.06172">
        <ele>9</ele>
        <time>2018-03-08T18:29:47Z</time>
      </trkpt>
      <trkpt lat="46.77791" lon="-2.0619">
        <ele>9</ele>
        <time>2018-03-08T18:30:47Z</time>
      </trkpt>
      <trkpt lat="46.77795" lon="-2.06199">
        <ele>9</ele>
        <time>2018-03-08T18:31:47Z</time>
      </trkpt>
      <trkpt lat="46.77796" lon="-2.062">
        <ele>9</ele>
        <time>2018-03-08T18:32:47Z</time>
      </trkpt>
      <trkpt lat="46.77797" lon="-2.062">
        <ele>9</ele>
        <time>2018-03-08T18:33:47Z</time>
      </trkpt>
      <trkpt lat="46.77797" lon="-2.06201">
        <ele>9</ele>
        <time>2018-03-08T18:34:47Z</time>
      </trkpt>
      <trkpt lat="46.77798" lon="-2.06201">
        <ele>9</ele>
        <time>2018-03-08T18:35:47Z</time>
      </trkpt>
      <trkpt lat="46.77799" lon="-2.06202">
        <ele>9</ele>
        <time>2018-03-08T18:36:47Z</time>
      </trkpt>
      <trkpt lat="46.77799" lon="-2.06203">
        <ele>9</ele>
        <time>2018-03-08T18:37:47Z</time>
      </trkpt>
      <trkpt lat="46.778" lon="-2.06203">
        <ele>9</ele>
        <time>2018-03-08T18:38:47Z</time>
      </trkpt>
      <trkpt lat="46.778" lon="-2.06204">
        <ele>9</ele>
        <time>2018-03-08T18:39:47Z</time>
      </trkpt>
      <trkpt lat="46.77801" lon="-2.06205">
        <ele>9</ele>
        <time>2018-03-08T18:40:47Z</time>
      </trkpt>
      <trkpt lat="46.77801" lon="-2.06206">
        <ele>9</ele>
        <time>2018-03-08T18:41:47Z</time>
      </trkpt>
      <trkpt lat="46.77801" lon="-2.06207">
        <ele>9</ele>
        <time>2018-03-08T18:42:47Z</time>
      </trkpt>
      <trkpt lat="46.77802" lon="-2.06208">
        <ele>9</ele>
        <time>2018-03-08T18:43:47Z</time>
      </trkpt>
      <trkpt lat="46.77802" lon="-2.06209">
        <ele>9</ele>
        <time>2018-03-08T18:44:47Z</time>
      </trkpt>
      <trkpt lat="46.77802" lon="-2.0621">
        <ele>9</ele>
        <time>2018-03-08T18:45:47Z</time>
      </trkpt>
      <trkpt lat="46.77802" lon="-2.06211">
        <ele>9</ele>
        <time>2018-03-08T18:46:47Z</time>
      </trkpt>
      <trkpt lat="46.77802" lon="-2.06212">
        <ele>9</ele>
        <time>2018-03-08T18:47:47Z</time>
      </trkpt>
      <trkpt lat="46.77802" lon="-2.06213">
        <ele>9</ele>
        <time>2018-03-08T18:48:47Z</time>
      </trkpt>
      <trkpt lat="46.77802" lon="-2.06214">
        <ele>9</ele>
        <time>2018-03-08T18:49:47Z</time>
      </trkpt>
      <trkpt lat="46.77812" lon="-2.06227">
        <ele>9</ele>
        <time>2018-03-08T18:50:47Z</time>
      </trkpt>
      <trkpt lat="46.77818" lon="-2.06234">
        <ele>10</ele>
        <time>2018-03-08T18:51:47Z</time>
      </trkpt>
      <trkpt lat="46.77819" lon="-2.06236">
        <ele>10</ele>
        <time>2018-03-08T18:52:47Z</time>
      </trkpt>
      <trkpt lat="46.77823" lon="-2.06245">
        <ele>10</ele>
        <time>2018-03-08T18:53:47Z</time>
      </trkpt>
      <trkpt lat="46.7787" lon="-2.06326">
        <ele>8</ele>
        <time>2018-03-08T18:54:47Z</time>
      </trkpt>
      <trkpt lat="46.77872" lon="-2.06329">
        <ele>8</ele>
        <time>2018-03-08T18:55:47Z</time>
      </trkpt>
      <trkpt lat="46.77876" lon="-2.06335">
        <ele>8</ele>
        <time>2018-03-08T18:56:47Z</time>
      </trkpt>
      <trkpt lat="46.77879" lon="-2.06338">
        <ele>8</ele>
        <time>2018-03-08T18:57:47Z</time>
      </trkpt>
      <trkpt lat="46.77885" lon="-2.06342">
        <ele>8</ele>
        <time>2018-03-08T18:58:47Z</time>
      </trkpt>
      <trkpt lat="46.7789" lon="-2.06347">
        <ele>8</ele>
        <time>2018-03-08T18:59:47Z</time>
      </trkpt>
      <trkpt lat="46.77894" lon="-2.06349">
        <ele>8</ele>
        <time>2018-03-08T19:00:47Z</time>
      </trkpt>
      <trkpt lat="46.77912" lon="-2.06356">
        <ele>9</ele>
        <time>2018-03-08T19:01:47Z</time>
      </trkpt>
      <trkpt lat="46.7792" lon="-2.06361">
        <ele>9</ele>
        <time>2018-03-08T19:02:47Z</time>
      </trkpt>
      <trkpt lat="46.77926" lon="-2.06366">
        <ele>9</ele>
        <time>2018-03-08T19:03:47Z</time>
      </trkpt>
      <trkpt lat="46.77933" lon="-2.06375">
        <ele>10</ele>
        <time>2018-03-08T19:04:47Z</time>
      </trkpt>
      <trkpt lat="46.77933" lon="-2.06375">
        <ele>10</ele>
        <time>2018-03-08T19:05:47Z</time>
      </trkpt>
      <trkpt lat="46.77934" lon="-2.06374">
        <ele>9</ele>
        <time>2018-03-08T19:06:47Z</time>
      </trkpt>
      <trkpt lat="46.77934" lon="-2.06373">
        <ele>9</ele>
        <time>2018-03-08T19:07:47Z</time>
      </trkpt>
      <trkpt lat="46.77935" lon="-2.06373">
        <ele>9</ele>
        <time>2018-03-08T19:08:47Z</time>
      </trkpt>
      <trkpt lat="46.77935" lon="-2.06372">
        <ele>9</ele>
        <time>2018-03-08T19:09:47Z</time>
      </trkpt>
      <trkpt lat="46.77936" lon="-2.06372">
        <ele>9</ele>
        <time>2018-03-08T19:10:47Z</time>
      </trkpt>
      <trkpt lat="46.77937" lon="-2.06372">
        <ele>9</ele>
        <time>2018-03-08T19:11:47Z</time>
      </trkpt>
      <trkpt lat="46.77937" lon="-2.06371">
        <ele>9</ele>
        <time>2018-03-08T19:12:47Z</time>
      </trkpt>
      <trkpt lat="46.77938" lon="-2.06371">
        <ele>9</ele>
        <time>2018-03-08T19:13:47Z</time>
      </trkpt>
      <trkpt lat="46.77939" lon="-2.06371">
        <ele>9</ele>
        <time>2018-03-08T19:14:47Z</time>
      </trkpt>
      <trkpt lat="46.7794" lon="-2.06371">
        <ele>9</ele>
        <time>2018-03-08T19:15:47Z</time>
      </trkpt>
      <trkpt lat="46.7794" lon="-2.06372">
        <ele>9</ele>
        <time>2018-03-08T19:16:47Z</time>
      </trkpt>
      <trkpt lat="46.77941" lon="-2.06372">
        <ele>9</ele>
        <time>2018-03-08T19:17:47Z</time>
      </trkpt>
      <trkpt lat="46.77942" lon="-2.06372">
        <ele>9</ele>
        <time>2018-03-08T19:18:47Z</time>
      </trkpt>
      <trkpt lat="46.77942" lon="-2.06373">
        <ele>9</ele>
        <time>2018-03-08T19:19:47Z</time>
      </trkpt>
      <trkpt lat="46.77943" lon="-2.06373">
        <ele>9</ele>
        <time>2018-03-08T19:20:47Z</time>
      </trkpt>
      <trkpt lat="46.77943" lon="-2.06374">
        <ele>9</ele>
        <time>2018-03-08T19:21:47Z</time>
      </trkpt>
      <trkpt lat="46.77944" lon="-2.06374">
        <ele>9</ele>
        <time>2018-03-08T19:22:47Z</time>
      </trkpt>
      <trkpt lat="46.77944" lon="-2.06375">
        <ele>10</ele>
        <time>2018-03-08T19:23:47Z</time>
      </trkpt>
      <trkpt lat="46.77945" lon="-2.06376">
        <ele>10</ele>
        <time>2018-03-08T19:24:47Z</time>
      </trkpt>
      <trkpt lat="46.77945" lon="-2.06377">
        <ele>10</ele>
        <time>2018-03-08T19:25:47Z</time>
      </trkpt>
      <trkpt lat="46.77945" lon="-2.06378">
        <ele>10</ele>
        <time>2018-03-08T19:26:47Z</time>
      </trkpt>
      <trkpt lat="46.77946" lon="-2.06378">
        <ele>10</ele>
        <time>2018-03-08T19:27:47Z</time>
      </trkpt>
      <trkpt lat="46.77946" lon="-2.06379">
        <ele>10</ele>
        <time>2018-03-08T19:28:47Z</time>
      </trkpt>
      <trkpt lat="46.77946" lon="-2.0638">
        <ele>10</ele>
        <time>2018-03-08T19:29:47Z</time>
      </trkpt>
      <trkpt lat="46.77946" lon="-2.06381">
        <ele>10</ele>
        <time>2018-03-08T19:30:47Z</time>
      </trkpt>
      <trkpt lat="46.77946" lon="-2.06382">
        <ele>10</ele>
        <time>2018-03-08T19:31:47Z</time>
      </trkpt>
      <trkpt lat="46.77946" lon="-2.06383">
        <ele>10</ele>
        <time>2018-03-08T19:32:47Z</time>
      </trkpt>
      <trkpt lat="46.77946" lon="-2.06384">
        <ele>10</ele>
        <time>2018-03-08T19:33:47Z</time>
      </trkpt>
      <trkpt lat="46.77946" lon="-2.06385">
        <ele>10</ele>
        <time>2018-03-08T19:34:47Z</time>
      </trkpt>
      <trkpt lat="46.77945" lon="-2.06386">
        <ele>10</ele>
        <time>2018-03-08T19:35:47Z</time>
      </trkpt>
      <trkpt lat="46.77945" lon="-2.06387">
        <ele>10</ele>
        <time>2018-03-08T19:36:47Z</time>
      </trkpt>
      <trkpt lat="46.77945" lon="-2.06388">
        <ele>10</ele>
        <time>2018-03-08T19:37:47Z</time>
      </trkpt>
      <trkpt lat="46.77944" lon="-2.06388">
        <ele>10</ele>
        <time>2018-03-08T19:38:47Z</time>
      </trkpt>
      <trkpt lat="46.77944" lon="-2.06389">
        <ele>10</ele>
        <time>2018-03-08T19:39:47Z</time>
      </trkpt>
      <trkpt lat="46.77944" lon="-2.0639">
        <ele>10</ele>
        <time>2018-03-08T19:40:47Z</time>
      </trkpt>
      <trkpt lat="46.77943" lon="-2.0639">
        <ele>10</ele>
        <time>2018-03-08T19:41:47Z</time>
      </trkpt>
      <trkpt lat="46.77943" lon="-2.06391">
        <ele>10</ele>
        <time>2018-03-08T19:42:47Z</time>
      </trkpt>
      <trkpt lat="46.77947" lon="-2.06401">
        <ele>10</ele>
        <time>2018-03-08T19:43:47Z</time>
      </trkpt>
      <trkpt lat="46.77948" lon="-2.06406">
        <ele>10</ele>
        <time>2018-03-08T19:44:47Z</time>
      </trkpt>
      <trkpt lat="46.77949" lon="-2.06414">
        <ele>11</ele>
        <time>2018-03-08T19:45:47Z</time>
      </trkpt>
      <trkpt lat="46.77951" lon="-2.06435">
        <ele>11</ele>
        <time>2018-03-08T19:46:47Z</time>
      </trkpt>
      <trkpt lat="46.77951" lon="-2.0645">
        <ele>11</ele>
        <time>2018-03-08T19:47:47Z</time>
      </trkpt>
      <trkpt lat="46.77952" lon="-2.0646">
        <ele>11</ele>
        <time>2018-03-08T19:48:47Z</time>
      </trkpt>
      <trkpt lat="46.77954" lon="-2.06467">
        <ele>11</ele>
        <time>2018-03-08T19:49:47Z</time>
      </trkpt>
      <trkpt lat="46.77957" lon="-2.0648">
        <ele>11</ele>
        <time>2018-03-08T19:50:47Z</time>
      </trkpt>
      <trkpt lat="46.77961" lon="-2.06489">
        <ele>12</ele>
        <time>2018-03-08T19:51:47Z</time>
      </trkpt>
      <trkpt lat="46.77971" lon="-2.06505">
        <ele>12</ele>
        <time>2018-03-08T19:52:47Z</time>
      </trkpt>
      <trkpt lat="46.77978" lon="-2.06513">
        <ele>12</ele>
        <time>2018-03-08T19:53:47Z</time>
      </trkpt>
      <trkpt lat="46.77986" lon="-2.06521">
        <ele>13</ele>
        <time>2018-03-08T19:54:47Z</time>
      </trkpt>
      <trkpt lat="46.78014" lon="-2.06553">
        <ele>12</ele>
        <time>2018-03-08T19:55:47Z</time>
      </trkpt>
      <trkpt lat="46.78028" lon="-2.06576">
        <ele>11</ele>
        <time>2018-03-08T19:56:47Z</time>
      </trkpt>
      <trkpt lat="46.78059" lon="-2.06635">
        <ele>11</ele>
        <time>2018-03-08T19:57:47Z</time>
      </trkpt>
      <trkpt lat="46.78061" lon="-2.0664">
        <ele>12</ele>
        <time>2018-03-08T19:58:47Z</time>
      </trkpt>
      <trkpt lat="46.78064" lon="-2.06651">
        <ele>12</ele>
        <time>2018-03-08T19:59:47Z</time>
      </trkpt>
      <trkpt lat="46.78069" lon="-2.0667">
        <ele>12</ele>
        <time>2018-03-08T20:00:47Z</time>
      </trkpt>
      <trkpt lat="46.78072" lon="-2.06678">
        <ele>12</ele>
        <time>2018-03-08T20:01:47Z</time>
      </trkpt>
      <trkpt lat="46.78074" lon="-2.06682">
        <ele>12</ele>
        <time>2018-03-08T20:02:47Z</time>
      </trkpt>
      <trkpt lat="46.78088" lon="-2.06704">
        <ele>11</ele>
        <time>2018-03-08T20:03:47Z</time>
      </trkpt>
      <trkpt lat="46.7811" lon="-2.0674">
        <ele>7</ele>
        <time>2018-03-08T20:04:47Z</time>
      </trkpt>
      <trkpt lat="46.78112" lon="-2.06743">
        <ele>7</ele>
        <time>2018-03-08T20:05:47Z</time>
      </trkpt>
      <trkpt lat="46.78121" lon="-2.06757">
        <ele>6</ele>
        <time>2018-03-08T20:06:47Z</time>
      </trkpt>
      <trkpt lat="46.78126" lon="-2.06763">
        <ele>6</ele>
        <time>2018-03-08T20:07:47Z</time>
      </trkpt>
      <trkpt lat="46.78131" lon="-2.0677">
        <ele>6</ele>
        <time>2018-03-08T20:08:47Z</time>
      </trkpt>
      <trkpt lat="46.78137" lon="-2.06777">
        <ele>6</ele>
        <time>2018-03-08T20:09:47Z</time>
      </trkpt>
      <trkpt lat="46.78141" lon="-2.06778">
        <ele>6</ele>
        <time>2018-03-08T20:10:47Z</time>
      </trkpt>
      <trkpt lat="46.78145" lon="-2.06781">
        <ele>6</ele>
        <time>2018-03-08T20:11:47Z</time>
      </trkpt>
      <trkpt lat="46.78149" lon="-2.06784">
        <ele>6</ele>
        <time>2018-03-08T20:12:47Z</time>
      </trkpt>
      <trkpt lat="46.78154" lon="-2.06788">
        <ele>6</ele>
        <time>2018-03-08T20:13:47Z</time>
      </trkpt>
      <trkpt lat="46.78154" lon="-2.06788">
        <ele>6</ele>
        <time>2018-03-08T20:14:47Z</time>
      </trkpt>
      <trkpt lat="46.78157" lon="-2.06788">
        <ele>6</ele>
        <time>2018-03-08T20:15:47Z</time>
      </trkpt>
      <trkpt lat="46.78161" lon="-2.06788">
        <ele>6</ele>
        <time>2018-03-08T20:16:47Z</time>
      </trkpt>
      <trkpt lat="46.78163" lon="-2.06789">
        <ele>6</ele>
        <time>2018-03-08T20:17:47Z</time>
      </trkpt>
      <trkpt lat="46.78182" lon="-2.06777">
        <ele>6</ele>
        <time>2018-03-08T20:18:47Z</time>
      </trkpt>
      <trkpt lat="46.78188" lon="-2.06773">
        <ele>6</ele>
        <time>2018-03-08T20:19:47Z</time>
      </trkpt>
      <trkpt lat="46.782" lon="-2.06766">
        <ele>6</ele>
        <time>2018-03-08T20:20:47Z</time>
      </trkpt>
      <trkpt lat="46.78229" lon="-2.06748">
        <ele>5</ele>
        <time>2018-03-08T20:21:47Z</time>
      </trkpt>
      <trkpt lat="46.78245" lon="-2.06739">
        <ele>5</ele>
        <time>2018-03-08T20:22:47Z</time>
      </trkpt>
      <trkpt lat="46.78264" lon="-2.06726">
        <ele>5</ele>
        <time>2018-03-08T20:23:47Z</time>
      </trkpt>
      <trkpt lat="46.78279" lon="-2.06717">
        <ele>5</ele>
        <time>2018-03-08T20:24:47Z</time>
      </trkpt>
      <trkpt lat="46.78312" lon="-2.06696">
        <ele>6</ele>
        <time>2018-03-08T20:25:47Z</time>
      </trkpt>
      <trkpt lat="46.78368" lon="-2.0666">
        <ele>5</ele>
        <time>2018-03-08T20:26:47Z</time>
      </trkpt>
      <trkpt lat="46.78399" lon="-2.06641">
        <ele>5</ele>
        <time>2018-03-08T20:27:47Z</time>
      </trkpt>
      <trkpt lat="46.78402" lon="-2.06638">
        <ele>5</ele>
        <time>2018-03-08T20:28:47Z</time>
      </trkpt>
      <trkpt lat="46.78434" lon="-2.06618">
        <ele>5</ele>
        <time>2018-03-08T20:29:47Z</time>
      </trkpt>
      <trkpt lat="46.78449" lon="-2.06609">
        <ele>5</ele>
        <time>2018-03-08T20:30:47Z</time>
      </trkpt>
      <trkpt lat="46.78449" lon="-2.06606">
        <ele>5</ele>
        <time>2018-03-08T20:31:47Z</time>
      </trkpt>
      <trkpt lat="46.78449" lon="-2.06604">
        <ele>5</ele>
        <time>2018-03-08T20:32:47Z</time>
      </trkpt>
      <trkpt lat="46.78449" lon="-2.06602">
        <ele>5</ele>
        <time>2018-03-08T20:33:47Z</time>
      </trkpt>
      <trkpt lat="46.7845" lon="-2.066">
        <ele>5</ele>
        <time>2018-03-08T20:34:47Z</time>
      </trkpt>
      <trkpt lat="46.78451" lon="-2.06599">
        <ele>5</ele>
        <time>2018-03-08T20:35:47Z</time>
      </trkpt>
      <trkpt lat="46.78452" lon="-2.06597">
        <ele>5</ele>
        <time>2018-03-08T20:36:47Z</time>
      </trkpt>
      <trkpt lat="46.78454" lon="-2.06596">
        <ele>5</ele>
        <time>2018-03-08T20:37:47Z</time>
      </trkpt>
      <trkpt lat="46.78456" lon="-2.06596">
        <ele>6</ele>
        <time>2018-03-08T20:38:47Z</time>
      </trkpt>
      <trkpt lat="46.78458" lon="-2.06596">
        <ele>6</ele>
        <time>2018-03-08T20:39:47Z</time>
      </trkpt>
      <trkpt lat="46.7846" lon="-2.06596">
        <ele>6</ele>
        <time>2018-03-08T20:40:47Z</time>
      </trkpt>
      <trkpt lat="46.78462" lon="-2.06597">
        <ele>6</ele>
        <time>2018-03-08T20:41:47Z</time>
      </trkpt>
      <trkpt lat="46.78464" lon="-2.06598">
        <ele>6</ele>
        <time>2018-03-08T20:42:47Z</time>
      </trkpt>
      <trkpt lat="46.7848" lon="-2.0659">
        <ele>6</ele>
        <time>2018-03-08T20:43:47Z</time>
      </trkpt>
      <trkpt lat="46.78483" lon="-2.06588">
        <ele>6</ele>
        <time>2018-03-08T20:44:47Z</time>
      </trkpt>
      <trkpt lat="46.78518" lon="-2.06566">
        <ele>7</ele>
        <time>2018-03-08T20:45:47Z</time>
      </trkpt>
      <trkpt lat="46.78557" lon="-2.06541">
        <ele>7</ele>
        <time>2018-03-08T20:46:47Z</time>
      </trkpt>
      <trkpt lat="46.78564" lon="-2.06536">
        <ele>7</ele>
        <time>2018-03-08T20:47:47Z</time>
      </trkpt>
      <trkpt lat="46.78611" lon="-2.06506">
        <ele>8</ele>
        <time>2018-03-08T20:48:47Z</time>
      </trkpt>
      <trkpt lat="46.78639" lon="-2.06489">
        <ele>8</ele>
        <time>2018-03-08T20:49:47Z</time>
      </trkpt>
      <trkpt lat="46.78689" lon="-2.06457">
        <ele>9</ele>
        <time>2018-03-08T20:50:47Z</time>
      </trkpt>
      <trkpt lat="46.78713" lon="-2.06443">
        <ele>8</ele>
        <time>2018-03-08T20:51:47Z</time>
      </trkpt>
      <trkpt lat="46.78769" lon="-2.06406">
        <ele>8</ele>
        <time>2018-03-08T20:52:47Z</time>
      </trkpt>
      <trkpt lat="46.78784" lon="-2.06396">
        <ele>9</ele>
        <time>2018-03-08T20:53:47Z</time>
      </trkpt>
      <trkpt lat="46.78846" lon="-2.06357">
        <ele>11</ele>
        <time>2018-03-08T20:54:47Z</time>
      </trkpt>
      <trkpt lat="46.78861" lon="-2.06348">
        <ele>11</ele>
        <time>2018-03-08T20:55:47Z</time>
      </trkpt>
      <trkpt lat="46.78928" lon="-2.06306">
        <ele>13</ele>
        <time>2018-03-08T20:56:47Z</time>
      </trkpt>
      <trkpt lat="46.78933" lon="-2.06303">
        <ele>13</ele>
        <time>2018-03-08T20:57:47Z</time>
      </trkpt>
      <trkpt lat="46.78967" lon="-2.06281">
        <ele>12</ele>
        <time>2018-03-08T20:58:47Z</time>
      </trkpt>
      <trkpt lat="46.79001" lon="-2.06257">
        <ele>11</ele>
        <time>2018-03-08T20:59:47Z</time>
      </trkpt>
      <trkpt lat="46.79014" lon="-2.06247">
        <ele>11</ele>
        <time>2018-03-08T21:00:47Z</time>
      </trkpt>
      <trkpt lat="46.79014" lon="-2.06247">
        <ele>11</ele>
        <time>2018-03-08T21:01:47Z</time>
      </trkpt>
      <trkpt lat="46.79014" lon="-2.06242">
        <ele>11</ele>
        <time>2018-03-08T21:02:47Z</time>
      </trkpt>
      <trkpt lat="46.79015" lon="-2.06237">
        <ele>11</ele>
        <time>2018-03-08T21:03:47Z</time>
      </trkpt>
      <trkpt lat="46.79016" lon="-2.0623">
        <ele>11</ele>
        <time>2018-03-08T21:04:47Z</time>
      </trkpt>
      <trkpt lat="46.79019" lon="-2.06225">
        <ele>11</ele>
        <time>2018-03-08T21:05:47Z</time>
      </trkpt>
      <trkpt lat="46.79022" lon="-2.06221">
        <ele>11</ele>
        <time>2018-03-08T21:06:47Z</time>
      </trkpt>
      <trkpt lat="46.79025" lon="-2.06218">
        <ele>11</ele>
        <time>2018-03-08T21:07:47Z</time>
      </trkpt>
      <trkpt lat="46.79029" lon="-2.06217">
        <ele>11</ele>
        <time>2018-03-08T21:08:47Z</time>
      </trkpt>
      <trkpt lat="46.79031" lon="-2.06216">
        <ele>11</ele>
        <time>2018-03-08T21:09:47Z</time>
      </trkpt>
      <trkpt lat="46.79035" lon="-2.06216">
        <ele>11</ele>
        <time>2018-03-08T21:10:47Z</time>
      </trkpt>
      <trkpt lat="46.79037" lon="-2.06216">
        <ele>11</ele>
        <time>2018-03-08T21:11:47Z</time>
      </trkpt>
      <trkpt lat="46.79041" lon="-2.06216">
        <ele>11</ele>
        <time>2018-03-08T21:12:47Z</time>
      </trkpt>
      <trkpt lat="46.79044" lon="-2.06218">
        <ele>10</ele>
        <time>2018-03-08T21:13:47Z</time>
      </trkpt>
      <trkpt lat="46.79046" lon="-2.0622">
        <ele>10</ele>
        <time>2018-03-08T21:14:47Z</time>
      </trkpt>
      <trkpt lat="46.79049" lon="-2.06224">
        <ele>10</ele>
        <time>2018-03-08T21:15:47Z</time>
      </trkpt>
      <trkpt lat="46.79052" lon="-2.06229">
        <ele>10</ele>
        <time>2018-03-08T21:16:47Z</time>
      </trkpt>
      <trkpt lat="46.79053" lon="-2.06232">
        <ele>10</ele>
        <time>2018-03-08T21:17:47Z</time>
      </trkpt>
      <trkpt lat="46.79054" lon="-2.06235">
        <ele>10</ele>
        <time>2018-03-08T21:18:47Z</time>
      </trkpt>
      <trkpt lat="46.79054" lon="-2.06238">
        <ele>10</ele>
        <time>2018-03-08T21:19:47Z</time>
      </trkpt>
      <trkpt lat="46.79055" lon="-2.06241">
        <ele>10</ele>
        <time>2018-03-08T21:20:47Z</time>
      </trkpt>
      <trkpt lat="46.79055" lon="-2.06244">
        <ele>10</ele>
        <time>2018-03-08T21:21:47Z</time>
      </trkpt>
      <trkpt lat="46.79055" lon="-2.06247">
        <ele>10</ele>
        <time>2018-03-08T21:22:47Z</time>
      </trkpt>
      <trkpt lat="46.79055" lon="-2.0625">
        <ele>10</ele>
        <time>2018-03-08T21:23:47Z</time>
      </trkpt>
      <trkpt lat="46.79055" lon="-2.06254">
        <ele>10</ele>
        <time>2018-03-08T21:24:47Z</time>
      </trkpt>
      <trkpt lat="46.79055" lon="-2.06255">
        <ele>10</ele>
        <time>2018-03-08T21:25:47Z</time>
      </trkpt>
      <trkpt lat="46.79054" lon="-2.06256">
        <ele>10</ele>
        <time>2018-03-08T21:26:47Z</time>
      </trkpt>
      <trkpt lat="46.79054" lon="-2.06257">
        <ele>10</ele>
        <time>2018-03-08T21:27:47Z</time>
      </trkpt>
      <trkpt lat="46.79054" lon="-2.06258">
        <ele>11</ele>
        <time>2018-03-08T21:28:47Z</time>
      </trkpt>
      <trkpt lat="46.79054" lon="-2.06259">
        <ele>11</ele>
        <time>2018-03-08T21:29:47Z</time>
      </trkpt>
      <trkpt lat="46.79054" lon="-2.0626">
        <ele>11</ele>
        <time>2018-03-08T21:30:47Z</time>
      </trkpt>
      <trkpt lat="46.79053" lon="-2.06261">
        <ele>11</ele>
        <time>2018-03-08T21:31:47Z</time>
      </trkpt>
      <trkpt lat="46.79053" lon="-2.06262">
        <ele>11</ele>
        <time>2018-03-08T21:32:47Z</time>
      </trkpt>
      <trkpt lat="46.79053" lon="-2.06263">
        <ele>11</ele>
        <time>2018-03-08T21:33:47Z</time>
      </trkpt>
      <trkpt lat="46.79052" lon="-2.06263">
        <ele>11</ele>
        <time>2018-03-08T21:34:47Z</time>
      </trkpt>
      <trkpt lat="46.79052" lon="-2.06264">
        <ele>11</ele>
        <time>2018-03-08T21:35:47Z</time>
      </trkpt>
      <trkpt lat="46.79051" lon="-2.06265">
        <ele>11</ele>
        <time>2018-03-08T21:36:47Z</time>
      </trkpt>
      <trkpt lat="46.79051" lon="-2.06266">
        <ele>11</ele>
        <time>2018-03-08T21:37:47Z</time>
      </trkpt>
      <trkpt lat="46.7905" lon="-2.06267">
        <ele>11</ele>
        <time>2018-03-08T21:38:47Z</time>
      </trkpt>
      <trkpt lat="46.79049" lon="-2.06268">
        <ele>11</ele>
        <time>2018-03-08T21:39:47Z</time>
      </trkpt>
      <trkpt lat="46.79048" lon="-2.06269">
        <ele>11</ele>
        <time>2018-03-08T21:40:47Z</time>
      </trkpt>
      <trkpt lat="46.79048" lon="-2.0627">
        <ele>11</ele>
        <time>2018-03-08T21:41:47Z</time>
      </trkpt>
      <trkpt lat="46.79047" lon="-2.06271">
        <ele>11</ele>
        <time>2018-03-08T21:42:47Z</time>
      </trkpt>
      <trkpt lat="46.79046" lon="-2.06272">
        <ele>11</ele>
        <time>2018-03-08T21:43:47Z</time>
      </trkpt>
      <trkpt lat="46.79045" lon="-2.06272">
        <ele>11</ele>
        <time>2018-03-08T21:44:47Z</time>
      </trkpt>
      <trkpt lat="46.79044" lon="-2.06291">
        <ele>11</ele>
        <time>2018-03-08T21:45:47Z</time>
      </trkpt>
      <trkpt lat="46.79044" lon="-2.06299">
        <ele>12</ele>
        <time>2018-03-08T21:46:47Z</time>
      </trkpt>
      <trkpt lat="46.79045" lon="-2.06307">
        <ele>12</ele>
        <time>2018-03-08T21:47:47Z</time>
      </trkpt>
      <trkpt lat="46.79046" lon="-2.06315">
        <ele>12</ele>
        <time>2018-03-08T21:48:47Z</time>
      </trkpt>
      <trkpt lat="46.79047" lon="-2.0632">
        <ele>12</ele>
        <time>2018-03-08T21:49:47Z</time>
      </trkpt>
      <trkpt lat="46.79048" lon="-2.06324">
        <ele>12</ele>
        <time>2018-03-08T21:50:47Z</time>
      </trkpt>
      <trkpt lat="46.79051" lon="-2.0634">
        <ele>12</ele>
        <time>2018-03-08T21:51:47Z</time>
      </trkpt>
      <trkpt lat="46.79058" lon="-2.06362">
        <ele>13</ele>
        <time>2018-03-08T21:52:47Z</time>
      </trkpt>
      <trkpt lat="46.7907" lon="-2.064">
        <ele>13</ele>
        <time>2018-03-08T21:53:47Z</time>
      </trkpt>
      <trkpt lat="46.79075" lon="-2.06415">
        <ele>13</ele>
        <time>2018-03-08T21:54:47Z</time>
      </trkpt>
      <trkpt lat="46.79076" lon="-2.06416">
        <ele>13</ele>
        <time>2018-03-08T21:55:47Z</time>
      </trkpt>
      <trkpt lat="46.79082" lon="-2.06432">
        <ele>13</ele>
        <time>2018-03-08T21:56:47Z</time>
      </trkpt>
      <trkpt lat="46.7909" lon="-2.06455">
        <ele>13</ele>
        <time>2018-03-08T21:57:47Z</time>
      </trkpt>
      <trkpt lat="46.79093" lon="-2.06455">
        <ele>13</ele>
        <time>2018-03-08T21:58:47Z</time>
      </trkpt>
      <trkpt lat="46.79095" lon="-2.06455">
        <ele>13</ele>
        <time>2018-03-08T21:59:47Z</time>
      </trkpt>
      <trkpt lat="46.79097" lon="-2.06456">
        <ele>13</ele>
        <time>2018-03-08T22:00:47Z</time>
      </trkpt>
      <trkpt lat="46.79099" lon="-2.06457">
        <ele>12</ele>
        <time>2018-03-08T22:01:47Z</time>
      </trkpt>
      <trkpt lat="46.79101" lon="-2.0646">
        <ele>12</ele>
        <time>2018-03-08T22:02:47Z</time>
      </trkpt>
      <trkpt lat="46.79102" lon="-2.06463">
        <ele>12</ele>
        <time>2018-03-08T22:03:47Z</time>
      </trkpt>
      <trkpt lat="46.79103" lon="-2.06466">
        <ele>12</ele>
        <time>2018-03-08T22:04:47Z</time>
      </trkpt>
      <trkpt lat="46.79103" lon="-2.06468">
        <ele>12</ele>
        <time>2018-03-08T22:05:47Z</time>
      </trkpt>
      <trkpt lat="46.79103" lon="-2.06471">
        <ele>13</ele>
        <time>2018-03-08T22:06:47Z</time>
      </trkpt>
      <trkpt lat="46.79103" lon="-2.06474">
        <ele>13</ele>
        <time>2018-03-08T22:07:47Z</time>
      </trkpt>
      <trkpt lat="46.79103" lon="-2.06476">
        <ele>13</ele>
        <time>2018-03-08T22:08:47Z</time>
      </trkpt>
      <trkpt lat="46.79102" lon="-2.0648">
        <ele>13</ele>
        <time>2018-03-08T22:09:47Z</time>
      </trkpt>
      <trkpt lat="46.79106" lon="-2.06495">
        <ele>13</ele>
        <time>2018-03-08T22:10:47Z</time>
      </trkpt>
      <trkpt lat="46.79109" lon="-2.06505">
        <ele>13</ele>
        <time>2018-03-08T22:11:47Z</time>
      </trkpt>
      <trkpt lat="46.79136" lon="-2.06583">
        <ele>12</ele>
        <time>2018-03-08T22:12:47Z</time>
      </trkpt>
      <trkpt lat="46.79144" lon="-2.06602">
        <ele>12</ele>
        <time>2018-03-08T22:13:47Z</time>
      </trkpt>
      <trkpt lat="46.79148" lon="-2.06615">
        <ele>12</ele>
        <time>2018-03-08T22:14:47Z</time>
      </trkpt>
      <trkpt lat="46.79151" lon="-2.06623">
        <ele>12</ele>
        <time>2018-03-08T22:15:47Z</time>
      </trkpt>
      <trkpt lat="46.79154" lon="-2.06632">
        <ele>12</ele>
        <time>2018-03-08T22:16:47Z</time>
      </trkpt>
      <trkpt lat="46.79156" lon="-2.06639">
        <ele>12</ele>
        <time>2018-03-08T22:17:47Z</time>
      </trkpt>
      <trkpt lat="46.79157" lon="-2.06644">
        <ele>12</ele>
        <time>2018-03-08T22:18:47Z</time>
      </trkpt>
      <trkpt lat="46.79161" lon="-2.06657">
        <ele>11</ele>
        <time>2018-03-08T22:19:47Z</time>
      </trkpt>
      <trkpt lat="46.79161" lon="-2.06657">
        <ele>11</ele>
        <time>2018-03-08T22:20:47Z</time>
      </trkpt>
      <trkpt lat="46.79163" lon="-2.06659">
        <ele>11</ele>
        <time>2018-03-08T22:21:47Z</time>
      </trkpt>
      <trkpt lat="46.79165" lon="-2.06661">
        <ele>11</ele>
        <time>2018-03-08T22:22:47Z</time>
      </trkpt>
      <trkpt lat="46.79166" lon="-2.06663">
        <ele>11</ele>
        <time>2018-03-08T22:23:47Z</time>
      </trkpt>
      <trkpt lat="46.79167" lon="-2.06666">
        <ele>11</ele>
        <time>2018-03-08T22:24:47Z</time>
      </trkpt>
      <trkpt lat="46.79168" lon="-2.0667">
        <ele>11</ele>
        <time>2018-03-08T22:25:47Z</time>
      </trkpt>
      <trkpt lat="46.79168" lon="-2.06675">
        <ele>11</ele>
        <time>2018-03-08T22:26:47Z</time>
      </trkpt>
      <trkpt lat="46.79174" lon="-2.06684">
        <ele>11</ele>
        <time>2018-03-08T22:27:47Z</time>
      </trkpt>
      <trkpt lat="46.79176" lon="-2.06686">
        <ele>11</ele>
        <time>2018-03-08T22:28:47Z</time>
      </trkpt>
      <trkpt lat="46.79182" lon="-2.06695">
        <ele>11</ele>
        <time>2018-03-08T22:29:47Z</time>
      </trkpt>
      <trkpt lat="46.79189" lon="-2.06702">
        <ele>11</ele>
        <time>2018-03-08T22:30:47Z</time>
      </trkpt>
      <trkpt lat="46.79196" lon="-2.06708">
        <ele>10</ele>
        <time>2018-03-08T22:31:47Z</time>
      </trkpt>
      <trkpt lat="46.79201" lon="-2.06712">
        <ele>10</ele>
        <time>2018-03-08T22:32:47Z</time>
      </trkpt>
      <trkpt lat="46.79207" lon="-2.06716">
        <ele>10</ele>
        <time>2018-03-08T22:33:47Z</time>
      </trkpt>
      <trkpt lat="46.79221" lon="-2.06725">
        <ele>10</ele>
        <time>2018-03-08T22:34:47Z</time>
      </trkpt>
      <trkpt lat="46.79224" lon="-2.06727">
        <ele>10</ele>
        <time>2018-03-08T22:35:47Z</time>
      </trkpt>
      <trkpt lat="46.79229" lon="-2.06729">
        <ele>9</ele>
        <time>2018-03-08T22:36:47Z</time>
      </trkpt>
      <trkpt lat="46.79249" lon="-2.06734">
        <ele>8</ele>
        <time>2018-03-08T22:37:47Z</time>
      </trkpt>
      <trkpt lat="46.79318" lon="-2.06743">
        <ele>6</ele>
        <time>2018-03-08T22:38:47Z</time>
      </trkpt>
      <trkpt lat="46.79345" lon="-2.06747">
        <ele>6</ele>
        <time>2018-03-08T22:39:47Z</time>
      </trkpt>
      <trkpt lat="46.79406" lon="-2.06755">
        <ele>5</ele>
        <time>2018-03-08T22:40:47Z</time>
      </trkpt>
      <trkpt lat="46.79425" lon="-2.06757">
        <ele>5</ele>
        <time>2018-03-08T22:41:47Z</time>
      </trkpt>
      <trkpt lat="46.79431" lon="-2.06758">
        <ele>5</ele>
        <time>2018-03-08T22:42:47Z</time>
      </trkpt>
      <trkpt lat="46.79444" lon="-2.0676">
        <ele>5</ele>
        <time>2018-03-08T22:43:47Z</time>
      </trkpt>
      <trkpt lat="46.79453" lon="-2.0676">
        <ele>5</ele>
        <time>2018-03-08T22:44:47Z</time>
      </trkpt>
      <trkpt lat="46.79464" lon="-2.06757">
        <ele>5</ele>
        <time>2018-03-08T22:45:47Z</time>
      </trkpt>
      <trkpt lat="46.79471" lon="-2.06757">
        <ele>5</ele>
        <time>2018-03-08T22:46:47Z</time>
      </trkpt>
      <trkpt lat="46.79485" lon="-2.06754">
        <ele>5</ele>
        <time>2018-03-08T22:47:47Z</time>
      </trkpt>
      <trkpt lat="46.79485" lon="-2.06754">
        <ele>5</ele>
        <time>2018-03-08T22:48:47Z</time>
      </trkpt>
      <trkpt lat="46.79486" lon="-2.06751">
        <ele>5</ele>
        <time>2018-03-08T22:49:47Z</time>
      </trkpt>
      <trkpt lat="46.79486" lon="-2.0675">
        <ele>5</ele>
        <time>2018-03-08T22:50:47Z</time>
      </trkpt>
      <trkpt lat="46.79487" lon="-2.06749">
        <ele>5</ele>
        <time>2018-03-08T22:51:47Z</time>
      </trkpt>
      <trkpt lat="46.79488" lon="-2.06748">
        <ele>5</ele>
        <time>2018-03-08T22:52:47Z</time>
      </trkpt>
      <trkpt lat="46.7949" lon="-2.06747">
        <ele>5</ele>
        <time>2018-03-08T22:53:47Z</time>
      </trkpt>
      <trkpt lat="46.79491" lon="-2.06747">
        <ele>5</ele>
        <time>2018-03-08T22:54:47Z</time>
      </trkpt>
      <trkpt lat="46.79493" lon="-2.06747">
        <ele>5</ele>
        <time>2018-03-08T22:55:47Z</time>
      </trkpt>
      <trkpt lat="46.79495" lon="-2.06747">
        <ele>5</ele>
        <time>2018-03-08T22:56:47Z</time>
      </trkpt>
      <trkpt lat="46.79496" lon="-2.06749">
        <ele>5</ele>
        <time>2018-03-08T22:57:47Z</time>
      </trkpt>
      <trkpt lat="46.79497" lon="-2.06751">
        <ele>5</ele>
        <time>2018-03-08T22:58:47Z</time>
      </trkpt>
      <trkpt lat="46.79498" lon="-2.06752">
        <ele>5</ele>
        <time>2018-03-08T22:59:47Z</time>
      </trkpt>
      <trkpt lat="46.79498" lon="-2.06755">
        <ele>5</ele>
        <time>2018-03-08T23:00:47Z</time>
      </trkpt>
      <trkpt lat="46.79504" lon="-2.06762">
        <ele>5</ele>
        <time>2018-03-08T23:01:47Z</time>
      </trkpt>
      <trkpt lat="46.79507" lon="-2.06766">
        <ele>5</ele>
        <time>2018-03-08T23:02:47Z</time>
      </trkpt>
      <trkpt lat="46.79508" lon="-2.06768">
        <ele>5</ele>
        <time>2018-03-08T23:03:47Z</time>
      </trkpt>
      <trkpt lat="46.7951" lon="-2.06771">
        <ele>5</ele>
        <time>2018-03-08T23:04:47Z</time>
      </trkpt>
      <trkpt lat="46.79512" lon="-2.06776">
        <ele>5</ele>
        <time>2018-03-08T23:05:47Z</time>
      </trkpt>
      <trkpt lat="46.79514" lon="-2.06782">
        <ele>5</ele>
        <time>2018-03-08T23:06:47Z</time>
      </trkpt>
      <trkpt lat="46.79519" lon="-2.06789">
        <ele>5</ele>
        <time>2018-03-08T23:07:47Z</time>
      </trkpt>
      <trkpt lat="46.79528" lon="-2.06801">
        <ele>5</ele>
        <time>2018-03-08T23:08:47Z</time>
      </trkpt>
      <trkpt lat="46.79532" lon="-2.06806">
        <ele>5</ele>
        <time>2018-03-08T23:09:47Z</time>
      </trkpt>
      <trkpt lat="46.79544" lon="-2.06824">
        <ele>5</ele>
        <time>2018-03-08T23:10:47Z</time>
      </trkpt>
      <trkpt lat="46.79581" lon="-2.06877">
        <ele>5</ele>
        <time>2018-03-08T23:11:47Z</time>
      </trkpt>
      <trkpt lat="46.79584" lon="-2.06879">
        <ele>5</ele>
        <time>2018-03-08T23:12:47Z</time>
      </trkpt>
      <trkpt lat="46.79589" lon="-2.06884">
        <ele>5</ele>
        <time>2018-03-08T23:13:47Z</time>
      </trkpt>
      <trkpt lat="46.79593" lon="-2.06889">
        <ele>5</ele>
        <time>2018-03-08T23:14:47Z</time>
      </trkpt>
      <trkpt lat="46.79599" lon="-2.06897">
        <ele>5</ele>
        <time>2018-03-08T23:15:47Z</time>
      </trkpt>
      <trkpt lat="46.79603" lon="-2.06905">
        <ele>5</ele>
        <time>2018-03-08T23:16:47Z</time>
      </trkpt>
      <trkpt lat="46.79614" lon="-2.06922">
        <ele>5</ele>
        <time>2018-03-08T23:17:47Z</time>
      </trkpt>
      <trkpt lat="46.79622" lon="-2.06934">
        <ele>5</ele>
        <time>2018-03-08T23:18:47Z</time>
      </trkpt>
      <trkpt lat="46.79627" lon="-2.06941">
        <ele>5</ele>
        <time>2018-03-08T23:19:47Z</time>
      </trkpt>
      <trkpt lat="46.79631" lon="-2.06946">
        <ele>5</ele>
        <time>2018-03-08T23:20:47Z</time>
      </trkpt>
      <trkpt lat="46.79637" lon="-2.0695">
        <ele>4</ele>
        <time>2018-03-08T23:21:47Z</time>
      </trkpt>
      <trkpt lat="46.79641" lon="-2.06953">
        <ele>4</ele>
        <time>2018-03-08T23:22:47Z</time>
      </trkpt>
      <trkpt lat="46.79644" lon="-2.06954">
        <ele>4</ele>
        <time>2018-03-08T23:23:47Z</time>
      </trkpt>
      <trkpt lat="46.79655" lon="-2.06956">
        <ele>4</ele>
        <time>2018-03-08T23:24:47Z</time>
      </trkpt>
      <trkpt lat="46.79655" lon="-2.06956">
        <ele>4</ele>
        <time>2018-03-08T23:25:47Z</time>
      </trkpt>
      <trkpt lat="46.79655" lon="-2.06955">
        <ele>4</ele>
        <time>2018-03-08T23:26:47Z</time>
      </trkpt>
      <trkpt lat="46.79656" lon="-2.06955">
        <ele>4</ele>
        <time>2018-03-08T23:27:47Z</time>
      </trkpt>
      <trkpt lat="46.79656" lon="-2.06954">
        <ele>4</ele>
        <time>2018-03-08T23:28:47Z</time>
      </trkpt>
      <trkpt lat="46.79657" lon="-2.06954">
        <ele>4</ele>
        <time>2018-03-08T23:29:47Z</time>
      </trkpt>
      <trkpt lat="46.79658" lon="-2.06953">
        <ele>4</ele>
        <time>2018-03-08T23:30:47Z</time>
      </trkpt>
      <trkpt lat="46.79659" lon="-2.06953">
        <ele>4</ele>
        <time>2018-03-08T23:31:47Z</time>
      </trkpt>
      <trkpt lat="46.7966" lon="-2.06952">
        <ele>4</ele>
        <time>2018-03-08T23:32:47Z</time>
      </trkpt>
      <trkpt lat="46.79661" lon="-2.06952">
        <ele>4</ele>
        <time>2018-03-08T23:33:47Z</time>
      </trkpt>
      <trkpt lat="46.79662" lon="-2.06952">
        <ele>4</ele>
        <time>2018-03-08T23:34:47Z</time>
      </trkpt>
      <trkpt lat="46.79663" lon="-2.06952">
        <ele>4</ele>
        <time>2018-03-08T23:35:47Z</time>
      </trkpt>
      <trkpt lat="46.79664" lon="-2.06952">
        <ele>4</ele>
        <time>2018-03-08T23:36:47Z</time>
      </trkpt>
      <trkpt lat="46.79665" lon="-2.06952">
        <ele>4</ele>
        <time>2018-03-08T23:37:47Z</time>
      </trkpt>
      <trkpt lat="46.79666" lon="-2.06952">
        <ele>4</ele>
        <time>2018-03-08T23:38:47Z</time>
      </trkpt>
      <trkpt lat="46.79667" lon="-2.06953">
        <ele>4</ele>
        <time>2018-03-08T23:39:47Z</time>
      </trkpt>
      <trkpt lat="46.7968" lon="-2.06948">
        <ele>4</ele>
        <time>2018-03-08T23:40:47Z</time>
      </trkpt>
      <trkpt lat="46.7972" lon="-2.06934">
        <ele>3</ele>
        <time>2018-03-08T23:41:47Z</time>
      </trkpt>
      <trkpt lat="46.79768" lon="-2.06906">
        <ele>3</ele>
        <time>2018-03-08T23:42:47Z</time>
      </trkpt>
      <trkpt lat="46.79849" lon="-2.06859">
        <ele>2</ele>
        <time>2018-03-08T23:43:47Z</time>
      </trkpt>
      <trkpt lat="46.79883" lon="-2.0684">
        <ele>2</ele>
        <time>2018-03-08T23:44:47Z</time>
      </trkpt>
      <trkpt lat="46.79904" lon="-2.06828">
        <ele>2</ele>
        <time>2018-03-08T23:45:47Z</time>
      </trkpt>
      <trkpt lat="46.7997" lon="-2.0679">
        <ele>2</ele>
        <time>2018-03-08T23:46:47Z</time>
      </trkpt>
      <trkpt lat="46.79975" lon="-2.06787">
        <ele>2.1</ele>
        <time>2018-03-08T23:47:47Z</time>
      </trkpt>
      <trkpt lat="46.7998" lon="-2.06784">
        <ele>2.3</ele>
        <time>2018-03-08T23:48:47Z</time>
      </trkpt>
      <trkpt lat="46.79991" lon="-2.06779">
        <ele>1</ele>
        <time>2018-03-08T23:49:47Z</time>
      </trkpt>
      <trkpt lat="46.79991" lon="-2.06779">
        <ele>1</ele>
        <time>2018-03-08T23:50:47Z</time>
      </trkpt>
      <trkpt lat="46.79991" lon="-2.06778">
        <ele>1</ele>
        <time>2018-03-08T23:51:47Z</time>
      </trkpt>
      <trkpt lat="46.7999" lon="-2.06777">
        <ele>1</ele>
        <time>2018-03-08T23:52:47Z</time>
      </trkpt>
      <trkpt lat="46.7999" lon="-2.06776">
        <ele>1</ele>
        <time>2018-03-08T23:53:47Z</time>
      </trkpt>
      <trkpt lat="46.7999" lon="-2.06775">
        <ele>1</ele>
        <time>2018-03-08T23:54:47Z</time>
      </trkpt>
      <trkpt lat="46.7999" lon="-2.06774">
        <ele>1</ele>
        <time>2018-03-08T23:55:47Z</time>
      </trkpt>
      <trkpt lat="46.7999" lon="-2.06773">
        <ele>1</ele>
        <time>2018-03-08T23:56:47Z</time>
      </trkpt>
      <trkpt lat="46.79991" lon="-2.06772">
        <ele>1</ele>
        <time>2018-03-08T23:57:47Z</time>
      </trkpt>
      <trkpt lat="46.79991" lon="-2.06771">
        <ele>1</ele>
        <time>2018-03-08T23:58:47Z</time>
      </trkpt>
      <trkpt lat="46.79991" lon="-2.0677">
        <ele>1</ele>
        <time>2018-03-08T23:59:47Z</time>
      </trkpt>
      <trkpt lat="46.79991" lon="-2.06769">
        <ele>1</ele>
        <time>2018-03-09T00:00:47Z</time>
      </trkpt>
      <trkpt lat="46.79991" lon="-2.06768">
        <ele>1</ele>
        <time>2018-03-09T00:01:47Z</time>
      </trkpt>
      <trkpt lat="46.79992" lon="-2.06768">
        <ele>1</ele>
        <time>2018-03-09T00:02:47Z</time>
      </trkpt>
      <trkpt lat="46.79992" lon="-2.06767">
        <ele>1</ele>
        <time>2018-03-09T00:03:47Z</time>
      </trkpt>
      <trkpt lat="46.79992" lon="-2.06766">
        <ele>1</ele>
        <time>2018-03-09T00:04:47Z</time>
      </trkpt>
      <trkpt lat="46.79993" lon="-2.06766">
        <ele>1</ele>
        <time>2018-03-09T00:05:47Z</time>
      </trkpt>
      <trkpt lat="46.79993" lon="-2.06765">
        <ele>1</ele>
        <time>2018-03-09T00:06:47Z</time>
      </trkpt>
      <trkpt lat="46.79993" lon="-2.06764">
        <ele>1</ele>
        <time>2018-03-09T00:07:47Z</time>
      </trkpt>
      <trkpt lat="46.79994" lon="-2.06764">
        <ele>1</ele>
        <time>2018-03-09T00:08:47Z</time>
      </trkpt>
      <trkpt lat="46.79994" lon="-2.06763">
        <ele>1</ele>
        <time>2018-03-09T00:09:47Z</time>
      </trkpt>
      <trkpt lat="46.79995" lon="-2.06763">
        <ele>1</ele>
        <time>2018-03-09T00:10:47Z</time>
      </trkpt>
      <trkpt lat="46.79995" lon="-2.06762">
        <ele>1</ele>
        <time>2018-03-09T00:11:47Z</time>
      </trkpt>
      <trkpt lat="46.79996" lon="-2.06762">
        <ele>1</ele>
        <time>2018-03-09T00:12:47Z</time>
      </trkpt>
      <trkpt lat="46.79997" lon="-2.06762">
        <ele>1</ele>
        <time>2018-03-09T00:13:47Z</time>
      </trkpt>
      <trkpt lat="46.79997" lon="-2.06761">
        <ele>1</ele>
        <time>2018-03-09T00:14:47Z</time>
      </trkpt>
      <trkpt lat="46.79998" lon="-2.06761">
        <ele>1</ele>
        <time>2018-03-09T00:15:47Z</time>
      </trkpt>
      <trkpt lat="46.79999" lon="-2.06761">
        <ele>1</ele>
        <time>2018-03-09T00:16:47Z</time>
      </trkpt>
      <trkpt lat="46.8" lon="-2.06761">
        <ele>1</ele>
        <time>2018-03-09T00:17:47Z</time>
      </trkpt>
      <trkpt lat="46.80001" lon="-2.06761">
        <ele>1</ele>
        <time>2018-03-09T00:18:47Z</time>
      </trkpt>
      <trkpt lat="46.80002" lon="-2.06761">
        <ele>1</ele>
        <time>2018-03-09T00:19:47Z</time>
      </trkpt>
      <trkpt lat="46.80003" lon="-2.06761">
        <ele>1</ele>
        <time>2018-03-09T00:20:47Z</time>
      </trkpt>
      <trkpt lat="46.80004" lon="-2.06762">
        <ele>1</ele>
        <time>2018-03-09T00:21:47Z</time>
      </trkpt>
      <trkpt lat="46.80005" lon="-2.06762">
        <ele>1</ele>
        <time>2018-03-09T00:22:47Z</time>
      </trkpt>
      <trkpt lat="46.80005" lon="-2.06763">
        <ele>1</ele>
        <time>2018-03-09T00:23:47Z</time>
      </trkpt>
      <trkpt lat="46.80006" lon="-2.06763">
        <ele>1</ele>
        <time>2018-03-09T00:24:47Z</time>
      </trkpt>
      <trkpt lat="46.80006" lon="-2.06764">
        <ele>1</ele>
        <time>2018-03-09T00:25:47Z</time>
      </trkpt>
      <trkpt lat="46.80007" lon="-2.06765">
        <ele>1</ele>
        <time>2018-03-09T00:26:47Z</time>
      </trkpt>
      <trkpt lat="46.80008" lon="-2.06766">
        <ele>1</ele>
        <time>2018-03-09T00:27:47Z</time>
      </trkpt>
      <trkpt lat="46.80008" lon="-2.06767">
        <ele>1</ele>
        <time>2018-03-09T00:28:47Z</time>
      </trkpt>
      <trkpt lat="46.80008" lon="-2.06768">
        <ele>1</ele>
        <time>2018-03-09T00:29:47Z</time>
      </trkpt>
      <trkpt lat="46.80009" lon="-2.06768">
        <ele>1</ele>
        <time>2018-03-09T00:30:47Z</time>
      </trkpt>
      <trkpt lat="46.80009" lon="-2.06769">
        <ele>1</ele>
        <time>2018-03-09T00:31:47Z</time>
      </trkpt>
      <trkpt lat="46.80009" lon="-2.0677">
        <ele>1</ele>
        <time>2018-03-09T00:32:47Z</time>
      </trkpt>
      <trkpt lat="46.80009" lon="-2.06771">
        <ele>1</ele>
        <time>2018-03-09T00:33:47Z</time>
      </trkpt>
      <trkpt lat="46.80009" lon="-2.06772">
        <ele>1</ele>
        <time>2018-03-09T00:34:47Z</time>
      </trkpt>
      <trkpt lat="46.80009" lon="-2.06773">
        <ele>1</ele>
        <time>2018-03-09T00:35:47Z</time>
      </trkpt>
      <trkpt lat="46.80009" lon="-2.06774">
        <ele>1</ele>
        <time>2018-03-09T00:36:47Z</time>
      </trkpt>
      <trkpt lat="46.80009" lon="-2.06775">
        <ele>1</ele>
        <time>2018-03-09T00:37:47Z</time>
      </trkpt>
      <trkpt lat="46.80009" lon="-2.06776">
        <ele>1</ele>
        <time>2018-03-09T00:38:47Z</time>
      </trkpt>
      <trkpt lat="46.80009" lon="-2.06777">
        <ele>1</ele>
        <time>2018-03-09T00:39:47Z</time>
      </trkpt>
      <trkpt lat="46.80008" lon="-2.06778">
        <ele>1</ele>
        <time>2018-03-09T00:40:47Z</time>
      </trkpt>
      <trkpt lat="46.80008" lon="-2.06779">
        <ele>1</ele>
        <time>2018-03-09T00:41:47Z</time>
      </trkpt>
      <trkpt lat="46.80008" lon="-2.0678">
        <ele>1</ele>
        <time>2018-03-09T00:42:47Z</time>
      </trkpt>
      <trkpt lat="46.80007" lon="-2.0678">
        <ele>1</ele>
        <time>2018-03-09T00:43:47Z</time>
      </trkpt>
      <trkpt lat="46.80007" lon="-2.06781">
        <ele>1</ele>
        <time>2018-03-09T00:44:47Z</time>
      </trkpt>
      <trkpt lat="46.80006" lon="-2.06782">
        <ele>1</ele>
        <time>2018-03-09T00:45:47Z</time>
      </trkpt>
      <trkpt lat="46.80006" lon="-2.06783">
        <ele>1</ele>
        <time>2018-03-09T00:46:47Z</time>
      </trkpt>
      <trkpt lat="46.80005" lon="-2.06783">
        <ele>1</ele>
        <time>2018-03-09T00:47:47Z</time>
      </trkpt>
      <trkpt lat="46.80005" lon="-2.06784">
        <ele>1</ele>
        <time>2018-03-09T00:48:47Z</time>
      </trkpt>
      <trkpt lat="46.80004" lon="-2.06784">
        <ele>1</ele>
        <time>2018-03-09T00:49:47Z</time>
      </trkpt>
      <trkpt lat="46.80004" lon="-2.06785">
        <ele>1</ele>
        <time>2018-03-09T00:50:47Z</time>
      </trkpt>
      <trkpt lat="46.80003" lon="-2.06785">
        <ele>1</ele>
        <time>2018-03-09T00:51:47Z</time>
      </trkpt>
      <trkpt lat="46.80002" lon="-2.06786">
        <ele>1</ele>
        <time>2018-03-09T00:52:47Z</time>
      </trkpt>
      <trkpt lat="46.80001" lon="-2.06786">
        <ele>1</ele>
        <time>2018-03-09T00:53:47Z</time>
      </trkpt>
      <trkpt lat="46.79998" lon="-2.06798">
        <ele>2.9</ele>
        <time>2018-03-09T00:54:47Z</time>
      </trkpt>
      <trkpt lat="46.79997" lon="-2.06804">
        <ele>2.9</ele>
        <time>2018-03-09T00:55:47Z</time>
      </trkpt>
      <trkpt lat="46.79997" lon="-2.06814">
        <ele>2.6</ele>
        <time>2018-03-09T00:56:47Z</time>
      </trkpt>
      <trkpt lat="46.79997" lon="-2.06818">
        <ele>2.5</ele>
        <time>2018-03-09T00:57:47Z</time>
      </trkpt>
      <trkpt lat="46.79997" lon="-2.06821">
        <ele>2.4</ele>
        <time>2018-03-09T00:58:47Z</time>
      </trkpt>
      <trkpt lat="46.79999" lon="-2.06827">
        <ele>2.2</ele>
        <time>2018-03-09T00:59:47Z</time>
      </trkpt>
      <trkpt lat="46.80016" lon="-2.06879">
        <ele>1.8</ele>
        <time>2018-03-09T01:00:47Z</time>
      </trkpt>
      <trkpt lat="46.80029" lon="-2.06922">
        <ele>1</ele>
        <time>2018-03-09T01:01:47Z</time>
      </trkpt>
      <trkpt lat="46.80037" lon="-2.06946">
        <ele>1</ele>
        <time>2018-03-09T01:02:47Z</time>
      </trkpt>
      <trkpt lat="46.80055" lon="-2.06992">
        <ele>1</ele>
        <time>2018-03-09T01:03:47Z</time>
      </trkpt>
      <trkpt lat="46.80065" lon="-2.07021">
        <ele>1</ele>
        <time>2018-03-09T01:04:47Z</time>
      </trkpt>
      <trkpt lat="46.80069" lon="-2.07033">
        <ele>1</ele>
        <time>2018-03-09T01:05:47Z</time>
      </trkpt>
      <trkpt lat="46.80072" lon="-2.07044">
        <ele>1</ele>
        <time>2018-03-09T01:06:47Z</time>
      </trkpt>
      <trkpt lat="46.80073" lon="-2.07051">
        <ele>2</ele>
        <time>2018-03-09T01:07:47Z</time>
      </trkpt>
      <trkpt lat="46.80073" lon="-2.07057">
        <ele>2</ele>
        <time>2018-03-09T01:08:47Z</time>
      </trkpt>
      <trkpt lat="46.80074" lon="-2.07069">
        <ele>2</ele>
        <time>2018-03-09T01:09:47Z</time>
      </trkpt>
      <trkpt lat="46.80075" lon="-2.07084">
        <ele>2</ele>
        <time>2018-03-09T01:10:47Z</time>
      </trkpt>
      <trkpt lat="46.80077" lon="-2.0713">
        <ele>1</ele>
        <time>2018-03-09T01:11:47Z</time>
      </trkpt>
      <trkpt lat="46.80079" lon="-2.07186">
        <ele>1</ele>
        <time>2018-03-09T01:12:47Z</time>
      </trkpt>
      <trkpt lat="46.8008" lon="-2.07199">
        <ele>1</ele>
        <time>2018-03-09T01:13:47Z</time>
      </trkpt>
      <trkpt lat="46.80081" lon="-2.07211">
        <ele>1</ele>
        <time>2018-03-09T01:14:47Z</time>
      </trkpt>
      <trkpt lat="46.80084" lon="-2.07233">
        <ele>1</ele>
        <time>2018-03-09T01:15:47Z</time>
      </trkpt>
      <trkpt lat="46.80087" lon="-2.07252">
        <ele>1</ele>
        <time>2018-03-09T01:16:47Z</time>
      </trkpt>
      <trkpt lat="46.80091" lon="-2.07275">
        <ele>1</ele>
        <time>2018-03-09T01:17:47Z</time>
      </trkpt>
      <trkpt lat="46.80094" lon="-2.07294">
        <ele>1</ele>
        <time>2018-03-09T01:18:47Z</time>
      </trkpt>
      <trkpt lat="46.80097" lon="-2.07331">
        <ele>1</ele>
        <time>2018-03-09T01:19:47Z</time>
      </trkpt>
      <trkpt lat="46.80098" lon="-2.07342">
        <ele>1</ele>
        <time>2018-03-09T01:20:47Z</time>
      </trkpt>
      <trkpt lat="46.80099" lon="-2.07352">
        <ele>1</ele>
        <time>2018-03-09T01:21:47Z</time>
      </trkpt>
      <trkpt lat="46.80107" lon="-2.07405">
        <ele>2</ele>
        <time>2018-03-09T01:22:47Z</time>
      </trkpt>
      <trkpt lat="46.80109" lon="-2.07424">
        <ele>3</ele>
        <time>2018-03-09T01:23:47Z</time>
      </trkpt>
      <trkpt lat="46.80111" lon="-2.07443">
        <ele>2</ele>
        <time>2018-03-09T01:24:47Z</time>
      </trkpt>
      <trkpt lat="46.80112" lon="-2.07472">
        <ele>2</ele>
        <time>2018-03-09T01:25:47Z</time>
      </trkpt>
      <trkpt lat="46.80111" lon="-2.07497">
        <ele>2</ele>
        <time>2018-03-09T01:26:47Z</time>
      </trkpt>
      <trkpt lat="46.80111" lon="-2.07517">
        <ele>1</ele>
        <time>2018-03-09T01:27:47Z</time>
      </trkpt>
      <trkpt lat="46.80113" lon="-2.07532">
        <ele>1</ele>
        <time>2018-03-09T01:28:47Z</time>
      </trkpt>
      <trkpt lat="46.8012" lon="-2.07568">
        <ele>1</ele>
        <time>2018-03-09T01:29:47Z</time>
      </trkpt>
      <trkpt lat="46.80125" lon="-2.076">
        <ele>1.5</ele>
        <time>2018-03-09T01:30:47Z</time>
      </trkpt>
      <trkpt lat="46.80132" lon="-2.07657">
        <ele>1.7</ele>
        <time>2018-03-09T01:31:47Z</time>
      </trkpt>
      <trkpt lat="46.80138" lon="-2.07719">
        <ele>1</ele>
        <time>2018-03-09T01:32:47Z</time>
      </trkpt>
      <trkpt lat="46.80142" lon="-2.07752">
        <ele>1</ele>
        <time>2018-03-09T01:33:47Z</time>
      </trkpt>
      <trkpt lat="46.80146" lon="-2.07771">
        <ele>1</ele>
        <time>2018-03-09T01:34:47Z</time>
      </trkpt>
      <trkpt lat="46.80155" lon="-2.07807">
        <ele>1.4</ele>
        <time>2018-03-09T01:35:47Z</time>
      </trkpt>
      <trkpt lat="46.80166" lon="-2.07841">
        <ele>2</ele>
        <time>2018-03-09T01:36:47Z</time>
      </trkpt>
      <trkpt lat="46.80182" lon="-2.07883">
        <ele>1</ele>
        <time>2018-03-09T01:37:47Z</time>
      </trkpt>
      <trkpt lat="46.80197" lon="-2.07922">
        <ele>1</ele>
        <time>2018-03-09T01:38:47Z</time>
      </trkpt>
      <trkpt lat="46.80206" lon="-2.07944">
        <ele>1</ele>
        <time>2018-03-09T01:39:47Z</time>
      </trkpt>
      <trkpt lat="46.80214" lon="-2.07957">
        <ele>1</ele>
        <time>2018-03-09T01:40:47Z</time>
      </trkpt>
      <trkpt lat="46.8022" lon="-2.07968">
        <ele>1</ele>
        <time>2018-03-09T01:41:47Z</time>
      </trkpt>
      <trkpt lat="46.80224" lon="-2.07975">
        <ele>1</ele>
        <time>2018-03-09T01:42:47Z</time>
      </trkpt>
      <trkpt lat="46.80231" lon="-2.07988">
        <ele>1</ele>
        <time>2018-03-09T01:43:47Z</time>
      </trkpt>
      <trkpt lat="46.80239" lon="-2.08005">
        <ele>2</ele>
        <time>2018-03-09T01:44:47Z</time>
      </trkpt>
      <trkpt lat="46.80243" lon="-2.08016">
        <ele>2</ele>
        <time>2018-03-09T01:45:47Z</time>
      </trkpt>
      <trkpt lat="46.80245" lon="-2.08027">
        <ele>2</ele>
        <time>2018-03-09T01:46:47Z</time>
      </trkpt>
      <trkpt lat="46.80247" lon="-2.08034">
        <ele>2</ele>
        <time>2018-03-09T01:47:47Z</time>
      </trkpt>
      <trkpt lat="46.80248" lon="-2.08044">
        <ele>2</ele>
        <time>2018-03-09T01:48:47Z</time>
      </trkpt>
      <trkpt lat="46.80249" lon="-2.08061">
        <ele>2</ele>
        <time>2018-03-09T01:49:47Z</time>
      </trkpt>
      <trkpt lat="46.8025" lon="-2.08104">
        <ele>2</ele>
        <time>2018-03-09T01:50:47Z</time>
      </trkpt>
      <trkpt lat="46.80252" lon="-2.08115">
        <ele>1.9</ele>
        <time>2018-03-09T01:51:47Z</time>
      </trkpt>
      <trkpt lat="46.80254" lon="-2.08125">
        <ele>1.5</ele>
        <time>2018-03-09T01:52:47Z</time>
      </trkpt>
      <trkpt lat="46.80256" lon="-2.08131">
        <ele>1</ele>
        <time>2018-03-09T01:53:47Z</time>
      </trkpt>
      <trkpt lat="46.8026" lon="-2.0814">
        <ele>1</ele>
        <time>2018-03-09T01:54:47Z</time>
      </trkpt>
      <trkpt lat="46.80274" lon="-2.08164">
        <ele>1</ele>
        <time>2018-03-09T01:55:47Z</time>
      </trkpt>
      <trkpt lat="46.8029" lon="-2.0819">
        <ele>1</ele>
        <time>2018-03-09T01:56:47Z</time>
      </trkpt>
      <trkpt lat="46.80296" lon="-2.08205">
        <ele>1</ele>
        <time>2018-03-09T01:57:47Z</time>
      </trkpt>
      <trkpt lat="46.80303" lon="-2.08225">
        <ele>2</ele>
        <time>2018-03-09T01:58:47Z</time>
      </trkpt>
      <trkpt lat="46.80306" lon="-2.08241">
        <ele>2</ele>
        <time>2018-03-09T01:59:47Z</time>
      </trkpt>
      <trkpt lat="46.80308" lon="-2.08256">
        <ele>2</ele>
        <time>2018-03-09T02:00:47Z</time>
      </trkpt>
      <trkpt lat="46.8031" lon="-2.08272">
        <ele>2</ele>
        <time>2018-03-09T02:01:47Z</time>
      </trkpt>
      <trkpt lat="46.80313" lon="-2.08306">
        <ele>2</ele>
        <time>2018-03-09T02:02:47Z</time>
      </trkpt>
      <trkpt lat="46.80316" lon="-2.08332">
        <ele>2</ele>
        <time>2018-03-09T02:03:47Z</time>
      </trkpt>
      <trkpt lat="46.80319" lon="-2.08352">
        <ele>2</ele>
        <time>2018-03-09T02:04:47Z</time>
      </trkpt>
      <trkpt lat="46.80324" lon="-2.08373">
        <ele>2</ele>
        <time>2018-03-09T02:05:47Z</time>
      </trkpt>
      <trkpt lat="46.80338" lon="-2.08432">
        <ele>2</ele>
        <time>2018-03-09T02:06:47Z</time>
      </trkpt>
      <trkpt lat="46.8034" lon="-2.08447">
        <ele>2</ele>
        <time>2018-03-09T02:07:47Z</time>
      </trkpt>
      <trkpt lat="46.80342" lon="-2.08457">
        <ele>2</ele>
        <time>2018-03-09T02:08:47Z</time>
      </trkpt>
      <trkpt lat="46.80342" lon="-2.08469">
        <ele>2</ele>
        <time>2018-03-09T02:09:47Z</time>
      </trkpt>
      <trkpt lat="46.80342" lon="-2.08485">
        <ele>2</ele>
        <time>2018-03-09T02:10:47Z</time>
      </trkpt>
      <trkpt lat="46.80342" lon="-2.08501">
        <ele>2</ele>
        <time>2018-03-09T02:11:47Z</time>
      </trkpt>
      <trkpt lat="46.80341" lon="-2.0851">
        <ele>2</ele>
        <time>2018-03-09T02:12:47Z</time>
      </trkpt>
      <trkpt lat="46.80344" lon="-2.08557">
        <ele>2</ele>
        <time>2018-03-09T02:13:47Z</time>
      </trkpt>
      <trkpt lat="46.80348" lon="-2.08583">
        <ele>2</ele>
        <time>2018-03-09T02:14:47Z</time>
      </trkpt>
      <trkpt lat="46.80352" lon="-2.08607">
        <ele>2</ele>
        <time>2018-03-09T02:15:47Z</time>
      </trkpt>
      <trkpt lat="46.80369" lon="-2.08698">
        <ele>2</ele>
        <time>2018-03-09T02:16:47Z</time>
      </trkpt>
      <trkpt lat="46.80371" lon="-2.08712">
        <ele>2</ele>
        <time>2018-03-09T02:17:47Z</time>
      </trkpt>
      <trkpt lat="46.80371" lon="-2.08722">
        <ele>2</ele>
        <time>2018-03-09T02:18:47Z</time>
      </trkpt>
      <trkpt lat="46.80371" lon="-2.08734">
        <ele>2</ele>
        <time>2018-03-09T02:19:47Z</time>
      </trkpt>
      <trkpt lat="46.80371" lon="-2.08747">
        <ele>2</ele>
        <time>2018-03-09T02:20:47Z</time>
      </trkpt>
      <trkpt lat="46.80369" lon="-2.08758">
        <ele>2</ele>
        <time>2018-03-09T02:21:47Z</time>
      </trkpt>
      <trkpt lat="46.80362" lon="-2.08791">
        <ele>2</ele>
        <time>2018-03-09T02:22:47Z</time>
      </trkpt>
      <trkpt lat="46.80361" lon="-2.08815">
        <ele>2</ele>
        <time>2018-03-09T02:23:47Z</time>
      </trkpt>
      <trkpt lat="46.80361" lon="-2.08826">
        <ele>2</ele>
        <time>2018-03-09T02:24:47Z</time>
      </trkpt>
      <trkpt lat="46.80363" lon="-2.08836">
        <ele>2</ele>
        <time>2018-03-09T02:25:47Z</time>
      </trkpt>
      <trkpt lat="46.80365" lon="-2.08849">
        <ele>2</ele>
        <time>2018-03-09T02:26:47Z</time>
      </trkpt>
      <trkpt lat="46.80368" lon="-2.08858">
        <ele>3</ele>
        <time>2018-03-09T02:27:47Z</time>
      </trkpt>
      <trkpt lat="46.80373" lon="-2.08871">
        <ele>3</ele>
        <time>2018-03-09T02:28:47Z</time>
      </trkpt>
      <trkpt lat="46.80379" lon="-2.08884">
        <ele>3</ele>
        <time>2018-03-09T02:29:47Z</time>
      </trkpt>
      <trkpt lat="46.80383" lon="-2.08894">
        <ele>3</ele>
        <time>2018-03-09T02:30:47Z</time>
      </trkpt>
      <trkpt lat="46.80386" lon="-2.08906">
        <ele>3</ele>
        <time>2018-03-09T02:31:47Z</time>
      </trkpt>
      <trkpt lat="46.80387" lon="-2.08918">
        <ele>3</ele>
        <time>2018-03-09T02:32:47Z</time>
      </trkpt>
      <trkpt lat="46.80389" lon="-2.08934">
        <ele>3</ele>
        <time>2018-03-09T02:33:47Z</time>
      </trkpt>
      <trkpt lat="46.80391" lon="-2.08958">
        <ele>3</ele>
        <time>2018-03-09T02:34:47Z</time>
      </trkpt>
      <trkpt lat="46.80393" lon="-2.08976">
        <ele>2</ele>
        <time>2018-03-09T02:35:47Z</time>
      </trkpt>
      <trkpt lat="46.80396" lon="-2.08988">
        <ele>2</ele>
        <time>2018-03-09T02:36:47Z</time>
      </trkpt>
      <trkpt lat="46.80408" lon="-2.09028">
        <ele>2</ele>
        <time>2018-03-09T02:37:47Z</time>
      </trkpt>
      <trkpt lat="46.80423" lon="-2.09072">
        <ele>2</ele>
        <time>2018-03-09T02:38:47Z</time>
      </trkpt>
      <trkpt lat="46.80448" lon="-2.09144">
        <ele>2</ele>
        <time>2018-03-09T02:39:47Z</time>
      </trkpt>
      <trkpt lat="46.80475" lon="-2.09205">
        <ele>2</ele>
        <time>2018-03-09T02:40:47Z</time>
      </trkpt>
      <trkpt lat="46.80519" lon="-2.09297">
        <ele>2</ele>
        <time>2018-03-09T02:41:47Z</time>
      </trkpt>
      <trkpt lat="46.80554" lon="-2.09372">
        <ele>2</ele>
        <time>2018-03-09T02:42:47Z</time>
      </trkpt>
      <trkpt lat="46.80588" lon="-2.09438">
        <ele>2</ele>
        <time>2018-03-09T02:43:47Z</time>
      </trkpt>
      <trkpt lat="46.80588" lon="-2.09438">
        <ele>2</ele>
        <time>2018-03-09T02:44:47Z</time>
      </trkpt>
      <trkpt lat="46.80595" lon="-2.09435">
        <ele>2</ele>
        <time>2018-03-09T02:45:47Z</time>
      </trkpt>
      <trkpt lat="46.80595" lon="-2.09435">
        <ele>2</ele>
        <time>2018-03-09T02:46:47Z</time>
      </trkpt>
      <trkpt lat="46.806" lon="-2.09444">
        <ele>2</ele>
        <time>2018-03-09T02:47:47Z</time>
      </trkpt>
      <trkpt lat="46.80621" lon="-2.09479">
        <ele>2</ele>
        <time>2018-03-09T02:48:47Z</time>
      </trkpt>
      <trkpt lat="46.80634" lon="-2.09501">
        <ele>2</ele>
        <time>2018-03-09T02:49:47Z</time>
      </trkpt>
      <trkpt lat="46.8066" lon="-2.09528">
        <ele>2</ele>
        <time>2018-03-09T02:50:47Z</time>
      </trkpt>
      <trkpt lat="46.80682" lon="-2.09549">
        <ele>1</ele>
        <time>2018-03-09T02:51:47Z</time>
      </trkpt>
      <trkpt lat="46.80693" lon="-2.09565">
        <ele>1</ele>
        <time>2018-03-09T02:52:47Z</time>
      </trkpt>
      <trkpt lat="46.80695" lon="-2.09568">
        <ele>1</ele>
        <time>2018-03-09T02:53:47Z</time>
      </trkpt>
      <trkpt lat="46.80716" lon="-2.09614">
        <ele>1</ele>
        <time>2018-03-09T02:54:47Z</time>
      </trkpt>
      <trkpt lat="46.80743" lon="-2.09668">
        <ele>1</ele>
        <time>2018-03-09T02:55:47Z</time>
      </trkpt>
      <trkpt lat="46.80778" lon="-2.0974">
        <ele>2</ele>
        <time>2018-03-09T02:56:47Z</time>
      </trkpt>
      <trkpt lat="46.80818" lon="-2.0982">
        <ele>1</ele>
        <time>2018-03-09T02:57:47Z</time>
      </trkpt>
      <trkpt lat="46.80849" lon="-2.09877">
        <ele>1.8</ele>
        <time>2018-03-09T02:58:47Z</time>
      </trkpt>
      <trkpt lat="46.80862" lon="-2.09906">
        <ele>2</ele>
        <time>2018-03-09T02:59:47Z</time>
      </trkpt>
      <trkpt lat="46.80885" lon="-2.09965">
        <ele>1</ele>
        <time>2018-03-09T03:00:47Z</time>
      </trkpt>
      <trkpt lat="46.80896" lon="-2.09992">
        <ele>2</ele>
        <time>2018-03-09T03:01:47Z</time>
      </trkpt>
      <trkpt lat="46.80925" lon="-2.10049">
        <ele>1</ele>
        <time>2018-03-09T03:02:47Z</time>
      </trkpt>
      <trkpt lat="46.80947" lon="-2.10089">
        <ele>1</ele>
        <time>2018-03-09T03:03:47Z</time>
      </trkpt>
      <trkpt lat="46.80973" lon="-2.10139">
        <ele>1</ele>
        <time>2018-03-09T03:04:47Z</time>
      </trkpt>
      <trkpt lat="46.80988" lon="-2.10167">
        <ele>1</ele>
        <time>2018-03-09T03:05:47Z</time>
      </trkpt>
      <trkpt lat="46.80999" lon="-2.10184">
        <ele>1</ele>
        <time>2018-03-09T03:06:47Z</time>
      </trkpt>
      <trkpt lat="46.81015" lon="-2.10203">
        <ele>1</ele>
        <time>2018-03-09T03:07:47Z</time>
      </trkpt>
      <trkpt lat="46.81034" lon="-2.10222">
        <ele>1</ele>
        <time>2018-03-09T03:08:47Z</time>
      </trkpt>
      <trkpt lat="46.81048" lon="-2.10241">
        <ele>1</ele>
        <time>2018-03-09T03:09:47Z</time>
      </trkpt>
      <trkpt lat="46.81056" lon="-2.10261">
        <ele>1</ele>
        <time>2018-03-09T03:10:47Z</time>
      </trkpt>
      <trkpt lat="46.81064" lon="-2.10284">
        <ele>1</ele>
        <time>2018-03-09T03:11:47Z</time>
      </trkpt>
      <trkpt lat="46.81071" lon="-2.10311">
        <ele>2</ele>
        <time>2018-03-09T03:12:47Z</time>
      </trkpt>
      <trkpt lat="46.81082" lon="-2.10346">
        <ele>2</ele>
        <time>2018-03-09T03:13:47Z</time>
      </trkpt>
      <trkpt lat="46.81095" lon="-2.10383">
        <ele>2</ele>
        <time>2018-03-09T03:14:47Z</time>
      </trkpt>
      <trkpt lat="46.81114" lon="-2.10421">
        <ele>2</ele>
        <time>2018-03-09T03:15:47Z</time>
      </trkpt>
      <trkpt lat="46.81142" lon="-2.10473">
        <ele>1</ele>
        <time>2018-03-09T03:16:47Z</time>
      </trkpt>
      <trkpt lat="46.81159" lon="-2.10507">
        <ele>1</ele>
        <time>2018-03-09T03:17:47Z</time>
      </trkpt>
      <trkpt lat="46.81171" lon="-2.10527">
        <ele>1</ele>
        <time>2018-03-09T03:18:47Z</time>
      </trkpt>
      <trkpt lat="46.81189" lon="-2.10551">
        <ele>2</ele>
        <time>2018-03-09T03:19:47Z</time>
      </trkpt>
      <trkpt lat="46.81226" lon="-2.10589">
        <ele>2</ele>
        <time>2018-03-09T03:20:47Z</time>
      </trkpt>
      <trkpt lat="46.81247" lon="-2.10609">
        <ele>1</ele>
        <time>2018-03-09T03:21:47Z</time>
      </trkpt>
      <trkpt lat="46.8127" lon="-2.10627">
        <ele>1</ele>
        <time>2018-03-09T03:22:47Z</time>
      </trkpt>
      <trkpt lat="46.81293" lon="-2.10644">
        <ele>1</ele>
        <time>2018-03-09T03:23:47Z</time>
      </trkpt>
      <trkpt lat="46.81321" lon="-2.10667">
        <ele>2</ele>
        <time>2018-03-09T03:24:47Z</time>
      </trkpt>
      <trkpt lat="46.81341" lon="-2.10681">
        <ele>2</ele>
        <time>2018-03-09T03:25:47Z</time>
      </trkpt>
      <trkpt lat="46.81344" lon="-2.10684">
        <ele>2</ele>
        <time>2018-03-09T03:26:47Z</time>
      </trkpt>
      <trkpt lat="46.81358" lon="-2.10694">
        <ele>2</ele>
        <time>2018-03-09T03:27:47Z</time>
      </trkpt>
      <trkpt lat="46.81369" lon="-2.10702">
        <ele>2</ele>
        <time>2018-03-09T03:28:47Z</time>
      </trkpt>
      <trkpt lat="46.81388" lon="-2.10717">
        <ele>1</ele>
        <time>2018-03-09T03:29:47Z</time>
      </trkpt>
      <trkpt lat="46.81404" lon="-2.1073">
        <ele>1</ele>
        <time>2018-03-09T03:30:47Z</time>
      </trkpt>
      <trkpt lat="46.81422" lon="-2.10745">
        <ele>1</ele>
        <time>2018-03-09T03:31:47Z</time>
      </trkpt>
      <trkpt lat="46.81425" lon="-2.10747">
        <ele>1</ele>
        <time>2018-03-09T03:32:47Z</time>
      </trkpt>
      <trkpt lat="46.81437" lon="-2.10757">
        <ele>1</ele>
        <time>2018-03-09T03:33:47Z</time>
      </trkpt>
      <trkpt lat="46.81452" lon="-2.10773">
        <ele>1.7</ele>
        <time>2018-03-09T03:34:47Z</time>
      </trkpt>
      <trkpt lat="46.81463" lon="-2.10788">
        <ele>1.5</ele>
        <time>2018-03-09T03:35:47Z</time>
      </trkpt>
      <trkpt lat="46.81473" lon="-2.10802">
        <ele>1.9</ele>
        <time>2018-03-09T03:36:47Z</time>
      </trkpt>
      <trkpt lat="46.81482" lon="-2.10816">
        <ele>2</ele>
        <time>2018-03-09T03:37:47Z</time>
      </trkpt>
      <trkpt lat="46.81495" lon="-2.10831">
        <ele>2</ele>
        <time>2018-03-09T03:38:47Z</time>
      </trkpt>
      <trkpt lat="46.81509" lon="-2.10843">
        <ele>2</ele>
        <time>2018-03-09T03:39:47Z</time>
      </trkpt>
      <trkpt lat="46.81526" lon="-2.10852">
        <ele>2</ele>
        <time>2018-03-09T03:40:47Z</time>
      </trkpt>
      <trkpt lat="46.8154" lon="-2.10858">
        <ele>2</ele>
        <time>2018-03-09T03:41:47Z</time>
      </trkpt>
      <trkpt lat="46.81556" lon="-2.10867">
        <ele>1.8</ele>
        <time>2018-03-09T03:42:47Z</time>
      </trkpt>
      <trkpt lat="46.8157" lon="-2.10878">
        <ele>1.5</ele>
        <time>2018-03-09T03:43:47Z</time>
      </trkpt>
      <trkpt lat="46.81581" lon="-2.10893">
        <ele>1.9</ele>
        <time>2018-03-09T03:44:47Z</time>
      </trkpt>
      <trkpt lat="46.81591" lon="-2.10913">
        <ele>2</ele>
        <time>2018-03-09T03:45:47Z</time>
      </trkpt>
      <trkpt lat="46.81601" lon="-2.10939">
        <ele>2</ele>
        <time>2018-03-09T03:46:47Z</time>
      </trkpt>
      <trkpt lat="46.81612" lon="-2.10962">
        <ele>1</ele>
        <time>2018-03-09T03:47:47Z</time>
      </trkpt>
      <trkpt lat="46.81623" lon="-2.10984">
        <ele>1</ele>
        <time>2018-03-09T03:48:47Z</time>
      </trkpt>
      <trkpt lat="46.8163" lon="-2.10997">
        <ele>1</ele>
        <time>2018-03-09T03:49:47Z</time>
      </trkpt>
      <trkpt lat="46.81643" lon="-2.11017">
        <ele>1</ele>
        <time>2018-03-09T03:50:47Z</time>
      </trkpt>
      <trkpt lat="46.81652" lon="-2.11032">
        <ele>1</ele>
        <time>2018-03-09T03:51:47Z</time>
      </trkpt>
      <trkpt lat="46.81664" lon="-2.11054">
        <ele>1.9</ele>
        <time>2018-03-09T03:52:47Z</time>
      </trkpt>
      <trkpt lat="46.81676" lon="-2.11076">
        <ele>1.4</ele>
        <time>2018-03-09T03:53:47Z</time>
      </trkpt>
      <trkpt lat="46.81686" lon="-2.11093">
        <ele>1.8</ele>
        <time>2018-03-09T03:54:47Z</time>
      </trkpt>
      <trkpt lat="46.81703" lon="-2.11109">
        <ele>1</ele>
        <time>2018-03-09T03:55:47Z</time>
      </trkpt>
      <trkpt lat="46.81712" lon="-2.11121">
        <ele>1</ele>
        <time>2018-03-09T03:56:47Z</time>
      </trkpt>
      <trkpt lat="46.81724" lon="-2.11139">
        <ele>1</ele>
        <time>2018-03-09T03:57:47Z</time>
      </trkpt>
      <trkpt lat="46.81731" lon="-2.1115">
        <ele>1</ele>
        <time>2018-03-09T03:58:47Z</time>
      </trkpt>
      <trkpt lat="46.81735" lon="-2.1116">
        <ele>2</ele>
        <time>2018-03-09T03:59:47Z</time>
      </trkpt>
      <trkpt lat="46.81737" lon="-2.11166">
        <ele>2</ele>
        <time>2018-03-09T04:00:47Z</time>
      </trkpt>
      <trkpt lat="46.81738" lon="-2.11173">
        <ele>2</ele>
        <time>2018-03-09T04:01:47Z</time>
      </trkpt>
      <trkpt lat="46.8174" lon="-2.1118">
        <ele>2</ele>
        <time>2018-03-09T04:02:47Z</time>
      </trkpt>
      <trkpt lat="46.81741" lon="-2.11189">
        <ele>2</ele>
        <time>2018-03-09T04:03:47Z</time>
      </trkpt>
      <trkpt lat="46.81743" lon="-2.11209">
        <ele>1</ele>
        <time>2018-03-09T04:04:47Z</time>
      </trkpt>
      <trkpt lat="46.81743" lon="-2.11209">
        <ele>1</ele>
        <time>2018-03-09T04:05:47Z</time>
      </trkpt>
      <trkpt lat="46.8175" lon="-2.11214">
        <ele>1</ele>
        <time>2018-03-09T04:06:47Z</time>
      </trkpt>
      <trkpt lat="46.81761" lon="-2.11222">
        <ele>1</ele>
        <time>2018-03-09T04:07:47Z</time>
      </trkpt>
      <trkpt lat="46.81775" lon="-2.11235">
        <ele>1</ele>
        <time>2018-03-09T04:08:47Z</time>
      </trkpt>
      <trkpt lat="46.81783" lon="-2.11249">
        <ele>1</ele>
        <time>2018-03-09T04:09:47Z</time>
      </trkpt>
      <trkpt lat="46.81787" lon="-2.11254">
        <ele>1</ele>
        <time>2018-03-09T04:10:47Z</time>
      </trkpt>
      <trkpt lat="46.81791" lon="-2.11268">
        <ele>1</ele>
        <time>2018-03-09T04:11:47Z</time>
      </trkpt>
      <trkpt lat="46.81791" lon="-2.11268">
        <ele>1</ele>
        <time>2018-03-09T04:12:47Z</time>
      </trkpt>
      <trkpt lat="46.81806" lon="-2.11266">
        <ele>1</ele>
        <time>2018-03-09T04:13:47Z</time>
      </trkpt>
      <trkpt lat="46.81815" lon="-2.11264">
        <ele>1</ele>
        <time>2018-03-09T04:14:47Z</time>
      </trkpt>
      <trkpt lat="46.81823" lon="-2.11261">
        <ele>1</ele>
        <time>2018-03-09T04:15:47Z</time>
      </trkpt>
      <trkpt lat="46.81847" lon="-2.11252">
        <ele>1</ele>
        <time>2018-03-09T04:16:47Z</time>
      </trkpt>
      <trkpt lat="46.81854" lon="-2.1125">
        <ele>1</ele>
        <time>2018-03-09T04:17:47Z</time>
      </trkpt>
      <trkpt lat="46.81865" lon="-2.11247">
        <ele>1</ele>
        <time>2018-03-09T04:18:47Z</time>
      </trkpt>
      <trkpt lat="46.81882" lon="-2.11242">
        <ele>1</ele>
        <time>2018-03-09T04:19:47Z</time>
      </trkpt>
      <trkpt lat="46.81889" lon="-2.11238">
        <ele>1</ele>
        <time>2018-03-09T04:20:47Z</time>
      </trkpt>
      <trkpt lat="46.81899" lon="-2.11231">
        <ele>1</ele>
        <time>2018-03-09T04:21:47Z</time>
      </trkpt>
      <trkpt lat="46.81908" lon="-2.11218">
        <ele>1</ele>
        <time>2018-03-09T04:22:47Z</time>
      </trkpt>
      <trkpt lat="46.81916" lon="-2.11203">
        <ele>1</ele>
        <time>2018-03-09T04:23:47Z</time>
      </trkpt>
      <trkpt lat="46.81923" lon="-2.11188">
        <ele>1</ele>
        <time>2018-03-09T04:24:47Z</time>
      </trkpt>
      <trkpt lat="46.81931" lon="-2.11168">
        <ele>1</ele>
        <time>2018-03-09T04:25:47Z</time>
      </trkpt>
      <trkpt lat="46.81941" lon="-2.1115">
        <ele>1</ele>
        <time>2018-03-09T04:26:47Z</time>
      </trkpt>
      <trkpt lat="46.81955" lon="-2.11137">
        <ele>1</ele>
        <time>2018-03-09T04:27:47Z</time>
      </trkpt>
      <trkpt lat="46.81972" lon="-2.11126">
        <ele>2</ele>
        <time>2018-03-09T04:28:47Z</time>
      </trkpt>
      <trkpt lat="46.81995" lon="-2.11112">
        <ele>2</ele>
        <time>2018-03-09T04:29:47Z</time>
      </trkpt>
      <trkpt lat="46.82015" lon="-2.11099">
        <ele>1.8</ele>
        <time>2018-03-09T04:30:47Z</time>
      </trkpt>
      <trkpt lat="46.8204" lon="-2.11088">
        <ele>1</ele>
        <time>2018-03-09T04:31:47Z</time>
      </trkpt>
      <trkpt lat="46.82056" lon="-2.11084">
        <ele>1</ele>
        <time>2018-03-09T04:32:47Z</time>
      </trkpt>
      <trkpt lat="46.8207" lon="-2.11082">
        <ele>1</ele>
        <time>2018-03-09T04:33:47Z</time>
      </trkpt>
      <trkpt lat="46.82079" lon="-2.11079">
        <ele>1</ele>
        <time>2018-03-09T04:34:47Z</time>
      </trkpt>
      <trkpt lat="46.82084" lon="-2.11075">
        <ele>1</ele>
        <time>2018-03-09T04:35:47Z</time>
      </trkpt>
      <trkpt lat="46.8209" lon="-2.11072">
        <ele>1</ele>
        <time>2018-03-09T04:36:47Z</time>
      </trkpt>
      <trkpt lat="46.82091" lon="-2.1107">
        <ele>1</ele>
        <time>2018-03-09T04:37:47Z</time>
      </trkpt>
      <trkpt lat="46.82099" lon="-2.11061">
        <ele>1</ele>
        <time>2018-03-09T04:38:47Z</time>
      </trkpt>
      <trkpt lat="46.82107" lon="-2.1105">
        <ele>1</ele>
        <time>2018-03-09T04:39:47Z</time>
      </trkpt>
      <trkpt lat="46.82115" lon="-2.11036">
        <ele>1</ele>
        <time>2018-03-09T04:40:47Z</time>
      </trkpt>
      <trkpt lat="46.82116" lon="-2.11033">
        <ele>1</ele>
        <time>2018-03-09T04:41:47Z</time>
      </trkpt>
      <trkpt lat="46.82122" lon="-2.11023">
        <ele>1</ele>
        <time>2018-03-09T04:42:47Z</time>
      </trkpt>
      <trkpt lat="46.8213" lon="-2.11014">
        <ele>1</ele>
        <time>2018-03-09T04:43:47Z</time>
      </trkpt>
      <trkpt lat="46.82133" lon="-2.1101">
        <ele>1</ele>
        <time>2018-03-09T04:44:47Z</time>
      </trkpt>
      <trkpt lat="46.82142" lon="-2.11006">
        <ele>1</ele>
        <time>2018-03-09T04:45:47Z</time>
      </trkpt>
      <trkpt lat="46.82146" lon="-2.11005">
        <ele>1</ele>
        <time>2018-03-09T04:46:47Z</time>
      </trkpt>
      <trkpt lat="46.82146" lon="-2.11005">
        <ele>1</ele>
        <time>2018-03-09T04:47:47Z</time>
      </trkpt>
      <trkpt lat="46.82152" lon="-2.11003">
        <ele>1</ele>
        <time>2018-03-09T04:48:47Z</time>
      </trkpt>
      <trkpt lat="46.82165" lon="-2.11001">
        <ele>1</ele>
        <time>2018-03-09T04:49:47Z</time>
      </trkpt>
      <trkpt lat="46.8218" lon="-2.11001">
        <ele>1</ele>
        <time>2018-03-09T04:50:47Z</time>
      </trkpt>
      <trkpt lat="46.82196" lon="-2.11001">
        <ele>1</ele>
        <time>2018-03-09T04:51:47Z</time>
      </trkpt>
      <trkpt lat="46.82209" lon="-2.10999">
        <ele>1</ele>
        <time>2018-03-09T04:52:47Z</time>
      </trkpt>
      <trkpt lat="46.82219" lon="-2.10992">
        <ele>1</ele>
        <time>2018-03-09T04:53:47Z</time>
      </trkpt>
      <trkpt lat="46.82225" lon="-2.10987">
        <ele>1</ele>
        <time>2018-03-09T04:54:47Z</time>
      </trkpt>
      <trkpt lat="46.82231" lon="-2.10978">
        <ele>1</ele>
        <time>2018-03-09T04:55:47Z</time>
      </trkpt>
      <trkpt lat="46.82239" lon="-2.10965">
        <ele>1</ele>
        <time>2018-03-09T04:56:47Z</time>
      </trkpt>
      <trkpt lat="46.82248" lon="-2.10953">
        <ele>1.7</ele>
        <time>2018-03-09T04:57:47Z</time>
      </trkpt>
      <trkpt lat="46.82259" lon="-2.10943">
        <ele>1.7</ele>
        <time>2018-03-09T04:58:47Z</time>
      </trkpt>
      <trkpt lat="46.82269" lon="-2.10934">
        <ele>1.3</ele>
        <time>2018-03-09T04:59:47Z</time>
      </trkpt>
      <trkpt lat="46.82285" lon="-2.10922">
        <ele>1.3</ele>
        <time>2018-03-09T05:00:47Z</time>
      </trkpt>
      <trkpt lat="46.82301" lon="-2.10912">
        <ele>1.9</ele>
        <time>2018-03-09T05:01:47Z</time>
      </trkpt>
      <trkpt lat="46.82319" lon="-2.10905">
        <ele>1.8</ele>
        <time>2018-03-09T05:02:47Z</time>
      </trkpt>
      <trkpt lat="46.82339" lon="-2.10897">
        <ele>1.4</ele>
        <time>2018-03-09T05:03:47Z</time>
      </trkpt>
      <trkpt lat="46.82363" lon="-2.10889">
        <ele>2</ele>
        <time>2018-03-09T05:04:47Z</time>
      </trkpt>
      <trkpt lat="46.82388" lon="-2.1088">
        <ele>2</ele>
        <time>2018-03-09T05:05:47Z</time>
      </trkpt>
      <trkpt lat="46.8242" lon="-2.10869">
        <ele>1</ele>
        <time>2018-03-09T05:06:47Z</time>
      </trkpt>
      <trkpt lat="46.8245" lon="-2.10858">
        <ele>1</ele>
        <time>2018-03-09T05:07:47Z</time>
      </trkpt>
      <trkpt lat="46.82466" lon="-2.10848">
        <ele>1</ele>
        <time>2018-03-09T05:08:47Z</time>
      </trkpt>
      <trkpt lat="46.82477" lon="-2.10837">
        <ele>1</ele>
        <time>2018-03-09T05:09:47Z</time>
      </trkpt>
      <trkpt lat="46.82488" lon="-2.10827">
        <ele>1</ele>
        <time>2018-03-09T05:10:47Z</time>
      </trkpt>
      <trkpt lat="46.82495" lon="-2.10824">
        <ele>1</ele>
        <time>2018-03-09T05:11:47Z</time>
      </trkpt>
      <trkpt lat="46.82502" lon="-2.10823">
        <ele>1</ele>
        <time>2018-03-09T05:12:47Z</time>
      </trkpt>
      <trkpt lat="46.8251" lon="-2.10826">
        <ele>1</ele>
        <time>2018-03-09T05:13:47Z</time>
      </trkpt>
      <trkpt lat="46.82519" lon="-2.1083">
        <ele>1</ele>
        <time>2018-03-09T05:14:47Z</time>
      </trkpt>
      <trkpt lat="46.82532" lon="-2.10833">
        <ele>1</ele>
        <time>2018-03-09T05:15:47Z</time>
      </trkpt>
      <trkpt lat="46.82545" lon="-2.10832">
        <ele>1</ele>
        <time>2018-03-09T05:16:47Z</time>
      </trkpt>
      <trkpt lat="46.82558" lon="-2.10828">
        <ele>1</ele>
        <time>2018-03-09T05:17:47Z</time>
      </trkpt>
      <trkpt lat="46.82576" lon="-2.10814">
        <ele>1</ele>
        <time>2018-03-09T05:18:47Z</time>
      </trkpt>
      <trkpt lat="46.82589" lon="-2.10799">
        <ele>1</ele>
        <time>2018-03-09T05:19:47Z</time>
      </trkpt>
      <trkpt lat="46.826" lon="-2.10781">
        <ele>1</ele>
        <time>2018-03-09T05:20:47Z</time>
      </trkpt>
      <trkpt lat="46.82611" lon="-2.10765">
        <ele>1</ele>
        <time>2018-03-09T05:21:47Z</time>
      </trkpt>
      <trkpt lat="46.82616" lon="-2.1076">
        <ele>1</ele>
        <time>2018-03-09T05:22:47Z</time>
      </trkpt>
      <trkpt lat="46.8262" lon="-2.10756">
        <ele>1</ele>
        <time>2018-03-09T05:23:47Z</time>
      </trkpt>
      <trkpt lat="46.82627" lon="-2.10753">
        <ele>2</ele>
        <time>2018-03-09T05:24:47Z</time>
      </trkpt>
      <trkpt lat="46.8264" lon="-2.1075">
        <ele>2</ele>
        <time>2018-03-09T05:25:47Z</time>
      </trkpt>
      <trkpt lat="46.82655" lon="-2.10749">
        <ele>2</ele>
        <time>2018-03-09T05:26:47Z</time>
      </trkpt>
      <trkpt lat="46.8267" lon="-2.1075">
        <ele>1.9</ele>
        <time>2018-03-09T05:27:47Z</time>
      </trkpt>
      <trkpt lat="46.82673" lon="-2.10749">
        <ele>1.8</ele>
        <time>2018-03-09T05:28:47Z</time>
      </trkpt>
      <trkpt lat="46.82679" lon="-2.10748">
        <ele>1.6</ele>
        <time>2018-03-09T05:29:47Z</time>
      </trkpt>
      <trkpt lat="46.82685" lon="-2.10742">
        <ele>1.5</ele>
        <time>2018-03-09T05:30:47Z</time>
      </trkpt>
      <trkpt lat="46.82699" lon="-2.10728">
        <ele>1.8</ele>
        <time>2018-03-09T05:31:47Z</time>
      </trkpt>
      <trkpt lat="46.82722" lon="-2.10701">
        <ele>2</ele>
        <time>2018-03-09T05:32:47Z</time>
      </trkpt>
      <trkpt lat="46.8275" lon="-2.1067">
        <ele>2</ele>
        <time>2018-03-09T05:33:47Z</time>
      </trkpt>
      <trkpt lat="46.8278" lon="-2.10637">
        <ele>2</ele>
        <time>2018-03-09T05:34:47Z</time>
      </trkpt>
      <trkpt lat="46.82803" lon="-2.10612">
        <ele>2</ele>
        <time>2018-03-09T05:35:47Z</time>
      </trkpt>
      <trkpt lat="46.8282" lon="-2.10596">
        <ele>2</ele>
        <time>2018-03-09T05:36:47Z</time>
      </trkpt>
      <trkpt lat="46.82824" lon="-2.10592">
        <ele>2</ele>
        <time>2018-03-09T05:37:47Z</time>
      </trkpt>
      <trkpt lat="46.82831" lon="-2.1059">
        <ele>2</ele>
        <time>2018-03-09T05:38:47Z</time>
      </trkpt>
      <trkpt lat="46.8284" lon="-2.1059">
        <ele>2</ele>
        <time>2018-03-09T05:39:47Z</time>
      </trkpt>
      <trkpt lat="46.82851" lon="-2.10592">
        <ele>2</ele>
        <time>2018-03-09T05:40:47Z</time>
      </trkpt>
      <trkpt lat="46.82862" lon="-2.10597">
        <ele>2</ele>
        <time>2018-03-09T05:41:47Z</time>
      </trkpt>
      <trkpt lat="46.82873" lon="-2.10602">
        <ele>1.9</ele>
        <time>2018-03-09T05:42:47Z</time>
      </trkpt>
      <trkpt lat="46.8289" lon="-2.10605">
        <ele>1.8</ele>
        <time>2018-03-09T05:43:47Z</time>
      </trkpt>
      <trkpt lat="46.82906" lon="-2.10604">
        <ele>1.9</ele>
        <time>2018-03-09T05:44:47Z</time>
      </trkpt>
      <trkpt lat="46.8292" lon="-2.10601">
        <ele>1.9</ele>
        <time>2018-03-09T05:45:47Z</time>
      </trkpt>
      <trkpt lat="46.82937" lon="-2.10592">
        <ele>1.8</ele>
        <time>2018-03-09T05:46:47Z</time>
      </trkpt>
      <trkpt lat="46.82945" lon="-2.10585">
        <ele>1.9</ele>
        <time>2018-03-09T05:47:47Z</time>
      </trkpt>
      <trkpt lat="46.82953" lon="-2.10572">
        <ele>1</ele>
        <time>2018-03-09T05:48:47Z</time>
      </trkpt>
      <trkpt lat="46.82968" lon="-2.10551">
        <ele>1</ele>
        <time>2018-03-09T05:49:47Z</time>
      </trkpt>
      <trkpt lat="46.82984" lon="-2.10534">
        <ele>2</ele>
        <time>2018-03-09T05:50:47Z</time>
      </trkpt>
      <trkpt lat="46.82994" lon="-2.10526">
        <ele>2</ele>
        <time>2018-03-09T05:51:47Z</time>
      </trkpt>
      <trkpt lat="46.83001" lon="-2.1052">
        <ele>2</ele>
        <time>2018-03-09T05:52:47Z</time>
      </trkpt>
      <trkpt lat="46.83002" lon="-2.1052">
        <ele>2</ele>
        <time>2018-03-09T05:53:47Z</time>
      </trkpt>
      <trkpt lat="46.83023" lon="-2.10507">
        <ele>2</ele>
        <time>2018-03-09T05:54:47Z</time>
      </trkpt>
      <trkpt lat="46.83038" lon="-2.10498">
        <ele>2</ele>
        <time>2018-03-09T05:55:47Z</time>
      </trkpt>
      <trkpt lat="46.83044" lon="-2.10496">
        <ele>1</ele>
        <time>2018-03-09T05:56:47Z</time>
      </trkpt>
      <trkpt lat="46.83051" lon="-2.10492">
        <ele>1</ele>
        <time>2018-03-09T05:57:47Z</time>
      </trkpt>
      <trkpt lat="46.83061" lon="-2.10489">
        <ele>1</ele>
        <time>2018-03-09T05:58:47Z</time>
      </trkpt>
      <trkpt lat="46.83076" lon="-2.10485">
        <ele>1</ele>
        <time>2018-03-09T05:59:47Z</time>
      </trkpt>
      <trkpt lat="46.83096" lon="-2.10477">
        <ele>1</ele>
        <time>2018-03-09T06:00:47Z</time>
      </trkpt>
      <trkpt lat="46.83107" lon="-2.1047">
        <ele>1</ele>
        <time>2018-03-09T06:01:47Z</time>
      </trkpt>
      <trkpt lat="46.83115" lon="-2.10465">
        <ele>1</ele>
        <time>2018-03-09T06:02:47Z</time>
      </trkpt>
      <trkpt lat="46.83124" lon="-2.10459">
        <ele>1</ele>
        <time>2018-03-09T06:03:47Z</time>
      </trkpt>
      <trkpt lat="46.83157" lon="-2.10432">
        <ele>2</ele>
        <time>2018-03-09T06:04:47Z</time>
      </trkpt>
      <trkpt lat="46.83195" lon="-2.10398">
        <ele>2</ele>
        <time>2018-03-09T06:05:47Z</time>
      </trkpt>
      <trkpt lat="46.83224" lon="-2.10371">
        <ele>1</ele>
        <time>2018-03-09T06:06:47Z</time>
      </trkpt>
      <trkpt lat="46.83238" lon="-2.10358">
        <ele>1</ele>
        <time>2018-03-09T06:07:47Z</time>
      </trkpt>
      <trkpt lat="46.83283" lon="-2.10318">
        <ele>1</ele>
        <time>2018-03-09T06:08:47Z</time>
      </trkpt>
      <trkpt lat="46.83342" lon="-2.10273">
        <ele>2</ele>
        <time>2018-03-09T06:09:47Z</time>
      </trkpt>
      <trkpt lat="46.83379" lon="-2.10252">
        <ele>1</ele>
        <time>2018-03-09T06:10:47Z</time>
      </trkpt>
      <trkpt lat="46.8339" lon="-2.10244">
        <ele>1</ele>
        <time>2018-03-09T06:11:47Z</time>
      </trkpt>
      <trkpt lat="46.83408" lon="-2.10233">
        <ele>1</ele>
        <time>2018-03-09T06:12:47Z</time>
      </trkpt>
      <trkpt lat="46.83414" lon="-2.10225">
        <ele>1</ele>
        <time>2018-03-09T06:13:47Z</time>
      </trkpt>
      <trkpt lat="46.83434" lon="-2.10206">
        <ele>1</ele>
        <time>2018-03-09T06:14:47Z</time>
      </trkpt>
      <trkpt lat="46.83467" lon="-2.10172">
        <ele>1</ele>
        <time>2018-03-09T06:15:47Z</time>
      </trkpt>
      <trkpt lat="46.8348" lon="-2.10159">
        <ele>1</ele>
        <time>2018-03-09T06:16:47Z</time>
      </trkpt>
      <trkpt lat="46.83503" lon="-2.10137">
        <ele>1</ele>
        <time>2018-03-09T06:17:47Z</time>
      </trkpt>
      <trkpt lat="46.83516" lon="-2.10126">
        <ele>1.8</ele>
        <time>2018-03-09T06:18:47Z</time>
      </trkpt>
      <trkpt lat="46.83545" lon="-2.10099">
        <ele>2</ele>
        <time>2018-03-09T06:19:47Z</time>
      </trkpt>
      <trkpt lat="46.83576" lon="-2.10071">
        <ele>1.6</ele>
        <time>2018-03-09T06:20:47Z</time>
      </trkpt>
      <trkpt lat="46.83588" lon="-2.10059">
        <ele>1.9</ele>
        <time>2018-03-09T06:21:47Z</time>
      </trkpt>
      <trkpt lat="46.83603" lon="-2.10045">
        <ele>1</ele>
        <time>2018-03-09T06:22:47Z</time>
      </trkpt>
      <trkpt lat="46.83626" lon="-2.10021">
        <ele>1</ele>
        <time>2018-03-09T06:23:47Z</time>
      </trkpt>
      <trkpt lat="46.83649" lon="-2.09991">
        <ele>1</ele>
        <time>2018-03-09T06:24:47Z</time>
      </trkpt>
      <trkpt lat="46.83677" lon="-2.09954">
        <ele>1</ele>
        <time>2018-03-09T06:25:47Z</time>
      </trkpt>
      <trkpt lat="46.83688" lon="-2.09937">
        <ele>1</ele>
        <time>2018-03-09T06:26:47Z</time>
      </trkpt>
      <trkpt lat="46.83701" lon="-2.09924">
        <ele>1</ele>
        <time>2018-03-09T06:27:47Z</time>
      </trkpt>
      <trkpt lat="46.83701" lon="-2.09924">
        <ele>1</ele>
        <time>2018-03-09T06:28:47Z</time>
      </trkpt>
      <trkpt lat="46.83703" lon="-2.09925">
        <ele>1</ele>
        <time>2018-03-09T06:29:47Z</time>
      </trkpt>
      <trkpt lat="46.83708" lon="-2.09928">
        <ele>1</ele>
        <time>2018-03-09T06:30:47Z</time>
      </trkpt>
      <trkpt lat="46.83715" lon="-2.09931">
        <ele>1</ele>
        <time>2018-03-09T06:31:47Z</time>
      </trkpt>
      <trkpt lat="46.83739" lon="-2.09942">
        <ele>2</ele>
        <time>2018-03-09T06:32:47Z</time>
      </trkpt>
      <trkpt lat="46.83739" lon="-2.09942">
        <ele>2</ele>
        <time>2018-03-09T06:33:47Z</time>
      </trkpt>
      <trkpt lat="46.83748" lon="-2.09936">
        <ele>2</ele>
        <time>2018-03-09T06:34:47Z</time>
      </trkpt>
      <trkpt lat="46.83761" lon="-2.09927">
        <ele>3</ele>
        <time>2018-03-09T06:35:47Z</time>
      </trkpt>
      <trkpt lat="46.83773" lon="-2.09903">
        <ele>3</ele>
        <time>2018-03-09T06:36:47Z</time>
      </trkpt>
      <trkpt lat="46.83779" lon="-2.09897">
        <ele>3</ele>
        <time>2018-03-09T06:37:47Z</time>
      </trkpt>
      <trkpt lat="46.83784" lon="-2.09892">
        <ele>4</ele>
        <time>2018-03-09T06:38:47Z</time>
      </trkpt>
      <trkpt lat="46.83789" lon="-2.09887">
        <ele>4</ele>
        <time>2018-03-09T06:39:47Z</time>
      </trkpt>
      <trkpt lat="46.83803" lon="-2.09877">
        <ele>4</ele>
        <time>2018-03-09T06:40:47Z</time>
      </trkpt>
      <trkpt lat="46.83826" lon="-2.09864">
        <ele>4</ele>
        <time>2018-03-09T06:41:47Z</time>
      </trkpt>
      <trkpt lat="46.83846" lon="-2.09855">
        <ele>3</ele>
        <time>2018-03-09T06:42:47Z</time>
      </trkpt>
      <trkpt lat="46.83859" lon="-2.09849">
        <ele>3</ele>
        <time>2018-03-09T06:43:47Z</time>
      </trkpt>
      <trkpt lat="46.83859" lon="-2.09849">
        <ele>3</ele>
        <time>2018-03-09T06:44:47Z</time>
      </trkpt>
      <trkpt lat="46.83875" lon="-2.0984">
        <ele>2</ele>
        <time>2018-03-09T06:45:47Z</time>
      </trkpt>
      <trkpt lat="46.83891" lon="-2.09831">
        <ele>2</ele>
        <time>2018-03-09T06:46:47Z</time>
      </trkpt>
      <trkpt lat="46.83903" lon="-2.09827">
        <ele>2</ele>
        <time>2018-03-09T06:47:47Z</time>
      </trkpt>
      <trkpt lat="46.83919" lon="-2.09821">
        <ele>2</ele>
        <time>2018-03-09T06:48:47Z</time>
      </trkpt>
      <trkpt lat="46.8393" lon="-2.09814">
        <ele>1</ele>
        <time>2018-03-09T06:49:47Z</time>
      </trkpt>
      <trkpt lat="46.83941" lon="-2.09806">
        <ele>1</ele>
        <time>2018-03-09T06:50:47Z</time>
      </trkpt>
      <trkpt lat="46.83951" lon="-2.09794">
        <ele>1</ele>
        <time>2018-03-09T06:51:47Z</time>
      </trkpt>
      <trkpt lat="46.83964" lon="-2.09781">
        <ele>1</ele>
        <time>2018-03-09T06:52:47Z</time>
      </trkpt>
      <trkpt lat="46.83979" lon="-2.0977">
        <ele>1.8</ele>
        <time>2018-03-09T06:53:47Z</time>
      </trkpt>
      <trkpt lat="46.83999" lon="-2.09757">
        <ele>2</ele>
        <time>2018-03-09T06:54:47Z</time>
      </trkpt>
      <trkpt lat="46.84021" lon="-2.09743">
        <ele>2</ele>
        <time>2018-03-09T06:55:47Z</time>
      </trkpt>
      <trkpt lat="46.84047" lon="-2.09727">
        <ele>2</ele>
        <time>2018-03-09T06:56:47Z</time>
      </trkpt>
      <trkpt lat="46.84067" lon="-2.09715">
        <ele>1.7</ele>
        <time>2018-03-09T06:57:47Z</time>
      </trkpt>
      <trkpt lat="46.84083" lon="-2.09702">
        <ele>1.7</ele>
        <time>2018-03-09T06:58:47Z</time>
      </trkpt>
      <trkpt lat="46.84091" lon="-2.09692">
        <ele>1.9</ele>
        <time>2018-03-09T06:59:47Z</time>
      </trkpt>
      <trkpt lat="46.84093" lon="-2.09689">
        <ele>1.9</ele>
        <time>2018-03-09T07:00:47Z</time>
      </trkpt>
      <trkpt lat="46.84093" lon="-2.09689">
        <ele>1.9</ele>
        <time>2018-03-09T07:01:47Z</time>
      </trkpt>
      <trkpt lat="46.841" lon="-2.09675">
        <ele>1.7</ele>
        <time>2018-03-09T07:02:47Z</time>
      </trkpt>
      <trkpt lat="46.84109" lon="-2.09659">
        <ele>1.7</ele>
        <time>2018-03-09T07:03:47Z</time>
      </trkpt>
      <trkpt lat="46.84117" lon="-2.09651">
        <ele>1.4</ele>
        <time>2018-03-09T07:04:47Z</time>
      </trkpt>
      <trkpt lat="46.84131" lon="-2.09642">
        <ele>1</ele>
        <time>2018-03-09T07:05:47Z</time>
      </trkpt>
      <trkpt lat="46.84147" lon="-2.09635">
        <ele>1</ele>
        <time>2018-03-09T07:06:47Z</time>
      </trkpt>
      <trkpt lat="46.84171" lon="-2.09624">
        <ele>1</ele>
        <time>2018-03-09T07:07:47Z</time>
      </trkpt>
      <trkpt lat="46.84179" lon="-2.0962">
        <ele>1</ele>
        <time>2018-03-09T07:08:47Z</time>
      </trkpt>
      <trkpt lat="46.84207" lon="-2.0961">
        <ele>1</ele>
        <time>2018-03-09T07:09:47Z</time>
      </trkpt>
      <trkpt lat="46.84235" lon="-2.09602">
        <ele>1.5</ele>
        <time>2018-03-09T07:10:47Z</time>
      </trkpt>
      <trkpt lat="46.84262" lon="-2.09599">
        <ele>2</ele>
        <time>2018-03-09T07:11:47Z</time>
      </trkpt>
      <trkpt lat="46.84286" lon="-2.09595">
        <ele>2</ele>
        <time>2018-03-09T07:12:47Z</time>
      </trkpt>
      <trkpt lat="46.84324" lon="-2.09591">
        <ele>1.5</ele>
        <time>2018-03-09T07:13:47Z</time>
      </trkpt>
      <trkpt lat="46.84352" lon="-2.09589">
        <ele>1.7</ele>
        <time>2018-03-09T07:14:47Z</time>
      </trkpt>
      <trkpt lat="46.8438" lon="-2.09584">
        <ele>2</ele>
        <time>2018-03-09T07:15:47Z</time>
      </trkpt>
      <trkpt lat="46.84404" lon="-2.09582">
        <ele>2</ele>
        <time>2018-03-09T07:16:47Z</time>
      </trkpt>
      <trkpt lat="46.84408" lon="-2.09582">
        <ele>2</ele>
        <time>2018-03-09T07:17:47Z</time>
      </trkpt>
      <trkpt lat="46.84412" lon="-2.09581">
        <ele>1.9</ele>
        <time>2018-03-09T07:18:47Z</time>
      </trkpt>
      <trkpt lat="46.84425" lon="-2.0958">
        <ele>1.9</ele>
        <time>2018-03-09T07:19:47Z</time>
      </trkpt>
      <trkpt lat="46.84437" lon="-2.09577">
        <ele>1.9</ele>
        <time>2018-03-09T07:20:47Z</time>
      </trkpt>
      <trkpt lat="46.84468" lon="-2.09569">
        <ele>2</ele>
        <time>2018-03-09T07:21:47Z</time>
      </trkpt>
      <trkpt lat="46.8447" lon="-2.09568">
        <ele>2</ele>
        <time>2018-03-09T07:22:47Z</time>
      </trkpt>
      <trkpt lat="46.84485" lon="-2.09562">
        <ele>1.6</ele>
        <time>2018-03-09T07:23:47Z</time>
      </trkpt>
      <trkpt lat="46.84496" lon="-2.09558">
        <ele>1.2</ele>
        <time>2018-03-09T07:24:47Z</time>
      </trkpt>
      <trkpt lat="46.8453" lon="-2.09546">
        <ele>1.3</ele>
        <time>2018-03-09T07:25:47Z</time>
      </trkpt>
      <trkpt lat="46.84568" lon="-2.09532">
        <ele>1.9</ele>
        <time>2018-03-09T07:26:47Z</time>
      </trkpt>
      <trkpt lat="46.84594" lon="-2.09523">
        <ele>2</ele>
        <time>2018-03-09T07:27:47Z</time>
      </trkpt>
      <trkpt lat="46.84614" lon="-2.09517">
        <ele>1.9</ele>
        <time>2018-03-09T07:28:47Z</time>
      </trkpt>
      <trkpt lat="46.84627" lon="-2.09511">
        <ele>1.4</ele>
        <time>2018-03-09T07:29:47Z</time>
      </trkpt>
      <trkpt lat="46.84638" lon="-2.09505">
        <ele>1</ele>
        <time>2018-03-09T07:30:47Z</time>
      </trkpt>
      <trkpt lat="46.84649" lon="-2.09495">
        <ele>1.5</ele>
        <time>2018-03-09T07:31:47Z</time>
      </trkpt>
      <trkpt lat="46.84666" lon="-2.09473">
        <ele>2</ele>
        <time>2018-03-09T07:32:47Z</time>
      </trkpt>
      <trkpt lat="46.84683" lon="-2.09447">
        <ele>1.6</ele>
        <time>2018-03-09T07:33:47Z</time>
      </trkpt>
      <trkpt lat="46.84701" lon="-2.09424">
        <ele>1.8</ele>
        <time>2018-03-09T07:34:47Z</time>
      </trkpt>
      <trkpt lat="46.84723" lon="-2.09391">
        <ele>1</ele>
        <time>2018-03-09T07:35:47Z</time>
      </trkpt>
      <trkpt lat="46.84746" lon="-2.09354">
        <ele>1.1</ele>
        <time>2018-03-09T07:36:47Z</time>
      </trkpt>
      <trkpt lat="46.84763" lon="-2.0932">
        <ele>1.5</ele>
        <time>2018-03-09T07:37:47Z</time>
      </trkpt>
      <trkpt lat="46.8478" lon="-2.09282">
        <ele>1.2</ele>
        <time>2018-03-09T07:38:47Z</time>
      </trkpt>
      <trkpt lat="46.84789" lon="-2.09265">
        <ele>1.7</ele>
        <time>2018-03-09T07:39:47Z</time>
      </trkpt>
      <trkpt lat="46.84802" lon="-2.09245">
        <ele>2</ele>
        <time>2018-03-09T07:40:47Z</time>
      </trkpt>
      <trkpt lat="46.84815" lon="-2.09234">
        <ele>2</ele>
        <time>2018-03-09T07:41:47Z</time>
      </trkpt>
      <trkpt lat="46.8483" lon="-2.09225">
        <ele>2</ele>
        <time>2018-03-09T07:42:47Z</time>
      </trkpt>
      <trkpt lat="46.84844" lon="-2.09217">
        <ele>1.6</ele>
        <time>2018-03-09T07:43:47Z</time>
      </trkpt>
      <trkpt lat="46.84856" lon="-2.09209">
        <ele>1.5</ele>
        <time>2018-03-09T07:44:47Z</time>
      </trkpt>
      <trkpt lat="46.84856" lon="-2.09209">
        <ele>1.5</ele>
        <time>2018-03-09T07:45:47Z</time>
      </trkpt>
      <trkpt lat="46.84872" lon="-2.09201">
        <ele>1.6</ele>
        <time>2018-03-09T07:46:47Z</time>
      </trkpt>
      <trkpt lat="46.84888" lon="-2.09192">
        <ele>1.1</ele>
        <time>2018-03-09T07:47:47Z</time>
      </trkpt>
      <trkpt lat="46.84902" lon="-2.09187">
        <ele>1.6</ele>
        <time>2018-03-09T07:48:47Z</time>
      </trkpt>
      <trkpt lat="46.84915" lon="-2.09185">
        <ele>2</ele>
        <time>2018-03-09T07:49:47Z</time>
      </trkpt>
      <trkpt lat="46.84931" lon="-2.09185">
        <ele>2</ele>
        <time>2018-03-09T07:50:47Z</time>
      </trkpt>
      <trkpt lat="46.8495" lon="-2.09192">
        <ele>2</ele>
        <time>2018-03-09T07:51:47Z</time>
      </trkpt>
      <trkpt lat="46.84971" lon="-2.092">
        <ele>2</ele>
        <time>2018-03-09T07:52:47Z</time>
      </trkpt>
      <trkpt lat="46.84994" lon="-2.09203">
        <ele>1.8</ele>
        <time>2018-03-09T07:53:47Z</time>
      </trkpt>
      <trkpt lat="46.85012" lon="-2.09202">
        <ele>1.4</ele>
        <time>2018-03-09T07:54:47Z</time>
      </trkpt>
      <trkpt lat="46.8503" lon="-2.09201">
        <ele>1</ele>
        <time>2018-03-09T07:55:47Z</time>
      </trkpt>
      <trkpt lat="46.85051" lon="-2.09197">
        <ele>1.1</ele>
        <time>2018-03-09T07:56:47Z</time>
      </trkpt>
      <trkpt lat="46.85051" lon="-2.09197">
        <ele>1.1</ele>
        <time>2018-03-09T07:57:47Z</time>
      </trkpt>
      <trkpt lat="46.85058" lon="-2.09196">
        <ele>1.1</ele>
        <time>2018-03-09T07:58:47Z</time>
      </trkpt>
      <trkpt lat="46.85066" lon="-2.09194">
        <ele>1.4</ele>
        <time>2018-03-09T07:59:47Z</time>
      </trkpt>
      <trkpt lat="46.85077" lon="-2.09188">
        <ele>1.8</ele>
        <time>2018-03-09T08:00:47Z</time>
      </trkpt>
      <trkpt lat="46.85092" lon="-2.09175">
        <ele>2</ele>
        <time>2018-03-09T08:01:47Z</time>
      </trkpt>
      <trkpt lat="46.8511" lon="-2.09158">
        <ele>2</ele>
        <time>2018-03-09T08:02:47Z</time>
      </trkpt>
      <trkpt lat="46.85127" lon="-2.09141">
        <ele>1</ele>
        <time>2018-03-09T08:03:47Z</time>
      </trkpt>
      <trkpt lat="46.85143" lon="-2.09123">
        <ele>1</ele>
        <time>2018-03-09T08:04:47Z</time>
      </trkpt>
      <trkpt lat="46.85154" lon="-2.09104">
        <ele>1</ele>
        <time>2018-03-09T08:05:47Z</time>
      </trkpt>
      <trkpt lat="46.85158" lon="-2.09091">
        <ele>1</ele>
        <time>2018-03-09T08:06:47Z</time>
      </trkpt>
      <trkpt lat="46.85164" lon="-2.09065">
        <ele>1</ele>
        <time>2018-03-09T08:07:47Z</time>
      </trkpt>
      <trkpt lat="46.85176" lon="-2.09037">
        <ele>1</ele>
        <time>2018-03-09T08:08:47Z</time>
      </trkpt>
      <trkpt lat="46.85186" lon="-2.09016">
        <ele>1</ele>
        <time>2018-03-09T08:09:47Z</time>
      </trkpt>
      <trkpt lat="46.85197" lon="-2.08997">
        <ele>1.2</ele>
        <time>2018-03-09T08:10:47Z</time>
      </trkpt>
      <trkpt lat="46.85203" lon="-2.0899">
        <ele>1.4</ele>
        <time>2018-03-09T08:11:47Z</time>
      </trkpt>
      <trkpt lat="46.8521" lon="-2.08985">
        <ele>1.5</ele>
        <time>2018-03-09T08:12:47Z</time>
      </trkpt>
      <trkpt lat="46.85216" lon="-2.08981">
        <ele>1.4</ele>
        <time>2018-03-09T08:13:47Z</time>
      </trkpt>
      <trkpt lat="46.85228" lon="-2.08975">
        <ele>1.3</ele>
        <time>2018-03-09T08:14:47Z</time>
      </trkpt>
      <trkpt lat="46.85242" lon="-2.08969">
        <ele>1.7</ele>
        <time>2018-03-09T08:15:47Z</time>
      </trkpt>
      <trkpt lat="46.85251" lon="-2.08966">
        <ele>1.8</ele>
        <time>2018-03-09T08:16:47Z</time>
      </trkpt>
      <trkpt lat="46.85259" lon="-2.08962">
        <ele>1.5</ele>
        <time>2018-03-09T08:17:47Z</time>
      </trkpt>
      <trkpt lat="46.85272" lon="-2.08954">
        <ele>1.6</ele>
        <time>2018-03-09T08:18:47Z</time>
      </trkpt>
      <trkpt lat="46.85289" lon="-2.08944">
        <ele>2</ele>
        <time>2018-03-09T08:19:47Z</time>
      </trkpt>
      <trkpt lat="46.85301" lon="-2.08934">
        <ele>1.7</ele>
        <time>2018-03-09T08:20:47Z</time>
      </trkpt>
      <trkpt lat="46.85311" lon="-2.08922">
        <ele>1.2</ele>
        <time>2018-03-09T08:21:47Z</time>
      </trkpt>
      <trkpt lat="46.85326" lon="-2.089">
        <ele>1.6</ele>
        <time>2018-03-09T08:22:47Z</time>
      </trkpt>
      <trkpt lat="46.85337" lon="-2.0888">
        <ele>2</ele>
        <time>2018-03-09T08:23:47Z</time>
      </trkpt>
      <trkpt lat="46.85349" lon="-2.08858">
        <ele>2</ele>
        <time>2018-03-09T08:24:47Z</time>
      </trkpt>
      <trkpt lat="46.85363" lon="-2.08831">
        <ele>2</ele>
        <time>2018-03-09T08:25:47Z</time>
      </trkpt>
      <trkpt lat="46.85374" lon="-2.08811">
        <ele>2</ele>
        <time>2018-03-09T08:26:47Z</time>
      </trkpt>
      <trkpt lat="46.85384" lon="-2.088">
        <ele>2</ele>
        <time>2018-03-09T08:27:47Z</time>
      </trkpt>
      <trkpt lat="46.85394" lon="-2.08792">
        <ele>2</ele>
        <time>2018-03-09T08:28:47Z</time>
      </trkpt>
      <trkpt lat="46.85408" lon="-2.08781">
        <ele>2</ele>
        <time>2018-03-09T08:29:47Z</time>
      </trkpt>
      <trkpt lat="46.85424" lon="-2.08769">
        <ele>2</ele>
        <time>2018-03-09T08:30:47Z</time>
      </trkpt>
      <trkpt lat="46.85438" lon="-2.08756">
        <ele>2</ele>
        <time>2018-03-09T08:31:47Z</time>
      </trkpt>
      <trkpt lat="46.85451" lon="-2.08739">
        <ele>2</ele>
        <time>2018-03-09T08:32:47Z</time>
      </trkpt>
      <trkpt lat="46.85464" lon="-2.08717">
        <ele>2</ele>
        <time>2018-03-09T08:33:47Z</time>
      </trkpt>
      <trkpt lat="46.85478" lon="-2.08692">
        <ele>2</ele>
        <time>2018-03-09T08:34:47Z</time>
      </trkpt>
      <trkpt lat="46.85491" lon="-2.0867">
        <ele>2</ele>
        <time>2018-03-09T08:35:47Z</time>
      </trkpt>
      <trkpt lat="46.85502" lon="-2.08652">
        <ele>2</ele>
        <time>2018-03-09T08:36:47Z</time>
      </trkpt>
      <trkpt lat="46.85513" lon="-2.0864">
        <ele>2</ele>
        <time>2018-03-09T08:37:47Z</time>
      </trkpt>
      <trkpt lat="46.85521" lon="-2.08633">
        <ele>2</ele>
        <time>2018-03-09T08:38:47Z</time>
      </trkpt>
      <trkpt lat="46.85529" lon="-2.08628">
        <ele>2</ele>
        <time>2018-03-09T08:39:47Z</time>
      </trkpt>
      <trkpt lat="46.85533" lon="-2.08626">
        <ele>2</ele>
        <time>2018-03-09T08:40:47Z</time>
      </trkpt>
      <trkpt lat="46.85544" lon="-2.08623">
        <ele>2</ele>
        <time>2018-03-09T08:41:47Z</time>
      </trkpt>
      <trkpt lat="46.85551" lon="-2.08622">
        <ele>2</ele>
        <time>2018-03-09T08:42:47Z</time>
      </trkpt>
      <trkpt lat="46.85551" lon="-2.08622">
        <ele>2</ele>
        <time>2018-03-09T08:43:47Z</time>
      </trkpt>
      <trkpt lat="46.85556" lon="-2.08621">
        <ele>2</ele>
        <time>2018-03-09T08:44:47Z</time>
      </trkpt>
      <trkpt lat="46.85566" lon="-2.0862">
        <ele>1.7</ele>
        <time>2018-03-09T08:45:47Z</time>
      </trkpt>
      <trkpt lat="46.85582" lon="-2.08616">
        <ele>1.2</ele>
        <time>2018-03-09T08:46:47Z</time>
      </trkpt>
      <trkpt lat="46.85592" lon="-2.08611">
        <ele>1.3</ele>
        <time>2018-03-09T08:47:47Z</time>
      </trkpt>
      <trkpt lat="46.85593" lon="-2.0861">
        <ele>1.4</ele>
        <time>2018-03-09T08:48:47Z</time>
      </trkpt>
      <trkpt lat="46.85596" lon="-2.08607">
        <ele>1</ele>
        <time>2018-03-09T08:49:47Z</time>
      </trkpt>
      <trkpt lat="46.85605" lon="-2.08601">
        <ele>1</ele>
        <time>2018-03-09T08:50:47Z</time>
      </trkpt>
      <trkpt lat="46.85618" lon="-2.08594">
        <ele>1</ele>
        <time>2018-03-09T08:51:47Z</time>
      </trkpt>
      <trkpt lat="46.85625" lon="-2.0859">
        <ele>1</ele>
        <time>2018-03-09T08:52:47Z</time>
      </trkpt>
      <trkpt lat="46.85636" lon="-2.08586">
        <ele>1</ele>
        <time>2018-03-09T08:53:47Z</time>
      </trkpt>
      <trkpt lat="46.85649" lon="-2.08581">
        <ele>2</ele>
        <time>2018-03-09T08:54:47Z</time>
      </trkpt>
      <trkpt lat="46.85659" lon="-2.08577">
        <ele>2</ele>
        <time>2018-03-09T08:55:47Z</time>
      </trkpt>
      <trkpt lat="46.85665" lon="-2.08571">
        <ele>2</ele>
        <time>2018-03-09T08:56:47Z</time>
      </trkpt>
      <trkpt lat="46.85671" lon="-2.08563">
        <ele>2</ele>
        <time>2018-03-09T08:57:47Z</time>
      </trkpt>
      <trkpt lat="46.85683" lon="-2.08542">
        <ele>2</ele>
        <time>2018-03-09T08:58:47Z</time>
      </trkpt>
      <trkpt lat="46.85685" lon="-2.08538">
        <ele>2</ele>
        <time>2018-03-09T08:59:47Z</time>
      </trkpt>
      <trkpt lat="46.85687" lon="-2.08536">
        <ele>2</ele>
        <time>2018-03-09T09:00:47Z</time>
      </trkpt>
      <trkpt lat="46.85692" lon="-2.0853">
        <ele>1</ele>
        <time>2018-03-09T09:01:47Z</time>
      </trkpt>
      <trkpt lat="46.85697" lon="-2.08522">
        <ele>1</ele>
        <time>2018-03-09T09:02:47Z</time>
      </trkpt>
      <trkpt lat="46.85703" lon="-2.08514">
        <ele>1</ele>
        <time>2018-03-09T09:03:47Z</time>
      </trkpt>
      <trkpt lat="46.85716" lon="-2.08499">
        <ele>1</ele>
        <time>2018-03-09T09:04:47Z</time>
      </trkpt>
      <trkpt lat="46.85731" lon="-2.08485">
        <ele>2</ele>
        <time>2018-03-09T09:05:47Z</time>
      </trkpt>
      <trkpt lat="46.8574" lon="-2.08476">
        <ele>2</ele>
        <time>2018-03-09T09:06:47Z</time>
      </trkpt>
      <trkpt lat="46.85746" lon="-2.08469">
        <ele>2</ele>
        <time>2018-03-09T09:07:47Z</time>
      </trkpt>
      <trkpt lat="46.85754" lon="-2.08459">
        <ele>1.9</ele>
        <time>2018-03-09T09:08:47Z</time>
      </trkpt>
      <trkpt lat="46.85759" lon="-2.08447">
        <ele>1.7</ele>
        <time>2018-03-09T09:09:47Z</time>
      </trkpt>
      <trkpt lat="46.85767" lon="-2.08421">
        <ele>1.6</ele>
        <time>2018-03-09T09:10:47Z</time>
      </trkpt>
      <trkpt lat="46.85773" lon="-2.08399">
        <ele>1.8</ele>
        <time>2018-03-09T09:11:47Z</time>
      </trkpt>
      <trkpt lat="46.85778" lon="-2.08387">
        <ele>2</ele>
        <time>2018-03-09T09:12:47Z</time>
      </trkpt>
      <trkpt lat="46.85784" lon="-2.08375">
        <ele>2</ele>
        <time>2018-03-09T09:13:47Z</time>
      </trkpt>
      <trkpt lat="46.85792" lon="-2.08365">
        <ele>2</ele>
        <time>2018-03-09T09:14:47Z</time>
      </trkpt>
      <trkpt lat="46.85792" lon="-2.08365">
        <ele>2</ele>
        <time>2018-03-09T09:15:47Z</time>
      </trkpt>
      <trkpt lat="46.8581" lon="-2.08348">
        <ele>2</ele>
        <time>2018-03-09T09:16:47Z</time>
      </trkpt>
      <trkpt lat="46.85824" lon="-2.08335">
        <ele>2</ele>
        <time>2018-03-09T09:17:47Z</time>
      </trkpt>
      <trkpt lat="46.85834" lon="-2.08325">
        <ele>1.7</ele>
        <time>2018-03-09T09:18:47Z</time>
      </trkpt>
      <trkpt lat="46.85849" lon="-2.08307">
        <ele>1.6</ele>
        <time>2018-03-09T09:19:47Z</time>
      </trkpt>
      <trkpt lat="46.8589" lon="-2.08254">
        <ele>1</ele>
        <time>2018-03-09T09:20:47Z</time>
      </trkpt>
      <trkpt lat="46.85902" lon="-2.08237">
        <ele>1</ele>
        <time>2018-03-09T09:21:47Z</time>
      </trkpt>
      <trkpt lat="46.85928" lon="-2.08204">
        <ele>1</ele>
        <time>2018-03-09T09:22:47Z</time>
      </trkpt>
      <trkpt lat="46.85959" lon="-2.08164">
        <ele>2</ele>
        <time>2018-03-09T09:23:47Z</time>
      </trkpt>
      <trkpt lat="46.85978" lon="-2.08136">
        <ele>2</ele>
        <time>2018-03-09T09:24:47Z</time>
      </trkpt>
      <trkpt lat="46.85991" lon="-2.08115">
        <ele>2</ele>
        <time>2018-03-09T09:25:47Z</time>
      </trkpt>
      <trkpt lat="46.86007" lon="-2.08084">
        <ele>1.3</ele>
        <time>2018-03-09T09:26:47Z</time>
      </trkpt>
      <trkpt lat="46.86024" lon="-2.08053">
        <ele>2</ele>
        <time>2018-03-09T09:27:47Z</time>
      </trkpt>
      <trkpt lat="46.86038" lon="-2.08032">
        <ele>1.9</ele>
        <time>2018-03-09T09:28:47Z</time>
      </trkpt>
      <trkpt lat="46.86057" lon="-2.08007">
        <ele>2.7</ele>
        <time>2018-03-09T09:29:47Z</time>
      </trkpt>
      <trkpt lat="46.86074" lon="-2.07983">
        <ele>1</ele>
        <time>2018-03-09T09:30:47Z</time>
      </trkpt>
      <trkpt lat="46.86078" lon="-2.07973">
        <ele>1</ele>
        <time>2018-03-09T09:31:47Z</time>
      </trkpt>
      <trkpt lat="46.86083" lon="-2.07964">
        <ele>1</ele>
        <time>2018-03-09T09:32:47Z</time>
      </trkpt>
      <trkpt lat="46.86083" lon="-2.07964">
        <ele>1</ele>
        <time>2018-03-09T09:33:47Z</time>
      </trkpt>
      <trkpt lat="46.86093" lon="-2.07946">
        <ele>1</ele>
        <time>2018-03-09T09:34:47Z</time>
      </trkpt>
      <trkpt lat="46.86098" lon="-2.0794">
        <ele>1</ele>
        <time>2018-03-09T09:35:47Z</time>
      </trkpt>
      <trkpt lat="46.86106" lon="-2.0793">
        <ele>1</ele>
        <time>2018-03-09T09:36:47Z</time>
      </trkpt>
      <trkpt lat="46.86129" lon="-2.07917">
        <ele>1</ele>
        <time>2018-03-09T09:37:47Z</time>
      </trkpt>
      <trkpt lat="46.86151" lon="-2.07906">
        <ele>1</ele>
        <time>2018-03-09T09:38:47Z</time>
      </trkpt>
      <trkpt lat="46.86162" lon="-2.07899">
        <ele>1</ele>
        <time>2018-03-09T09:39:47Z</time>
      </trkpt>
      <trkpt lat="46.86169" lon="-2.07892">
        <ele>1</ele>
        <time>2018-03-09T09:40:47Z</time>
      </trkpt>
      <trkpt lat="46.86178" lon="-2.07884">
        <ele>1</ele>
        <time>2018-03-09T09:41:47Z</time>
      </trkpt>
      <trkpt lat="46.86202" lon="-2.07852">
        <ele>1</ele>
        <time>2018-03-09T09:42:47Z</time>
      </trkpt>
      <trkpt lat="46.8623" lon="-2.07811">
        <ele>1</ele>
        <time>2018-03-09T09:43:47Z</time>
      </trkpt>
      <trkpt lat="46.86256" lon="-2.07774">
        <ele>1</ele>
        <time>2018-03-09T09:44:47Z</time>
      </trkpt>
      <trkpt lat="46.86256" lon="-2.07774">
        <ele>1</ele>
        <time>2018-03-09T09:45:47Z</time>
      </trkpt>
      <trkpt lat="46.86227" lon="-2.07708">
        <ele>2</ele>
        <time>2018-03-09T09:46:47Z</time>
      </trkpt>
      <trkpt lat="46.86202" lon="-2.07645">
        <ele>2</ele>
        <time>2018-03-09T09:47:47Z</time>
      </trkpt>
      <trkpt lat="46.86174" lon="-2.07579">
        <ele>2</ele>
        <time>2018-03-09T09:48:47Z</time>
      </trkpt>
      <trkpt lat="46.8616" lon="-2.07548">
        <ele>2</ele>
        <time>2018-03-09T09:49:47Z</time>
      </trkpt>
      <trkpt lat="46.86148" lon="-2.07516">
        <ele>2</ele>
        <time>2018-03-09T09:50:47Z</time>
      </trkpt>
      <trkpt lat="46.86138" lon="-2.07491">
        <ele>2</ele>
        <time>2018-03-09T09:51:47Z</time>
      </trkpt>
      <trkpt lat="46.86132" lon="-2.0747">
        <ele>2</ele>
        <time>2018-03-09T09:52:47Z</time>
      </trkpt>
      <trkpt lat="46.8613" lon="-2.07444">
        <ele>2</ele>
        <time>2018-03-09T09:53:47Z</time>
      </trkpt>
      <trkpt lat="46.86132" lon="-2.0741">
        <ele>2</ele>
        <time>2018-03-09T09:54:47Z</time>
      </trkpt>
      <trkpt lat="46.86143" lon="-2.0735">
        <ele>2</ele>
        <time>2018-03-09T09:55:47Z</time>
      </trkpt>
      <trkpt lat="46.86157" lon="-2.07283">
        <ele>2</ele>
        <time>2018-03-09T09:56:47Z</time>
      </trkpt>
      <trkpt lat="46.86165" lon="-2.07257">
        <ele>2</ele>
        <time>2018-03-09T09:57:47Z</time>
      </trkpt>
      <trkpt lat="46.86176" lon="-2.07231">
        <ele>2</ele>
        <time>2018-03-09T09:58:47Z</time>
      </trkpt>
      <trkpt lat="46.86189" lon="-2.072">
        <ele>2</ele>
        <time>2018-03-09T09:59:47Z</time>
      </trkpt>
      <trkpt lat="46.86197" lon="-2.07172">
        <ele>2</ele>
        <time>2018-03-09T10:00:47Z</time>
      </trkpt>
      <trkpt lat="46.86209" lon="-2.07123">
        <ele>2</ele>
        <time>2018-03-09T10:01:47Z</time>
      </trkpt>
      <trkpt lat="46.86215" lon="-2.07088">
        <ele>2</ele>
        <time>2018-03-09T10:02:47Z</time>
      </trkpt>
      <trkpt lat="46.86215" lon="-2.07088">
        <ele>2</ele>
        <time>2018-03-09T10:03:47Z</time>
      </trkpt>
      <trkpt lat="46.86225" lon="-2.07039">
        <ele>2</ele>
        <time>2018-03-09T10:04:47Z</time>
      </trkpt>
      <trkpt lat="46.8623" lon="-2.07023">
        <ele>2</ele>
        <time>2018-03-09T10:05:47Z</time>
      </trkpt>
      <trkpt lat="46.86236" lon="-2.07006">
        <ele>2</ele>
        <time>2018-03-09T10:06:47Z</time>
      </trkpt>
      <trkpt lat="46.86246" lon="-2.06984">
        <ele>2</ele>
        <time>2018-03-09T10:07:47Z</time>
      </trkpt>
      <trkpt lat="46.86256" lon="-2.06965">
        <ele>1</ele>
        <time>2018-03-09T10:08:47Z</time>
      </trkpt>
      <trkpt lat="46.86266" lon="-2.06937">
        <ele>1</ele>
        <time>2018-03-09T10:09:47Z</time>
      </trkpt>
      <trkpt lat="46.86275" lon="-2.06911">
        <ele>1</ele>
        <time>2018-03-09T10:10:47Z</time>
      </trkpt>
      <trkpt lat="46.86301" lon="-2.06853">
        <ele>1</ele>
        <time>2018-03-09T10:11:47Z</time>
      </trkpt>
      <trkpt lat="46.86308" lon="-2.06824">
        <ele>1</ele>
        <time>2018-03-09T10:12:47Z</time>
      </trkpt>
      <trkpt lat="46.8631" lon="-2.06801">
        <ele>2</ele>
        <time>2018-03-09T10:13:47Z</time>
      </trkpt>
      <trkpt lat="46.8631" lon="-2.06771">
        <ele>2</ele>
        <time>2018-03-09T10:14:47Z</time>
      </trkpt>
      <trkpt lat="46.8631" lon="-2.06737">
        <ele>2</ele>
        <time>2018-03-09T10:15:47Z</time>
      </trkpt>
      <trkpt lat="46.86316" lon="-2.06706">
        <ele>2</ele>
        <time>2018-03-09T10:16:47Z</time>
      </trkpt>
      <trkpt lat="46.8632" lon="-2.06689">
        <ele>1</ele>
        <time>2018-03-09T10:17:47Z</time>
      </trkpt>
      <trkpt lat="46.86327" lon="-2.0667">
        <ele>1</ele>
        <time>2018-03-09T10:18:47Z</time>
      </trkpt>
      <trkpt lat="46.86327" lon="-2.0667">
        <ele>1</ele>
        <time>2018-03-09T10:19:47Z</time>
      </trkpt>
      <trkpt lat="46.86348" lon="-2.06612">
        <ele>2</ele>
        <time>2018-03-09T10:20:47Z</time>
      </trkpt>
      <trkpt lat="46.8637" lon="-2.06555">
        <ele>2</ele>
        <time>2018-03-09T10:21:47Z</time>
      </trkpt>
      <trkpt lat="46.8639" lon="-2.06499">
        <ele>2</ele>
        <time>2018-03-09T10:22:47Z</time>
      </trkpt>
      <trkpt lat="46.864" lon="-2.0647">
        <ele>2</ele>
        <time>2018-03-09T10:23:47Z</time>
      </trkpt>
      <trkpt lat="46.86404" lon="-2.0645">
        <ele>2</ele>
        <time>2018-03-09T10:24:47Z</time>
      </trkpt>
      <trkpt lat="46.86406" lon="-2.06445">
        <ele>2</ele>
        <time>2018-03-09T10:25:47Z</time>
      </trkpt>
      <trkpt lat="46.86412" lon="-2.06405">
        <ele>1</ele>
        <time>2018-03-09T10:26:47Z</time>
      </trkpt>
      <trkpt lat="46.8642" lon="-2.06346">
        <ele>2</ele>
        <time>2018-03-09T10:27:47Z</time>
      </trkpt>
      <trkpt lat="46.86428" lon="-2.06293">
        <ele>2</ele>
        <time>2018-03-09T10:28:47Z</time>
      </trkpt>
      <trkpt lat="46.86441" lon="-2.06228">
        <ele>2</ele>
        <time>2018-03-09T10:29:47Z</time>
      </trkpt>
      <trkpt lat="46.86451" lon="-2.06178">
        <ele>2</ele>
        <time>2018-03-09T10:30:47Z</time>
      </trkpt>
      <trkpt lat="46.86461" lon="-2.06129">
        <ele>1</ele>
        <time>2018-03-09T10:31:47Z</time>
      </trkpt>
      <trkpt lat="46.86471" lon="-2.06083">
        <ele>1</ele>
        <time>2018-03-09T10:32:47Z</time>
      </trkpt>
      <trkpt lat="46.86481" lon="-2.06041">
        <ele>2</ele>
        <time>2018-03-09T10:33:47Z</time>
      </trkpt>
      <trkpt lat="46.86493" lon="-2.06006">
        <ele>2.2</ele>
        <time>2018-03-09T10:34:47Z</time>
      </trkpt>
      <trkpt lat="46.86493" lon="-2.06006">
        <ele>2.2</ele>
        <time>2018-03-09T10:35:47Z</time>
      </trkpt>
      <trkpt lat="46.86497" lon="-2.06007">
        <ele>2.1</ele>
        <time>2018-03-09T10:36:47Z</time>
      </trkpt>
      <trkpt lat="46.86503" lon="-2.06008">
        <ele>2</ele>
        <time>2018-03-09T10:37:47Z</time>
      </trkpt>
      <trkpt lat="46.86503" lon="-2.06008">
        <ele>2</ele>
        <time>2018-03-09T10:38:47Z</time>
      </trkpt>
      <trkpt lat="46.86509" lon="-2.05995">
        <ele>2</ele>
        <time>2018-03-09T10:39:47Z</time>
      </trkpt>
      <trkpt lat="46.86513" lon="-2.05985">
        <ele>2</ele>
        <time>2018-03-09T10:40:47Z</time>
      </trkpt>
      <trkpt lat="46.8653" lon="-2.05964">
        <ele>2</ele>
        <time>2018-03-09T10:41:47Z</time>
      </trkpt>
      <trkpt lat="46.86559" lon="-2.05932">
        <ele>1</ele>
        <time>2018-03-09T10:42:47Z</time>
      </trkpt>
      <trkpt lat="46.86601" lon="-2.05885">
        <ele>1</ele>
        <time>2018-03-09T10:43:47Z</time>
      </trkpt>
      <trkpt lat="46.86621" lon="-2.0586">
        <ele>1</ele>
        <time>2018-03-09T10:44:47Z</time>
      </trkpt>
      <trkpt lat="46.8664" lon="-2.05828">
        <ele>2</ele>
        <time>2018-03-09T10:45:47Z</time>
      </trkpt>
      <trkpt lat="46.86663" lon="-2.05779">
        <ele>1</ele>
        <time>2018-03-09T10:46:47Z</time>
      </trkpt>
      <trkpt lat="46.86684" lon="-2.05731">
        <ele>2</ele>
        <time>2018-03-09T10:47:47Z</time>
      </trkpt>
      <trkpt lat="46.867" lon="-2.0568">
        <ele>2</ele>
        <time>2018-03-09T10:48:47Z</time>
      </trkpt>
      <trkpt lat="46.86705" lon="-2.05656">
        <ele>2</ele>
        <time>2018-03-09T10:49:47Z</time>
      </trkpt>
      <trkpt lat="46.86707" lon="-2.05627">
        <ele>2</ele>
        <time>2018-03-09T10:50:47Z</time>
      </trkpt>
      <trkpt lat="46.8671" lon="-2.05517">
        <ele>2</ele>
        <time>2018-03-09T10:51:47Z</time>
      </trkpt>
      <trkpt lat="46.86711" lon="-2.055">
        <ele>2</ele>
        <time>2018-03-09T10:52:47Z</time>
      </trkpt>
      <trkpt lat="46.86713" lon="-2.05488">
        <ele>2</ele>
        <time>2018-03-09T10:53:47Z</time>
      </trkpt>
      <trkpt lat="46.8672" lon="-2.05461">
        <ele>2</ele>
        <time>2018-03-09T10:54:47Z</time>
      </trkpt>
      <trkpt lat="46.86735" lon="-2.05428">
        <ele>1</ele>
        <time>2018-03-09T10:55:47Z</time>
      </trkpt>
      <trkpt lat="46.86757" lon="-2.0539">
        <ele>1</ele>
        <time>2018-03-09T10:56:47Z</time>
      </trkpt>
      <trkpt lat="46.8677" lon="-2.05369">
        <ele>1</ele>
        <time>2018-03-09T10:57:47Z</time>
      </trkpt>
      <trkpt lat="46.86774" lon="-2.05361">
        <ele>1</ele>
        <time>2018-03-09T10:58:47Z</time>
      </trkpt>
      <trkpt lat="46.86783" lon="-2.05345">
        <ele>2</ele>
        <time>2018-03-09T10:59:47Z</time>
      </trkpt>
      <trkpt lat="46.86783" lon="-2.05345">
        <ele>2</ele>
        <time>2018-03-09T11:00:47Z</time>
      </trkpt>
      <trkpt lat="46.8679" lon="-2.05325">
        <ele>1</ele>
        <time>2018-03-09T11:01:47Z</time>
      </trkpt>
      <trkpt lat="46.86794" lon="-2.05307">
        <ele>1</ele>
        <time>2018-03-09T11:02:47Z</time>
      </trkpt>
      <trkpt lat="46.86796" lon="-2.0528">
        <ele>1</ele>
        <time>2018-03-09T11:03:47Z</time>
      </trkpt>
      <trkpt lat="46.86795" lon="-2.05231">
        <ele>1</ele>
        <time>2018-03-09T11:04:47Z</time>
      </trkpt>
      <trkpt lat="46.86793" lon="-2.05201">
        <ele>1</ele>
        <time>2018-03-09T11:05:47Z</time>
      </trkpt>
      <trkpt lat="46.86794" lon="-2.05172">
        <ele>1</ele>
        <time>2018-03-09T11:06:47Z</time>
      </trkpt>
      <trkpt lat="46.86795" lon="-2.05155">
        <ele>2</ele>
        <time>2018-03-09T11:07:47Z</time>
      </trkpt>
      <trkpt lat="46.868" lon="-2.05125">
        <ele>2</ele>
        <time>2018-03-09T11:08:47Z</time>
      </trkpt>
      <trkpt lat="46.86806" lon="-2.05095">
        <ele>2</ele>
        <time>2018-03-09T11:09:47Z</time>
      </trkpt>
      <trkpt lat="46.86818" lon="-2.05035">
        <ele>1</ele>
        <time>2018-03-09T11:10:47Z</time>
      </trkpt>
      <trkpt lat="46.86828" lon="-2.04994">
        <ele>2.2</ele>
        <time>2018-03-09T11:11:47Z</time>
      </trkpt>
      <trkpt lat="46.86843" lon="-2.0492">
        <ele>2</ele>
        <time>2018-03-09T11:12:47Z</time>
      </trkpt>
      <trkpt lat="46.86862" lon="-2.04824">
        <ele>1</ele>
        <time>2018-03-09T11:13:47Z</time>
      </trkpt>
      <trkpt lat="46.86871" lon="-2.04782">
        <ele>1</ele>
        <time>2018-03-09T11:14:47Z</time>
      </trkpt>
      <trkpt lat="46.8688" lon="-2.04751">
        <ele>1</ele>
        <time>2018-03-09T11:15:47Z</time>
      </trkpt>
      <trkpt lat="46.8689" lon="-2.04727">
        <ele>1</ele>
        <time>2018-03-09T11:16:47Z</time>
      </trkpt>
      <trkpt lat="46.86905" lon="-2.04694">
        <ele>1</ele>
        <time>2018-03-09T11:17:47Z</time>
      </trkpt>
      <trkpt lat="46.86921" lon="-2.0466">
        <ele>2</ele>
        <time>2018-03-09T11:18:47Z</time>
      </trkpt>
      <trkpt lat="46.86938" lon="-2.04624">
        <ele>1</ele>
        <time>2018-03-09T11:19:47Z</time>
      </trkpt>
      <trkpt lat="46.86942" lon="-2.04616">
        <ele>1</ele>
        <time>2018-03-09T11:20:47Z</time>
      </trkpt>
      <trkpt lat="46.86942" lon="-2.04616">
        <ele>1</ele>
        <time>2018-03-09T11:21:47Z</time>
      </trkpt>
      <trkpt lat="46.86947" lon="-2.04605">
        <ele>1</ele>
        <time>2018-03-09T11:22:47Z</time>
      </trkpt>
      <trkpt lat="46.86979" lon="-2.04539">
        <ele>1</ele>
        <time>2018-03-09T11:23:47Z</time>
      </trkpt>
      <trkpt lat="46.86996" lon="-2.04496">
        <ele>1</ele>
        <time>2018-03-09T11:24:47Z</time>
      </trkpt>
      <trkpt lat="46.87005" lon="-2.04465">
        <ele>1</ele>
        <time>2018-03-09T11:25:47Z</time>
      </trkpt>
      <trkpt lat="46.87012" lon="-2.04428">
        <ele>1</ele>
        <time>2018-03-09T11:26:47Z</time>
      </trkpt>
      <trkpt lat="46.87018" lon="-2.04381">
        <ele>1</ele>
        <time>2018-03-09T11:27:47Z</time>
      </trkpt>
      <trkpt lat="46.87024" lon="-2.04323">
        <ele>2</ele>
        <time>2018-03-09T11:28:47Z</time>
      </trkpt>
      <trkpt lat="46.8703" lon="-2.04261">
        <ele>1</ele>
        <time>2018-03-09T11:29:47Z</time>
      </trkpt>
      <trkpt lat="46.87038" lon="-2.04176">
        <ele>1.4</ele>
        <time>2018-03-09T11:30:47Z</time>
      </trkpt>
      <trkpt lat="46.87047" lon="-2.04087">
        <ele>1</ele>
        <time>2018-03-09T11:31:47Z</time>
      </trkpt>
      <trkpt lat="46.87054" lon="-2.04024">
        <ele>1</ele>
        <time>2018-03-09T11:32:47Z</time>
      </trkpt>
      <trkpt lat="46.87059" lon="-2.03988">
        <ele>1</ele>
        <time>2018-03-09T11:33:47Z</time>
      </trkpt>
      <trkpt lat="46.87059" lon="-2.03988">
        <ele>1</ele>
        <time>2018-03-09T11:34:47Z</time>
      </trkpt>
      <trkpt lat="46.87089" lon="-2.03888">
        <ele>1</ele>
        <time>2018-03-09T11:35:47Z</time>
      </trkpt>
      <trkpt lat="46.87113" lon="-2.03808">
        <ele>1</ele>
        <time>2018-03-09T11:36:47Z</time>
      </trkpt>
      <trkpt lat="46.87131" lon="-2.03754">
        <ele>1</ele>
        <time>2018-03-09T11:37:47Z</time>
      </trkpt>
      <trkpt lat="46.87138" lon="-2.03739">
        <ele>1</ele>
        <time>2018-03-09T11:38:47Z</time>
      </trkpt>
      <trkpt lat="46.87145" lon="-2.03726">
        <ele>1</ele>
        <time>2018-03-09T11:39:47Z</time>
      </trkpt>
      <trkpt lat="46.87155" lon="-2.03711">
        <ele>1</ele>
        <time>2018-03-09T11:40:47Z</time>
      </trkpt>
      <trkpt lat="46.87175" lon="-2.03688">
        <ele>1</ele>
        <time>2018-03-09T11:41:47Z</time>
      </trkpt>
      <trkpt lat="46.87198" lon="-2.03666">
        <ele>1</ele>
        <time>2018-03-09T11:42:47Z</time>
      </trkpt>
      <trkpt lat="46.87219" lon="-2.03646">
        <ele>1</ele>
        <time>2018-03-09T11:43:47Z</time>
      </trkpt>
      <trkpt lat="46.87238" lon="-2.03628">
        <ele>1</ele>
        <time>2018-03-09T11:44:47Z</time>
      </trkpt>
      <trkpt lat="46.87244" lon="-2.03621">
        <ele>1.9</ele>
        <time>2018-03-09T11:45:47Z</time>
      </trkpt>
      <trkpt lat="46.87257" lon="-2.03606">
        <ele>2</ele>
        <time>2018-03-09T11:46:47Z</time>
      </trkpt>
      <trkpt lat="46.87257" lon="-2.03606">
        <ele>2</ele>
        <time>2018-03-09T11:47:47Z</time>
      </trkpt>
      <trkpt lat="46.87255" lon="-2.03579">
        <ele>1.9</ele>
        <time>2018-03-09T11:48:47Z</time>
      </trkpt>
      <trkpt lat="46.87253" lon="-2.03551">
        <ele>1.3</ele>
        <time>2018-03-09T11:49:47Z</time>
      </trkpt>
      <trkpt lat="46.87252" lon="-2.03515">
        <ele>2</ele>
        <time>2018-03-09T11:50:47Z</time>
      </trkpt>
      <trkpt lat="46.87251" lon="-2.03495">
        <ele>2</ele>
        <time>2018-03-09T11:51:47Z</time>
      </trkpt>
      <trkpt lat="46.87251" lon="-2.03487">
        <ele>2</ele>
        <time>2018-03-09T11:52:47Z</time>
      </trkpt>
      <trkpt lat="46.87252" lon="-2.03479">
        <ele>2</ele>
        <time>2018-03-09T11:53:47Z</time>
      </trkpt>
      <trkpt lat="46.87254" lon="-2.03467">
        <ele>1.8</ele>
        <time>2018-03-09T11:54:47Z</time>
      </trkpt>
      <trkpt lat="46.87256" lon="-2.03457">
        <ele>1.6</ele>
        <time>2018-03-09T11:55:47Z</time>
      </trkpt>
      <trkpt lat="46.87259" lon="-2.03449">
        <ele>1.4</ele>
        <time>2018-03-09T11:56:47Z</time>
      </trkpt>
      <trkpt lat="46.87263" lon="-2.03439">
        <ele>1.6</ele>
        <time>2018-03-09T11:57:47Z</time>
      </trkpt>
      <trkpt lat="46.87268" lon="-2.03429">
        <ele>1.8</ele>
        <time>2018-03-09T11:58:47Z</time>
      </trkpt>
      <trkpt lat="46.87274" lon="-2.0342">
        <ele>2</ele>
        <time>2018-03-09T11:59:47Z</time>
      </trkpt>
      <trkpt lat="46.87298" lon="-2.03385">
        <ele>1.8</ele>
        <time>2018-03-09T12:00:47Z</time>
      </trkpt>
      <trkpt lat="46.8732" lon="-2.03352">
        <ele>2</ele>
        <time>2018-03-09T12:01:47Z</time>
      </trkpt>
      <trkpt lat="46.87332" lon="-2.03334">
        <ele>2</ele>
        <time>2018-03-09T12:02:47Z</time>
      </trkpt>
      <trkpt lat="46.87346" lon="-2.0331">
        <ele>2</ele>
        <time>2018-03-09T12:03:47Z</time>
      </trkpt>
      <trkpt lat="46.87353" lon="-2.03297">
        <ele>2</ele>
        <time>2018-03-09T12:04:47Z</time>
      </trkpt>
      <trkpt lat="46.8736" lon="-2.03279">
        <ele>2</ele>
        <time>2018-03-09T12:05:47Z</time>
      </trkpt>
      <trkpt lat="46.87364" lon="-2.03269">
        <ele>2</ele>
        <time>2018-03-09T12:06:47Z</time>
      </trkpt>
      <trkpt lat="46.87372" lon="-2.03245">
        <ele>2</ele>
        <time>2018-03-09T12:07:47Z</time>
      </trkpt>
      <trkpt lat="46.87376" lon="-2.03231">
        <ele>2</ele>
        <time>2018-03-09T12:08:47Z</time>
      </trkpt>
      <trkpt lat="46.87395" lon="-2.03169">
        <ele>2</ele>
        <time>2018-03-09T12:09:47Z</time>
      </trkpt>
      <trkpt lat="46.87411" lon="-2.03114">
        <ele>2</ele>
        <time>2018-03-09T12:10:47Z</time>
      </trkpt>
      <trkpt lat="46.87426" lon="-2.0306">
        <ele>2</ele>
        <time>2018-03-09T12:11:47Z</time>
      </trkpt>
      <trkpt lat="46.87443" lon="-2.02997">
        <ele>1</ele>
        <time>2018-03-09T12:12:47Z</time>
      </trkpt>
      <trkpt lat="46.87453" lon="-2.02958">
        <ele>1</ele>
        <time>2018-03-09T12:13:47Z</time>
      </trkpt>
      <trkpt lat="46.8746" lon="-2.02911">
        <ele>1</ele>
        <time>2018-03-09T12:14:47Z</time>
      </trkpt>
      <trkpt lat="46.8747" lon="-2.02848">
        <ele>1</ele>
        <time>2018-03-09T12:15:47Z</time>
      </trkpt>
      <trkpt lat="46.87475" lon="-2.02816">
        <ele>1</ele>
        <time>2018-03-09T12:16:47Z</time>
      </trkpt>
      <trkpt lat="46.87476" lon="-2.02802">
        <ele>1</ele>
        <time>2018-03-09T12:17:47Z</time>
      </trkpt>
      <trkpt lat="46.87479" lon="-2.02777">
        <ele>1</ele>
        <time>2018-03-09T12:18:47Z</time>
      </trkpt>
      <trkpt lat="46.87482" lon="-2.02762">
        <ele>1</ele>
        <time>2018-03-09T12:19:47Z</time>
      </trkpt>
      <trkpt lat="46.87487" lon="-2.02747">
        <ele>2.1</ele>
        <time>2018-03-09T12:20:47Z</time>
      </trkpt>
      <trkpt lat="46.87493" lon="-2.0273">
        <ele>2.5</ele>
        <time>2018-03-09T12:21:47Z</time>
      </trkpt>
      <trkpt lat="46.87503" lon="-2.02713">
        <ele>2.5</ele>
        <time>2018-03-09T12:22:47Z</time>
      </trkpt>
      <trkpt lat="46.87511" lon="-2.027">
        <ele>1.7</ele>
        <time>2018-03-09T12:23:47Z</time>
      </trkpt>
      <trkpt lat="46.87514" lon="-2.02696">
        <ele>1.5</ele>
        <time>2018-03-09T12:24:47Z</time>
      </trkpt>
      <trkpt lat="46.87535" lon="-2.02662">
        <ele>1.6</ele>
        <time>2018-03-09T12:25:47Z</time>
      </trkpt>
      <trkpt lat="46.87549" lon="-2.02638">
        <ele>1</ele>
        <time>2018-03-09T12:26:47Z</time>
      </trkpt>
      <trkpt lat="46.87562" lon="-2.02615">
        <ele>1</ele>
        <time>2018-03-09T12:27:47Z</time>
      </trkpt>
      <trkpt lat="46.87575" lon="-2.02591">
        <ele>1.5</ele>
        <time>2018-03-09T12:28:47Z</time>
      </trkpt>
      <trkpt lat="46.87584" lon="-2.02568">
        <ele>2</ele>
        <time>2018-03-09T12:29:47Z</time>
      </trkpt>
      <trkpt lat="46.87593" lon="-2.02532">
        <ele>1</ele>
        <time>2018-03-09T12:30:47Z</time>
      </trkpt>
      <trkpt lat="46.87599" lon="-2.02489">
        <ele>1</ele>
        <time>2018-03-09T12:31:47Z</time>
      </trkpt>
      <trkpt lat="46.87607" lon="-2.02427">
        <ele>1.9</ele>
        <time>2018-03-09T12:32:47Z</time>
      </trkpt>
      <trkpt lat="46.87615" lon="-2.02366">
        <ele>2</ele>
        <time>2018-03-09T12:33:47Z</time>
      </trkpt>
      <trkpt lat="46.87627" lon="-2.02272">
        <ele>1</ele>
        <time>2018-03-09T12:34:47Z</time>
      </trkpt>
      <trkpt lat="46.87633" lon="-2.02227">
        <ele>1</ele>
        <time>2018-03-09T12:35:47Z</time>
      </trkpt>
      <trkpt lat="46.87642" lon="-2.0219">
        <ele>2.1</ele>
        <time>2018-03-09T12:36:47Z</time>
      </trkpt>
      <trkpt lat="46.87651" lon="-2.02162">
        <ele>2</ele>
        <time>2018-03-09T12:37:47Z</time>
      </trkpt>
      <trkpt lat="46.87671" lon="-2.021">
        <ele>2</ele>
        <time>2018-03-09T12:38:47Z</time>
      </trkpt>
      <trkpt lat="46.87686" lon="-2.02052">
        <ele>1</ele>
        <time>2018-03-09T12:39:47Z</time>
      </trkpt>
      <trkpt lat="46.87692" lon="-2.02026">
        <ele>1</ele>
        <time>2018-03-09T12:40:47Z</time>
      </trkpt>
      <trkpt lat="46.87695" lon="-2.0201">
        <ele>1</ele>
        <time>2018-03-09T12:41:47Z</time>
      </trkpt>
      <trkpt lat="46.87696" lon="-2.02">
        <ele>2</ele>
        <time>2018-03-09T12:42:47Z</time>
      </trkpt>
      <trkpt lat="46.87697" lon="-2.01994">
        <ele>2</ele>
        <time>2018-03-09T12:43:47Z</time>
      </trkpt>
      <trkpt lat="46.87702" lon="-2.01938">
        <ele>1</ele>
        <time>2018-03-09T12:44:47Z</time>
      </trkpt>
      <trkpt lat="46.87702" lon="-2.01936">
        <ele>1</ele>
        <time>2018-03-09T12:45:47Z</time>
      </trkpt>
      <trkpt lat="46.87707" lon="-2.01896">
        <ele>2</ele>
        <time>2018-03-09T12:46:47Z</time>
      </trkpt>
      <trkpt lat="46.8771" lon="-2.01857">
        <ele>2</ele>
        <time>2018-03-09T12:47:47Z</time>
      </trkpt>
      <trkpt lat="46.87708" lon="-2.01827">
        <ele>2</ele>
        <time>2018-03-09T12:48:47Z</time>
      </trkpt>
      <trkpt lat="46.87706" lon="-2.01799">
        <ele>2</ele>
        <time>2018-03-09T12:49:47Z</time>
      </trkpt>
      <trkpt lat="46.87701" lon="-2.01765">
        <ele>2</ele>
        <time>2018-03-09T12:50:47Z</time>
      </trkpt>
      <trkpt lat="46.87697" lon="-2.01729">
        <ele>2</ele>
        <time>2018-03-09T12:51:47Z</time>
      </trkpt>
      <trkpt lat="46.87695" lon="-2.017">
        <ele>2</ele>
        <time>2018-03-09T12:52:47Z</time>
      </trkpt>
      <trkpt lat="46.87694" lon="-2.01673">
        <ele>2</ele>
        <time>2018-03-09T12:53:47Z</time>
      </trkpt>
      <trkpt lat="46.87694" lon="-2.01662">
        <ele>2</ele>
        <time>2018-03-09T12:54:47Z</time>
      </trkpt>
      <trkpt lat="46.87694" lon="-2.01647">
        <ele>2</ele>
        <time>2018-03-09T12:55:47Z</time>
      </trkpt>
      <trkpt lat="46.87694" lon="-2.01624">
        <ele>2</ele>
        <time>2018-03-09T12:56:47Z</time>
      </trkpt>
      <trkpt lat="46.87696" lon="-2.01592">
        <ele>2</ele>
        <time>2018-03-09T12:57:47Z</time>
      </trkpt>
      <trkpt lat="46.87696" lon="-2.01567">
        <ele>2</ele>
        <time>2018-03-09T12:58:47Z</time>
      </trkpt>
      <trkpt lat="46.87694" lon="-2.01542">
        <ele>2</ele>
        <time>2018-03-09T12:59:47Z</time>
      </trkpt>
      <trkpt lat="46.87693" lon="-2.01535">
        <ele>2</ele>
        <time>2018-03-09T13:00:47Z</time>
      </trkpt>
      <trkpt lat="46.87691" lon="-2.01516">
        <ele>2</ele>
        <time>2018-03-09T13:01:47Z</time>
      </trkpt>
      <trkpt lat="46.87687" lon="-2.01486">
        <ele>2</ele>
        <time>2018-03-09T13:02:47Z</time>
      </trkpt>
      <trkpt lat="46.87687" lon="-2.01483">
        <ele>2</ele>
        <time>2018-03-09T13:03:47Z</time>
      </trkpt>
      <trkpt lat="46.87681" lon="-2.01453">
        <ele>1</ele>
        <time>2018-03-09T13:04:47Z</time>
      </trkpt>
      <trkpt lat="46.87675" lon="-2.01412">
        <ele>1</ele>
        <time>2018-03-09T13:05:47Z</time>
      </trkpt>
      <trkpt lat="46.87669" lon="-2.01385">
        <ele>1</ele>
        <time>2018-03-09T13:06:47Z</time>
      </trkpt>
      <trkpt lat="46.87662" lon="-2.01355">
        <ele>1</ele>
        <time>2018-03-09T13:07:47Z</time>
      </trkpt>
      <trkpt lat="46.87662" lon="-2.01354">
        <ele>1</ele>
        <time>2018-03-09T13:08:47Z</time>
      </trkpt>
      <trkpt lat="46.87658" lon="-2.01335">
        <ele>1</ele>
        <time>2018-03-09T13:09:47Z</time>
      </trkpt>
      <trkpt lat="46.87652" lon="-2.01305">
        <ele>2</ele>
        <time>2018-03-09T13:10:47Z</time>
      </trkpt>
      <trkpt lat="46.87649" lon="-2.0128">
        <ele>2</ele>
        <time>2018-03-09T13:11:47Z</time>
      </trkpt>
      <trkpt lat="46.87647" lon="-2.0126">
        <ele>3</ele>
        <time>2018-03-09T13:12:47Z</time>
      </trkpt>
      <trkpt lat="46.87647" lon="-2.0124">
        <ele>3</ele>
        <time>2018-03-09T13:13:47Z</time>
      </trkpt>
      <trkpt lat="46.87649" lon="-2.01219">
        <ele>3</ele>
        <time>2018-03-09T13:14:47Z</time>
      </trkpt>
      <trkpt lat="46.87651" lon="-2.01192">
        <ele>3</ele>
        <time>2018-03-09T13:15:47Z</time>
      </trkpt>
      <trkpt lat="46.87652" lon="-2.01179">
        <ele>3</ele>
        <time>2018-03-09T13:16:47Z</time>
      </trkpt>
      <trkpt lat="46.87654" lon="-2.01163">
        <ele>3</ele>
        <time>2018-03-09T13:17:47Z</time>
      </trkpt>
      <trkpt lat="46.87658" lon="-2.01124">
        <ele>3</ele>
        <time>2018-03-09T13:18:47Z</time>
      </trkpt>
      <trkpt lat="46.8766" lon="-2.01097">
        <ele>2</ele>
        <time>2018-03-09T13:19:47Z</time>
      </trkpt>
      <trkpt lat="46.87661" lon="-2.0109">
        <ele>2</ele>
        <time>2018-03-09T13:20:47Z</time>
      </trkpt>
      <trkpt lat="46.87664" lon="-2.01054">
        <ele>2</ele>
        <time>2018-03-09T13:21:47Z</time>
      </trkpt>
      <trkpt lat="46.87668" lon="-2.01008">
        <ele>2</ele>
        <time>2018-03-09T13:22:47Z</time>
      </trkpt>
      <trkpt lat="46.87671" lon="-2.00968">
        <ele>2</ele>
        <time>2018-03-09T13:23:47Z</time>
      </trkpt>
      <trkpt lat="46.87671" lon="-2.00948">
        <ele>3</ele>
        <time>2018-03-09T13:24:47Z</time>
      </trkpt>
      <trkpt lat="46.8767" lon="-2.00937">
        <ele>3</ele>
        <time>2018-03-09T13:25:47Z</time>
      </trkpt>
      <trkpt lat="46.8767" lon="-2.00937">
        <ele>3</ele>
        <time>2018-03-09T13:26:47Z</time>
      </trkpt>
      <trkpt lat="46.87669" lon="-2.00937">
        <ele>3</ele>
        <time>2018-03-09T13:27:47Z</time>
      </trkpt>
      <trkpt lat="46.87669" lon="-2.00938">
        <ele>3</ele>
        <time>2018-03-09T13:28:47Z</time>
      </trkpt>
      <trkpt lat="46.87668" lon="-2.00938">
        <ele>3</ele>
        <time>2018-03-09T13:29:47Z</time>
      </trkpt>
      <trkpt lat="46.87667" lon="-2.00938">
        <ele>3</ele>
        <time>2018-03-09T13:30:47Z</time>
      </trkpt>
      <trkpt lat="46.87666" lon="-2.00938">
        <ele>3</ele>
        <time>2018-03-09T13:31:47Z</time>
      </trkpt>
      <trkpt lat="46.87666" lon="-2.00937">
        <ele>3</ele>
        <time>2018-03-09T13:32:47Z</time>
      </trkpt>
      <trkpt lat="46.87665" lon="-2.00937">
        <ele>3</ele>
        <time>2018-03-09T13:33:47Z</time>
      </trkpt>
      <trkpt lat="46.87665" lon="-2.00936">
        <ele>3</ele>
        <time>2018-03-09T13:34:47Z</time>
      </trkpt>
      <trkpt lat="46.87664" lon="-2.00936">
        <ele>3</ele>
        <time>2018-03-09T13:35:47Z</time>
      </trkpt>
      <trkpt lat="46.87664" lon="-2.00935">
        <ele>3</ele>
        <time>2018-03-09T13:36:47Z</time>
      </trkpt>
      <trkpt lat="46.87663" lon="-2.00935">
        <ele>3</ele>
        <time>2018-03-09T13:37:47Z</time>
      </trkpt>
      <trkpt lat="46.87663" lon="-2.00934">
        <ele>3</ele>
        <time>2018-03-09T13:38:47Z</time>
      </trkpt>
      <trkpt lat="46.87663" lon="-2.00933">
        <ele>3</ele>
        <time>2018-03-09T13:39:47Z</time>
      </trkpt>
      <trkpt lat="46.87662" lon="-2.00933">
        <ele>3</ele>
        <time>2018-03-09T13:40:47Z</time>
      </trkpt>
      <trkpt lat="46.87662" lon="-2.00932">
        <ele>3</ele>
        <time>2018-03-09T13:41:47Z</time>
      </trkpt>
      <trkpt lat="46.87662" lon="-2.00931">
        <ele>3</ele>
        <time>2018-03-09T13:42:47Z</time>
      </trkpt>
      <trkpt lat="46.87662" lon="-2.0093">
        <ele>3</ele>
        <time>2018-03-09T13:43:47Z</time>
      </trkpt>
      <trkpt lat="46.87662" lon="-2.00929">
        <ele>3</ele>
        <time>2018-03-09T13:44:47Z</time>
      </trkpt>
      <trkpt lat="46.87662" lon="-2.00928">
        <ele>3</ele>
        <time>2018-03-09T13:45:47Z</time>
      </trkpt>
      <trkpt lat="46.87662" lon="-2.00927">
        <ele>3</ele>
        <time>2018-03-09T13:46:47Z</time>
      </trkpt>
      <trkpt lat="46.87662" lon="-2.00926">
        <ele>3</ele>
        <time>2018-03-09T13:47:47Z</time>
      </trkpt>
      <trkpt lat="46.87663" lon="-2.00926">
        <ele>3</ele>
        <time>2018-03-09T13:48:47Z</time>
      </trkpt>
      <trkpt lat="46.87663" lon="-2.00925">
        <ele>3</ele>
        <time>2018-03-09T13:49:47Z</time>
      </trkpt>
      <trkpt lat="46.87663" lon="-2.00924">
        <ele>3</ele>
        <time>2018-03-09T13:50:47Z</time>
      </trkpt>
      <trkpt lat="46.87664" lon="-2.00924">
        <ele>3</ele>
        <time>2018-03-09T13:51:47Z</time>
      </trkpt>
      <trkpt lat="46.87664" lon="-2.00923">
        <ele>3</ele>
        <time>2018-03-09T13:52:47Z</time>
      </trkpt>
      <trkpt lat="46.87664" lon="-2.00922">
        <ele>3</ele>
        <time>2018-03-09T13:53:47Z</time>
      </trkpt>
      <trkpt lat="46.87665" lon="-2.00922">
        <ele>3</ele>
        <time>2018-03-09T13:54:47Z</time>
      </trkpt>
      <trkpt lat="46.87666" lon="-2.00922">
        <ele>3</ele>
        <time>2018-03-09T13:55:47Z</time>
      </trkpt>
      <trkpt lat="46.87666" lon="-2.00921">
        <ele>3</ele>
        <time>2018-03-09T13:56:47Z</time>
      </trkpt>
      <trkpt lat="46.87659" lon="-2.00911">
        <ele>3</ele>
        <time>2018-03-09T13:57:47Z</time>
      </trkpt>
      <trkpt lat="46.87645" lon="-2.00894">
        <ele>3</ele>
        <time>2018-03-09T13:58:47Z</time>
      </trkpt>
      <trkpt lat="46.8763" lon="-2.0088">
        <ele>3</ele>
        <time>2018-03-09T13:59:47Z</time>
      </trkpt>
      <trkpt lat="46.87613" lon="-2.00868">
        <ele>2</ele>
        <time>2018-03-09T14:00:47Z</time>
      </trkpt>
      <trkpt lat="46.87602" lon="-2.00858">
        <ele>2</ele>
        <time>2018-03-09T14:01:47Z</time>
      </trkpt>
      <trkpt lat="46.87595" lon="-2.0085">
        <ele>2</ele>
        <time>2018-03-09T14:02:47Z</time>
      </trkpt>
      <trkpt lat="46.87593" lon="-2.00845">
        <ele>2</ele>
        <time>2018-03-09T14:03:47Z</time>
      </trkpt>
      <trkpt lat="46.87592" lon="-2.00838">
        <ele>2</ele>
        <time>2018-03-09T14:04:47Z</time>
      </trkpt>
      <trkpt lat="46.87591" lon="-2.00818">
        <ele>2</ele>
        <time>2018-03-09T14:05:47Z</time>
      </trkpt>
      <trkpt lat="46.87592" lon="-2.0081">
        <ele>2</ele>
        <time>2018-03-09T14:06:47Z</time>
      </trkpt>
      <trkpt lat="46.87592" lon="-2.00787">
        <ele>2</ele>
        <time>2018-03-09T14:07:47Z</time>
      </trkpt>
      <trkpt lat="46.87592" lon="-2.0078">
        <ele>3</ele>
        <time>2018-03-09T14:08:47Z</time>
      </trkpt>
      <trkpt lat="46.87592" lon="-2.00776">
        <ele>3</ele>
        <time>2018-03-09T14:09:47Z</time>
      </trkpt>
      <trkpt lat="46.87591" lon="-2.00775">
        <ele>3</ele>
        <time>2018-03-09T14:10:47Z</time>
      </trkpt>
      <trkpt lat="46.87591" lon="-2.00775">
        <ele>3</ele>
        <time>2018-03-09T14:11:47Z</time>
      </trkpt>
      <trkpt lat="46.8759" lon="-2.00762">
        <ele>3</ele>
        <time>2018-03-09T14:12:47Z</time>
      </trkpt>
      <trkpt lat="46.87589" lon="-2.00754">
        <ele>3</ele>
        <time>2018-03-09T14:13:47Z</time>
      </trkpt>
      <trkpt lat="46.87587" lon="-2.00749">
        <ele>3</ele>
        <time>2018-03-09T14:14:47Z</time>
      </trkpt>
      <trkpt lat="46.87584" lon="-2.00745">
        <ele>3</ele>
        <time>2018-03-09T14:15:47Z</time>
      </trkpt>
      <trkpt lat="46.87583" lon="-2.00744">
        <ele>3</ele>
        <time>2018-03-09T14:16:47Z</time>
      </trkpt>
      <trkpt lat="46.87577" lon="-2.00743">
        <ele>3</ele>
        <time>2018-03-09T14:17:47Z</time>
      </trkpt>
      <trkpt lat="46.87567" lon="-2.00744">
        <ele>3</ele>
        <time>2018-03-09T14:18:47Z</time>
      </trkpt>
      <trkpt lat="46.87558" lon="-2.00746">
        <ele>3</ele>
        <time>2018-03-09T14:19:47Z</time>
      </trkpt>
      <trkpt lat="46.87554" lon="-2.00746">
        <ele>3</ele>
        <time>2018-03-09T14:20:47Z</time>
      </trkpt>
      <trkpt lat="46.87553" lon="-2.00746">
        <ele>3</ele>
        <time>2018-03-09T14:21:47Z</time>
      </trkpt>
      <trkpt lat="46.87549" lon="-2.00745">
        <ele>3</ele>
        <time>2018-03-09T14:22:47Z</time>
      </trkpt>
      <trkpt lat="46.87529" lon="-2.00733">
        <ele>2</ele>
        <time>2018-03-09T14:23:47Z</time>
      </trkpt>
      <trkpt lat="46.87528" lon="-2.00733">
        <ele>2</ele>
        <time>2018-03-09T14:24:47Z</time>
      </trkpt>
      <trkpt lat="46.87515" lon="-2.00726">
        <ele>2</ele>
        <time>2018-03-09T14:25:47Z</time>
      </trkpt>
      <trkpt lat="46.87515" lon="-2.00725">
        <ele>2</ele>
        <time>2018-03-09T14:26:47Z</time>
      </trkpt>
      <trkpt lat="46.87503" lon="-2.0072">
        <ele>2</ele>
        <time>2018-03-09T14:27:47Z</time>
      </trkpt>
      <trkpt lat="46.87484" lon="-2.00717">
        <ele>2</ele>
        <time>2018-03-09T14:28:47Z</time>
      </trkpt>
      <trkpt lat="46.87465" lon="-2.00717">
        <ele>2</ele>
        <time>2018-03-09T14:29:47Z</time>
      </trkpt>
      <trkpt lat="46.87451" lon="-2.00717">
        <ele>1</ele>
        <time>2018-03-09T14:30:47Z</time>
      </trkpt>
      <trkpt lat="46.87447" lon="-2.00716">
        <ele>1</ele>
        <time>2018-03-09T14:31:47Z</time>
      </trkpt>
      <trkpt lat="46.87438" lon="-2.0071">
        <ele>1</ele>
        <time>2018-03-09T14:32:47Z</time>
      </trkpt>
      <trkpt lat="46.87438" lon="-2.0071">
        <ele>1</ele>
        <time>2018-03-09T14:33:47Z</time>
      </trkpt>
      <trkpt lat="46.87442" lon="-2.00689">
        <ele>1</ele>
        <time>2018-03-09T14:34:47Z</time>
      </trkpt>
      <trkpt lat="46.8745" lon="-2.00659">
        <ele>1</ele>
        <time>2018-03-09T14:35:47Z</time>
      </trkpt>
      <trkpt lat="46.87458" lon="-2.00626">
        <ele>1</ele>
        <time>2018-03-09T14:36:47Z</time>
      </trkpt>
      <trkpt lat="46.87467" lon="-2.00594">
        <ele>1</ele>
        <time>2018-03-09T14:37:47Z</time>
      </trkpt>
      <trkpt lat="46.87474" lon="-2.00568">
        <ele>1</ele>
        <time>2018-03-09T14:38:47Z</time>
      </trkpt>
      <trkpt lat="46.87482" lon="-2.00544">
        <ele>1</ele>
        <time>2018-03-09T14:39:47Z</time>
      </trkpt>
      <trkpt lat="46.87489" lon="-2.00525">
        <ele>2.4</ele>
        <time>2018-03-09T14:40:47Z</time>
      </trkpt>
      <trkpt lat="46.87501" lon="-2.0049">
        <ele>2</ele>
        <time>2018-03-09T14:41:47Z</time>
      </trkpt>
      <trkpt lat="46.87508" lon="-2.00468">
        <ele>2.2</ele>
        <time>2018-03-09T14:42:47Z</time>
      </trkpt>
      <trkpt lat="46.87523" lon="-2.0042">
        <ele>2</ele>
        <time>2018-03-09T14:43:47Z</time>
      </trkpt>
      <trkpt lat="46.87535" lon="-2.00386">
        <ele>1.3</ele>
        <time>2018-03-09T14:44:47Z</time>
      </trkpt>
      <trkpt lat="46.87548" lon="-2.00349">
        <ele>1.9</ele>
        <time>2018-03-09T14:45:47Z</time>
      </trkpt>
      <trkpt lat="46.87557" lon="-2.00329">
        <ele>2</ele>
        <time>2018-03-09T14:46:47Z</time>
      </trkpt>
      <trkpt lat="46.87558" lon="-2.00327">
        <ele>2</ele>
        <time>2018-03-09T14:47:47Z</time>
      </trkpt>
      <trkpt lat="46.87569" lon="-2.00314">
        <ele>2</ele>
        <time>2018-03-09T14:48:47Z</time>
      </trkpt>
      <trkpt lat="46.87582" lon="-2.00294">
        <ele>2</ele>
        <time>2018-03-09T14:49:47Z</time>
      </trkpt>
      <trkpt lat="46.876" lon="-2.00269">
        <ele>2.2</ele>
        <time>2018-03-09T14:50:47Z</time>
      </trkpt>
      <trkpt lat="46.87618" lon="-2.00239">
        <ele>1</ele>
        <time>2018-03-09T14:51:47Z</time>
      </trkpt>
      <trkpt lat="46.87641" lon="-2.00201">
        <ele>2</ele>
        <time>2018-03-09T14:52:47Z</time>
      </trkpt>
      <trkpt lat="46.87668" lon="-2.00154">
        <ele>3</ele>
        <time>2018-03-09T14:53:47Z</time>
      </trkpt>
      <trkpt lat="46.87693" lon="-2.00112">
        <ele>4</ele>
        <time>2018-03-09T14:54:47Z</time>
      </trkpt>
      <trkpt lat="46.87713" lon="-2.00078">
        <ele>5</ele>
        <time>2018-03-09T14:55:47Z</time>
      </trkpt>
      <trkpt lat="46.87744" lon="-2.00026">
        <ele>6</ele>
        <time>2018-03-09T14:56:47Z</time>
      </trkpt>
      <trkpt lat="46.87745" lon="-2.00024">
        <ele>6</ele>
        <time>2018-03-09T14:57:47Z</time>
      </trkpt>
      <trkpt lat="46.87759" lon="-2.00004">
        <ele>6</ele>
        <time>2018-03-09T14:58:47Z</time>
      </trkpt>
      <trkpt lat="46.87786" lon="-1.99964">
        <ele>7</ele>
        <time>2018-03-09T14:59:47Z</time>
      </trkpt>
      <trkpt lat="46.87811" lon="-1.99928">
        <ele>8</ele>
        <time>2018-03-09T15:00:47Z</time>
      </trkpt>
      <trkpt lat="46.87818" lon="-1.99913">
        <ele>8</ele>
        <time>2018-03-09T15:01:47Z</time>
      </trkpt>
      <trkpt lat="46.87823" lon="-1.999">
        <ele>8</ele>
        <time>2018-03-09T15:02:47Z</time>
      </trkpt>
      <trkpt lat="46.87826" lon="-1.9989">
        <ele>8</ele>
        <time>2018-03-09T15:03:47Z</time>
      </trkpt>
      <trkpt lat="46.87828" lon="-1.99872">
        <ele>8</ele>
        <time>2018-03-09T15:04:47Z</time>
      </trkpt>
      <trkpt lat="46.87826" lon="-1.9986">
        <ele>8</ele>
        <time>2018-03-09T15:05:47Z</time>
      </trkpt>
      <trkpt lat="46.87824" lon="-1.9985">
        <ele>8</ele>
        <time>2018-03-09T15:06:47Z</time>
      </trkpt>
      <trkpt lat="46.87815" lon="-1.99828">
        <ele>8</ele>
        <time>2018-03-09T15:07:47Z</time>
      </trkpt>
      <trkpt lat="46.87797" lon="-1.99796">
        <ele>7</ele>
        <time>2018-03-09T15:08:47Z</time>
      </trkpt>
      <trkpt lat="46.87776" lon="-1.99761">
        <ele>7</ele>
        <time>2018-03-09T15:09:47Z</time>
      </trkpt>
      <trkpt lat="46.87755" lon="-1.99726">
        <ele>6</ele>
        <time>2018-03-09T15:10:47Z</time>
      </trkpt>
      <trkpt lat="46.87733" lon="-1.9969">
        <ele>6</ele>
        <time>2018-03-09T15:11:47Z</time>
      </trkpt>
      <trkpt lat="46.87724" lon="-1.99674">
        <ele>5</ele>
        <time>2018-03-09T15:12:47Z</time>
      </trkpt>
      <trkpt lat="46.87716" lon="-1.99661">
        <ele>5</ele>
        <time>2018-03-09T15:13:47Z</time>
      </trkpt>
      <trkpt lat="46.87699" lon="-1.99634">
        <ele>5</ele>
        <time>2018-03-09T15:14:47Z</time>
      </trkpt>
      <trkpt lat="46.87678" lon="-1.99607">
        <ele>4</ele>
        <time>2018-03-09T15:15:47Z</time>
      </trkpt>
      <trkpt lat="46.87653" lon="-1.99578">
        <ele>3</ele>
        <time>2018-03-09T15:16:47Z</time>
      </trkpt>
      <trkpt lat="46.87631" lon="-1.99551">
        <ele>2</ele>
        <time>2018-03-09T15:17:47Z</time>
      </trkpt>
      <trkpt lat="46.87612" lon="-1.9953">
        <ele>1</ele>
        <time>2018-03-09T15:18:47Z</time>
      </trkpt>
      <trkpt lat="46.87606" lon="-1.99524">
        <ele>1</ele>
        <time>2018-03-09T15:19:47Z</time>
      </trkpt>
      <trkpt lat="46.87598" lon="-1.99516">
        <ele>1</ele>
        <time>2018-03-09T15:20:47Z</time>
      </trkpt>
      <trkpt lat="46.87577" lon="-1.99491">
        <ele>1</ele>
        <time>2018-03-09T15:21:47Z</time>
      </trkpt>
      <trkpt lat="46.87559" lon="-1.9947">
        <ele>1</ele>
        <time>2018-03-09T15:22:47Z</time>
      </trkpt>
      <trkpt lat="46.87544" lon="-1.99453">
        <ele>2</ele>
        <time>2018-03-09T15:23:47Z</time>
      </trkpt>
      <trkpt lat="46.8752" lon="-1.99424">
        <ele>2</ele>
        <time>2018-03-09T15:24:47Z</time>
      </trkpt>
      <trkpt lat="46.87502" lon="-1.994">
        <ele>2</ele>
        <time>2018-03-09T15:25:47Z</time>
      </trkpt>
      <trkpt lat="46.87501" lon="-1.99399">
        <ele>2</ele>
        <time>2018-03-09T15:26:47Z</time>
      </trkpt>
      <trkpt lat="46.87487" lon="-1.99372">
        <ele>3</ele>
        <time>2018-03-09T15:27:47Z</time>
      </trkpt>
      <trkpt lat="46.87475" lon="-1.99348">
        <ele>3</ele>
        <time>2018-03-09T15:28:47Z</time>
      </trkpt>
      <trkpt lat="46.87439" lon="-1.99277">
        <ele>5</ele>
        <time>2018-03-09T15:29:47Z</time>
      </trkpt>
      <trkpt lat="46.87417" lon="-1.99233">
        <ele>6</ele>
        <time>2018-03-09T15:30:47Z</time>
      </trkpt>
      <trkpt lat="46.87405" lon="-1.99211">
        <ele>5</ele>
        <time>2018-03-09T15:31:47Z</time>
      </trkpt>
      <trkpt lat="46.87396" lon="-1.99198">
        <ele>5</ele>
        <time>2018-03-09T15:32:47Z</time>
      </trkpt>
      <trkpt lat="46.87388" lon="-1.99187">
        <ele>5</ele>
        <time>2018-03-09T15:33:47Z</time>
      </trkpt>
      <trkpt lat="46.87378" lon="-1.99177">
        <ele>5</ele>
        <time>2018-03-09T15:34:47Z</time>
      </trkpt>
      <trkpt lat="46.8737" lon="-1.99169">
        <ele>5</ele>
        <time>2018-03-09T15:35:47Z</time>
      </trkpt>
      <trkpt lat="46.87361" lon="-1.99162">
        <ele>5</ele>
        <time>2018-03-09T15:36:47Z</time>
      </trkpt>
      <trkpt lat="46.87344" lon="-1.99149">
        <ele>5</ele>
        <time>2018-03-09T15:37:47Z</time>
      </trkpt>
      <trkpt lat="46.87312" lon="-1.99124">
        <ele>5</ele>
        <time>2018-03-09T15:38:47Z</time>
      </trkpt>
      <trkpt lat="46.87298" lon="-1.9911">
        <ele>5</ele>
        <time>2018-03-09T15:39:47Z</time>
      </trkpt>
      <trkpt lat="46.87288" lon="-1.99098">
        <ele>4</ele>
        <time>2018-03-09T15:40:47Z</time>
      </trkpt>
      <trkpt lat="46.87279" lon="-1.99087">
        <ele>4</ele>
        <time>2018-03-09T15:41:47Z</time>
      </trkpt>
      <trkpt lat="46.87269" lon="-1.99074">
        <ele>4</ele>
        <time>2018-03-09T15:42:47Z</time>
      </trkpt>
      <trkpt lat="46.87259" lon="-1.99061">
        <ele>4</ele>
        <time>2018-03-09T15:43:47Z</time>
      </trkpt>
      <trkpt lat="46.87248" lon="-1.99044">
        <ele>4</ele>
        <time>2018-03-09T15:44:47Z</time>
      </trkpt>
      <trkpt lat="46.87235" lon="-1.99025">
        <ele>4</ele>
        <time>2018-03-09T15:45:47Z</time>
      </trkpt>
      <trkpt lat="46.87207" lon="-1.98986">
        <ele>4</ele>
        <time>2018-03-09T15:46:47Z</time>
      </trkpt>
      <trkpt lat="46.87179" lon="-1.98943">
        <ele>4</ele>
        <time>2018-03-09T15:47:47Z</time>
      </trkpt>
      <trkpt lat="46.87136" lon="-1.98882">
        <ele>4</ele>
        <time>2018-03-09T15:48:47Z</time>
      </trkpt>
      <trkpt lat="46.87094" lon="-1.9882">
        <ele>3</ele>
        <time>2018-03-09T15:49:47Z</time>
      </trkpt>
      <trkpt lat="46.8705" lon="-1.98757">
        <ele>3</ele>
        <time>2018-03-09T15:50:47Z</time>
      </trkpt>
      <trkpt lat="46.8703" lon="-1.98728">
        <ele>3</ele>
        <time>2018-03-09T15:51:47Z</time>
      </trkpt>
      <trkpt lat="46.87019" lon="-1.9871">
        <ele>3</ele>
        <time>2018-03-09T15:52:47Z</time>
      </trkpt>
      <trkpt lat="46.8701" lon="-1.98693">
        <ele>3</ele>
        <time>2018-03-09T15:53:47Z</time>
      </trkpt>
      <trkpt lat="46.87009" lon="-1.98692">
        <ele>3</ele>
        <time>2018-03-09T15:54:47Z</time>
      </trkpt>
      <trkpt lat="46.86992" lon="-1.98657">
        <ele>4</ele>
        <time>2018-03-09T15:55:47Z</time>
      </trkpt>
      <trkpt lat="46.86974" lon="-1.98617">
        <ele>3</ele>
        <time>2018-03-09T15:56:47Z</time>
      </trkpt>
      <trkpt lat="46.86973" lon="-1.98614">
        <ele>3</ele>
        <time>2018-03-09T15:57:47Z</time>
      </trkpt>
      <trkpt lat="46.86965" lon="-1.98596">
        <ele>3</ele>
        <time>2018-03-09T15:58:47Z</time>
      </trkpt>
      <trkpt lat="46.86952" lon="-1.98566">
        <ele>3</ele>
        <time>2018-03-09T15:59:47Z</time>
      </trkpt>
      <trkpt lat="46.86935" lon="-1.98527">
        <ele>2</ele>
        <time>2018-03-09T16:00:47Z</time>
      </trkpt>
      <trkpt lat="46.86929" lon="-1.98511">
        <ele>2</ele>
        <time>2018-03-09T16:01:47Z</time>
      </trkpt>
      <trkpt lat="46.86922" lon="-1.98498">
        <ele>2</ele>
        <time>2018-03-09T16:02:47Z</time>
      </trkpt>
      <trkpt lat="46.86913" lon="-1.98483">
        <ele>2</ele>
        <time>2018-03-09T16:03:47Z</time>
      </trkpt>
      <trkpt lat="46.8689" lon="-1.98452">
        <ele>1</ele>
        <time>2018-03-09T16:04:47Z</time>
      </trkpt>
      <trkpt lat="46.8688" lon="-1.98436">
        <ele>1</ele>
        <time>2018-03-09T16:05:47Z</time>
      </trkpt>
      <trkpt lat="46.86873" lon="-1.98421">
        <ele>1</ele>
        <time>2018-03-09T16:06:47Z</time>
      </trkpt>
      <trkpt lat="46.86872" lon="-1.9842">
        <ele>1</ele>
        <time>2018-03-09T16:07:47Z</time>
      </trkpt>
      <trkpt lat="46.8687" lon="-1.98412">
        <ele>1</ele>
        <time>2018-03-09T16:08:47Z</time>
      </trkpt>
      <trkpt lat="46.86867" lon="-1.98401">
        <ele>1</ele>
        <time>2018-03-09T16:09:47Z</time>
      </trkpt>
      <trkpt lat="46.86863" lon="-1.98384">
        <ele>1</ele>
        <time>2018-03-09T16:10:47Z</time>
      </trkpt>
      <trkpt lat="46.8686" lon="-1.98366">
        <ele>1</ele>
        <time>2018-03-09T16:11:47Z</time>
      </trkpt>
      <trkpt lat="46.86855" lon="-1.98326">
        <ele>1</ele>
        <time>2018-03-09T16:12:47Z</time>
      </trkpt>
      <trkpt lat="46.86848" lon="-1.98288">
        <ele>1</ele>
        <time>2018-03-09T16:13:47Z</time>
      </trkpt>
      <trkpt lat="46.86845" lon="-1.98268">
        <ele>1</ele>
        <time>2018-03-09T16:14:47Z</time>
      </trkpt>
      <trkpt lat="46.86841" lon="-1.9825">
        <ele>1</ele>
        <time>2018-03-09T16:15:47Z</time>
      </trkpt>
      <trkpt lat="46.86839" lon="-1.98242">
        <ele>1</ele>
        <time>2018-03-09T16:16:47Z</time>
      </trkpt>
      <trkpt lat="46.86835" lon="-1.98231">
        <ele>1</ele>
        <time>2018-03-09T16:17:47Z</time>
      </trkpt>
      <trkpt lat="46.86829" lon="-1.98212">
        <ele>1</ele>
        <time>2018-03-09T16:18:47Z</time>
      </trkpt>
      <trkpt lat="46.8682" lon="-1.98191">
        <ele>1</ele>
        <time>2018-03-09T16:19:47Z</time>
      </trkpt>
      <trkpt lat="46.86777" lon="-1.98082">
        <ele>1</ele>
        <time>2018-03-09T16:20:47Z</time>
      </trkpt>
      <trkpt lat="46.86736" lon="-1.97973">
        <ele>1</ele>
        <time>2018-03-09T16:21:47Z</time>
      </trkpt>
      <trkpt lat="46.86704" lon="-1.97887">
        <ele>1</ele>
        <time>2018-03-09T16:22:47Z</time>
      </trkpt>
      <trkpt lat="46.86676" lon="-1.97811">
        <ele>2</ele>
        <time>2018-03-09T16:23:47Z</time>
      </trkpt>
      <trkpt lat="46.86664" lon="-1.97778">
        <ele>2</ele>
        <time>2018-03-09T16:24:47Z</time>
      </trkpt>
      <trkpt lat="46.86662" lon="-1.97771">
        <ele>2</ele>
        <time>2018-03-09T16:25:47Z</time>
      </trkpt>
      <trkpt lat="46.86655" lon="-1.97747">
        <ele>2</ele>
        <time>2018-03-09T16:26:47Z</time>
      </trkpt>
      <trkpt lat="46.86652" lon="-1.97731">
        <ele>2</ele>
        <time>2018-03-09T16:27:47Z</time>
      </trkpt>
      <trkpt lat="46.86649" lon="-1.97714">
        <ele>2</ele>
        <time>2018-03-09T16:28:47Z</time>
      </trkpt>
      <trkpt lat="46.86648" lon="-1.97698">
        <ele>2</ele>
        <time>2018-03-09T16:29:47Z</time>
      </trkpt>
      <trkpt lat="46.86647" lon="-1.97677">
        <ele>3</ele>
        <time>2018-03-09T16:30:47Z</time>
      </trkpt>
      <trkpt lat="46.86648" lon="-1.97653">
        <ele>3</ele>
        <time>2018-03-09T16:31:47Z</time>
      </trkpt>
      <trkpt lat="46.86648" lon="-1.97641">
        <ele>3</ele>
        <time>2018-03-09T16:32:47Z</time>
      </trkpt>
      <trkpt lat="46.8665" lon="-1.97615">
        <ele>3</ele>
        <time>2018-03-09T16:33:47Z</time>
      </trkpt>
      <trkpt lat="46.86656" lon="-1.97536">
        <ele>3</ele>
        <time>2018-03-09T16:34:47Z</time>
      </trkpt>
      <trkpt lat="46.86657" lon="-1.97509">
        <ele>3</ele>
        <time>2018-03-09T16:35:47Z</time>
      </trkpt>
      <trkpt lat="46.86661" lon="-1.97448">
        <ele>3</ele>
        <time>2018-03-09T16:36:47Z</time>
      </trkpt>
      <trkpt lat="46.86663" lon="-1.97408">
        <ele>3</ele>
        <time>2018-03-09T16:37:47Z</time>
      </trkpt>
      <trkpt lat="46.86666" lon="-1.9737">
        <ele>3</ele>
        <time>2018-03-09T16:38:47Z</time>
      </trkpt>
      <trkpt lat="46.86667" lon="-1.9734">
        <ele>3</ele>
        <time>2018-03-09T16:39:47Z</time>
      </trkpt>
      <trkpt lat="46.86668" lon="-1.97312">
        <ele>4</ele>
        <time>2018-03-09T16:40:47Z</time>
      </trkpt>
      <trkpt lat="46.86669" lon="-1.97295">
        <ele>4</ele>
        <time>2018-03-09T16:41:47Z</time>
      </trkpt>
      <trkpt lat="46.86669" lon="-1.97275">
        <ele>4</ele>
        <time>2018-03-09T16:42:47Z</time>
      </trkpt>
      <trkpt lat="46.86668" lon="-1.97255">
        <ele>5</ele>
        <time>2018-03-09T16:43:47Z</time>
      </trkpt>
      <trkpt lat="46.86667" lon="-1.97239">
        <ele>5</ele>
        <time>2018-03-09T16:44:47Z</time>
      </trkpt>
      <trkpt lat="46.86666" lon="-1.97229">
        <ele>5</ele>
        <time>2018-03-09T16:45:47Z</time>
      </trkpt>
      <trkpt lat="46.86664" lon="-1.9722">
        <ele>5</ele>
        <time>2018-03-09T16:46:47Z</time>
      </trkpt>
      <trkpt lat="46.86662" lon="-1.97201">
        <ele>5</ele>
        <time>2018-03-09T16:47:47Z</time>
      </trkpt>
      <trkpt lat="46.86655" lon="-1.97159">
        <ele>5</ele>
        <time>2018-03-09T16:48:47Z</time>
      </trkpt>
      <trkpt lat="46.8665" lon="-1.97135">
        <ele>4</ele>
        <time>2018-03-09T16:49:47Z</time>
      </trkpt>
      <trkpt lat="46.86644" lon="-1.9711">
        <ele>3</ele>
        <time>2018-03-09T16:50:47Z</time>
      </trkpt>
      <trkpt lat="46.86639" lon="-1.97072">
        <ele>3</ele>
        <time>2018-03-09T16:51:47Z</time>
      </trkpt>
      <trkpt lat="46.86637" lon="-1.97024">
        <ele>2</ele>
        <time>2018-03-09T16:52:47Z</time>
      </trkpt>
      <trkpt lat="46.86637" lon="-1.96992">
        <ele>2</ele>
        <time>2018-03-09T16:53:47Z</time>
      </trkpt>
      <trkpt lat="46.86637" lon="-1.96956">
        <ele>2</ele>
        <time>2018-03-09T16:54:47Z</time>
      </trkpt>
      <trkpt lat="46.86635" lon="-1.96923">
        <ele>2</ele>
        <time>2018-03-09T16:55:47Z</time>
      </trkpt>
      <trkpt lat="46.86634" lon="-1.96902">
        <ele>2</ele>
        <time>2018-03-09T16:56:47Z</time>
      </trkpt>
      <trkpt lat="46.86632" lon="-1.96887">
        <ele>2</ele>
        <time>2018-03-09T16:57:47Z</time>
      </trkpt>
      <trkpt lat="46.86624" lon="-1.96857">
        <ele>2</ele>
        <time>2018-03-09T16:58:47Z</time>
      </trkpt>
      <trkpt lat="46.86618" lon="-1.96839">
        <ele>2</ele>
        <time>2018-03-09T16:59:47Z</time>
      </trkpt>
      <trkpt lat="46.86612" lon="-1.96826">
        <ele>2</ele>
        <time>2018-03-09T17:00:47Z</time>
      </trkpt>
      <trkpt lat="46.86604" lon="-1.96814">
        <ele>2</ele>
        <time>2018-03-09T17:01:47Z</time>
      </trkpt>
      <trkpt lat="46.86598" lon="-1.96805">
        <ele>2</ele>
        <time>2018-03-09T17:02:47Z</time>
      </trkpt>
      <trkpt lat="46.86577" lon="-1.96779">
        <ele>1</ele>
        <time>2018-03-09T17:03:47Z</time>
      </trkpt>
      <trkpt lat="46.86527" lon="-1.96715">
        <ele>2</ele>
        <time>2018-03-09T17:04:47Z</time>
      </trkpt>
      <trkpt lat="46.86459" lon="-1.96627">
        <ele>1.5</ele>
        <time>2018-03-09T17:05:47Z</time>
      </trkpt>
      <trkpt lat="46.86386" lon="-1.96532">
        <ele>2</ele>
        <time>2018-03-09T17:06:47Z</time>
      </trkpt>
      <trkpt lat="46.86311" lon="-1.96434">
        <ele>1.9</ele>
        <time>2018-03-09T17:07:47Z</time>
      </trkpt>
      <trkpt lat="46.86234" lon="-1.96334">
        <ele>2</ele>
        <time>2018-03-09T17:08:47Z</time>
      </trkpt>
      <trkpt lat="46.86153" lon="-1.96228">
        <ele>1</ele>
        <time>2018-03-09T17:09:47Z</time>
      </trkpt>
      <trkpt lat="46.86107" lon="-1.96166">
        <ele>1</ele>
        <time>2018-03-09T17:10:47Z</time>
      </trkpt>
      <trkpt lat="46.86093" lon="-1.9615">
        <ele>1</ele>
        <time>2018-03-09T17:11:47Z</time>
      </trkpt>
      <trkpt lat="46.86062" lon="-1.9611">
        <ele>2</ele>
        <time>2018-03-09T17:12:47Z</time>
      </trkpt>
      <trkpt lat="46.86029" lon="-1.96065">
        <ele>3</ele>
        <time>2018-03-09T17:13:47Z</time>
      </trkpt>
      <trkpt lat="46.86018" lon="-1.9605">
        <ele>3</ele>
        <time>2018-03-09T17:14:47Z</time>
      </trkpt>
      <trkpt lat="46.86013" lon="-1.96044">
        <ele>3</ele>
        <time>2018-03-09T17:15:47Z</time>
      </trkpt>
      <trkpt lat="46.86013" lon="-1.96044">
        <ele>3</ele>
        <time>2018-03-09T17:16:47Z</time>
      </trkpt>
      <trkpt lat="46.8601" lon="-1.96041">
        <ele>3</ele>
        <time>2018-03-09T17:17:47Z</time>
      </trkpt>
      <trkpt lat="46.86001" lon="-1.96031">
        <ele>4</ele>
        <time>2018-03-09T17:18:47Z</time>
      </trkpt>
      <trkpt lat="46.85996" lon="-1.96027">
        <ele>4</ele>
        <time>2018-03-09T17:19:47Z</time>
      </trkpt>
      <trkpt lat="46.8598" lon="-1.96019">
        <ele>4</ele>
        <time>2018-03-09T17:20:47Z</time>
      </trkpt>
      <trkpt lat="46.85972" lon="-1.96012">
        <ele>4</ele>
        <time>2018-03-09T17:21:47Z</time>
      </trkpt>
      <trkpt lat="46.85971" lon="-1.9601">
        <ele>4</ele>
        <time>2018-03-09T17:22:47Z</time>
      </trkpt>
      <trkpt lat="46.85966" lon="-1.96005">
        <ele>4</ele>
        <time>2018-03-09T17:23:47Z</time>
      </trkpt>
      <trkpt lat="46.85962" lon="-1.95995">
        <ele>4</ele>
        <time>2018-03-09T17:24:47Z</time>
      </trkpt>
      <trkpt lat="46.85958" lon="-1.95984">
        <ele>3</ele>
        <time>2018-03-09T17:25:47Z</time>
      </trkpt>
      <trkpt lat="46.85956" lon="-1.95973">
        <ele>3</ele>
        <time>2018-03-09T17:26:47Z</time>
      </trkpt>
      <trkpt lat="46.85953" lon="-1.95939">
        <ele>3</ele>
        <time>2018-03-09T17:27:47Z</time>
      </trkpt>
      <trkpt lat="46.85949" lon="-1.9591">
        <ele>3</ele>
        <time>2018-03-09T17:28:47Z</time>
      </trkpt>
      <trkpt lat="46.85947" lon="-1.95899">
        <ele>3</ele>
        <time>2018-03-09T17:29:47Z</time>
      </trkpt>
      <trkpt lat="46.85945" lon="-1.95889">
        <ele>4</ele>
        <time>2018-03-09T17:30:47Z</time>
      </trkpt>
      <trkpt lat="46.85942" lon="-1.95878">
        <ele>4</ele>
        <time>2018-03-09T17:31:47Z</time>
      </trkpt>
      <trkpt lat="46.85942" lon="-1.95878">
        <ele>4</ele>
        <time>2018-03-09T17:32:47Z</time>
      </trkpt>
      <trkpt lat="46.85928" lon="-1.95893">
        <ele>4</ele>
        <time>2018-03-09T17:33:47Z</time>
      </trkpt>
      <trkpt lat="46.85923" lon="-1.95901">
        <ele>4</ele>
        <time>2018-03-09T17:34:47Z</time>
      </trkpt>
      <trkpt lat="46.85909" lon="-1.95921">
        <ele>4</ele>
        <time>2018-03-09T17:35:47Z</time>
      </trkpt>
      <trkpt lat="46.8589" lon="-1.95949">
        <ele>3</ele>
        <time>2018-03-09T17:36:47Z</time>
      </trkpt>
      <trkpt lat="46.85887" lon="-1.95952">
        <ele>3</ele>
        <time>2018-03-09T17:37:47Z</time>
      </trkpt>
      <trkpt lat="46.85878" lon="-1.95966">
        <ele>3</ele>
        <time>2018-03-09T17:38:47Z</time>
      </trkpt>
      <trkpt lat="46.85875" lon="-1.9597">
        <ele>3</ele>
        <time>2018-03-09T17:39:47Z</time>
      </trkpt>
      <trkpt lat="46.85867" lon="-1.95981">
        <ele>3</ele>
        <time>2018-03-09T17:40:47Z</time>
      </trkpt>
      <trkpt lat="46.85857" lon="-1.95996">
        <ele>2</ele>
        <time>2018-03-09T17:41:47Z</time>
      </trkpt>
      <trkpt lat="46.85847" lon="-1.9601">
        <ele>2</ele>
        <time>2018-03-09T17:42:47Z</time>
      </trkpt>
      <trkpt lat="46.85844" lon="-1.96015">
        <ele>2</ele>
        <time>2018-03-09T17:43:47Z</time>
      </trkpt>
      <trkpt lat="46.8584" lon="-1.9602">
        <ele>2</ele>
        <time>2018-03-09T17:44:47Z</time>
      </trkpt>
      <trkpt lat="46.85833" lon="-1.96032">
        <ele>2</ele>
        <time>2018-03-09T17:45:47Z</time>
      </trkpt>
      <trkpt lat="46.85825" lon="-1.96046">
        <ele>2</ele>
        <time>2018-03-09T17:46:47Z</time>
      </trkpt>
      <trkpt lat="46.85816" lon="-1.96064">
        <ele>2</ele>
        <time>2018-03-09T17:47:47Z</time>
      </trkpt>
      <trkpt lat="46.85812" lon="-1.96072">
        <ele>2</ele>
        <time>2018-03-09T17:48:47Z</time>
      </trkpt>
      <trkpt lat="46.85801" lon="-1.96094">
        <ele>2</ele>
        <time>2018-03-09T17:49:47Z</time>
      </trkpt>
      <trkpt lat="46.85775" lon="-1.96148">
        <ele>2</ele>
        <time>2018-03-09T17:50:47Z</time>
      </trkpt>
      <trkpt lat="46.85766" lon="-1.96164">
        <ele>2</ele>
        <time>2018-03-09T17:51:47Z</time>
      </trkpt>
      <trkpt lat="46.85753" lon="-1.9619">
        <ele>1</ele>
        <time>2018-03-09T17:52:47Z</time>
      </trkpt>
      <trkpt lat="46.85748" lon="-1.96197">
        <ele>1</ele>
        <time>2018-03-09T17:53:47Z</time>
      </trkpt>
      <trkpt lat="46.85748" lon="-1.96197">
        <ele>1</ele>
        <time>2018-03-09T17:54:47Z</time>
      </trkpt>
      <trkpt lat="46.85722" lon="-1.96182">
        <ele>1</ele>
        <time>2018-03-09T17:55:47Z</time>
      </trkpt>
      <trkpt lat="46.85645" lon="-1.96132">
        <ele>1</ele>
        <time>2018-03-09T17:56:47Z</time>
      </trkpt>
      <trkpt lat="46.85543" lon="-1.96069">
        <ele>1</ele>
        <time>2018-03-09T17:57:47Z</time>
      </trkpt>
      <trkpt lat="46.8545" lon="-1.96009">
        <ele>1</ele>
        <time>2018-03-09T17:58:47Z</time>
      </trkpt>
      <trkpt lat="46.85346" lon="-1.95943">
        <ele>1</ele>
        <time>2018-03-09T17:59:47Z</time>
      </trkpt>
      <trkpt lat="46.85204" lon="-1.95852">
        <ele>1</ele>
        <time>2018-03-09T18:00:47Z</time>
      </trkpt>
      <trkpt lat="46.85185" lon="-1.9584">
        <ele>1</ele>
        <time>2018-03-09T18:01:47Z</time>
      </trkpt>
      <trkpt lat="46.85067" lon="-1.95766">
        <ele>1</ele>
        <time>2018-03-09T18:02:47Z</time>
      </trkpt>
      <trkpt lat="46.84912" lon="-1.95668">
        <ele>2</ele>
        <time>2018-03-09T18:03:47Z</time>
      </trkpt>
      <trkpt lat="46.8477" lon="-1.95577">
        <ele>2</ele>
        <time>2018-03-09T18:04:47Z</time>
      </trkpt>
      <trkpt lat="46.84675" lon="-1.95517">
        <ele>1</ele>
        <time>2018-03-09T18:05:47Z</time>
      </trkpt>
      <trkpt lat="46.84623" lon="-1.95482">
        <ele>1.8</ele>
        <time>2018-03-09T18:06:47Z</time>
      </trkpt>
      <trkpt lat="46.84618" lon="-1.95479">
        <ele>1.8</ele>
        <time>2018-03-09T18:07:47Z</time>
      </trkpt>
      <trkpt lat="46.84332" lon="-1.95299">
        <ele>2</ele>
        <time>2018-03-09T18:08:47Z</time>
      </trkpt>
      <trkpt lat="46.84195" lon="-1.95212">
        <ele>2</ele>
        <time>2018-03-09T18:09:47Z</time>
      </trkpt>
      <trkpt lat="46.84074" lon="-1.95135">
        <ele>1</ele>
        <time>2018-03-09T18:10:47Z</time>
      </trkpt>
      <trkpt lat="46.84038" lon="-1.95112">
        <ele>1</ele>
        <time>2018-03-09T18:11:47Z</time>
      </trkpt>
      <trkpt lat="46.83933" lon="-1.95048">
        <ele>1</ele>
        <time>2018-03-09T18:12:47Z</time>
      </trkpt>
      <trkpt lat="46.83925" lon="-1.95042">
        <ele>1</ele>
        <time>2018-03-09T18:13:47Z</time>
      </trkpt>
      <trkpt lat="46.8391" lon="-1.95031">
        <ele>1</ele>
        <time>2018-03-09T18:14:47Z</time>
      </trkpt>
      <trkpt lat="46.83847" lon="-1.94993">
        <ele>1</ele>
        <time>2018-03-09T18:15:47Z</time>
      </trkpt>
      <trkpt lat="46.83765" lon="-1.94942">
        <ele>1</ele>
        <time>2018-03-09T18:16:47Z</time>
      </trkpt>
      <trkpt lat="46.83735" lon="-1.94923">
        <ele>1</ele>
        <time>2018-03-09T18:17:47Z</time>
      </trkpt>
      <trkpt lat="46.83685" lon="-1.94894">
        <ele>1</ele>
        <time>2018-03-09T18:18:47Z</time>
      </trkpt>
      <trkpt lat="46.83618" lon="-1.94851">
        <ele>1</ele>
        <time>2018-03-09T18:19:47Z</time>
      </trkpt>
      <trkpt lat="46.8355" lon="-1.94809">
        <ele>1</ele>
        <time>2018-03-09T18:20:47Z</time>
      </trkpt>
      <trkpt lat="46.83547" lon="-1.94807">
        <ele>1</ele>
        <time>2018-03-09T18:21:47Z</time>
      </trkpt>
      <trkpt lat="46.83516" lon="-1.94788">
        <ele>1</ele>
        <time>2018-03-09T18:22:47Z</time>
      </trkpt>
      <trkpt lat="46.83462" lon="-1.94754">
        <ele>2</ele>
        <time>2018-03-09T18:23:47Z</time>
      </trkpt>
      <trkpt lat="46.83414" lon="-1.94726">
        <ele>2</ele>
        <time>2018-03-09T18:24:47Z</time>
      </trkpt>
      <trkpt lat="46.83355" lon="-1.9469">
        <ele>2</ele>
        <time>2018-03-09T18:25:47Z</time>
      </trkpt>
      <trkpt lat="46.83302" lon="-1.94658">
        <ele>1</ele>
        <time>2018-03-09T18:26:47Z</time>
      </trkpt>
      <trkpt lat="46.83242" lon="-1.9462">
        <ele>1</ele>
        <time>2018-03-09T18:27:47Z</time>
      </trkpt>
      <trkpt lat="46.83168" lon="-1.94574">
        <ele>1.7</ele>
        <time>2018-03-09T18:28:47Z</time>
      </trkpt>
      <trkpt lat="46.83057" lon="-1.94509">
        <ele>2</ele>
        <time>2018-03-09T18:29:47Z</time>
      </trkpt>
      <trkpt lat="46.83045" lon="-1.94504">
        <ele>2</ele>
        <time>2018-03-09T18:30:47Z</time>
      </trkpt>
      <trkpt lat="46.82981" lon="-1.94473">
        <ele>1</ele>
        <time>2018-03-09T18:31:47Z</time>
      </trkpt>
      <trkpt lat="46.82835" lon="-1.94402">
        <ele>1</ele>
        <time>2018-03-09T18:32:47Z</time>
      </trkpt>
      <trkpt lat="46.8283" lon="-1.94402">
        <ele>1</ele>
        <time>2018-03-09T18:33:47Z</time>
      </trkpt>
      <trkpt lat="46.82828" lon="-1.94402">
        <ele>1</ele>
        <time>2018-03-09T18:34:47Z</time>
      </trkpt>
      <trkpt lat="46.82823" lon="-1.94402">
        <ele>1</ele>
        <time>2018-03-09T18:35:47Z</time>
      </trkpt>
      <trkpt lat="46.82823" lon="-1.94403">
        <ele>1</ele>
        <time>2018-03-09T18:36:47Z</time>
      </trkpt>
      <trkpt lat="46.82822" lon="-1.94403">
        <ele>1</ele>
        <time>2018-03-09T18:37:47Z</time>
      </trkpt>
      <trkpt lat="46.82822" lon="-1.94404">
        <ele>1</ele>
        <time>2018-03-09T18:38:47Z</time>
      </trkpt>
      <trkpt lat="46.82821" lon="-1.94404">
        <ele>1</ele>
        <time>2018-03-09T18:39:47Z</time>
      </trkpt>
      <trkpt lat="46.82821" lon="-1.94405">
        <ele>1</ele>
        <time>2018-03-09T18:40:47Z</time>
      </trkpt>
      <trkpt lat="46.8282" lon="-1.94406">
        <ele>1</ele>
        <time>2018-03-09T18:41:47Z</time>
      </trkpt>
      <trkpt lat="46.82819" lon="-1.94406">
        <ele>1</ele>
        <time>2018-03-09T18:42:47Z</time>
      </trkpt>
      <trkpt lat="46.82818" lon="-1.94407">
        <ele>1</ele>
        <time>2018-03-09T18:43:47Z</time>
      </trkpt>
      <trkpt lat="46.82817" lon="-1.94407">
        <ele>1</ele>
        <time>2018-03-09T18:44:47Z</time>
      </trkpt>
      <trkpt lat="46.82816" lon="-1.94407">
        <ele>1</ele>
        <time>2018-03-09T18:45:47Z</time>
      </trkpt>
      <trkpt lat="46.82815" lon="-1.94407">
        <ele>1</ele>
        <time>2018-03-09T18:46:47Z</time>
      </trkpt>
      <trkpt lat="46.82814" lon="-1.94407">
        <ele>1</ele>
        <time>2018-03-09T18:47:47Z</time>
      </trkpt>
      <trkpt lat="46.82813" lon="-1.94407">
        <ele>1</ele>
        <time>2018-03-09T18:48:47Z</time>
      </trkpt>
      <trkpt lat="46.82812" lon="-1.94407">
        <ele>1</ele>
        <time>2018-03-09T18:49:47Z</time>
      </trkpt>
      <trkpt lat="46.82812" lon="-1.94406">
        <ele>1</ele>
        <time>2018-03-09T18:50:47Z</time>
      </trkpt>
      <trkpt lat="46.82811" lon="-1.94406">
        <ele>1</ele>
        <time>2018-03-09T18:51:47Z</time>
      </trkpt>
      <trkpt lat="46.8281" lon="-1.94406">
        <ele>1</ele>
        <time>2018-03-09T18:52:47Z</time>
      </trkpt>
      <trkpt lat="46.8281" lon="-1.94405">
        <ele>1</ele>
        <time>2018-03-09T18:53:47Z</time>
      </trkpt>
      <trkpt lat="46.82809" lon="-1.94405">
        <ele>1</ele>
        <time>2018-03-09T18:54:47Z</time>
      </trkpt>
      <trkpt lat="46.82809" lon="-1.94404">
        <ele>1</ele>
        <time>2018-03-09T18:55:47Z</time>
      </trkpt>
      <trkpt lat="46.82808" lon="-1.94403">
        <ele>1</ele>
        <time>2018-03-09T18:56:47Z</time>
      </trkpt>
      <trkpt lat="46.82808" lon="-1.94402">
        <ele>1</ele>
        <time>2018-03-09T18:57:47Z</time>
      </trkpt>
      <trkpt lat="46.82807" lon="-1.94402">
        <ele>1</ele>
        <time>2018-03-09T18:58:47Z</time>
      </trkpt>
      <trkpt lat="46.82807" lon="-1.94401">
        <ele>1</ele>
        <time>2018-03-09T18:59:47Z</time>
      </trkpt>
      <trkpt lat="46.82807" lon="-1.944">
        <ele>1</ele>
        <time>2018-03-09T19:00:47Z</time>
      </trkpt>
      <trkpt lat="46.82806" lon="-1.944">
        <ele>1</ele>
        <time>2018-03-09T19:01:47Z</time>
      </trkpt>
      <trkpt lat="46.82806" lon="-1.94399">
        <ele>1</ele>
        <time>2018-03-09T19:02:47Z</time>
      </trkpt>
      <trkpt lat="46.82806" lon="-1.94398">
        <ele>1</ele>
        <time>2018-03-09T19:03:47Z</time>
      </trkpt>
      <trkpt lat="46.82806" lon="-1.94397">
        <ele>1</ele>
        <time>2018-03-09T19:04:47Z</time>
      </trkpt>
      <trkpt lat="46.82792" lon="-1.94388">
        <ele>1</ele>
        <time>2018-03-09T19:05:47Z</time>
      </trkpt>
      <trkpt lat="46.8278" lon="-1.94381">
        <ele>1</ele>
        <time>2018-03-09T19:06:47Z</time>
      </trkpt>
      <trkpt lat="46.82772" lon="-1.94378">
        <ele>1</ele>
        <time>2018-03-09T19:07:47Z</time>
      </trkpt>
      <trkpt lat="46.82743" lon="-1.94367">
        <ele>1.4</ele>
        <time>2018-03-09T19:08:47Z</time>
      </trkpt>
      <trkpt lat="46.82697" lon="-1.9435">
        <ele>1</ele>
        <time>2018-03-09T19:09:47Z</time>
      </trkpt>
      <trkpt lat="46.8265" lon="-1.94333">
        <ele>1</ele>
        <time>2018-03-09T19:10:47Z</time>
      </trkpt>
      <trkpt lat="46.8256" lon="-1.94299">
        <ele>2</ele>
        <time>2018-03-09T19:11:47Z</time>
      </trkpt>
      <trkpt lat="46.8252" lon="-1.94284">
        <ele>1</ele>
        <time>2018-03-09T19:12:47Z</time>
      </trkpt>
      <trkpt lat="46.82504" lon="-1.94279">
        <ele>2</ele>
        <time>2018-03-09T19:13:47Z</time>
      </trkpt>
      <trkpt lat="46.82457" lon="-1.94261">
        <ele>1</ele>
        <time>2018-03-09T19:14:47Z</time>
      </trkpt>
      <trkpt lat="46.82415" lon="-1.94244">
        <ele>1</ele>
        <time>2018-03-09T19:15:47Z</time>
      </trkpt>
      <trkpt lat="46.82402" lon="-1.94238">
        <ele>1</ele>
        <time>2018-03-09T19:16:47Z</time>
      </trkpt>
      <trkpt lat="46.82393" lon="-1.94234">
        <ele>1</ele>
        <time>2018-03-09T19:17:47Z</time>
      </trkpt>
      <trkpt lat="46.82369" lon="-1.94222">
        <ele>1</ele>
        <time>2018-03-09T19:18:47Z</time>
      </trkpt>
      <trkpt lat="46.82363" lon="-1.9422">
        <ele>1</ele>
        <time>2018-03-09T19:19:47Z</time>
      </trkpt>
      <trkpt lat="46.82362" lon="-1.94219">
        <ele>1</ele>
        <time>2018-03-09T19:20:47Z</time>
      </trkpt>
      <trkpt lat="46.8232" lon="-1.94199">
        <ele>1</ele>
        <time>2018-03-09T19:21:47Z</time>
      </trkpt>
      <trkpt lat="46.82261" lon="-1.94172">
        <ele>1</ele>
        <time>2018-03-09T19:22:47Z</time>
      </trkpt>
      <trkpt lat="46.82214" lon="-1.94147">
        <ele>1</ele>
        <time>2018-03-09T19:23:47Z</time>
      </trkpt>
      <trkpt lat="46.82196" lon="-1.94138">
        <ele>1</ele>
        <time>2018-03-09T19:24:47Z</time>
      </trkpt>
      <trkpt lat="46.82174" lon="-1.94124">
        <ele>1</ele>
        <time>2018-03-09T19:25:47Z</time>
      </trkpt>
      <trkpt lat="46.82158" lon="-1.94113">
        <ele>1</ele>
        <time>2018-03-09T19:26:47Z</time>
      </trkpt>
      <trkpt lat="46.82148" lon="-1.94105">
        <ele>1</ele>
        <time>2018-03-09T19:27:47Z</time>
      </trkpt>
      <trkpt lat="46.8211" lon="-1.94072">
        <ele>1</ele>
        <time>2018-03-09T19:28:47Z</time>
      </trkpt>
      <trkpt lat="46.82077" lon="-1.94037">
        <ele>1</ele>
        <time>2018-03-09T19:29:47Z</time>
      </trkpt>
      <trkpt lat="46.82066" lon="-1.94025">
        <ele>1</ele>
        <time>2018-03-09T19:30:47Z</time>
      </trkpt>
      <trkpt lat="46.8204" lon="-1.94003">
        <ele>1</ele>
        <time>2018-03-09T19:31:47Z</time>
      </trkpt>
      <trkpt lat="46.82038" lon="-1.94004">
        <ele>1</ele>
        <time>2018-03-09T19:32:47Z</time>
      </trkpt>
      <trkpt lat="46.82037" lon="-1.94004">
        <ele>1</ele>
        <time>2018-03-09T19:33:47Z</time>
      </trkpt>
      <trkpt lat="46.82036" lon="-1.94004">
        <ele>1</ele>
        <time>2018-03-09T19:34:47Z</time>
      </trkpt>
      <trkpt lat="46.82035" lon="-1.94005">
        <ele>1</ele>
        <time>2018-03-09T19:35:47Z</time>
      </trkpt>
      <trkpt lat="46.82034" lon="-1.94005">
        <ele>1</ele>
        <time>2018-03-09T19:36:47Z</time>
      </trkpt>
      <trkpt lat="46.82033" lon="-1.94005">
        <ele>1</ele>
        <time>2018-03-09T19:37:47Z</time>
      </trkpt>
      <trkpt lat="46.82032" lon="-1.94005">
        <ele>1</ele>
        <time>2018-03-09T19:38:47Z</time>
      </trkpt>
      <trkpt lat="46.82031" lon="-1.94005">
        <ele>1</ele>
        <time>2018-03-09T19:39:47Z</time>
      </trkpt>
      <trkpt lat="46.8203" lon="-1.94005">
        <ele>1</ele>
        <time>2018-03-09T19:40:47Z</time>
      </trkpt>
      <trkpt lat="46.82029" lon="-1.94004">
        <ele>1</ele>
        <time>2018-03-09T19:41:47Z</time>
      </trkpt>
      <trkpt lat="46.82028" lon="-1.94004">
        <ele>1</ele>
        <time>2018-03-09T19:42:47Z</time>
      </trkpt>
      <trkpt lat="46.82027" lon="-1.94004">
        <ele>1</ele>
        <time>2018-03-09T19:43:47Z</time>
      </trkpt>
      <trkpt lat="46.82026" lon="-1.94003">
        <ele>1</ele>
        <time>2018-03-09T19:44:47Z</time>
      </trkpt>
      <trkpt lat="46.82025" lon="-1.94002">
        <ele>1</ele>
        <time>2018-03-09T19:45:47Z</time>
      </trkpt>
      <trkpt lat="46.82024" lon="-1.94001">
        <ele>1</ele>
        <time>2018-03-09T19:46:47Z</time>
      </trkpt>
      <trkpt lat="46.82023" lon="-1.94001">
        <ele>1</ele>
        <time>2018-03-09T19:47:47Z</time>
      </trkpt>
      <trkpt lat="46.82023" lon="-1.94">
        <ele>4.2</ele>
        <time>2018-03-09T19:48:47Z</time>
      </trkpt>
      <trkpt lat="46.82022" lon="-1.93998">
        <ele>4.2</ele>
        <time>2018-03-09T19:49:47Z</time>
      </trkpt>
      <trkpt lat="46.82021" lon="-1.93997">
        <ele>4.2</ele>
        <time>2018-03-09T19:50:47Z</time>
      </trkpt>
      <trkpt lat="46.8202" lon="-1.93996">
        <ele>4.2</ele>
        <time>2018-03-09T19:51:47Z</time>
      </trkpt>
      <trkpt lat="46.82019" lon="-1.93995">
        <ele>4.3</ele>
        <time>2018-03-09T19:52:47Z</time>
      </trkpt>
      <trkpt lat="46.82019" lon="-1.93993">
        <ele>4.2</ele>
        <time>2018-03-09T19:53:47Z</time>
      </trkpt>
      <trkpt lat="46.82018" lon="-1.93991">
        <ele>4.2</ele>
        <time>2018-03-09T19:54:47Z</time>
      </trkpt>
      <trkpt lat="46.82018" lon="-1.9399">
        <ele>4.2</ele>
        <time>2018-03-09T19:55:47Z</time>
      </trkpt>
      <trkpt lat="46.82018" lon="-1.93989">
        <ele>4.2</ele>
        <time>2018-03-09T19:56:47Z</time>
      </trkpt>
      <trkpt lat="46.82018" lon="-1.93987">
        <ele>4.2</ele>
        <time>2018-03-09T19:57:47Z</time>
      </trkpt>
      <trkpt lat="46.82017" lon="-1.93986">
        <ele>4.2</ele>
        <time>2018-03-09T19:58:47Z</time>
      </trkpt>
      <trkpt lat="46.82017" lon="-1.93984">
        <ele>4.2</ele>
        <time>2018-03-09T19:59:47Z</time>
      </trkpt>
      <trkpt lat="46.82017" lon="-1.93982">
        <ele>4.1</ele>
        <time>2018-03-09T20:00:47Z</time>
      </trkpt>
      <trkpt lat="46.82017" lon="-1.93981">
        <ele>4.1</ele>
        <time>2018-03-09T20:01:47Z</time>
      </trkpt>
      <trkpt lat="46.82017" lon="-1.93979">
        <ele>4.1</ele>
        <time>2018-03-09T20:02:47Z</time>
      </trkpt>
      <trkpt lat="46.82003" lon="-1.93951">
        <ele>1</ele>
        <time>2018-03-09T20:03:47Z</time>
      </trkpt>
      <trkpt lat="46.81996" lon="-1.9394">
        <ele>1</ele>
        <time>2018-03-09T20:04:47Z</time>
      </trkpt>
      <trkpt lat="46.81995" lon="-1.93934">
        <ele>1</ele>
        <time>2018-03-09T20:05:47Z</time>
      </trkpt>
      <trkpt lat="46.81991" lon="-1.9393">
        <ele>1</ele>
        <time>2018-03-09T20:06:47Z</time>
      </trkpt>
      <trkpt lat="46.81869" lon="-1.93765">
        <ele>1.6</ele>
        <time>2018-03-09T20:07:47Z</time>
      </trkpt>
      <trkpt lat="46.81865" lon="-1.93758">
        <ele>1.8</ele>
        <time>2018-03-09T20:08:47Z</time>
      </trkpt>
      <trkpt lat="46.8186" lon="-1.9375">
        <ele>2</ele>
        <time>2018-03-09T20:09:47Z</time>
      </trkpt>
      <trkpt lat="46.81856" lon="-1.93741">
        <ele>2</ele>
        <time>2018-03-09T20:10:47Z</time>
      </trkpt>
      <trkpt lat="46.81851" lon="-1.93729">
        <ele>2</ele>
        <time>2018-03-09T20:11:47Z</time>
      </trkpt>
      <trkpt lat="46.81843" lon="-1.93711">
        <ele>2</ele>
        <time>2018-03-09T20:12:47Z</time>
      </trkpt>
      <trkpt lat="46.81811" lon="-1.93596">
        <ele>1</ele>
        <time>2018-03-09T20:13:47Z</time>
      </trkpt>
      <trkpt lat="46.81806" lon="-1.93584">
        <ele>1</ele>
        <time>2018-03-09T20:14:47Z</time>
      </trkpt>
      <trkpt lat="46.81801" lon="-1.93572">
        <ele>1</ele>
        <time>2018-03-09T20:15:47Z</time>
      </trkpt>
      <trkpt lat="46.81795" lon="-1.9356">
        <ele>1</ele>
        <time>2018-03-09T20:16:47Z</time>
      </trkpt>
      <trkpt lat="46.81787" lon="-1.93545">
        <ele>1</ele>
        <time>2018-03-09T20:17:47Z</time>
      </trkpt>
      <trkpt lat="46.81778" lon="-1.93531">
        <ele>1</ele>
        <time>2018-03-09T20:18:47Z</time>
      </trkpt>
      <trkpt lat="46.81715" lon="-1.93433">
        <ele>1</ele>
        <time>2018-03-09T20:19:47Z</time>
      </trkpt>
      <trkpt lat="46.81694" lon="-1.93401">
        <ele>1</ele>
        <time>2018-03-09T20:20:47Z</time>
      </trkpt>
      <trkpt lat="46.81674" lon="-1.93376">
        <ele>1</ele>
        <time>2018-03-09T20:21:47Z</time>
      </trkpt>
      <trkpt lat="46.81664" lon="-1.93363">
        <ele>1</ele>
        <time>2018-03-09T20:22:47Z</time>
      </trkpt>
      <trkpt lat="46.81652" lon="-1.93351">
        <ele>1</ele>
        <time>2018-03-09T20:23:47Z</time>
      </trkpt>
      <trkpt lat="46.81629" lon="-1.93329">
        <ele>2</ele>
        <time>2018-03-09T20:24:47Z</time>
      </trkpt>
      <trkpt lat="46.81583" lon="-1.93291">
        <ele>1</ele>
        <time>2018-03-09T20:25:47Z</time>
      </trkpt>
      <trkpt lat="46.81559" lon="-1.9327">
        <ele>1</ele>
        <time>2018-03-09T20:26:47Z</time>
      </trkpt>
      <trkpt lat="46.81551" lon="-1.93261">
        <ele>1</ele>
        <time>2018-03-09T20:27:47Z</time>
      </trkpt>
      <trkpt lat="46.81543" lon="-1.93252">
        <ele>1</ele>
        <time>2018-03-09T20:28:47Z</time>
      </trkpt>
      <trkpt lat="46.81534" lon="-1.93239">
        <ele>1</ele>
        <time>2018-03-09T20:29:47Z</time>
      </trkpt>
      <trkpt lat="46.81527" lon="-1.93227">
        <ele>1</ele>
        <time>2018-03-09T20:30:47Z</time>
      </trkpt>
      <trkpt lat="46.81519" lon="-1.93214">
        <ele>1</ele>
        <time>2018-03-09T20:31:47Z</time>
      </trkpt>
      <trkpt lat="46.81512" lon="-1.93195">
        <ele>1</ele>
        <time>2018-03-09T20:32:47Z</time>
      </trkpt>
      <trkpt lat="46.81506" lon="-1.93178">
        <ele>1</ele>
        <time>2018-03-09T20:33:47Z</time>
      </trkpt>
      <trkpt lat="46.81498" lon="-1.93149">
        <ele>1</ele>
        <time>2018-03-09T20:34:47Z</time>
      </trkpt>
      <trkpt lat="46.81464" lon="-1.93005">
        <ele>2</ele>
        <time>2018-03-09T20:35:47Z</time>
      </trkpt>
      <trkpt lat="46.81453" lon="-1.92962">
        <ele>1</ele>
        <time>2018-03-09T20:36:47Z</time>
      </trkpt>
      <trkpt lat="46.81449" lon="-1.92948">
        <ele>1</ele>
        <time>2018-03-09T20:37:47Z</time>
      </trkpt>
      <trkpt lat="46.81444" lon="-1.92937">
        <ele>2</ele>
        <time>2018-03-09T20:38:47Z</time>
      </trkpt>
      <trkpt lat="46.8144" lon="-1.92927">
        <ele>2</ele>
        <time>2018-03-09T20:39:47Z</time>
      </trkpt>
      <trkpt lat="46.81435" lon="-1.92918">
        <ele>2</ele>
        <time>2018-03-09T20:40:47Z</time>
      </trkpt>
      <trkpt lat="46.8143" lon="-1.9291">
        <ele>2</ele>
        <time>2018-03-09T20:41:47Z</time>
      </trkpt>
      <trkpt lat="46.81423" lon="-1.929">
        <ele>2</ele>
        <time>2018-03-09T20:42:47Z</time>
      </trkpt>
      <trkpt lat="46.8141" lon="-1.92884">
        <ele>1</ele>
        <time>2018-03-09T20:43:47Z</time>
      </trkpt>
      <trkpt lat="46.81401" lon="-1.92874">
        <ele>1</ele>
        <time>2018-03-09T20:44:47Z</time>
      </trkpt>
      <trkpt lat="46.81394" lon="-1.92867">
        <ele>1</ele>
        <time>2018-03-09T20:45:47Z</time>
      </trkpt>
      <trkpt lat="46.81351" lon="-1.92824">
        <ele>2</ele>
        <time>2018-03-09T20:46:47Z</time>
      </trkpt>
      <trkpt lat="46.81317" lon="-1.92792">
        <ele>2</ele>
        <time>2018-03-09T20:47:47Z</time>
      </trkpt>
      <trkpt lat="46.81237" lon="-1.92713">
        <ele>2</ele>
        <time>2018-03-09T20:48:47Z</time>
      </trkpt>
      <trkpt lat="46.81211" lon="-1.92688">
        <ele>1</ele>
        <time>2018-03-09T20:49:47Z</time>
      </trkpt>
      <trkpt lat="46.81151" lon="-1.92628">
        <ele>1</ele>
        <time>2018-03-09T20:50:47Z</time>
      </trkpt>
      <trkpt lat="46.81115" lon="-1.92593">
        <ele>1</ele>
        <time>2018-03-09T20:51:47Z</time>
      </trkpt>
      <trkpt lat="46.81072" lon="-1.92552">
        <ele>1</ele>
        <time>2018-03-09T20:52:47Z</time>
      </trkpt>
      <trkpt lat="46.80982" lon="-1.92464">
        <ele>1</ele>
        <time>2018-03-09T20:53:47Z</time>
      </trkpt>
      <trkpt lat="46.80914" lon="-1.92396">
        <ele>3</ele>
        <time>2018-03-09T20:54:47Z</time>
      </trkpt>
      <trkpt lat="46.80849" lon="-1.92331">
        <ele>5</ele>
        <time>2018-03-09T20:55:47Z</time>
      </trkpt>
      <trkpt lat="46.80837" lon="-1.9232">
        <ele>5</ele>
        <time>2018-03-09T20:56:47Z</time>
      </trkpt>
      <trkpt lat="46.8083" lon="-1.92316">
        <ele>5</ele>
        <time>2018-03-09T20:57:47Z</time>
      </trkpt>
      <trkpt lat="46.80824" lon="-1.92313">
        <ele>5</ele>
        <time>2018-03-09T20:58:47Z</time>
      </trkpt>
      <trkpt lat="46.80824" lon="-1.92313">
        <ele>5</ele>
        <time>2018-03-09T20:59:47Z</time>
      </trkpt>
      <trkpt lat="46.80818" lon="-1.92297">
        <ele>5</ele>
        <time>2018-03-09T21:00:47Z</time>
      </trkpt>
      <trkpt lat="46.8081" lon="-1.92272">
        <ele>5</ele>
        <time>2018-03-09T21:01:47Z</time>
      </trkpt>
      <trkpt lat="46.80802" lon="-1.92248">
        <ele>5</ele>
        <time>2018-03-09T21:02:47Z</time>
      </trkpt>
      <trkpt lat="46.80796" lon="-1.92232">
        <ele>5</ele>
        <time>2018-03-09T21:03:47Z</time>
      </trkpt>
      <trkpt lat="46.80789" lon="-1.92216">
        <ele>4</ele>
        <time>2018-03-09T21:04:47Z</time>
      </trkpt>
      <trkpt lat="46.80781" lon="-1.92196">
        <ele>4</ele>
        <time>2018-03-09T21:05:47Z</time>
      </trkpt>
      <trkpt lat="46.80775" lon="-1.9218">
        <ele>4</ele>
        <time>2018-03-09T21:06:47Z</time>
      </trkpt>
      <trkpt lat="46.80773" lon="-1.92177">
        <ele>4</ele>
        <time>2018-03-09T21:07:47Z</time>
      </trkpt>
      <trkpt lat="46.80767" lon="-1.92165">
        <ele>4</ele>
        <time>2018-03-09T21:08:47Z</time>
      </trkpt>
      <trkpt lat="46.80734" lon="-1.92103">
        <ele>4</ele>
        <time>2018-03-09T21:09:47Z</time>
      </trkpt>
      <trkpt lat="46.807" lon="-1.92035">
        <ele>4</ele>
        <time>2018-03-09T21:10:47Z</time>
      </trkpt>
      <trkpt lat="46.80676" lon="-1.91991">
        <ele>4</ele>
        <time>2018-03-09T21:11:47Z</time>
      </trkpt>
      <trkpt lat="46.80652" lon="-1.91948">
        <ele>5</ele>
        <time>2018-03-09T21:12:47Z</time>
      </trkpt>
      <trkpt lat="46.8064" lon="-1.91921">
        <ele>5</ele>
        <time>2018-03-09T21:13:47Z</time>
      </trkpt>
      <trkpt lat="46.80634" lon="-1.91902">
        <ele>5</ele>
        <time>2018-03-09T21:14:47Z</time>
      </trkpt>
      <trkpt lat="46.80627" lon="-1.91883">
        <ele>5</ele>
        <time>2018-03-09T21:15:47Z</time>
      </trkpt>
      <trkpt lat="46.80621" lon="-1.91862">
        <ele>5</ele>
        <time>2018-03-09T21:16:47Z</time>
      </trkpt>
      <trkpt lat="46.8062" lon="-1.91857">
        <ele>5</ele>
        <time>2018-03-09T21:17:47Z</time>
      </trkpt>
      <trkpt lat="46.80617" lon="-1.91842">
        <ele>5</ele>
        <time>2018-03-09T21:18:47Z</time>
      </trkpt>
      <trkpt lat="46.80613" lon="-1.91824">
        <ele>5</ele>
        <time>2018-03-09T21:19:47Z</time>
      </trkpt>
      <trkpt lat="46.8061" lon="-1.91803">
        <ele>5</ele>
        <time>2018-03-09T21:20:47Z</time>
      </trkpt>
      <trkpt lat="46.80607" lon="-1.91785">
        <ele>5</ele>
        <time>2018-03-09T21:21:47Z</time>
      </trkpt>
      <trkpt lat="46.80604" lon="-1.91749">
        <ele>5</ele>
        <time>2018-03-09T21:22:47Z</time>
      </trkpt>
      <trkpt lat="46.806" lon="-1.91717">
        <ele>5</ele>
        <time>2018-03-09T21:23:47Z</time>
      </trkpt>
      <trkpt lat="46.80596" lon="-1.91699">
        <ele>5</ele>
        <time>2018-03-09T21:24:47Z</time>
      </trkpt>
      <trkpt lat="46.80591" lon="-1.91683">
        <ele>6</ele>
        <time>2018-03-09T21:25:47Z</time>
      </trkpt>
      <trkpt lat="46.80585" lon="-1.91669">
        <ele>6</ele>
        <time>2018-03-09T21:26:47Z</time>
      </trkpt>
      <trkpt lat="46.80582" lon="-1.91662">
        <ele>6</ele>
        <time>2018-03-09T21:27:47Z</time>
      </trkpt>
      <trkpt lat="46.80575" lon="-1.91647">
        <ele>6</ele>
        <time>2018-03-09T21:28:47Z</time>
      </trkpt>
      <trkpt lat="46.80569" lon="-1.91638">
        <ele>6</ele>
        <time>2018-03-09T21:29:47Z</time>
      </trkpt>
      <trkpt lat="46.80555" lon="-1.91623">
        <ele>7</ele>
        <time>2018-03-09T21:30:47Z</time>
      </trkpt>
      <trkpt lat="46.80542" lon="-1.91609">
        <ele>7</ele>
        <time>2018-03-09T21:31:47Z</time>
      </trkpt>
      <trkpt lat="46.8051" lon="-1.91583">
        <ele>8</ele>
        <time>2018-03-09T21:32:47Z</time>
      </trkpt>
      <trkpt lat="46.80488" lon="-1.91562">
        <ele>8</ele>
        <time>2018-03-09T21:33:47Z</time>
      </trkpt>
      <trkpt lat="46.80475" lon="-1.91547">
        <ele>8</ele>
        <time>2018-03-09T21:34:47Z</time>
      </trkpt>
      <trkpt lat="46.80458" lon="-1.91527">
        <ele>8</ele>
        <time>2018-03-09T21:35:47Z</time>
      </trkpt>
      <trkpt lat="46.80412" lon="-1.91464">
        <ele>8</ele>
        <time>2018-03-09T21:36:47Z</time>
      </trkpt>
      <trkpt lat="46.80398" lon="-1.91445">
        <ele>8</ele>
        <time>2018-03-09T21:37:47Z</time>
      </trkpt>
      <trkpt lat="46.80384" lon="-1.91425">
        <ele>8</ele>
        <time>2018-03-09T21:38:47Z</time>
      </trkpt>
      <trkpt lat="46.80366" lon="-1.91399">
        <ele>8</ele>
        <time>2018-03-09T21:39:47Z</time>
      </trkpt>
      <trkpt lat="46.80354" lon="-1.91379">
        <ele>8</ele>
        <time>2018-03-09T21:40:47Z</time>
      </trkpt>
      <trkpt lat="46.80351" lon="-1.91372">
        <ele>8</ele>
        <time>2018-03-09T21:41:47Z</time>
      </trkpt>
      <trkpt lat="46.80346" lon="-1.91361">
        <ele>8</ele>
        <time>2018-03-09T21:42:47Z</time>
      </trkpt>
      <trkpt lat="46.80339" lon="-1.91346">
        <ele>8</ele>
        <time>2018-03-09T21:43:47Z</time>
      </trkpt>
      <trkpt lat="46.80333" lon="-1.91328">
        <ele>8</ele>
        <time>2018-03-09T21:44:47Z</time>
      </trkpt>
      <trkpt lat="46.80327" lon="-1.9131">
        <ele>8</ele>
        <time>2018-03-09T21:45:47Z</time>
      </trkpt>
      <trkpt lat="46.80323" lon="-1.91291">
        <ele>8</ele>
        <time>2018-03-09T21:46:47Z</time>
      </trkpt>
      <trkpt lat="46.80321" lon="-1.91277">
        <ele>8</ele>
        <time>2018-03-09T21:47:47Z</time>
      </trkpt>
      <trkpt lat="46.80318" lon="-1.91265">
        <ele>8</ele>
        <time>2018-03-09T21:48:47Z</time>
      </trkpt>
      <trkpt lat="46.80318" lon="-1.9126">
        <ele>8</ele>
        <time>2018-03-09T21:49:47Z</time>
      </trkpt>
      <trkpt lat="46.80315" lon="-1.91235">
        <ele>8</ele>
        <time>2018-03-09T21:50:47Z</time>
      </trkpt>
      <trkpt lat="46.80307" lon="-1.9116">
        <ele>8</ele>
        <time>2018-03-09T21:51:47Z</time>
      </trkpt>
      <trkpt lat="46.80298" lon="-1.91077">
        <ele>9</ele>
        <time>2018-03-09T21:52:47Z</time>
      </trkpt>
      <trkpt lat="46.80298" lon="-1.91076">
        <ele>9</ele>
        <time>2018-03-09T21:53:47Z</time>
      </trkpt>
      <trkpt lat="46.80295" lon="-1.91048">
        <ele>10</ele>
        <time>2018-03-09T21:54:47Z</time>
      </trkpt>
      <trkpt lat="46.80292" lon="-1.91027">
        <ele>11</ele>
        <time>2018-03-09T21:55:47Z</time>
      </trkpt>
      <trkpt lat="46.80288" lon="-1.90998">
        <ele>11</ele>
        <time>2018-03-09T21:56:47Z</time>
      </trkpt>
      <trkpt lat="46.80288" lon="-1.90996">
        <ele>12</ele>
        <time>2018-03-09T21:57:47Z</time>
      </trkpt>
      <trkpt lat="46.80285" lon="-1.9098">
        <ele>12</ele>
        <time>2018-03-09T21:58:47Z</time>
      </trkpt>
      <trkpt lat="46.8028" lon="-1.90962">
        <ele>12</ele>
        <time>2018-03-09T21:59:47Z</time>
      </trkpt>
      <trkpt lat="46.80276" lon="-1.90948">
        <ele>12</ele>
        <time>2018-03-09T22:00:47Z</time>
      </trkpt>
      <trkpt lat="46.80273" lon="-1.9094">
        <ele>12</ele>
        <time>2018-03-09T22:01:47Z</time>
      </trkpt>
      <trkpt lat="46.80272" lon="-1.90939">
        <ele>12</ele>
        <time>2018-03-09T22:02:47Z</time>
      </trkpt>
      <trkpt lat="46.80267" lon="-1.90923">
        <ele>12</ele>
        <time>2018-03-09T22:03:47Z</time>
      </trkpt>
      <trkpt lat="46.80267" lon="-1.90923">
        <ele>12</ele>
        <time>2018-03-09T22:04:47Z</time>
      </trkpt>
      <trkpt lat="46.80271" lon="-1.9091">
        <ele>12</ele>
        <time>2018-03-09T22:05:47Z</time>
      </trkpt>
      <trkpt lat="46.80271" lon="-1.90899">
        <ele>12</ele>
        <time>2018-03-09T22:06:47Z</time>
      </trkpt>
      <trkpt lat="46.80268" lon="-1.90855">
        <ele>12</ele>
        <time>2018-03-09T22:07:47Z</time>
      </trkpt>
      <trkpt lat="46.80264" lon="-1.90802">
        <ele>12</ele>
        <time>2018-03-09T22:08:47Z</time>
      </trkpt>
      <trkpt lat="46.80261" lon="-1.90764">
        <ele>12</ele>
        <time>2018-03-09T22:09:47Z</time>
      </trkpt>
      <trkpt lat="46.8026" lon="-1.90727">
        <ele>13</ele>
        <time>2018-03-09T22:10:47Z</time>
      </trkpt>
      <trkpt lat="46.80258" lon="-1.90693">
        <ele>13</ele>
        <time>2018-03-09T22:11:47Z</time>
      </trkpt>
      <trkpt lat="46.80257" lon="-1.90671">
        <ele>14</ele>
        <time>2018-03-09T22:12:47Z</time>
      </trkpt>
      <trkpt lat="46.80256" lon="-1.90649">
        <ele>14</ele>
        <time>2018-03-09T22:13:47Z</time>
      </trkpt>
      <trkpt lat="46.80248" lon="-1.90557">
        <ele>15</ele>
        <time>2018-03-09T22:14:47Z</time>
      </trkpt>
      <trkpt lat="46.80243" lon="-1.90501">
        <ele>15</ele>
        <time>2018-03-09T22:15:47Z</time>
      </trkpt>
      <trkpt lat="46.80241" lon="-1.90472">
        <ele>15</ele>
        <time>2018-03-09T22:16:47Z</time>
      </trkpt>
      <trkpt lat="46.80241" lon="-1.9047">
        <ele>15</ele>
        <time>2018-03-09T22:17:47Z</time>
      </trkpt>
      <trkpt lat="46.80241" lon="-1.90463">
        <ele>15</ele>
        <time>2018-03-09T22:18:47Z</time>
      </trkpt>
      <trkpt lat="46.8024" lon="-1.90445">
        <ele>16</ele>
        <time>2018-03-09T22:19:47Z</time>
      </trkpt>
      <trkpt lat="46.8024" lon="-1.90425">
        <ele>16</ele>
        <time>2018-03-09T22:20:47Z</time>
      </trkpt>
      <trkpt lat="46.8024" lon="-1.90393">
        <ele>16</ele>
        <time>2018-03-09T22:21:47Z</time>
      </trkpt>
      <trkpt lat="46.80241" lon="-1.90357">
        <ele>17</ele>
        <time>2018-03-09T22:22:47Z</time>
      </trkpt>
      <trkpt lat="46.80249" lon="-1.90235">
        <ele>17</ele>
        <time>2018-03-09T22:23:47Z</time>
      </trkpt>
      <trkpt lat="46.80254" lon="-1.90187">
        <ele>17</ele>
        <time>2018-03-09T22:24:47Z</time>
      </trkpt>
      <trkpt lat="46.80259" lon="-1.90155">
        <ele>17</ele>
        <time>2018-03-09T22:25:47Z</time>
      </trkpt>
      <trkpt lat="46.80263" lon="-1.90128">
        <ele>18</ele>
        <time>2018-03-09T22:26:47Z</time>
      </trkpt>
      <trkpt lat="46.8027" lon="-1.90099">
        <ele>18</ele>
        <time>2018-03-09T22:27:47Z</time>
      </trkpt>
      <trkpt lat="46.80282" lon="-1.90045">
        <ele>19</ele>
        <time>2018-03-09T22:28:47Z</time>
      </trkpt>
      <trkpt lat="46.80286" lon="-1.90028">
        <ele>20</ele>
        <time>2018-03-09T22:29:47Z</time>
      </trkpt>
      <trkpt lat="46.80297" lon="-1.89985">
        <ele>20</ele>
        <time>2018-03-09T22:30:47Z</time>
      </trkpt>
      <trkpt lat="46.80314" lon="-1.89916">
        <ele>19</ele>
        <time>2018-03-09T22:31:47Z</time>
      </trkpt>
      <trkpt lat="46.80321" lon="-1.89887">
        <ele>19</ele>
        <time>2018-03-09T22:32:47Z</time>
      </trkpt>
      <trkpt lat="46.80346" lon="-1.89785">
        <ele>19</ele>
        <time>2018-03-09T22:33:47Z</time>
      </trkpt>
      <trkpt lat="46.80353" lon="-1.89758">
        <ele>18</ele>
        <time>2018-03-09T22:34:47Z</time>
      </trkpt>
      <trkpt lat="46.80363" lon="-1.89715">
        <ele>19</ele>
        <time>2018-03-09T22:35:47Z</time>
      </trkpt>
      <trkpt lat="46.80372" lon="-1.89679">
        <ele>19</ele>
        <time>2018-03-09T22:36:47Z</time>
      </trkpt>
      <trkpt lat="46.80372" lon="-1.89657">
        <ele>19</ele>
        <time>2018-03-09T22:37:47Z</time>
      </trkpt>
      <trkpt lat="46.80372" lon="-1.89657">
        <ele>19</ele>
        <time>2018-03-09T22:38:47Z</time>
      </trkpt>
      <trkpt lat="46.80372" lon="-1.89656">
        <ele>19</ele>
        <time>2018-03-09T22:39:47Z</time>
      </trkpt>
      <trkpt lat="46.8037" lon="-1.89654">
        <ele>19</ele>
        <time>2018-03-09T22:40:47Z</time>
      </trkpt>
      <trkpt lat="46.8037" lon="-1.89652">
        <ele>19</ele>
        <time>2018-03-09T22:41:47Z</time>
      </trkpt>
      <trkpt lat="46.80369" lon="-1.89648">
        <ele>19</ele>
        <time>2018-03-09T22:42:47Z</time>
      </trkpt>
      <trkpt lat="46.80369" lon="-1.89644">
        <ele>19</ele>
        <time>2018-03-09T22:43:47Z</time>
      </trkpt>
      <trkpt lat="46.8037" lon="-1.89641">
        <ele>20</ele>
        <time>2018-03-09T22:44:47Z</time>
      </trkpt>
      <trkpt lat="46.80371" lon="-1.89637">
        <ele>20</ele>
        <time>2018-03-09T22:45:47Z</time>
      </trkpt>
      <trkpt lat="46.80373" lon="-1.89635">
        <ele>20</ele>
        <time>2018-03-09T22:46:47Z</time>
      </trkpt>
      <trkpt lat="46.80375" lon="-1.89634">
        <ele>20</ele>
        <time>2018-03-09T22:47:47Z</time>
      </trkpt>
      <trkpt lat="46.80378" lon="-1.89633">
        <ele>20</ele>
        <time>2018-03-09T22:48:47Z</time>
      </trkpt>
      <trkpt lat="46.80392" lon="-1.89614">
        <ele>20</ele>
        <time>2018-03-09T22:49:47Z</time>
      </trkpt>
      <trkpt lat="46.80416" lon="-1.89563">
        <ele>21</ele>
        <time>2018-03-09T22:50:47Z</time>
      </trkpt>
      <trkpt lat="46.80428" lon="-1.8954">
        <ele>21</ele>
        <time>2018-03-09T22:51:47Z</time>
      </trkpt>
      <trkpt lat="46.80437" lon="-1.8952">
        <ele>20</ele>
        <time>2018-03-09T22:52:47Z</time>
      </trkpt>
      <trkpt lat="46.80454" lon="-1.89484">
        <ele>20</ele>
        <time>2018-03-09T22:53:47Z</time>
      </trkpt>
      <trkpt lat="46.80467" lon="-1.89459">
        <ele>20</ele>
        <time>2018-03-09T22:54:47Z</time>
      </trkpt>
      <trkpt lat="46.80467" lon="-1.89457">
        <ele>20</ele>
        <time>2018-03-09T22:55:47Z</time>
      </trkpt>
      <trkpt lat="46.80475" lon="-1.8944">
        <ele>21</ele>
        <time>2018-03-09T22:56:47Z</time>
      </trkpt>
      <trkpt lat="46.80475" lon="-1.89438">
        <ele>21</ele>
        <time>2018-03-09T22:57:47Z</time>
      </trkpt>
      <trkpt lat="46.80483" lon="-1.89418">
        <ele>21</ele>
        <time>2018-03-09T22:58:47Z</time>
      </trkpt>
      <trkpt lat="46.80492" lon="-1.89397">
        <ele>21</ele>
        <time>2018-03-09T22:59:47Z</time>
      </trkpt>
      <trkpt lat="46.805" lon="-1.89376">
        <ele>21</ele>
        <time>2018-03-09T23:00:47Z</time>
      </trkpt>
      <trkpt lat="46.80506" lon="-1.89356">
        <ele>22</ele>
        <time>2018-03-09T23:01:47Z</time>
      </trkpt>
      <trkpt lat="46.80511" lon="-1.89342">
        <ele>22</ele>
        <time>2018-03-09T23:02:47Z</time>
      </trkpt>
      <trkpt lat="46.80519" lon="-1.89312">
        <ele>22</ele>
        <time>2018-03-09T23:03:47Z</time>
      </trkpt>
      <trkpt lat="46.80527" lon="-1.89283">
        <ele>22</ele>
        <time>2018-03-09T23:04:47Z</time>
      </trkpt>
      <trkpt lat="46.80532" lon="-1.89265">
        <ele>22</ele>
        <time>2018-03-09T23:05:47Z</time>
      </trkpt>
      <trkpt lat="46.80537" lon="-1.89245">
        <ele>22</ele>
        <time>2018-03-09T23:06:47Z</time>
      </trkpt>
      <trkpt lat="46.8054" lon="-1.89227">
        <ele>22</ele>
        <time>2018-03-09T23:07:47Z</time>
      </trkpt>
      <trkpt lat="46.80542" lon="-1.89221">
        <ele>22</ele>
        <time>2018-03-09T23:08:47Z</time>
      </trkpt>
      <trkpt lat="46.80545" lon="-1.89196">
        <ele>22</ele>
        <time>2018-03-09T23:09:47Z</time>
      </trkpt>
      <trkpt lat="46.80551" lon="-1.89144">
        <ele>21</ele>
        <time>2018-03-09T23:10:47Z</time>
      </trkpt>
      <trkpt lat="46.80557" lon="-1.89097">
        <ele>21</ele>
        <time>2018-03-09T23:11:47Z</time>
      </trkpt>
      <trkpt lat="46.80563" lon="-1.89045">
        <ele>20</ele>
        <time>2018-03-09T23:12:47Z</time>
      </trkpt>
      <trkpt lat="46.80566" lon="-1.89011">
        <ele>20</ele>
        <time>2018-03-09T23:13:47Z</time>
      </trkpt>
      <trkpt lat="46.80567" lon="-1.88992">
        <ele>20</ele>
        <time>2018-03-09T23:14:47Z</time>
      </trkpt>
      <trkpt lat="46.80566" lon="-1.88977">
        <ele>20</ele>
        <time>2018-03-09T23:15:47Z</time>
      </trkpt>
      <trkpt lat="46.80564" lon="-1.88963">
        <ele>20</ele>
        <time>2018-03-09T23:16:47Z</time>
      </trkpt>
      <trkpt lat="46.80561" lon="-1.88953">
        <ele>20</ele>
        <time>2018-03-09T23:17:47Z</time>
      </trkpt>
      <trkpt lat="46.80556" lon="-1.88938">
        <ele>20</ele>
        <time>2018-03-09T23:18:47Z</time>
      </trkpt>
      <trkpt lat="46.80541" lon="-1.88904">
        <ele>19</ele>
        <time>2018-03-09T23:19:47Z</time>
      </trkpt>
      <trkpt lat="46.80533" lon="-1.88887">
        <ele>19</ele>
        <time>2018-03-09T23:20:47Z</time>
      </trkpt>
      <trkpt lat="46.80533" lon="-1.88887">
        <ele>19</ele>
        <time>2018-03-09T23:21:47Z</time>
      </trkpt>
      <trkpt lat="46.80543" lon="-1.88874">
        <ele>19</ele>
        <time>2018-03-09T23:22:47Z</time>
      </trkpt>
      <trkpt lat="46.80552" lon="-1.88862">
        <ele>19</ele>
        <time>2018-03-09T23:23:47Z</time>
      </trkpt>
      <trkpt lat="46.80557" lon="-1.88852">
        <ele>19</ele>
        <time>2018-03-09T23:24:47Z</time>
      </trkpt>
      <trkpt lat="46.80562" lon="-1.88839">
        <ele>19</ele>
        <time>2018-03-09T23:25:47Z</time>
      </trkpt>
      <trkpt lat="46.80566" lon="-1.88821">
        <ele>18</ele>
        <time>2018-03-09T23:26:47Z</time>
      </trkpt>
      <trkpt lat="46.80568" lon="-1.88808">
        <ele>18</ele>
        <time>2018-03-09T23:27:47Z</time>
      </trkpt>
      <trkpt lat="46.80569" lon="-1.88794">
        <ele>17</ele>
        <time>2018-03-09T23:28:47Z</time>
      </trkpt>
      <trkpt lat="46.80569" lon="-1.88763">
        <ele>16</ele>
        <time>2018-03-09T23:29:47Z</time>
      </trkpt>
      <trkpt lat="46.80568" lon="-1.88688">
        <ele>15</ele>
        <time>2018-03-09T23:30:47Z</time>
      </trkpt>
      <trkpt lat="46.80565" lon="-1.88597">
        <ele>14</ele>
        <time>2018-03-09T23:31:47Z</time>
      </trkpt>
      <trkpt lat="46.80565" lon="-1.8859">
        <ele>14</ele>
        <time>2018-03-09T23:32:47Z</time>
      </trkpt>
      <trkpt lat="46.80564" lon="-1.88536">
        <ele>14</ele>
        <time>2018-03-09T23:33:47Z</time>
      </trkpt>
      <trkpt lat="46.80561" lon="-1.88435">
        <ele>12</ele>
        <time>2018-03-09T23:34:47Z</time>
      </trkpt>
      <trkpt lat="46.8056" lon="-1.88356">
        <ele>11</ele>
        <time>2018-03-09T23:35:47Z</time>
      </trkpt>
      <trkpt lat="46.80561" lon="-1.88299">
        <ele>11</ele>
        <time>2018-03-09T23:36:47Z</time>
      </trkpt>
      <trkpt lat="46.80562" lon="-1.88271">
        <ele>12</ele>
        <time>2018-03-09T23:37:47Z</time>
      </trkpt>
      <trkpt lat="46.80565" lon="-1.8825">
        <ele>12</ele>
        <time>2018-03-09T23:38:47Z</time>
      </trkpt>
      <trkpt lat="46.80568" lon="-1.88229">
        <ele>13</ele>
        <time>2018-03-09T23:39:47Z</time>
      </trkpt>
      <trkpt lat="46.80575" lon="-1.88198">
        <ele>13</ele>
        <time>2018-03-09T23:40:47Z</time>
      </trkpt>
      <trkpt lat="46.8059" lon="-1.88125">
        <ele>15</ele>
        <time>2018-03-09T23:41:47Z</time>
      </trkpt>
      <trkpt lat="46.80595" lon="-1.88101">
        <ele>16</ele>
        <time>2018-03-09T23:42:47Z</time>
      </trkpt>
      <trkpt lat="46.806" lon="-1.88076">
        <ele>16</ele>
        <time>2018-03-09T23:43:47Z</time>
      </trkpt>
      <trkpt lat="46.80599" lon="-1.88067">
        <ele>16</ele>
        <time>2018-03-09T23:44:47Z</time>
      </trkpt>
      <trkpt lat="46.80599" lon="-1.88061">
        <ele>16</ele>
        <time>2018-03-09T23:45:47Z</time>
      </trkpt>
      <trkpt lat="46.80597" lon="-1.88056">
        <ele>16</ele>
        <time>2018-03-09T23:46:47Z</time>
      </trkpt>
      <trkpt lat="46.80595" lon="-1.88048">
        <ele>17</ele>
        <time>2018-03-09T23:47:47Z</time>
      </trkpt>
      <trkpt lat="46.80595" lon="-1.88048">
        <ele>17</ele>
        <time>2018-03-09T23:48:47Z</time>
      </trkpt>
      <trkpt lat="46.80593" lon="-1.88041">
        <ele>17</ele>
        <time>2018-03-09T23:49:47Z</time>
      </trkpt>
      <trkpt lat="46.80588" lon="-1.88029">
        <ele>17</ele>
        <time>2018-03-09T23:50:47Z</time>
      </trkpt>
      <trkpt lat="46.80585" lon="-1.88022">
        <ele>18</ele>
        <time>2018-03-09T23:51:47Z</time>
      </trkpt>
      <trkpt lat="46.80581" lon="-1.8801">
        <ele>18</ele>
        <time>2018-03-09T23:52:47Z</time>
      </trkpt>
      <trkpt lat="46.80568" lon="-1.87999">
        <ele>18</ele>
        <time>2018-03-09T23:53:47Z</time>
      </trkpt>
      <trkpt lat="46.80561" lon="-1.87991">
        <ele>19</ele>
        <time>2018-03-09T23:54:47Z</time>
      </trkpt>
      <trkpt lat="46.80538" lon="-1.87944">
        <ele>20</ele>
        <time>2018-03-09T23:55:47Z</time>
      </trkpt>
      <trkpt lat="46.80524" lon="-1.87916">
        <ele>20</ele>
        <time>2018-03-09T23:56:47Z</time>
      </trkpt>
      <trkpt lat="46.80517" lon="-1.87901">
        <ele>20</ele>
        <time>2018-03-09T23:57:47Z</time>
      </trkpt>
      <trkpt lat="46.80509" lon="-1.87883">
        <ele>20</ele>
        <time>2018-03-09T23:58:47Z</time>
      </trkpt>
      <trkpt lat="46.80501" lon="-1.87862">
        <ele>20</ele>
        <time>2018-03-09T23:59:47Z</time>
      </trkpt>
      <trkpt lat="46.80495" lon="-1.87845">
        <ele>20</ele>
        <time>2018-03-10T00:00:47Z</time>
      </trkpt>
      <trkpt lat="46.80483" lon="-1.87808">
        <ele>20</ele>
        <time>2018-03-10T00:01:47Z</time>
      </trkpt>
      <trkpt lat="46.8046" lon="-1.8773">
        <ele>21</ele>
        <time>2018-03-10T00:02:47Z</time>
      </trkpt>
      <trkpt lat="46.80446" lon="-1.87685">
        <ele>21</ele>
        <time>2018-03-10T00:03:47Z</time>
      </trkpt>
      <trkpt lat="46.80435" lon="-1.87652">
        <ele>21</ele>
        <time>2018-03-10T00:04:47Z</time>
      </trkpt>
      <trkpt lat="46.8043" lon="-1.87635">
        <ele>20</ele>
        <time>2018-03-10T00:05:47Z</time>
      </trkpt>
      <trkpt lat="46.80423" lon="-1.87618">
        <ele>20</ele>
        <time>2018-03-10T00:06:47Z</time>
      </trkpt>
      <trkpt lat="46.80415" lon="-1.87602">
        <ele>20</ele>
        <time>2018-03-10T00:07:47Z</time>
      </trkpt>
      <trkpt lat="46.80408" lon="-1.87588">
        <ele>20</ele>
        <time>2018-03-10T00:08:47Z</time>
      </trkpt>
      <trkpt lat="46.80401" lon="-1.87575">
        <ele>20</ele>
        <time>2018-03-10T00:09:47Z</time>
      </trkpt>
      <trkpt lat="46.80388" lon="-1.8755">
        <ele>21</ele>
        <time>2018-03-10T00:10:47Z</time>
      </trkpt>
      <trkpt lat="46.80388" lon="-1.8755">
        <ele>21</ele>
        <time>2018-03-10T00:11:47Z</time>
      </trkpt>
      <trkpt lat="46.80402" lon="-1.87511">
        <ele>21</ele>
        <time>2018-03-10T00:12:47Z</time>
      </trkpt>
      <trkpt lat="46.80425" lon="-1.87444">
        <ele>20</ele>
        <time>2018-03-10T00:13:47Z</time>
      </trkpt>
      <trkpt lat="46.80445" lon="-1.87383">
        <ele>20</ele>
        <time>2018-03-10T00:14:47Z</time>
      </trkpt>
      <trkpt lat="46.80451" lon="-1.87368">
        <ele>19</ele>
        <time>2018-03-10T00:15:47Z</time>
      </trkpt>
      <trkpt lat="46.8046" lon="-1.87344">
        <ele>20</ele>
        <time>2018-03-10T00:16:47Z</time>
      </trkpt>
      <trkpt lat="46.80481" lon="-1.87279">
        <ele>20</ele>
        <time>2018-03-10T00:17:47Z</time>
      </trkpt>
      <trkpt lat="46.80494" lon="-1.87239">
        <ele>20</ele>
        <time>2018-03-10T00:18:47Z</time>
      </trkpt>
      <trkpt lat="46.8051" lon="-1.87178">
        <ele>21</ele>
        <time>2018-03-10T00:19:47Z</time>
      </trkpt>
      <trkpt lat="46.80519" lon="-1.87141">
        <ele>21</ele>
        <time>2018-03-10T00:20:47Z</time>
      </trkpt>
      <trkpt lat="46.80531" lon="-1.87088">
        <ele>21</ele>
        <time>2018-03-10T00:21:47Z</time>
      </trkpt>
      <trkpt lat="46.80542" lon="-1.87032">
        <ele>21</ele>
        <time>2018-03-10T00:22:47Z</time>
      </trkpt>
      <trkpt lat="46.80553" lon="-1.8698">
        <ele>22</ele>
        <time>2018-03-10T00:23:47Z</time>
      </trkpt>
      <trkpt lat="46.8056" lon="-1.86952">
        <ele>22</ele>
        <time>2018-03-10T00:24:47Z</time>
      </trkpt>
      <trkpt lat="46.80562" lon="-1.86941">
        <ele>22</ele>
        <time>2018-03-10T00:25:47Z</time>
      </trkpt>
      <trkpt lat="46.80569" lon="-1.8691">
        <ele>22</ele>
        <time>2018-03-10T00:26:47Z</time>
      </trkpt>
      <trkpt lat="46.80572" lon="-1.86897">
        <ele>22</ele>
        <time>2018-03-10T00:27:47Z</time>
      </trkpt>
      <trkpt lat="46.80579" lon="-1.86865">
        <ele>23</ele>
        <time>2018-03-10T00:28:47Z</time>
      </trkpt>
      <trkpt lat="46.80587" lon="-1.86837">
        <ele>24</ele>
        <time>2018-03-10T00:29:47Z</time>
      </trkpt>
      <trkpt lat="46.8059" lon="-1.86824">
        <ele>24</ele>
        <time>2018-03-10T00:30:47Z</time>
      </trkpt>
      <trkpt lat="46.80599" lon="-1.86798">
        <ele>24</ele>
        <time>2018-03-10T00:31:47Z</time>
      </trkpt>
      <trkpt lat="46.80609" lon="-1.86775">
        <ele>23</ele>
        <time>2018-03-10T00:32:47Z</time>
      </trkpt>
      <trkpt lat="46.80611" lon="-1.8677">
        <ele>23</ele>
        <time>2018-03-10T00:33:47Z</time>
      </trkpt>
      <trkpt lat="46.80625" lon="-1.8674">
        <ele>23</ele>
        <time>2018-03-10T00:34:47Z</time>
      </trkpt>
      <trkpt lat="46.80639" lon="-1.8671">
        <ele>23</ele>
        <time>2018-03-10T00:35:47Z</time>
      </trkpt>
      <trkpt lat="46.80655" lon="-1.86673">
        <ele>23</ele>
        <time>2018-03-10T00:36:47Z</time>
      </trkpt>
      <trkpt lat="46.80661" lon="-1.8666">
        <ele>23</ele>
        <time>2018-03-10T00:37:47Z</time>
      </trkpt>
      <trkpt lat="46.80714" lon="-1.8654">
        <ele>21</ele>
        <time>2018-03-10T00:38:47Z</time>
      </trkpt>
      <trkpt lat="46.80728" lon="-1.86508">
        <ele>20</ele>
        <time>2018-03-10T00:39:47Z</time>
      </trkpt>
      <trkpt lat="46.80735" lon="-1.86488">
        <ele>20</ele>
        <time>2018-03-10T00:40:47Z</time>
      </trkpt>
      <trkpt lat="46.8074" lon="-1.86464">
        <ele>19</ele>
        <time>2018-03-10T00:41:47Z</time>
      </trkpt>
      <trkpt lat="46.80749" lon="-1.86381">
        <ele>16</ele>
        <time>2018-03-10T00:42:47Z</time>
      </trkpt>
      <trkpt lat="46.8076" lon="-1.8629">
        <ele>14</ele>
        <time>2018-03-10T00:43:47Z</time>
      </trkpt>
      <trkpt lat="46.80765" lon="-1.8624">
        <ele>14</ele>
        <time>2018-03-10T00:44:47Z</time>
      </trkpt>
      <trkpt lat="46.80769" lon="-1.86196">
        <ele>14</ele>
        <time>2018-03-10T00:45:47Z</time>
      </trkpt>
      <trkpt lat="46.8077" lon="-1.86181">
        <ele>14</ele>
        <time>2018-03-10T00:46:47Z</time>
      </trkpt>
      <trkpt lat="46.8077" lon="-1.86118">
        <ele>14</ele>
        <time>2018-03-10T00:47:47Z</time>
      </trkpt>
      <trkpt lat="46.8077" lon="-1.86113">
        <ele>14</ele>
        <time>2018-03-10T00:48:47Z</time>
      </trkpt>
      <trkpt lat="46.8077" lon="-1.86049">
        <ele>13</ele>
        <time>2018-03-10T00:49:47Z</time>
      </trkpt>
      <trkpt lat="46.80771" lon="-1.85971">
        <ele>12</ele>
        <time>2018-03-10T00:50:47Z</time>
      </trkpt>
      <trkpt lat="46.80774" lon="-1.85898">
        <ele>12</ele>
        <time>2018-03-10T00:51:47Z</time>
      </trkpt>
      <trkpt lat="46.80774" lon="-1.85885">
        <ele>12</ele>
        <time>2018-03-10T00:52:47Z</time>
      </trkpt>
      <trkpt lat="46.80773" lon="-1.85819">
        <ele>12</ele>
        <time>2018-03-10T00:53:47Z</time>
      </trkpt>
      <trkpt lat="46.80771" lon="-1.85755">
        <ele>14</ele>
        <time>2018-03-10T00:54:47Z</time>
      </trkpt>
      <trkpt lat="46.80769" lon="-1.85677">
        <ele>13</ele>
        <time>2018-03-10T00:55:47Z</time>
      </trkpt>
      <trkpt lat="46.80769" lon="-1.85648">
        <ele>12</ele>
        <time>2018-03-10T00:56:47Z</time>
      </trkpt>
      <trkpt lat="46.80767" lon="-1.85573">
        <ele>12</ele>
        <time>2018-03-10T00:57:47Z</time>
      </trkpt>
      <trkpt lat="46.80767" lon="-1.85559">
        <ele>12</ele>
        <time>2018-03-10T00:58:47Z</time>
      </trkpt>
      <trkpt lat="46.80768" lon="-1.85498">
        <ele>12</ele>
        <time>2018-03-10T00:59:47Z</time>
      </trkpt>
      <trkpt lat="46.80769" lon="-1.85483">
        <ele>12</ele>
        <time>2018-03-10T01:00:47Z</time>
      </trkpt>
      <trkpt lat="46.8077" lon="-1.85451">
        <ele>12</ele>
        <time>2018-03-10T01:01:47Z</time>
      </trkpt>
      <trkpt lat="46.80771" lon="-1.85411">
        <ele>13</ele>
        <time>2018-03-10T01:02:47Z</time>
      </trkpt>
      <trkpt lat="46.80771" lon="-1.85352">
        <ele>12</ele>
        <time>2018-03-10T01:03:47Z</time>
      </trkpt>
      <trkpt lat="46.8077" lon="-1.85318">
        <ele>13</ele>
        <time>2018-03-10T01:04:47Z</time>
      </trkpt>
      <trkpt lat="46.8077" lon="-1.85293">
        <ele>13</ele>
        <time>2018-03-10T01:05:47Z</time>
      </trkpt>
      <trkpt lat="46.80769" lon="-1.85273">
        <ele>13</ele>
        <time>2018-03-10T01:06:47Z</time>
      </trkpt>
      <trkpt lat="46.80767" lon="-1.85256">
        <ele>14</ele>
        <time>2018-03-10T01:07:47Z</time>
      </trkpt>
      <trkpt lat="46.80765" lon="-1.8524">
        <ele>14</ele>
        <time>2018-03-10T01:08:47Z</time>
      </trkpt>
      <trkpt lat="46.80759" lon="-1.85203">
        <ele>15</ele>
        <time>2018-03-10T01:09:47Z</time>
      </trkpt>
      <trkpt lat="46.80758" lon="-1.85198">
        <ele>15</ele>
        <time>2018-03-10T01:10:47Z</time>
      </trkpt>
      <trkpt lat="46.80756" lon="-1.85185">
        <ele>15</ele>
        <time>2018-03-10T01:11:47Z</time>
      </trkpt>
      <trkpt lat="46.80756" lon="-1.8517">
        <ele>16</ele>
        <time>2018-03-10T01:12:47Z</time>
      </trkpt>
      <trkpt lat="46.80755" lon="-1.85145">
        <ele>15</ele>
        <time>2018-03-10T01:13:47Z</time>
      </trkpt>
      <trkpt lat="46.80754" lon="-1.85082">
        <ele>14</ele>
        <time>2018-03-10T01:14:47Z</time>
      </trkpt>
      <trkpt lat="46.80753" lon="-1.85008">
        <ele>14</ele>
        <time>2018-03-10T01:15:47Z</time>
      </trkpt>
      <trkpt lat="46.80754" lon="-1.84928">
        <ele>15</ele>
        <time>2018-03-10T01:16:47Z</time>
      </trkpt>
      <trkpt lat="46.80754" lon="-1.84913">
        <ele>15</ele>
        <time>2018-03-10T01:17:47Z</time>
      </trkpt>
      <trkpt lat="46.80755" lon="-1.84876">
        <ele>17</ele>
        <time>2018-03-10T01:18:47Z</time>
      </trkpt>
      <trkpt lat="46.80757" lon="-1.84842">
        <ele>19</ele>
        <time>2018-03-10T01:19:47Z</time>
      </trkpt>
      <trkpt lat="46.80759" lon="-1.84802">
        <ele>19</ele>
        <time>2018-03-10T01:20:47Z</time>
      </trkpt>
      <trkpt lat="46.80762" lon="-1.84757">
        <ele>19</ele>
        <time>2018-03-10T01:21:47Z</time>
      </trkpt>
      <trkpt lat="46.80765" lon="-1.84701">
        <ele>16</ele>
        <time>2018-03-10T01:22:47Z</time>
      </trkpt>
      <trkpt lat="46.8077" lon="-1.84641">
        <ele>15</ele>
        <time>2018-03-10T01:23:47Z</time>
      </trkpt>
      <trkpt lat="46.80773" lon="-1.84589">
        <ele>16</ele>
        <time>2018-03-10T01:24:47Z</time>
      </trkpt>
      <trkpt lat="46.80775" lon="-1.84574">
        <ele>16</ele>
        <time>2018-03-10T01:25:47Z</time>
      </trkpt>
      <trkpt lat="46.80776" lon="-1.84565">
        <ele>17</ele>
        <time>2018-03-10T01:26:47Z</time>
      </trkpt>
      <trkpt lat="46.8078" lon="-1.84546">
        <ele>17</ele>
        <time>2018-03-10T01:27:47Z</time>
      </trkpt>
      <trkpt lat="46.80783" lon="-1.84535">
        <ele>17</ele>
        <time>2018-03-10T01:28:47Z</time>
      </trkpt>
      <trkpt lat="46.80788" lon="-1.84519">
        <ele>17</ele>
        <time>2018-03-10T01:29:47Z</time>
      </trkpt>
      <trkpt lat="46.80795" lon="-1.84503">
        <ele>18</ele>
        <time>2018-03-10T01:30:47Z</time>
      </trkpt>
      <trkpt lat="46.80804" lon="-1.8448">
        <ele>18</ele>
        <time>2018-03-10T01:31:47Z</time>
      </trkpt>
      <trkpt lat="46.80819" lon="-1.84439">
        <ele>18</ele>
        <time>2018-03-10T01:32:47Z</time>
      </trkpt>
      <trkpt lat="46.80841" lon="-1.84385">
        <ele>19</ele>
        <time>2018-03-10T01:33:47Z</time>
      </trkpt>
      <trkpt lat="46.80866" lon="-1.84325">
        <ele>18</ele>
        <time>2018-03-10T01:34:47Z</time>
      </trkpt>
      <trkpt lat="46.80879" lon="-1.84292">
        <ele>18</ele>
        <time>2018-03-10T01:35:47Z</time>
      </trkpt>
      <trkpt lat="46.80891" lon="-1.84263">
        <ele>18</ele>
        <time>2018-03-10T01:36:47Z</time>
      </trkpt>
      <trkpt lat="46.80893" lon="-1.84256">
        <ele>17</ele>
        <time>2018-03-10T01:37:47Z</time>
      </trkpt>
      <trkpt lat="46.80904" lon="-1.84227">
        <ele>18</ele>
        <time>2018-03-10T01:38:47Z</time>
      </trkpt>
      <trkpt lat="46.8091" lon="-1.84211">
        <ele>18</ele>
        <time>2018-03-10T01:39:47Z</time>
      </trkpt>
      <trkpt lat="46.80914" lon="-1.84196">
        <ele>18</ele>
        <time>2018-03-10T01:40:47Z</time>
      </trkpt>
      <trkpt lat="46.80918" lon="-1.84181">
        <ele>18</ele>
        <time>2018-03-10T01:41:47Z</time>
      </trkpt>
      <trkpt lat="46.80923" lon="-1.84158">
        <ele>18</ele>
        <time>2018-03-10T01:42:47Z</time>
      </trkpt>
      <trkpt lat="46.80928" lon="-1.84136">
        <ele>18</ele>
        <time>2018-03-10T01:43:47Z</time>
      </trkpt>
      <trkpt lat="46.80928" lon="-1.84136">
        <ele>18</ele>
        <time>2018-03-10T01:44:47Z</time>
      </trkpt>
      <trkpt lat="46.8087" lon="-1.84093">
        <ele>19</ele>
        <time>2018-03-10T01:45:47Z</time>
      </trkpt>
      <trkpt lat="46.80869" lon="-1.84092">
        <ele>19</ele>
        <time>2018-03-10T01:46:47Z</time>
      </trkpt>
      <trkpt lat="46.80833" lon="-1.84066">
        <ele>19</ele>
        <time>2018-03-10T01:47:47Z</time>
      </trkpt>
      <trkpt lat="46.80769" lon="-1.84018">
        <ele>19</ele>
        <time>2018-03-10T01:48:47Z</time>
      </trkpt>
      <trkpt lat="46.80695" lon="-1.83961">
        <ele>19</ele>
        <time>2018-03-10T01:49:47Z</time>
      </trkpt>
      <trkpt lat="46.80661" lon="-1.83938">
        <ele>19</ele>
        <time>2018-03-10T01:50:47Z</time>
      </trkpt>
      <trkpt lat="46.80639" lon="-1.83922">
        <ele>19</ele>
        <time>2018-03-10T01:51:47Z</time>
      </trkpt>
      <trkpt lat="46.80628" lon="-1.83915">
        <ele>19</ele>
        <time>2018-03-10T01:52:47Z</time>
      </trkpt>
      <trkpt lat="46.80603" lon="-1.83901">
        <ele>19</ele>
        <time>2018-03-10T01:53:47Z</time>
      </trkpt>
      <trkpt lat="46.80583" lon="-1.83893">
        <ele>19</ele>
        <time>2018-03-10T01:54:47Z</time>
      </trkpt>
      <trkpt lat="46.80563" lon="-1.83887">
        <ele>19</ele>
        <time>2018-03-10T01:55:47Z</time>
      </trkpt>
      <trkpt lat="46.80535" lon="-1.83879">
        <ele>20</ele>
        <time>2018-03-10T01:56:47Z</time>
      </trkpt>
      <trkpt lat="46.8048" lon="-1.8386">
        <ele>19</ele>
        <time>2018-03-10T01:57:47Z</time>
      </trkpt>
      <trkpt lat="46.80435" lon="-1.83849">
        <ele>18</ele>
        <time>2018-03-10T01:58:47Z</time>
      </trkpt>
      <trkpt lat="46.80419" lon="-1.83844">
        <ele>18</ele>
        <time>2018-03-10T01:59:47Z</time>
      </trkpt>
      <trkpt lat="46.80378" lon="-1.83831">
        <ele>18</ele>
        <time>2018-03-10T02:00:47Z</time>
      </trkpt>
      <trkpt lat="46.80366" lon="-1.83829">
        <ele>17</ele>
        <time>2018-03-10T02:01:47Z</time>
      </trkpt>
      <trkpt lat="46.8033" lon="-1.83817">
        <ele>17</ele>
        <time>2018-03-10T02:02:47Z</time>
      </trkpt>
      <trkpt lat="46.8028" lon="-1.838">
        <ele>19</ele>
        <time>2018-03-10T02:03:47Z</time>
      </trkpt>
      <trkpt lat="46.80233" lon="-1.83788">
        <ele>20</ele>
        <time>2018-03-10T02:04:47Z</time>
      </trkpt>
      <trkpt lat="46.80221" lon="-1.83783">
        <ele>20</ele>
        <time>2018-03-10T02:05:47Z</time>
      </trkpt>
      <trkpt lat="46.80161" lon="-1.83765">
        <ele>20</ele>
        <time>2018-03-10T02:06:47Z</time>
      </trkpt>
      <trkpt lat="46.80134" lon="-1.83757">
        <ele>20</ele>
        <time>2018-03-10T02:07:47Z</time>
      </trkpt>
      <trkpt lat="46.8008" lon="-1.83741">
        <ele>19</ele>
        <time>2018-03-10T02:08:47Z</time>
      </trkpt>
      <trkpt lat="46.80049" lon="-1.83731">
        <ele>20</ele>
        <time>2018-03-10T02:09:47Z</time>
      </trkpt>
      <trkpt lat="46.80032" lon="-1.83727">
        <ele>20</ele>
        <time>2018-03-10T02:10:47Z</time>
      </trkpt>
      <trkpt lat="46.79995" lon="-1.83716">
        <ele>20</ele>
        <time>2018-03-10T02:11:47Z</time>
      </trkpt>
      <trkpt lat="46.79973" lon="-1.83709">
        <ele>21</ele>
        <time>2018-03-10T02:12:47Z</time>
      </trkpt>
      <trkpt lat="46.79934" lon="-1.83697">
        <ele>22</ele>
        <time>2018-03-10T02:13:47Z</time>
      </trkpt>
      <trkpt lat="46.79897" lon="-1.83686">
        <ele>22</ele>
        <time>2018-03-10T02:14:47Z</time>
      </trkpt>
      <trkpt lat="46.7986" lon="-1.83675">
        <ele>22</ele>
        <time>2018-03-10T02:15:47Z</time>
      </trkpt>
      <trkpt lat="46.79824" lon="-1.83664">
        <ele>21</ele>
        <time>2018-03-10T02:16:47Z</time>
      </trkpt>
      <trkpt lat="46.79806" lon="-1.83658">
        <ele>21</ele>
        <time>2018-03-10T02:17:47Z</time>
      </trkpt>
      <trkpt lat="46.79786" lon="-1.83653">
        <ele>21</ele>
        <time>2018-03-10T02:18:47Z</time>
      </trkpt>
      <trkpt lat="46.7974" lon="-1.83639">
        <ele>21</ele>
        <time>2018-03-10T02:19:47Z</time>
      </trkpt>
      <trkpt lat="46.7968" lon="-1.8362">
        <ele>21</ele>
        <time>2018-03-10T02:20:47Z</time>
      </trkpt>
      <trkpt lat="46.79624" lon="-1.83604">
        <ele>21</ele>
        <time>2018-03-10T02:21:47Z</time>
      </trkpt>
      <trkpt lat="46.79586" lon="-1.83593">
        <ele>21</ele>
        <time>2018-03-10T02:22:47Z</time>
      </trkpt>
      <trkpt lat="46.7954" lon="-1.83578">
        <ele>21</ele>
        <time>2018-03-10T02:23:47Z</time>
      </trkpt>
      <trkpt lat="46.79481" lon="-1.83561">
        <ele>21</ele>
        <time>2018-03-10T02:24:47Z</time>
      </trkpt>
      <trkpt lat="46.79469" lon="-1.83557">
        <ele>21</ele>
        <time>2018-03-10T02:25:47Z</time>
      </trkpt>
      <trkpt lat="46.79445" lon="-1.8355">
        <ele>21</ele>
        <time>2018-03-10T02:26:47Z</time>
      </trkpt>
      <trkpt lat="46.79415" lon="-1.83541">
        <ele>21</ele>
        <time>2018-03-10T02:27:47Z</time>
      </trkpt>
      <trkpt lat="46.79396" lon="-1.83535">
        <ele>21</ele>
        <time>2018-03-10T02:28:47Z</time>
      </trkpt>
      <trkpt lat="46.79384" lon="-1.8353">
        <ele>21</ele>
        <time>2018-03-10T02:29:47Z</time>
      </trkpt>
      <trkpt lat="46.79375" lon="-1.83526">
        <ele>21</ele>
        <time>2018-03-10T02:30:47Z</time>
      </trkpt>
      <trkpt lat="46.79366" lon="-1.83521">
        <ele>21</ele>
        <time>2018-03-10T02:31:47Z</time>
      </trkpt>
      <trkpt lat="46.7936" lon="-1.83517">
        <ele>21</ele>
        <time>2018-03-10T02:32:47Z</time>
      </trkpt>
      <trkpt lat="46.79347" lon="-1.83506">
        <ele>21</ele>
        <time>2018-03-10T02:33:47Z</time>
      </trkpt>
      <trkpt lat="46.79341" lon="-1.83501">
        <ele>21</ele>
        <time>2018-03-10T02:34:47Z</time>
      </trkpt>
      <trkpt lat="46.79323" lon="-1.83485">
        <ele>21</ele>
        <time>2018-03-10T02:35:47Z</time>
      </trkpt>
      <trkpt lat="46.79303" lon="-1.83473">
        <ele>21</ele>
        <time>2018-03-10T02:36:47Z</time>
      </trkpt>
      <trkpt lat="46.79291" lon="-1.83465">
        <ele>21</ele>
        <time>2018-03-10T02:37:47Z</time>
      </trkpt>
      <trkpt lat="46.7928" lon="-1.83455">
        <ele>21</ele>
        <time>2018-03-10T02:38:47Z</time>
      </trkpt>
      <trkpt lat="46.79273" lon="-1.83448">
        <ele>21</ele>
        <time>2018-03-10T02:39:47Z</time>
      </trkpt>
      <trkpt lat="46.79269" lon="-1.83442">
        <ele>21</ele>
        <time>2018-03-10T02:40:47Z</time>
      </trkpt>
      <trkpt lat="46.79262" lon="-1.83434">
        <ele>21</ele>
        <time>2018-03-10T02:41:47Z</time>
      </trkpt>
      <trkpt lat="46.79259" lon="-1.83429">
        <ele>22</ele>
        <time>2018-03-10T02:42:47Z</time>
      </trkpt>
      <trkpt lat="46.79257" lon="-1.83426">
        <ele>22</ele>
        <time>2018-03-10T02:43:47Z</time>
      </trkpt>
      <trkpt lat="46.79254" lon="-1.83422">
        <ele>22</ele>
        <time>2018-03-10T02:44:47Z</time>
      </trkpt>
      <trkpt lat="46.79249" lon="-1.83416">
        <ele>22</ele>
        <time>2018-03-10T02:45:47Z</time>
      </trkpt>
      <trkpt lat="46.79244" lon="-1.8341">
        <ele>22</ele>
        <time>2018-03-10T02:46:47Z</time>
      </trkpt>
      <trkpt lat="46.79237" lon="-1.83405">
        <ele>21</ele>
        <time>2018-03-10T02:47:47Z</time>
      </trkpt>
      <trkpt lat="46.79225" lon="-1.83399">
        <ele>21</ele>
        <time>2018-03-10T02:48:47Z</time>
      </trkpt>
      <trkpt lat="46.79214" lon="-1.83397">
        <ele>20</ele>
        <time>2018-03-10T02:49:47Z</time>
      </trkpt>
      <trkpt lat="46.79203" lon="-1.83394">
        <ele>19</ele>
        <time>2018-03-10T02:50:47Z</time>
      </trkpt>
      <trkpt lat="46.7919" lon="-1.83392">
        <ele>19</ele>
        <time>2018-03-10T02:51:47Z</time>
      </trkpt>
      <trkpt lat="46.79141" lon="-1.83385">
        <ele>16</ele>
        <time>2018-03-10T02:52:47Z</time>
      </trkpt>
      <trkpt lat="46.79112" lon="-1.83379">
        <ele>14</ele>
        <time>2018-03-10T02:53:47Z</time>
      </trkpt>
      <trkpt lat="46.7909" lon="-1.83376">
        <ele>13</ele>
        <time>2018-03-10T02:54:47Z</time>
      </trkpt>
      <trkpt lat="46.79089" lon="-1.83376">
        <ele>13</ele>
        <time>2018-03-10T02:55:47Z</time>
      </trkpt>
      <trkpt lat="46.7906" lon="-1.8337">
        <ele>14</ele>
        <time>2018-03-10T02:56:47Z</time>
      </trkpt>
      <trkpt lat="46.79005" lon="-1.83359">
        <ele>17</ele>
        <time>2018-03-10T02:57:47Z</time>
      </trkpt>
      <trkpt lat="46.78977" lon="-1.83352">
        <ele>18</ele>
        <time>2018-03-10T02:58:47Z</time>
      </trkpt>
      <trkpt lat="46.7896" lon="-1.83347">
        <ele>19</ele>
        <time>2018-03-10T02:59:47Z</time>
      </trkpt>
      <trkpt lat="46.78936" lon="-1.83339">
        <ele>19</ele>
        <time>2018-03-10T03:00:47Z</time>
      </trkpt>
      <trkpt lat="46.78913" lon="-1.83328">
        <ele>20</ele>
        <time>2018-03-10T03:01:47Z</time>
      </trkpt>
      <trkpt lat="46.789" lon="-1.8332">
        <ele>20</ele>
        <time>2018-03-10T03:02:47Z</time>
      </trkpt>
      <trkpt lat="46.78888" lon="-1.83311">
        <ele>20</ele>
        <time>2018-03-10T03:03:47Z</time>
      </trkpt>
      <trkpt lat="46.78866" lon="-1.83293">
        <ele>21</ele>
        <time>2018-03-10T03:04:47Z</time>
      </trkpt>
      <trkpt lat="46.78856" lon="-1.83285">
        <ele>21</ele>
        <time>2018-03-10T03:05:47Z</time>
      </trkpt>
      <trkpt lat="46.78849" lon="-1.83279">
        <ele>21</ele>
        <time>2018-03-10T03:06:47Z</time>
      </trkpt>
      <trkpt lat="46.78841" lon="-1.83276">
        <ele>21</ele>
        <time>2018-03-10T03:07:47Z</time>
      </trkpt>
      <trkpt lat="46.78834" lon="-1.83274">
        <ele>21</ele>
        <time>2018-03-10T03:08:47Z</time>
      </trkpt>
      <trkpt lat="46.7882" lon="-1.83273">
        <ele>21</ele>
        <time>2018-03-10T03:09:47Z</time>
      </trkpt>
      <trkpt lat="46.78804" lon="-1.83272">
        <ele>21</ele>
        <time>2018-03-10T03:10:47Z</time>
      </trkpt>
      <trkpt lat="46.78796" lon="-1.83271">
        <ele>22</ele>
        <time>2018-03-10T03:11:47Z</time>
      </trkpt>
      <trkpt lat="46.78796" lon="-1.83271">
        <ele>22</ele>
        <time>2018-03-10T03:12:47Z</time>
      </trkpt>
      <trkpt lat="46.78794" lon="-1.8327">
        <ele>22</ele>
        <time>2018-03-10T03:13:47Z</time>
      </trkpt>
      <trkpt lat="46.78783" lon="-1.83265">
        <ele>22</ele>
        <time>2018-03-10T03:14:47Z</time>
      </trkpt>
      <trkpt lat="46.78742" lon="-1.83245">
        <ele>22</ele>
        <time>2018-03-10T03:15:47Z</time>
      </trkpt>
      <trkpt lat="46.78681" lon="-1.83213">
        <ele>23</ele>
        <time>2018-03-10T03:16:47Z</time>
      </trkpt>
      <trkpt lat="46.78655" lon="-1.83199">
        <ele>23</ele>
        <time>2018-03-10T03:17:47Z</time>
      </trkpt>
      <trkpt lat="46.78643" lon="-1.83193">
        <ele>23</ele>
        <time>2018-03-10T03:18:47Z</time>
      </trkpt>
      <trkpt lat="46.78642" lon="-1.83193">
        <ele>23</ele>
        <time>2018-03-10T03:19:47Z</time>
      </trkpt>
      <trkpt lat="46.78632" lon="-1.83188">
        <ele>23</ele>
        <time>2018-03-10T03:20:47Z</time>
      </trkpt>
      <trkpt lat="46.78618" lon="-1.83181">
        <ele>23</ele>
        <time>2018-03-10T03:21:47Z</time>
      </trkpt>
      <trkpt lat="46.78607" lon="-1.83177">
        <ele>23</ele>
        <time>2018-03-10T03:22:47Z</time>
      </trkpt>
      <trkpt lat="46.78596" lon="-1.83174">
        <ele>23</ele>
        <time>2018-03-10T03:23:47Z</time>
      </trkpt>
      <trkpt lat="46.78585" lon="-1.83171">
        <ele>23</ele>
        <time>2018-03-10T03:24:47Z</time>
      </trkpt>
      <trkpt lat="46.78558" lon="-1.83163">
        <ele>24</ele>
        <time>2018-03-10T03:25:47Z</time>
      </trkpt>
      <trkpt lat="46.78487" lon="-1.83144">
        <ele>26</ele>
        <time>2018-03-10T03:26:47Z</time>
      </trkpt>
      <trkpt lat="46.78418" lon="-1.83126">
        <ele>27</ele>
        <time>2018-03-10T03:27:47Z</time>
      </trkpt>
      <trkpt lat="46.78381" lon="-1.83116">
        <ele>27</ele>
        <time>2018-03-10T03:28:47Z</time>
      </trkpt>
      <trkpt lat="46.7836" lon="-1.83111">
        <ele>27</ele>
        <time>2018-03-10T03:29:47Z</time>
      </trkpt>
      <trkpt lat="46.78348" lon="-1.83108">
        <ele>27</ele>
        <time>2018-03-10T03:30:47Z</time>
      </trkpt>
      <trkpt lat="46.7834" lon="-1.83107">
        <ele>27</ele>
        <time>2018-03-10T03:31:47Z</time>
      </trkpt>
      <trkpt lat="46.78331" lon="-1.83107">
        <ele>27</ele>
        <time>2018-03-10T03:32:47Z</time>
      </trkpt>
      <trkpt lat="46.78314" lon="-1.83106">
        <ele>27</ele>
        <time>2018-03-10T03:33:47Z</time>
      </trkpt>
      <trkpt lat="46.78314" lon="-1.83106">
        <ele>27</ele>
        <time>2018-03-10T03:34:47Z</time>
      </trkpt>
      <trkpt lat="46.78284" lon="-1.83106">
        <ele>27</ele>
        <time>2018-03-10T03:35:47Z</time>
      </trkpt>
      <trkpt lat="46.78251" lon="-1.83105">
        <ele>27</ele>
        <time>2018-03-10T03:36:47Z</time>
      </trkpt>
      <trkpt lat="46.78236" lon="-1.83104">
        <ele>27</ele>
        <time>2018-03-10T03:37:47Z</time>
      </trkpt>
      <trkpt lat="46.78226" lon="-1.83101">
        <ele>27</ele>
        <time>2018-03-10T03:38:47Z</time>
      </trkpt>
      <trkpt lat="46.78219" lon="-1.83096">
        <ele>27</ele>
        <time>2018-03-10T03:39:47Z</time>
      </trkpt>
      <trkpt lat="46.78211" lon="-1.83089">
        <ele>26</ele>
        <time>2018-03-10T03:40:47Z</time>
      </trkpt>
      <trkpt lat="46.78203" lon="-1.83077">
        <ele>27</ele>
        <time>2018-03-10T03:41:47Z</time>
      </trkpt>
      <trkpt lat="46.78168" lon="-1.83018">
        <ele>27</ele>
        <time>2018-03-10T03:42:47Z</time>
      </trkpt>
      <trkpt lat="46.78152" lon="-1.82991">
        <ele>27</ele>
        <time>2018-03-10T03:43:47Z</time>
      </trkpt>
      <trkpt lat="46.78142" lon="-1.82979">
        <ele>27</ele>
        <time>2018-03-10T03:44:47Z</time>
      </trkpt>
      <trkpt lat="46.78133" lon="-1.82984">
        <ele>27</ele>
        <time>2018-03-10T03:45:47Z</time>
      </trkpt>
      <trkpt lat="46.78113" lon="-1.82996">
        <ele>26</ele>
        <time>2018-03-10T03:46:47Z</time>
      </trkpt>
      <trkpt lat="46.7811" lon="-1.82998">
        <ele>26</ele>
        <time>2018-03-10T03:47:47Z</time>
      </trkpt>
      <trkpt lat="46.78095" lon="-1.83009">
        <ele>26</ele>
        <time>2018-03-10T03:48:47Z</time>
      </trkpt>
      <trkpt lat="46.78094" lon="-1.83011">
        <ele>26</ele>
        <time>2018-03-10T03:49:47Z</time>
      </trkpt>
      <trkpt lat="46.78094" lon="-1.83011">
        <ele>26</ele>
        <time>2018-03-10T03:50:47Z</time>
      </trkpt>
      <trkpt lat="46.78072" lon="-1.83027">
        <ele>25</ele>
        <time>2018-03-10T03:51:47Z</time>
      </trkpt>
      <trkpt lat="46.78045" lon="-1.83048">
        <ele>24</ele>
        <time>2018-03-10T03:52:47Z</time>
      </trkpt>
      <trkpt lat="46.77994" lon="-1.83087">
        <ele>22</ele>
        <time>2018-03-10T03:53:47Z</time>
      </trkpt>
      <trkpt lat="46.77978" lon="-1.83099">
        <ele>21</ele>
        <time>2018-03-10T03:54:47Z</time>
      </trkpt>
      <trkpt lat="46.77968" lon="-1.83105">
        <ele>21</ele>
        <time>2018-03-10T03:55:47Z</time>
      </trkpt>
      <trkpt lat="46.77958" lon="-1.8311">
        <ele>21</ele>
        <time>2018-03-10T03:56:47Z</time>
      </trkpt>
      <trkpt lat="46.77944" lon="-1.83114">
        <ele>21</ele>
        <time>2018-03-10T03:57:47Z</time>
      </trkpt>
      <trkpt lat="46.77925" lon="-1.83117">
        <ele>21</ele>
        <time>2018-03-10T03:58:47Z</time>
      </trkpt>
      <trkpt lat="46.779" lon="-1.8312">
        <ele>21</ele>
        <time>2018-03-10T03:59:47Z</time>
      </trkpt>
      <trkpt lat="46.77869" lon="-1.83123">
        <ele>21</ele>
        <time>2018-03-10T04:00:47Z</time>
      </trkpt>
      <trkpt lat="46.77869" lon="-1.83123">
        <ele>21</ele>
        <time>2018-03-10T04:01:47Z</time>
      </trkpt>
      <trkpt lat="46.77811" lon="-1.83128">
        <ele>22</ele>
        <time>2018-03-10T04:02:47Z</time>
      </trkpt>
      <trkpt lat="46.77764" lon="-1.83133">
        <ele>23</ele>
        <time>2018-03-10T04:03:47Z</time>
      </trkpt>
      <trkpt lat="46.77729" lon="-1.83137">
        <ele>24</ele>
        <time>2018-03-10T04:04:47Z</time>
      </trkpt>
      <trkpt lat="46.77698" lon="-1.83141">
        <ele>25</ele>
        <time>2018-03-10T04:05:47Z</time>
      </trkpt>
      <trkpt lat="46.77665" lon="-1.83144">
        <ele>26</ele>
        <time>2018-03-10T04:06:47Z</time>
      </trkpt>
      <trkpt lat="46.77644" lon="-1.83146">
        <ele>26</ele>
        <time>2018-03-10T04:07:47Z</time>
      </trkpt>
      <trkpt lat="46.77633" lon="-1.83148">
        <ele>26</ele>
        <time>2018-03-10T04:08:47Z</time>
      </trkpt>
      <trkpt lat="46.77624" lon="-1.8315">
        <ele>27</ele>
        <time>2018-03-10T04:09:47Z</time>
      </trkpt>
      <trkpt lat="46.77615" lon="-1.83153">
        <ele>27</ele>
        <time>2018-03-10T04:10:47Z</time>
      </trkpt>
      <trkpt lat="46.77608" lon="-1.83157">
        <ele>27</ele>
        <time>2018-03-10T04:11:47Z</time>
      </trkpt>
      <trkpt lat="46.776" lon="-1.83162">
        <ele>27</ele>
        <time>2018-03-10T04:12:47Z</time>
      </trkpt>
      <trkpt lat="46.77592" lon="-1.83169">
        <ele>27</ele>
        <time>2018-03-10T04:13:47Z</time>
      </trkpt>
      <trkpt lat="46.77573" lon="-1.83185">
        <ele>27</ele>
        <time>2018-03-10T04:14:47Z</time>
      </trkpt>
      <trkpt lat="46.77565" lon="-1.83191">
        <ele>27</ele>
        <time>2018-03-10T04:15:47Z</time>
      </trkpt>
      <trkpt lat="46.77556" lon="-1.83196">
        <ele>27</ele>
        <time>2018-03-10T04:16:47Z</time>
      </trkpt>
      <trkpt lat="46.77544" lon="-1.83202">
        <ele>27</ele>
        <time>2018-03-10T04:17:47Z</time>
      </trkpt>
      <trkpt lat="46.77523" lon="-1.83209">
        <ele>28</ele>
        <time>2018-03-10T04:18:47Z</time>
      </trkpt>
      <trkpt lat="46.77496" lon="-1.83219">
        <ele>28</ele>
        <time>2018-03-10T04:19:47Z</time>
      </trkpt>
      <trkpt lat="46.77468" lon="-1.83229">
        <ele>27</ele>
        <time>2018-03-10T04:20:47Z</time>
      </trkpt>
      <trkpt lat="46.7744" lon="-1.83239">
        <ele>27</ele>
        <time>2018-03-10T04:21:47Z</time>
      </trkpt>
      <trkpt lat="46.77416" lon="-1.83247">
        <ele>27</ele>
        <time>2018-03-10T04:22:47Z</time>
      </trkpt>
      <trkpt lat="46.77404" lon="-1.8325">
        <ele>27</ele>
        <time>2018-03-10T04:23:47Z</time>
      </trkpt>
      <trkpt lat="46.77395" lon="-1.83249">
        <ele>27</ele>
        <time>2018-03-10T04:24:47Z</time>
      </trkpt>
      <trkpt lat="46.77383" lon="-1.83247">
        <ele>27</ele>
        <time>2018-03-10T04:25:47Z</time>
      </trkpt>
      <trkpt lat="46.77371" lon="-1.83243">
        <ele>28</ele>
        <time>2018-03-10T04:26:47Z</time>
      </trkpt>
      <trkpt lat="46.77359" lon="-1.83241">
        <ele>28</ele>
        <time>2018-03-10T04:27:47Z</time>
      </trkpt>
      <trkpt lat="46.77358" lon="-1.83241">
        <ele>28</ele>
        <time>2018-03-10T04:28:47Z</time>
      </trkpt>
      <trkpt lat="46.77348" lon="-1.8324">
        <ele>28</ele>
        <time>2018-03-10T04:29:47Z</time>
      </trkpt>
      <trkpt lat="46.77339" lon="-1.83241">
        <ele>28</ele>
        <time>2018-03-10T04:30:47Z</time>
      </trkpt>
      <trkpt lat="46.77321" lon="-1.83242">
        <ele>28</ele>
        <time>2018-03-10T04:31:47Z</time>
      </trkpt>
      <trkpt lat="46.77304" lon="-1.83244">
        <ele>28</ele>
        <time>2018-03-10T04:32:47Z</time>
      </trkpt>
      <trkpt lat="46.77285" lon="-1.83248">
        <ele>27</ele>
        <time>2018-03-10T04:33:47Z</time>
      </trkpt>
      <trkpt lat="46.77271" lon="-1.83249">
        <ele>27</ele>
        <time>2018-03-10T04:34:47Z</time>
      </trkpt>
      <trkpt lat="46.77252" lon="-1.83248">
        <ele>27</ele>
        <time>2018-03-10T04:35:47Z</time>
      </trkpt>
      <trkpt lat="46.77236" lon="-1.83247">
        <ele>27</ele>
        <time>2018-03-10T04:36:47Z</time>
      </trkpt>
      <trkpt lat="46.77223" lon="-1.83247">
        <ele>27</ele>
        <time>2018-03-10T04:37:47Z</time>
      </trkpt>
      <trkpt lat="46.77211" lon="-1.83248">
        <ele>27</ele>
        <time>2018-03-10T04:38:47Z</time>
      </trkpt>
      <trkpt lat="46.77193" lon="-1.83253">
        <ele>27</ele>
        <time>2018-03-10T04:39:47Z</time>
      </trkpt>
      <trkpt lat="46.77168" lon="-1.83261">
        <ele>27</ele>
        <time>2018-03-10T04:40:47Z</time>
      </trkpt>
      <trkpt lat="46.77139" lon="-1.83272">
        <ele>27</ele>
        <time>2018-03-10T04:41:47Z</time>
      </trkpt>
      <trkpt lat="46.77125" lon="-1.83277">
        <ele>26</ele>
        <time>2018-03-10T04:42:47Z</time>
      </trkpt>
      <trkpt lat="46.77114" lon="-1.83281">
        <ele>26</ele>
        <time>2018-03-10T04:43:47Z</time>
      </trkpt>
      <trkpt lat="46.77105" lon="-1.83285">
        <ele>26</ele>
        <time>2018-03-10T04:44:47Z</time>
      </trkpt>
      <trkpt lat="46.77098" lon="-1.83289">
        <ele>25</ele>
        <time>2018-03-10T04:45:47Z</time>
      </trkpt>
      <trkpt lat="46.7709" lon="-1.83294">
        <ele>25</ele>
        <time>2018-03-10T04:46:47Z</time>
      </trkpt>
      <trkpt lat="46.77083" lon="-1.83301">
        <ele>25</ele>
        <time>2018-03-10T04:47:47Z</time>
      </trkpt>
      <trkpt lat="46.77078" lon="-1.83306">
        <ele>25</ele>
        <time>2018-03-10T04:48:47Z</time>
      </trkpt>
      <trkpt lat="46.77072" lon="-1.83311">
        <ele>25</ele>
        <time>2018-03-10T04:49:47Z</time>
      </trkpt>
      <trkpt lat="46.77054" lon="-1.83332">
        <ele>24</ele>
        <time>2018-03-10T04:50:47Z</time>
      </trkpt>
      <trkpt lat="46.77039" lon="-1.83351">
        <ele>24</ele>
        <time>2018-03-10T04:51:47Z</time>
      </trkpt>
      <trkpt lat="46.77025" lon="-1.83367">
        <ele>24</ele>
        <time>2018-03-10T04:52:47Z</time>
      </trkpt>
      <trkpt lat="46.77018" lon="-1.83375">
        <ele>24</ele>
        <time>2018-03-10T04:53:47Z</time>
      </trkpt>
      <trkpt lat="46.7701" lon="-1.83382">
        <ele>23</ele>
        <time>2018-03-10T04:54:47Z</time>
      </trkpt>
      <trkpt lat="46.77" lon="-1.83389">
        <ele>23</ele>
        <time>2018-03-10T04:55:47Z</time>
      </trkpt>
      <trkpt lat="46.76986" lon="-1.83398">
        <ele>22</ele>
        <time>2018-03-10T04:56:47Z</time>
      </trkpt>
      <trkpt lat="46.76979" lon="-1.83403">
        <ele>22</ele>
        <time>2018-03-10T04:57:47Z</time>
      </trkpt>
      <trkpt lat="46.76961" lon="-1.83413">
        <ele>22</ele>
        <time>2018-03-10T04:58:47Z</time>
      </trkpt>
      <trkpt lat="46.76926" lon="-1.83434">
        <ele>20</ele>
        <time>2018-03-10T04:59:47Z</time>
      </trkpt>
      <trkpt lat="46.76903" lon="-1.83447">
        <ele>20</ele>
        <time>2018-03-10T05:00:47Z</time>
      </trkpt>
      <trkpt lat="46.76893" lon="-1.83452">
        <ele>20</ele>
        <time>2018-03-10T05:01:47Z</time>
      </trkpt>
      <trkpt lat="46.76884" lon="-1.83455">
        <ele>20</ele>
        <time>2018-03-10T05:02:47Z</time>
      </trkpt>
      <trkpt lat="46.76875" lon="-1.83455">
        <ele>20</ele>
        <time>2018-03-10T05:03:47Z</time>
      </trkpt>
      <trkpt lat="46.76866" lon="-1.83455">
        <ele>20</ele>
        <time>2018-03-10T05:04:47Z</time>
      </trkpt>
      <trkpt lat="46.76862" lon="-1.83454">
        <ele>20</ele>
        <time>2018-03-10T05:05:47Z</time>
      </trkpt>
      <trkpt lat="46.76861" lon="-1.83454">
        <ele>20</ele>
        <time>2018-03-10T05:06:47Z</time>
      </trkpt>
      <trkpt lat="46.7685" lon="-1.8345">
        <ele>20</ele>
        <time>2018-03-10T05:07:47Z</time>
      </trkpt>
      <trkpt lat="46.76836" lon="-1.83445">
        <ele>20</ele>
        <time>2018-03-10T05:08:47Z</time>
      </trkpt>
      <trkpt lat="46.76818" lon="-1.83438">
        <ele>20</ele>
        <time>2018-03-10T05:09:47Z</time>
      </trkpt>
      <trkpt lat="46.76808" lon="-1.83434">
        <ele>20</ele>
        <time>2018-03-10T05:10:47Z</time>
      </trkpt>
      <trkpt lat="46.76797" lon="-1.83429">
        <ele>20</ele>
        <time>2018-03-10T05:11:47Z</time>
      </trkpt>
      <trkpt lat="46.76785" lon="-1.83423">
        <ele>19</ele>
        <time>2018-03-10T05:12:47Z</time>
      </trkpt>
      <trkpt lat="46.76774" lon="-1.83414">
        <ele>19</ele>
        <time>2018-03-10T05:13:47Z</time>
      </trkpt>
      <trkpt lat="46.76755" lon="-1.83402">
        <ele>19</ele>
        <time>2018-03-10T05:14:47Z</time>
      </trkpt>
      <trkpt lat="46.76731" lon="-1.83384">
        <ele>19</ele>
        <time>2018-03-10T05:15:47Z</time>
      </trkpt>
      <trkpt lat="46.76707" lon="-1.83368">
        <ele>19</ele>
        <time>2018-03-10T05:16:47Z</time>
      </trkpt>
      <trkpt lat="46.76707" lon="-1.83368">
        <ele>19</ele>
        <time>2018-03-10T05:17:47Z</time>
      </trkpt>
      <trkpt lat="46.76704" lon="-1.83374">
        <ele>19</ele>
        <time>2018-03-10T05:18:47Z</time>
      </trkpt>
      <trkpt lat="46.76697" lon="-1.83383">
        <ele>19</ele>
        <time>2018-03-10T05:19:47Z</time>
      </trkpt>
      <trkpt lat="46.76689" lon="-1.83393">
        <ele>19</ele>
        <time>2018-03-10T05:20:47Z</time>
      </trkpt>
      <trkpt lat="46.76677" lon="-1.8341">
        <ele>19</ele>
        <time>2018-03-10T05:21:47Z</time>
      </trkpt>
      <trkpt lat="46.7667" lon="-1.83418">
        <ele>19</ele>
        <time>2018-03-10T05:22:47Z</time>
      </trkpt>
      <trkpt lat="46.76662" lon="-1.83427">
        <ele>19</ele>
        <time>2018-03-10T05:23:47Z</time>
      </trkpt>
      <trkpt lat="46.76653" lon="-1.83436">
        <ele>19</ele>
        <time>2018-03-10T05:24:47Z</time>
      </trkpt>
      <trkpt lat="46.76644" lon="-1.83445">
        <ele>19</ele>
        <time>2018-03-10T05:25:47Z</time>
      </trkpt>
      <trkpt lat="46.76636" lon="-1.83452">
        <ele>18</ele>
        <time>2018-03-10T05:26:47Z</time>
      </trkpt>
      <trkpt lat="46.76625" lon="-1.83462">
        <ele>18</ele>
        <time>2018-03-10T05:27:47Z</time>
      </trkpt>
      <trkpt lat="46.76611" lon="-1.83473">
        <ele>18</ele>
        <time>2018-03-10T05:28:47Z</time>
      </trkpt>
      <trkpt lat="46.76595" lon="-1.83484">
        <ele>17</ele>
        <time>2018-03-10T05:29:47Z</time>
      </trkpt>
      <trkpt lat="46.76564" lon="-1.83504">
        <ele>17</ele>
        <time>2018-03-10T05:30:47Z</time>
      </trkpt>
      <trkpt lat="46.76521" lon="-1.8353">
        <ele>16</ele>
        <time>2018-03-10T05:31:47Z</time>
      </trkpt>
      <trkpt lat="46.76482" lon="-1.83552">
        <ele>16</ele>
        <time>2018-03-10T05:32:47Z</time>
      </trkpt>
      <trkpt lat="46.76475" lon="-1.83556">
        <ele>17</ele>
        <time>2018-03-10T05:33:47Z</time>
      </trkpt>
      <trkpt lat="46.76458" lon="-1.83565">
        <ele>17</ele>
        <time>2018-03-10T05:34:47Z</time>
      </trkpt>
      <trkpt lat="46.7645" lon="-1.8357">
        <ele>17</ele>
        <time>2018-03-10T05:35:47Z</time>
      </trkpt>
      <trkpt lat="46.76438" lon="-1.83577">
        <ele>18</ele>
        <time>2018-03-10T05:36:47Z</time>
      </trkpt>
      <trkpt lat="46.7642" lon="-1.83588">
        <ele>18</ele>
        <time>2018-03-10T05:37:47Z</time>
      </trkpt>
      <trkpt lat="46.76395" lon="-1.83603">
        <ele>18</ele>
        <time>2018-03-10T05:38:47Z</time>
      </trkpt>
      <trkpt lat="46.7638" lon="-1.83613">
        <ele>18</ele>
        <time>2018-03-10T05:39:47Z</time>
      </trkpt>
      <trkpt lat="46.76366" lon="-1.83622">
        <ele>18</ele>
        <time>2018-03-10T05:40:47Z</time>
      </trkpt>
      <trkpt lat="46.76356" lon="-1.8363">
        <ele>18</ele>
        <time>2018-03-10T05:41:47Z</time>
      </trkpt>
      <trkpt lat="46.76348" lon="-1.83636">
        <ele>19</ele>
        <time>2018-03-10T05:42:47Z</time>
      </trkpt>
      <trkpt lat="46.76338" lon="-1.83644">
        <ele>19</ele>
        <time>2018-03-10T05:43:47Z</time>
      </trkpt>
      <trkpt lat="46.76327" lon="-1.83652">
        <ele>19</ele>
        <time>2018-03-10T05:44:47Z</time>
      </trkpt>
      <trkpt lat="46.76316" lon="-1.83658">
        <ele>19</ele>
        <time>2018-03-10T05:45:47Z</time>
      </trkpt>
      <trkpt lat="46.76305" lon="-1.83662">
        <ele>19</ele>
        <time>2018-03-10T05:46:47Z</time>
      </trkpt>
      <trkpt lat="46.76292" lon="-1.83667">
        <ele>19</ele>
        <time>2018-03-10T05:47:47Z</time>
      </trkpt>
      <trkpt lat="46.76279" lon="-1.8367">
        <ele>19</ele>
        <time>2018-03-10T05:48:47Z</time>
      </trkpt>
      <trkpt lat="46.7627" lon="-1.83671">
        <ele>19</ele>
        <time>2018-03-10T05:49:47Z</time>
      </trkpt>
      <trkpt lat="46.76263" lon="-1.83671">
        <ele>19</ele>
        <time>2018-03-10T05:50:47Z</time>
      </trkpt>
      <trkpt lat="46.7626" lon="-1.83671">
        <ele>19</ele>
        <time>2018-03-10T05:51:47Z</time>
      </trkpt>
      <trkpt lat="46.76251" lon="-1.83668">
        <ele>19</ele>
        <time>2018-03-10T05:52:47Z</time>
      </trkpt>
      <trkpt lat="46.76247" lon="-1.83667">
        <ele>19</ele>
        <time>2018-03-10T05:53:47Z</time>
      </trkpt>
      <trkpt lat="46.7624" lon="-1.83666">
        <ele>19</ele>
        <time>2018-03-10T05:54:47Z</time>
      </trkpt>
      <trkpt lat="46.76234" lon="-1.83668">
        <ele>19</ele>
        <time>2018-03-10T05:55:47Z</time>
      </trkpt>
      <trkpt lat="46.76226" lon="-1.83672">
        <ele>19</ele>
        <time>2018-03-10T05:56:47Z</time>
      </trkpt>
      <trkpt lat="46.76218" lon="-1.83677">
        <ele>19</ele>
        <time>2018-03-10T05:57:47Z</time>
      </trkpt>
      <trkpt lat="46.76212" lon="-1.83682">
        <ele>19</ele>
        <time>2018-03-10T05:58:47Z</time>
      </trkpt>
      <trkpt lat="46.7621" lon="-1.83684">
        <ele>19</ele>
        <time>2018-03-10T05:59:47Z</time>
      </trkpt>
      <trkpt lat="46.76207" lon="-1.83687">
        <ele>19</ele>
        <time>2018-03-10T06:00:47Z</time>
      </trkpt>
      <trkpt lat="46.762" lon="-1.83696">
        <ele>19</ele>
        <time>2018-03-10T06:01:47Z</time>
      </trkpt>
      <trkpt lat="46.76195" lon="-1.83703">
        <ele>19</ele>
        <time>2018-03-10T06:02:47Z</time>
      </trkpt>
      <trkpt lat="46.76191" lon="-1.8371">
        <ele>19</ele>
        <time>2018-03-10T06:03:47Z</time>
      </trkpt>
      <trkpt lat="46.76186" lon="-1.83718">
        <ele>19</ele>
        <time>2018-03-10T06:04:47Z</time>
      </trkpt>
      <trkpt lat="46.76182" lon="-1.83724">
        <ele>20</ele>
        <time>2018-03-10T06:05:47Z</time>
      </trkpt>
      <trkpt lat="46.76176" lon="-1.8373">
        <ele>20</ele>
        <time>2018-03-10T06:06:47Z</time>
      </trkpt>
      <trkpt lat="46.76168" lon="-1.83736">
        <ele>20</ele>
        <time>2018-03-10T06:07:47Z</time>
      </trkpt>
      <trkpt lat="46.76147" lon="-1.8375">
        <ele>20</ele>
        <time>2018-03-10T06:08:47Z</time>
      </trkpt>
      <trkpt lat="46.76139" lon="-1.83755">
        <ele>20</ele>
        <time>2018-03-10T06:09:47Z</time>
      </trkpt>
      <trkpt lat="46.76134" lon="-1.8376">
        <ele>20</ele>
        <time>2018-03-10T06:10:47Z</time>
      </trkpt>
      <trkpt lat="46.76129" lon="-1.83765">
        <ele>20</ele>
        <time>2018-03-10T06:11:47Z</time>
      </trkpt>
      <trkpt lat="46.76125" lon="-1.8377">
        <ele>20</ele>
        <time>2018-03-10T06:12:47Z</time>
      </trkpt>
      <trkpt lat="46.76119" lon="-1.8378">
        <ele>20</ele>
        <time>2018-03-10T06:13:47Z</time>
      </trkpt>
      <trkpt lat="46.761" lon="-1.83814">
        <ele>21</ele>
        <time>2018-03-10T06:14:47Z</time>
      </trkpt>
      <trkpt lat="46.76084" lon="-1.83843">
        <ele>21</ele>
        <time>2018-03-10T06:15:47Z</time>
      </trkpt>
      <trkpt lat="46.76075" lon="-1.8386">
        <ele>21</ele>
        <time>2018-03-10T06:16:47Z</time>
      </trkpt>
      <trkpt lat="46.76056" lon="-1.83892">
        <ele>21</ele>
        <time>2018-03-10T06:17:47Z</time>
      </trkpt>
      <trkpt lat="46.76054" lon="-1.83896">
        <ele>21</ele>
        <time>2018-03-10T06:18:47Z</time>
      </trkpt>
      <trkpt lat="46.76052" lon="-1.83903">
        <ele>21</ele>
        <time>2018-03-10T06:19:47Z</time>
      </trkpt>
      <trkpt lat="46.76049" lon="-1.83922">
        <ele>21</ele>
        <time>2018-03-10T06:20:47Z</time>
      </trkpt>
      <trkpt lat="46.76049" lon="-1.83928">
        <ele>21</ele>
        <time>2018-03-10T06:21:47Z</time>
      </trkpt>
      <trkpt lat="46.76047" lon="-1.83948">
        <ele>21</ele>
        <time>2018-03-10T06:22:47Z</time>
      </trkpt>
      <trkpt lat="46.76046" lon="-1.83973">
        <ele>21</ele>
        <time>2018-03-10T06:23:47Z</time>
      </trkpt>
      <trkpt lat="46.76046" lon="-1.83993">
        <ele>21</ele>
        <time>2018-03-10T06:24:47Z</time>
      </trkpt>
      <trkpt lat="46.76047" lon="-1.84017">
        <ele>21</ele>
        <time>2018-03-10T06:25:47Z</time>
      </trkpt>
      <trkpt lat="46.76048" lon="-1.84041">
        <ele>21</ele>
        <time>2018-03-10T06:26:47Z</time>
      </trkpt>
      <trkpt lat="46.76049" lon="-1.84068">
        <ele>21</ele>
        <time>2018-03-10T06:27:47Z</time>
      </trkpt>
      <trkpt lat="46.76049" lon="-1.84081">
        <ele>21</ele>
        <time>2018-03-10T06:28:47Z</time>
      </trkpt>
      <trkpt lat="46.76052" lon="-1.84108">
        <ele>21</ele>
        <time>2018-03-10T06:29:47Z</time>
      </trkpt>
      <trkpt lat="46.76058" lon="-1.84162">
        <ele>22</ele>
        <time>2018-03-10T06:30:47Z</time>
      </trkpt>
      <trkpt lat="46.76061" lon="-1.84195">
        <ele>22</ele>
        <time>2018-03-10T06:31:47Z</time>
      </trkpt>
      <trkpt lat="46.76064" lon="-1.84217">
        <ele>22</ele>
        <time>2018-03-10T06:32:47Z</time>
      </trkpt>
      <trkpt lat="46.76065" lon="-1.84236">
        <ele>22</ele>
        <time>2018-03-10T06:33:47Z</time>
      </trkpt>
      <trkpt lat="46.76066" lon="-1.84253">
        <ele>22</ele>
        <time>2018-03-10T06:34:47Z</time>
      </trkpt>
      <trkpt lat="46.76067" lon="-1.84269">
        <ele>21</ele>
        <time>2018-03-10T06:35:47Z</time>
      </trkpt>
      <trkpt lat="46.76068" lon="-1.84286">
        <ele>21</ele>
        <time>2018-03-10T06:36:47Z</time>
      </trkpt>
      <trkpt lat="46.76069" lon="-1.84301">
        <ele>21</ele>
        <time>2018-03-10T06:37:47Z</time>
      </trkpt>
      <trkpt lat="46.7607" lon="-1.84322">
        <ele>21</ele>
        <time>2018-03-10T06:38:47Z</time>
      </trkpt>
      <trkpt lat="46.76073" lon="-1.84343">
        <ele>21</ele>
        <time>2018-03-10T06:39:47Z</time>
      </trkpt>
      <trkpt lat="46.76075" lon="-1.84368">
        <ele>21</ele>
        <time>2018-03-10T06:40:47Z</time>
      </trkpt>
      <trkpt lat="46.76075" lon="-1.84382">
        <ele>21</ele>
        <time>2018-03-10T06:41:47Z</time>
      </trkpt>
      <trkpt lat="46.76075" lon="-1.84402">
        <ele>21</ele>
        <time>2018-03-10T06:42:47Z</time>
      </trkpt>
      <trkpt lat="46.76075" lon="-1.8442">
        <ele>21</ele>
        <time>2018-03-10T06:43:47Z</time>
      </trkpt>
      <trkpt lat="46.76075" lon="-1.84426">
        <ele>21</ele>
        <time>2018-03-10T06:44:47Z</time>
      </trkpt>
      <trkpt lat="46.76074" lon="-1.84436">
        <ele>21</ele>
        <time>2018-03-10T06:45:47Z</time>
      </trkpt>
      <trkpt lat="46.76072" lon="-1.84459">
        <ele>21</ele>
        <time>2018-03-10T06:46:47Z</time>
      </trkpt>
      <trkpt lat="46.7607" lon="-1.84493">
        <ele>20</ele>
        <time>2018-03-10T06:47:47Z</time>
      </trkpt>
      <trkpt lat="46.76068" lon="-1.84511">
        <ele>20</ele>
        <time>2018-03-10T06:48:47Z</time>
      </trkpt>
      <trkpt lat="46.76067" lon="-1.84521">
        <ele>20</ele>
        <time>2018-03-10T06:49:47Z</time>
      </trkpt>
      <trkpt lat="46.76061" lon="-1.84565">
        <ele>21</ele>
        <time>2018-03-10T06:50:47Z</time>
      </trkpt>
      <trkpt lat="46.76054" lon="-1.84612">
        <ele>21</ele>
        <time>2018-03-10T06:51:47Z</time>
      </trkpt>
      <trkpt lat="46.76052" lon="-1.84626">
        <ele>21</ele>
        <time>2018-03-10T06:52:47Z</time>
      </trkpt>
      <trkpt lat="46.7605" lon="-1.84633">
        <ele>21</ele>
        <time>2018-03-10T06:53:47Z</time>
      </trkpt>
      <trkpt lat="46.76049" lon="-1.84639">
        <ele>21</ele>
        <time>2018-03-10T06:54:47Z</time>
      </trkpt>
      <trkpt lat="46.76047" lon="-1.84646">
        <ele>21</ele>
        <time>2018-03-10T06:55:47Z</time>
      </trkpt>
      <trkpt lat="46.76044" lon="-1.84658">
        <ele>21</ele>
        <time>2018-03-10T06:56:47Z</time>
      </trkpt>
      <trkpt lat="46.7604" lon="-1.84672">
        <ele>20</ele>
        <time>2018-03-10T06:57:47Z</time>
      </trkpt>
      <trkpt lat="46.76038" lon="-1.84676">
        <ele>20</ele>
        <time>2018-03-10T06:58:47Z</time>
      </trkpt>
      <trkpt lat="46.76036" lon="-1.84683">
        <ele>20</ele>
        <time>2018-03-10T06:59:47Z</time>
      </trkpt>
      <trkpt lat="46.76033" lon="-1.8469">
        <ele>20</ele>
        <time>2018-03-10T07:00:47Z</time>
      </trkpt>
      <trkpt lat="46.76032" lon="-1.84693">
        <ele>20</ele>
        <time>2018-03-10T07:01:47Z</time>
      </trkpt>
      <trkpt lat="46.76031" lon="-1.84695">
        <ele>20</ele>
        <time>2018-03-10T07:02:47Z</time>
      </trkpt>
      <trkpt lat="46.76029" lon="-1.847">
        <ele>20</ele>
        <time>2018-03-10T07:03:47Z</time>
      </trkpt>
      <trkpt lat="46.76022" lon="-1.84712">
        <ele>20</ele>
        <time>2018-03-10T07:04:47Z</time>
      </trkpt>
      <trkpt lat="46.76021" lon="-1.84714">
        <ele>20</ele>
        <time>2018-03-10T07:05:47Z</time>
      </trkpt>
      <trkpt lat="46.76013" lon="-1.84726">
        <ele>20</ele>
        <time>2018-03-10T07:06:47Z</time>
      </trkpt>
      <trkpt lat="46.76011" lon="-1.8473">
        <ele>20</ele>
        <time>2018-03-10T07:07:47Z</time>
      </trkpt>
      <trkpt lat="46.75993" lon="-1.84756">
        <ele>20</ele>
        <time>2018-03-10T07:08:47Z</time>
      </trkpt>
      <trkpt lat="46.75982" lon="-1.84772">
        <ele>20</ele>
        <time>2018-03-10T07:09:47Z</time>
      </trkpt>
      <trkpt lat="46.75963" lon="-1.84797">
        <ele>20</ele>
        <time>2018-03-10T07:10:47Z</time>
      </trkpt>
      <trkpt lat="46.75935" lon="-1.84837">
        <ele>21</ele>
        <time>2018-03-10T07:11:47Z</time>
      </trkpt>
      <trkpt lat="46.75929" lon="-1.84845">
        <ele>21</ele>
        <time>2018-03-10T07:12:47Z</time>
      </trkpt>
      <trkpt lat="46.75914" lon="-1.84864">
        <ele>21</ele>
        <time>2018-03-10T07:13:47Z</time>
      </trkpt>
      <trkpt lat="46.75905" lon="-1.84877">
        <ele>21</ele>
        <time>2018-03-10T07:14:47Z</time>
      </trkpt>
      <trkpt lat="46.75899" lon="-1.84886">
        <ele>21</ele>
        <time>2018-03-10T07:15:47Z</time>
      </trkpt>
      <trkpt lat="46.75898" lon="-1.84887">
        <ele>21</ele>
        <time>2018-03-10T07:16:47Z</time>
      </trkpt>
      <trkpt lat="46.75891" lon="-1.84898">
        <ele>21</ele>
        <time>2018-03-10T07:17:47Z</time>
      </trkpt>
      <trkpt lat="46.75881" lon="-1.84913">
        <ele>21</ele>
        <time>2018-03-10T07:18:47Z</time>
      </trkpt>
      <trkpt lat="46.75872" lon="-1.84931">
        <ele>20</ele>
        <time>2018-03-10T07:19:47Z</time>
      </trkpt>
      <trkpt lat="46.75863" lon="-1.84948">
        <ele>20</ele>
        <time>2018-03-10T07:20:47Z</time>
      </trkpt>
      <trkpt lat="46.75851" lon="-1.84975">
        <ele>21</ele>
        <time>2018-03-10T07:21:47Z</time>
      </trkpt>
      <trkpt lat="46.75834" lon="-1.85013">
        <ele>21</ele>
        <time>2018-03-10T07:22:47Z</time>
      </trkpt>
      <trkpt lat="46.75832" lon="-1.85018">
        <ele>21</ele>
        <time>2018-03-10T07:23:47Z</time>
      </trkpt>
      <trkpt lat="46.75832" lon="-1.85019">
        <ele>21</ele>
        <time>2018-03-10T07:24:47Z</time>
      </trkpt>
      <trkpt lat="46.75811" lon="-1.85067">
        <ele>22</ele>
        <time>2018-03-10T07:25:47Z</time>
      </trkpt>
      <trkpt lat="46.75796" lon="-1.85103">
        <ele>21</ele>
        <time>2018-03-10T07:26:47Z</time>
      </trkpt>
      <trkpt lat="46.75767" lon="-1.8517">
        <ele>21</ele>
        <time>2018-03-10T07:27:47Z</time>
      </trkpt>
      <trkpt lat="46.7575" lon="-1.85209">
        <ele>21</ele>
        <time>2018-03-10T07:28:47Z</time>
      </trkpt>
      <trkpt lat="46.75734" lon="-1.85247">
        <ele>21</ele>
        <time>2018-03-10T07:29:47Z</time>
      </trkpt>
      <trkpt lat="46.75722" lon="-1.85275">
        <ele>21</ele>
        <time>2018-03-10T07:30:47Z</time>
      </trkpt>
      <trkpt lat="46.75711" lon="-1.85301">
        <ele>22</ele>
        <time>2018-03-10T07:31:47Z</time>
      </trkpt>
      <trkpt lat="46.75691" lon="-1.85347">
        <ele>21</ele>
        <time>2018-03-10T07:32:47Z</time>
      </trkpt>
      <trkpt lat="46.75654" lon="-1.85434">
        <ele>19</ele>
        <time>2018-03-10T07:33:47Z</time>
      </trkpt>
      <trkpt lat="46.75636" lon="-1.85478">
        <ele>20</ele>
        <time>2018-03-10T07:34:47Z</time>
      </trkpt>
      <trkpt lat="46.75624" lon="-1.85508">
        <ele>20</ele>
        <time>2018-03-10T07:35:47Z</time>
      </trkpt>
      <trkpt lat="46.75616" lon="-1.85529">
        <ele>20</ele>
        <time>2018-03-10T07:36:47Z</time>
      </trkpt>
      <trkpt lat="46.75615" lon="-1.85532">
        <ele>20</ele>
        <time>2018-03-10T07:37:47Z</time>
      </trkpt>
      <trkpt lat="46.75606" lon="-1.85556">
        <ele>21</ele>
        <time>2018-03-10T07:38:47Z</time>
      </trkpt>
      <trkpt lat="46.756" lon="-1.85575">
        <ele>21</ele>
        <time>2018-03-10T07:39:47Z</time>
      </trkpt>
      <trkpt lat="46.75594" lon="-1.85592">
        <ele>21</ele>
        <time>2018-03-10T07:40:47Z</time>
      </trkpt>
      <trkpt lat="46.75588" lon="-1.8561">
        <ele>21</ele>
        <time>2018-03-10T07:41:47Z</time>
      </trkpt>
      <trkpt lat="46.75581" lon="-1.85631">
        <ele>20</ele>
        <time>2018-03-10T07:42:47Z</time>
      </trkpt>
      <trkpt lat="46.75574" lon="-1.85653">
        <ele>20</ele>
        <time>2018-03-10T07:43:47Z</time>
      </trkpt>
      <trkpt lat="46.75568" lon="-1.85675">
        <ele>20</ele>
        <time>2018-03-10T07:44:47Z</time>
      </trkpt>
      <trkpt lat="46.75558" lon="-1.85712">
        <ele>19</ele>
        <time>2018-03-10T07:45:47Z</time>
      </trkpt>
      <trkpt lat="46.75545" lon="-1.85759">
        <ele>19</ele>
        <time>2018-03-10T07:46:47Z</time>
      </trkpt>
      <trkpt lat="46.75537" lon="-1.85788">
        <ele>19</ele>
        <time>2018-03-10T07:47:47Z</time>
      </trkpt>
      <trkpt lat="46.75534" lon="-1.858">
        <ele>20</ele>
        <time>2018-03-10T07:48:47Z</time>
      </trkpt>
      <trkpt lat="46.75531" lon="-1.85811">
        <ele>20</ele>
        <time>2018-03-10T07:49:47Z</time>
      </trkpt>
      <trkpt lat="46.75523" lon="-1.85839">
        <ele>20</ele>
        <time>2018-03-10T07:50:47Z</time>
      </trkpt>
      <trkpt lat="46.7552" lon="-1.85851">
        <ele>20</ele>
        <time>2018-03-10T07:51:47Z</time>
      </trkpt>
      <trkpt lat="46.75512" lon="-1.85881">
        <ele>19</ele>
        <time>2018-03-10T07:52:47Z</time>
      </trkpt>
      <trkpt lat="46.75506" lon="-1.85905">
        <ele>18</ele>
        <time>2018-03-10T07:53:47Z</time>
      </trkpt>
      <trkpt lat="46.75499" lon="-1.8593">
        <ele>18</ele>
        <time>2018-03-10T07:54:47Z</time>
      </trkpt>
      <trkpt lat="46.75495" lon="-1.8595">
        <ele>18</ele>
        <time>2018-03-10T07:55:47Z</time>
      </trkpt>
      <trkpt lat="46.75493" lon="-1.85957">
        <ele>18</ele>
        <time>2018-03-10T07:56:47Z</time>
      </trkpt>
      <trkpt lat="46.7549" lon="-1.85969">
        <ele>18</ele>
        <time>2018-03-10T07:57:47Z</time>
      </trkpt>
      <trkpt lat="46.75486" lon="-1.85986">
        <ele>18</ele>
        <time>2018-03-10T07:58:47Z</time>
      </trkpt>
      <trkpt lat="46.75482" lon="-1.86004">
        <ele>17</ele>
        <time>2018-03-10T07:59:47Z</time>
      </trkpt>
      <trkpt lat="46.75474" lon="-1.86059">
        <ele>17</ele>
        <time>2018-03-10T08:00:47Z</time>
      </trkpt>
      <trkpt lat="46.75464" lon="-1.8613">
        <ele>17</ele>
        <time>2018-03-10T08:01:47Z</time>
      </trkpt>
      <trkpt lat="46.75456" lon="-1.86188">
        <ele>17</ele>
        <time>2018-03-10T08:02:47Z</time>
      </trkpt>
      <trkpt lat="46.75452" lon="-1.86221">
        <ele>17</ele>
        <time>2018-03-10T08:03:47Z</time>
      </trkpt>
      <trkpt lat="46.75452" lon="-1.86222">
        <ele>17</ele>
        <time>2018-03-10T08:04:47Z</time>
      </trkpt>
      <trkpt lat="46.75452" lon="-1.8623">
        <ele>17</ele>
        <time>2018-03-10T08:05:47Z</time>
      </trkpt>
      <trkpt lat="46.75446" lon="-1.86272">
        <ele>17</ele>
        <time>2018-03-10T08:06:47Z</time>
      </trkpt>
      <trkpt lat="46.75443" lon="-1.8629">
        <ele>17</ele>
        <time>2018-03-10T08:07:47Z</time>
      </trkpt>
      <trkpt lat="46.75441" lon="-1.86306">
        <ele>17</ele>
        <time>2018-03-10T08:08:47Z</time>
      </trkpt>
      <trkpt lat="46.75438" lon="-1.86321">
        <ele>17</ele>
        <time>2018-03-10T08:09:47Z</time>
      </trkpt>
      <trkpt lat="46.75436" lon="-1.86334">
        <ele>17</ele>
        <time>2018-03-10T08:10:47Z</time>
      </trkpt>
      <trkpt lat="46.75432" lon="-1.86348">
        <ele>17</ele>
        <time>2018-03-10T08:11:47Z</time>
      </trkpt>
      <trkpt lat="46.75429" lon="-1.8636">
        <ele>17</ele>
        <time>2018-03-10T08:12:47Z</time>
      </trkpt>
      <trkpt lat="46.75424" lon="-1.86374">
        <ele>17</ele>
        <time>2018-03-10T08:13:47Z</time>
      </trkpt>
      <trkpt lat="46.75417" lon="-1.86395">
        <ele>16</ele>
        <time>2018-03-10T08:14:47Z</time>
      </trkpt>
      <trkpt lat="46.75407" lon="-1.86422">
        <ele>16</ele>
        <time>2018-03-10T08:15:47Z</time>
      </trkpt>
      <trkpt lat="46.75396" lon="-1.86449">
        <ele>17</ele>
        <time>2018-03-10T08:16:47Z</time>
      </trkpt>
      <trkpt lat="46.75386" lon="-1.86469">
        <ele>18</ele>
        <time>2018-03-10T08:17:47Z</time>
      </trkpt>
      <trkpt lat="46.75372" lon="-1.86496">
        <ele>18</ele>
        <time>2018-03-10T08:18:47Z</time>
      </trkpt>
      <trkpt lat="46.7536" lon="-1.86518">
        <ele>18</ele>
        <time>2018-03-10T08:19:47Z</time>
      </trkpt>
      <trkpt lat="46.75345" lon="-1.86543">
        <ele>18</ele>
        <time>2018-03-10T08:20:47Z</time>
      </trkpt>
      <trkpt lat="46.75335" lon="-1.8656">
        <ele>18</ele>
        <time>2018-03-10T08:21:47Z</time>
      </trkpt>
      <trkpt lat="46.75333" lon="-1.86564">
        <ele>18</ele>
        <time>2018-03-10T08:22:47Z</time>
      </trkpt>
      <trkpt lat="46.75327" lon="-1.86575">
        <ele>18</ele>
        <time>2018-03-10T08:23:47Z</time>
      </trkpt>
      <trkpt lat="46.75321" lon="-1.86586">
        <ele>18</ele>
        <time>2018-03-10T08:24:47Z</time>
      </trkpt>
      <trkpt lat="46.75316" lon="-1.86596">
        <ele>18</ele>
        <time>2018-03-10T08:25:47Z</time>
      </trkpt>
      <trkpt lat="46.7531" lon="-1.86608">
        <ele>18</ele>
        <time>2018-03-10T08:26:47Z</time>
      </trkpt>
      <trkpt lat="46.75308" lon="-1.86612">
        <ele>18</ele>
        <time>2018-03-10T08:27:47Z</time>
      </trkpt>
      <trkpt lat="46.753" lon="-1.86632">
        <ele>18</ele>
        <time>2018-03-10T08:28:47Z</time>
      </trkpt>
      <trkpt lat="46.75292" lon="-1.8665">
        <ele>18</ele>
        <time>2018-03-10T08:29:47Z</time>
      </trkpt>
      <trkpt lat="46.7528" lon="-1.86682">
        <ele>18</ele>
        <time>2018-03-10T08:30:47Z</time>
      </trkpt>
      <trkpt lat="46.75264" lon="-1.86722">
        <ele>17</ele>
        <time>2018-03-10T08:31:47Z</time>
      </trkpt>
      <trkpt lat="46.75252" lon="-1.86754">
        <ele>17</ele>
        <time>2018-03-10T08:32:47Z</time>
      </trkpt>
      <trkpt lat="46.75246" lon="-1.86771">
        <ele>17</ele>
        <time>2018-03-10T08:33:47Z</time>
      </trkpt>
      <trkpt lat="46.75236" lon="-1.868">
        <ele>17</ele>
        <time>2018-03-10T08:34:47Z</time>
      </trkpt>
      <trkpt lat="46.75233" lon="-1.86808">
        <ele>18</ele>
        <time>2018-03-10T08:35:47Z</time>
      </trkpt>
      <trkpt lat="46.75225" lon="-1.86832">
        <ele>18</ele>
        <time>2018-03-10T08:36:47Z</time>
      </trkpt>
      <trkpt lat="46.75217" lon="-1.86859">
        <ele>18</ele>
        <time>2018-03-10T08:37:47Z</time>
      </trkpt>
      <trkpt lat="46.75204" lon="-1.86904">
        <ele>18</ele>
        <time>2018-03-10T08:38:47Z</time>
      </trkpt>
      <trkpt lat="46.75193" lon="-1.86941">
        <ele>17</ele>
        <time>2018-03-10T08:39:47Z</time>
      </trkpt>
      <trkpt lat="46.75185" lon="-1.8697">
        <ele>17</ele>
        <time>2018-03-10T08:40:47Z</time>
      </trkpt>
      <trkpt lat="46.75182" lon="-1.86979">
        <ele>17</ele>
        <time>2018-03-10T08:41:47Z</time>
      </trkpt>
      <trkpt lat="46.75181" lon="-1.86987">
        <ele>17</ele>
        <time>2018-03-10T08:42:47Z</time>
      </trkpt>
      <trkpt lat="46.75179" lon="-1.86994">
        <ele>17</ele>
        <time>2018-03-10T08:43:47Z</time>
      </trkpt>
      <trkpt lat="46.75177" lon="-1.87">
        <ele>17</ele>
        <time>2018-03-10T08:44:47Z</time>
      </trkpt>
      <trkpt lat="46.75174" lon="-1.87016">
        <ele>17</ele>
        <time>2018-03-10T08:45:47Z</time>
      </trkpt>
      <trkpt lat="46.75174" lon="-1.87016">
        <ele>17</ele>
        <time>2018-03-10T08:46:47Z</time>
      </trkpt>
      <trkpt lat="46.75179" lon="-1.87024">
        <ele>17</ele>
        <time>2018-03-10T08:47:47Z</time>
      </trkpt>
      <trkpt lat="46.75179" lon="-1.87025">
        <ele>17</ele>
        <time>2018-03-10T08:48:47Z</time>
      </trkpt>
      <trkpt lat="46.7518" lon="-1.8703">
        <ele>17</ele>
        <time>2018-03-10T08:49:47Z</time>
      </trkpt>
      <trkpt lat="46.7518" lon="-1.87035">
        <ele>17</ele>
        <time>2018-03-10T08:50:47Z</time>
      </trkpt>
      <trkpt lat="46.7518" lon="-1.87041">
        <ele>17</ele>
        <time>2018-03-10T08:51:47Z</time>
      </trkpt>
      <trkpt lat="46.75178" lon="-1.87046">
        <ele>17</ele>
        <time>2018-03-10T08:52:47Z</time>
      </trkpt>
      <trkpt lat="46.75177" lon="-1.87048">
        <ele>17</ele>
        <time>2018-03-10T08:53:47Z</time>
      </trkpt>
      <trkpt lat="46.75176" lon="-1.87052">
        <ele>17</ele>
        <time>2018-03-10T08:54:47Z</time>
      </trkpt>
      <trkpt lat="46.75174" lon="-1.87056">
        <ele>17</ele>
        <time>2018-03-10T08:55:47Z</time>
      </trkpt>
      <trkpt lat="46.75171" lon="-1.87059">
        <ele>17</ele>
        <time>2018-03-10T08:56:47Z</time>
      </trkpt>
      <trkpt lat="46.75168" lon="-1.87062">
        <ele>17</ele>
        <time>2018-03-10T08:57:47Z</time>
      </trkpt>
      <trkpt lat="46.75166" lon="-1.87066">
        <ele>17</ele>
        <time>2018-03-10T08:58:47Z</time>
      </trkpt>
      <trkpt lat="46.75165" lon="-1.87068">
        <ele>17</ele>
        <time>2018-03-10T08:59:47Z</time>
      </trkpt>
      <trkpt lat="46.75162" lon="-1.87074">
        <ele>17</ele>
        <time>2018-03-10T09:00:47Z</time>
      </trkpt>
      <trkpt lat="46.75157" lon="-1.87087">
        <ele>17</ele>
        <time>2018-03-10T09:01:47Z</time>
      </trkpt>
      <trkpt lat="46.75155" lon="-1.87094">
        <ele>17</ele>
        <time>2018-03-10T09:02:47Z</time>
      </trkpt>
      <trkpt lat="46.75153" lon="-1.87102">
        <ele>17</ele>
        <time>2018-03-10T09:03:47Z</time>
      </trkpt>
      <trkpt lat="46.75151" lon="-1.87113">
        <ele>17</ele>
        <time>2018-03-10T09:04:47Z</time>
      </trkpt>
      <trkpt lat="46.75149" lon="-1.87124">
        <ele>17</ele>
        <time>2018-03-10T09:05:47Z</time>
      </trkpt>
      <trkpt lat="46.75148" lon="-1.87134">
        <ele>17</ele>
        <time>2018-03-10T09:06:47Z</time>
      </trkpt>
      <trkpt lat="46.75145" lon="-1.87146">
        <ele>17</ele>
        <time>2018-03-10T09:07:47Z</time>
      </trkpt>
      <trkpt lat="46.75144" lon="-1.87153">
        <ele>17</ele>
        <time>2018-03-10T09:08:47Z</time>
      </trkpt>
      <trkpt lat="46.75142" lon="-1.87159">
        <ele>17</ele>
        <time>2018-03-10T09:09:47Z</time>
      </trkpt>
      <trkpt lat="46.75138" lon="-1.8718">
        <ele>16</ele>
        <time>2018-03-10T09:10:47Z</time>
      </trkpt>
      <trkpt lat="46.75136" lon="-1.87195">
        <ele>16</ele>
        <time>2018-03-10T09:11:47Z</time>
      </trkpt>
      <trkpt lat="46.75134" lon="-1.87212">
        <ele>16</ele>
        <time>2018-03-10T09:12:47Z</time>
      </trkpt>
      <trkpt lat="46.75133" lon="-1.87222">
        <ele>15</ele>
        <time>2018-03-10T09:13:47Z</time>
      </trkpt>
      <trkpt lat="46.75132" lon="-1.87241">
        <ele>15</ele>
        <time>2018-03-10T09:14:47Z</time>
      </trkpt>
      <trkpt lat="46.75131" lon="-1.87259">
        <ele>15</ele>
        <time>2018-03-10T09:15:47Z</time>
      </trkpt>
      <trkpt lat="46.75132" lon="-1.87281">
        <ele>14</ele>
        <time>2018-03-10T09:16:47Z</time>
      </trkpt>
      <trkpt lat="46.75132" lon="-1.87295">
        <ele>14</ele>
        <time>2018-03-10T09:17:47Z</time>
      </trkpt>
      <trkpt lat="46.75135" lon="-1.87327">
        <ele>13</ele>
        <time>2018-03-10T09:18:47Z</time>
      </trkpt>
      <trkpt lat="46.7514" lon="-1.87388">
        <ele>13</ele>
        <time>2018-03-10T09:19:47Z</time>
      </trkpt>
      <trkpt lat="46.75144" lon="-1.8744">
        <ele>13</ele>
        <time>2018-03-10T09:20:47Z</time>
      </trkpt>
      <trkpt lat="46.75146" lon="-1.8748">
        <ele>13</ele>
        <time>2018-03-10T09:21:47Z</time>
      </trkpt>
      <trkpt lat="46.75148" lon="-1.87517">
        <ele>13</ele>
        <time>2018-03-10T09:22:47Z</time>
      </trkpt>
      <trkpt lat="46.75149" lon="-1.87548">
        <ele>13</ele>
        <time>2018-03-10T09:23:47Z</time>
      </trkpt>
      <trkpt lat="46.75149" lon="-1.87581">
        <ele>12</ele>
        <time>2018-03-10T09:24:47Z</time>
      </trkpt>
      <trkpt lat="46.7515" lon="-1.87615">
        <ele>12</ele>
        <time>2018-03-10T09:25:47Z</time>
      </trkpt>
      <trkpt lat="46.7515" lon="-1.87634">
        <ele>12</ele>
        <time>2018-03-10T09:26:47Z</time>
      </trkpt>
      <trkpt lat="46.75149" lon="-1.87652">
        <ele>12</ele>
        <time>2018-03-10T09:27:47Z</time>
      </trkpt>
      <trkpt lat="46.75149" lon="-1.8768">
        <ele>11</ele>
        <time>2018-03-10T09:28:47Z</time>
      </trkpt>
      <trkpt lat="46.75147" lon="-1.87715">
        <ele>11</ele>
        <time>2018-03-10T09:29:47Z</time>
      </trkpt>
      <trkpt lat="46.75145" lon="-1.87742">
        <ele>11</ele>
        <time>2018-03-10T09:30:47Z</time>
      </trkpt>
      <trkpt lat="46.75144" lon="-1.87765">
        <ele>11</ele>
        <time>2018-03-10T09:31:47Z</time>
      </trkpt>
      <trkpt lat="46.75142" lon="-1.87797">
        <ele>11</ele>
        <time>2018-03-10T09:32:47Z</time>
      </trkpt>
      <trkpt lat="46.7514" lon="-1.87824">
        <ele>11</ele>
        <time>2018-03-10T09:33:47Z</time>
      </trkpt>
      <trkpt lat="46.75138" lon="-1.87851">
        <ele>11</ele>
        <time>2018-03-10T09:34:47Z</time>
      </trkpt>
      <trkpt lat="46.75136" lon="-1.87871">
        <ele>11</ele>
        <time>2018-03-10T09:35:47Z</time>
      </trkpt>
      <trkpt lat="46.75134" lon="-1.87889">
        <ele>12</ele>
        <time>2018-03-10T09:36:47Z</time>
      </trkpt>
      <trkpt lat="46.75131" lon="-1.87908">
        <ele>12</ele>
        <time>2018-03-10T09:37:47Z</time>
      </trkpt>
      <trkpt lat="46.75129" lon="-1.87925">
        <ele>12</ele>
        <time>2018-03-10T09:38:47Z</time>
      </trkpt>
      <trkpt lat="46.75126" lon="-1.87941">
        <ele>12</ele>
        <time>2018-03-10T09:39:47Z</time>
      </trkpt>
      <trkpt lat="46.75123" lon="-1.87957">
        <ele>11</ele>
        <time>2018-03-10T09:40:47Z</time>
      </trkpt>
      <trkpt lat="46.75118" lon="-1.87973">
        <ele>11</ele>
        <time>2018-03-10T09:41:47Z</time>
      </trkpt>
      <trkpt lat="46.75114" lon="-1.87984">
        <ele>11</ele>
        <time>2018-03-10T09:42:47Z</time>
      </trkpt>
      <trkpt lat="46.75111" lon="-1.87992">
        <ele>10</ele>
        <time>2018-03-10T09:43:47Z</time>
      </trkpt>
      <trkpt lat="46.75106" lon="-1.88003">
        <ele>10</ele>
        <time>2018-03-10T09:44:47Z</time>
      </trkpt>
      <trkpt lat="46.75098" lon="-1.88016">
        <ele>10</ele>
        <time>2018-03-10T09:45:47Z</time>
      </trkpt>
      <trkpt lat="46.75083" lon="-1.88037">
        <ele>9</ele>
        <time>2018-03-10T09:46:47Z</time>
      </trkpt>
      <trkpt lat="46.75058" lon="-1.8807">
        <ele>9</ele>
        <time>2018-03-10T09:47:47Z</time>
      </trkpt>
      <trkpt lat="46.75039" lon="-1.88095">
        <ele>9</ele>
        <time>2018-03-10T09:48:47Z</time>
      </trkpt>
      <trkpt lat="46.75026" lon="-1.8811">
        <ele>9</ele>
        <time>2018-03-10T09:49:47Z</time>
      </trkpt>
      <trkpt lat="46.75019" lon="-1.88119">
        <ele>9</ele>
        <time>2018-03-10T09:50:47Z</time>
      </trkpt>
      <trkpt lat="46.7499" lon="-1.88159">
        <ele>9</ele>
        <time>2018-03-10T09:51:47Z</time>
      </trkpt>
      <trkpt lat="46.74976" lon="-1.88179">
        <ele>10</ele>
        <time>2018-03-10T09:52:47Z</time>
      </trkpt>
      <trkpt lat="46.74967" lon="-1.88193">
        <ele>10</ele>
        <time>2018-03-10T09:53:47Z</time>
      </trkpt>
      <trkpt lat="46.7496" lon="-1.88208">
        <ele>11</ele>
        <time>2018-03-10T09:54:47Z</time>
      </trkpt>
      <trkpt lat="46.74954" lon="-1.88221">
        <ele>11</ele>
        <time>2018-03-10T09:55:47Z</time>
      </trkpt>
      <trkpt lat="46.74948" lon="-1.88233">
        <ele>12</ele>
        <time>2018-03-10T09:56:47Z</time>
      </trkpt>
      <trkpt lat="46.74943" lon="-1.88246">
        <ele>12</ele>
        <time>2018-03-10T09:57:47Z</time>
      </trkpt>
      <trkpt lat="46.74938" lon="-1.88258">
        <ele>13</ele>
        <time>2018-03-10T09:58:47Z</time>
      </trkpt>
      <trkpt lat="46.74934" lon="-1.88272">
        <ele>13</ele>
        <time>2018-03-10T09:59:47Z</time>
      </trkpt>
      <trkpt lat="46.74925" lon="-1.883">
        <ele>13</ele>
        <time>2018-03-10T10:00:47Z</time>
      </trkpt>
      <trkpt lat="46.74914" lon="-1.88342">
        <ele>13</ele>
        <time>2018-03-10T10:01:47Z</time>
      </trkpt>
      <trkpt lat="46.74896" lon="-1.88406">
        <ele>11</ele>
        <time>2018-03-10T10:02:47Z</time>
      </trkpt>
      <trkpt lat="46.74883" lon="-1.88454">
        <ele>11</ele>
        <time>2018-03-10T10:03:47Z</time>
      </trkpt>
      <trkpt lat="46.74881" lon="-1.88465">
        <ele>12</ele>
        <time>2018-03-10T10:04:47Z</time>
      </trkpt>
      <trkpt lat="46.7486" lon="-1.88545">
        <ele>12</ele>
        <time>2018-03-10T10:05:47Z</time>
      </trkpt>
      <trkpt lat="46.74856" lon="-1.88561">
        <ele>12</ele>
        <time>2018-03-10T10:06:47Z</time>
      </trkpt>
      <trkpt lat="46.74853" lon="-1.88575">
        <ele>11</ele>
        <time>2018-03-10T10:07:47Z</time>
      </trkpt>
      <trkpt lat="46.7485" lon="-1.88595">
        <ele>11</ele>
        <time>2018-03-10T10:08:47Z</time>
      </trkpt>
      <trkpt lat="46.74846" lon="-1.88622">
        <ele>12</ele>
        <time>2018-03-10T10:09:47Z</time>
      </trkpt>
      <trkpt lat="46.74839" lon="-1.88686">
        <ele>12</ele>
        <time>2018-03-10T10:10:47Z</time>
      </trkpt>
      <trkpt lat="46.74834" lon="-1.88748">
        <ele>12</ele>
        <time>2018-03-10T10:11:47Z</time>
      </trkpt>
      <trkpt lat="46.74832" lon="-1.8877">
        <ele>12</ele>
        <time>2018-03-10T10:12:47Z</time>
      </trkpt>
      <trkpt lat="46.7483" lon="-1.8879">
        <ele>12</ele>
        <time>2018-03-10T10:13:47Z</time>
      </trkpt>
      <trkpt lat="46.74829" lon="-1.88817">
        <ele>12</ele>
        <time>2018-03-10T10:14:47Z</time>
      </trkpt>
      <trkpt lat="46.74827" lon="-1.88854">
        <ele>12</ele>
        <time>2018-03-10T10:15:47Z</time>
      </trkpt>
      <trkpt lat="46.74826" lon="-1.88892">
        <ele>12</ele>
        <time>2018-03-10T10:16:47Z</time>
      </trkpt>
      <trkpt lat="46.74826" lon="-1.88934">
        <ele>12</ele>
        <time>2018-03-10T10:17:47Z</time>
      </trkpt>
      <trkpt lat="46.74825" lon="-1.88973">
        <ele>11</ele>
        <time>2018-03-10T10:18:47Z</time>
      </trkpt>
      <trkpt lat="46.74824" lon="-1.89008">
        <ele>11</ele>
        <time>2018-03-10T10:19:47Z</time>
      </trkpt>
      <trkpt lat="46.74824" lon="-1.89025">
        <ele>11</ele>
        <time>2018-03-10T10:20:47Z</time>
      </trkpt>
      <trkpt lat="46.74824" lon="-1.8904">
        <ele>11</ele>
        <time>2018-03-10T10:21:47Z</time>
      </trkpt>
      <trkpt lat="46.74825" lon="-1.89055">
        <ele>11</ele>
        <time>2018-03-10T10:22:47Z</time>
      </trkpt>
      <trkpt lat="46.74825" lon="-1.89073">
        <ele>11</ele>
        <time>2018-03-10T10:23:47Z</time>
      </trkpt>
      <trkpt lat="46.74826" lon="-1.89092">
        <ele>11</ele>
        <time>2018-03-10T10:24:47Z</time>
      </trkpt>
      <trkpt lat="46.74828" lon="-1.8912">
        <ele>11</ele>
        <time>2018-03-10T10:25:47Z</time>
      </trkpt>
      <trkpt lat="46.74831" lon="-1.89174">
        <ele>11</ele>
        <time>2018-03-10T10:26:47Z</time>
      </trkpt>
      <trkpt lat="46.74834" lon="-1.89221">
        <ele>10</ele>
        <time>2018-03-10T10:27:47Z</time>
      </trkpt>
      <trkpt lat="46.74838" lon="-1.89279">
        <ele>9</ele>
        <time>2018-03-10T10:28:47Z</time>
      </trkpt>
      <trkpt lat="46.7484" lon="-1.89315">
        <ele>8</ele>
        <time>2018-03-10T10:29:47Z</time>
      </trkpt>
      <trkpt lat="46.74841" lon="-1.89332">
        <ele>8</ele>
        <time>2018-03-10T10:30:47Z</time>
      </trkpt>
      <trkpt lat="46.74842" lon="-1.89349">
        <ele>8</ele>
        <time>2018-03-10T10:31:47Z</time>
      </trkpt>
      <trkpt lat="46.74842" lon="-1.89365">
        <ele>8</ele>
        <time>2018-03-10T10:32:47Z</time>
      </trkpt>
      <trkpt lat="46.74842" lon="-1.89372">
        <ele>8</ele>
        <time>2018-03-10T10:33:47Z</time>
      </trkpt>
      <trkpt lat="46.74842" lon="-1.89383">
        <ele>8</ele>
        <time>2018-03-10T10:34:47Z</time>
      </trkpt>
      <trkpt lat="46.74843" lon="-1.89411">
        <ele>8</ele>
        <time>2018-03-10T10:35:47Z</time>
      </trkpt>
      <trkpt lat="46.74843" lon="-1.89423">
        <ele>8</ele>
        <time>2018-03-10T10:36:47Z</time>
      </trkpt>
      <trkpt lat="46.74843" lon="-1.89447">
        <ele>8</ele>
        <time>2018-03-10T10:37:47Z</time>
      </trkpt>
      <trkpt lat="46.74843" lon="-1.89466">
        <ele>8</ele>
        <time>2018-03-10T10:38:47Z</time>
      </trkpt>
      <trkpt lat="46.74843" lon="-1.895">
        <ele>8</ele>
        <time>2018-03-10T10:39:47Z</time>
      </trkpt>
      <trkpt lat="46.74843" lon="-1.89509">
        <ele>8</ele>
        <time>2018-03-10T10:40:47Z</time>
      </trkpt>
      <trkpt lat="46.74842" lon="-1.8955">
        <ele>8</ele>
        <time>2018-03-10T10:41:47Z</time>
      </trkpt>
      <trkpt lat="46.74842" lon="-1.89571">
        <ele>8</ele>
        <time>2018-03-10T10:42:47Z</time>
      </trkpt>
      <trkpt lat="46.74842" lon="-1.89606">
        <ele>8</ele>
        <time>2018-03-10T10:43:47Z</time>
      </trkpt>
      <trkpt lat="46.74842" lon="-1.89634">
        <ele>9</ele>
        <time>2018-03-10T10:44:47Z</time>
      </trkpt>
      <trkpt lat="46.74843" lon="-1.89647">
        <ele>9</ele>
        <time>2018-03-10T10:45:47Z</time>
      </trkpt>
      <trkpt lat="46.74843" lon="-1.89675">
        <ele>9</ele>
        <time>2018-03-10T10:46:47Z</time>
      </trkpt>
      <trkpt lat="46.74843" lon="-1.89689">
        <ele>8</ele>
        <time>2018-03-10T10:47:47Z</time>
      </trkpt>
      <trkpt lat="46.74843" lon="-1.8971">
        <ele>8</ele>
        <time>2018-03-10T10:48:47Z</time>
      </trkpt>
      <trkpt lat="46.74843" lon="-1.89717">
        <ele>8</ele>
        <time>2018-03-10T10:49:47Z</time>
      </trkpt>
      <trkpt lat="46.74843" lon="-1.89721">
        <ele>8</ele>
        <time>2018-03-10T10:50:47Z</time>
      </trkpt>
      <trkpt lat="46.74844" lon="-1.89745">
        <ele>7</ele>
        <time>2018-03-10T10:51:47Z</time>
      </trkpt>
      <trkpt lat="46.74845" lon="-1.89778">
        <ele>7</ele>
        <time>2018-03-10T10:52:47Z</time>
      </trkpt>
      <trkpt lat="46.74847" lon="-1.89793">
        <ele>7</ele>
        <time>2018-03-10T10:53:47Z</time>
      </trkpt>
      <trkpt lat="46.74848" lon="-1.89801">
        <ele>7</ele>
        <time>2018-03-10T10:54:47Z</time>
      </trkpt>
      <trkpt lat="46.74849" lon="-1.89817">
        <ele>7</ele>
        <time>2018-03-10T10:55:47Z</time>
      </trkpt>
      <trkpt lat="46.74853" lon="-1.89855">
        <ele>6</ele>
        <time>2018-03-10T10:56:47Z</time>
      </trkpt>
      <trkpt lat="46.74855" lon="-1.8987">
        <ele>6</ele>
        <time>2018-03-10T10:57:47Z</time>
      </trkpt>
      <trkpt lat="46.74855" lon="-1.89885">
        <ele>6</ele>
        <time>2018-03-10T10:58:47Z</time>
      </trkpt>
      <trkpt lat="46.74855" lon="-1.89896">
        <ele>6</ele>
        <time>2018-03-10T10:59:47Z</time>
      </trkpt>
      <trkpt lat="46.74855" lon="-1.89909">
        <ele>6</ele>
        <time>2018-03-10T11:00:47Z</time>
      </trkpt>
      <trkpt lat="46.74854" lon="-1.89922">
        <ele>6</ele>
        <time>2018-03-10T11:01:47Z</time>
      </trkpt>
      <trkpt lat="46.74852" lon="-1.89944">
        <ele>6</ele>
        <time>2018-03-10T11:02:47Z</time>
      </trkpt>
      <trkpt lat="46.7485" lon="-1.89954">
        <ele>6</ele>
        <time>2018-03-10T11:03:47Z</time>
      </trkpt>
      <trkpt lat="46.74852" lon="-1.90014">
        <ele>6</ele>
        <time>2018-03-10T11:04:47Z</time>
      </trkpt>
      <trkpt lat="46.74856" lon="-1.90129">
        <ele>6</ele>
        <time>2018-03-10T11:05:47Z</time>
      </trkpt>
      <trkpt lat="46.74857" lon="-1.90159">
        <ele>6</ele>
        <time>2018-03-10T11:06:47Z</time>
      </trkpt>
      <trkpt lat="46.74857" lon="-1.9018">
        <ele>6</ele>
        <time>2018-03-10T11:07:47Z</time>
      </trkpt>
      <trkpt lat="46.74857" lon="-1.90183">
        <ele>6</ele>
        <time>2018-03-10T11:08:47Z</time>
      </trkpt>
      <trkpt lat="46.74857" lon="-1.90195">
        <ele>6</ele>
        <time>2018-03-10T11:09:47Z</time>
      </trkpt>
      <trkpt lat="46.74856" lon="-1.90215">
        <ele>6</ele>
        <time>2018-03-10T11:10:47Z</time>
      </trkpt>
      <trkpt lat="46.74855" lon="-1.90226">
        <ele>6</ele>
        <time>2018-03-10T11:11:47Z</time>
      </trkpt>
      <trkpt lat="46.74855" lon="-1.90247">
        <ele>6</ele>
        <time>2018-03-10T11:12:47Z</time>
      </trkpt>
      <trkpt lat="46.74853" lon="-1.90266">
        <ele>6</ele>
        <time>2018-03-10T11:13:47Z</time>
      </trkpt>
      <trkpt lat="46.74853" lon="-1.90275">
        <ele>6</ele>
        <time>2018-03-10T11:14:47Z</time>
      </trkpt>
      <trkpt lat="46.74852" lon="-1.90282">
        <ele>5</ele>
        <time>2018-03-10T11:15:47Z</time>
      </trkpt>
      <trkpt lat="46.74851" lon="-1.90299">
        <ele>5</ele>
        <time>2018-03-10T11:16:47Z</time>
      </trkpt>
      <trkpt lat="46.74849" lon="-1.90315">
        <ele>5</ele>
        <time>2018-03-10T11:17:47Z</time>
      </trkpt>
      <trkpt lat="46.74846" lon="-1.90329">
        <ele>5</ele>
        <time>2018-03-10T11:18:47Z</time>
      </trkpt>
      <trkpt lat="46.74846" lon="-1.90335">
        <ele>5</ele>
        <time>2018-03-10T11:19:47Z</time>
      </trkpt>
      <trkpt lat="46.74845" lon="-1.90343">
        <ele>5</ele>
        <time>2018-03-10T11:20:47Z</time>
      </trkpt>
      <trkpt lat="46.74841" lon="-1.90365">
        <ele>5</ele>
        <time>2018-03-10T11:21:47Z</time>
      </trkpt>
      <trkpt lat="46.74837" lon="-1.90377">
        <ele>4</ele>
        <time>2018-03-10T11:22:47Z</time>
      </trkpt>
      <trkpt lat="46.74833" lon="-1.90388">
        <ele>4</ele>
        <time>2018-03-10T11:23:47Z</time>
      </trkpt>
      <trkpt lat="46.74833" lon="-1.90389">
        <ele>4</ele>
        <time>2018-03-10T11:24:47Z</time>
      </trkpt>
      <trkpt lat="46.74832" lon="-1.90391">
        <ele>4</ele>
        <time>2018-03-10T11:25:47Z</time>
      </trkpt>
      <trkpt lat="46.74829" lon="-1.90398">
        <ele>4</ele>
        <time>2018-03-10T11:26:47Z</time>
      </trkpt>
      <trkpt lat="46.74821" lon="-1.90411">
        <ele>4</ele>
        <time>2018-03-10T11:27:47Z</time>
      </trkpt>
      <trkpt lat="46.74812" lon="-1.90415">
        <ele>4</ele>
        <time>2018-03-10T11:28:47Z</time>
      </trkpt>
      <trkpt lat="46.74758" lon="-1.90455">
        <ele>4</ele>
        <time>2018-03-10T11:29:47Z</time>
      </trkpt>
      <trkpt lat="46.7473" lon="-1.90477">
        <ele>4</ele>
        <time>2018-03-10T11:30:47Z</time>
      </trkpt>
      <trkpt lat="46.74727" lon="-1.90479">
        <ele>4</ele>
        <time>2018-03-10T11:31:47Z</time>
      </trkpt>
      <trkpt lat="46.74672" lon="-1.90525">
        <ele>3</ele>
        <time>2018-03-10T11:32:47Z</time>
      </trkpt>
      <trkpt lat="46.74618" lon="-1.90573">
        <ele>2</ele>
        <time>2018-03-10T11:33:47Z</time>
      </trkpt>
      <trkpt lat="46.74612" lon="-1.90578">
        <ele>2</ele>
        <time>2018-03-10T11:34:47Z</time>
      </trkpt>
      <trkpt lat="46.74603" lon="-1.90586">
        <ele>2</ele>
        <time>2018-03-10T11:35:47Z</time>
      </trkpt>
      <trkpt lat="46.74591" lon="-1.90595">
        <ele>2</ele>
        <time>2018-03-10T11:36:47Z</time>
      </trkpt>
      <trkpt lat="46.74573" lon="-1.9061">
        <ele>3</ele>
        <time>2018-03-10T11:37:47Z</time>
      </trkpt>
      <trkpt lat="46.74567" lon="-1.90615">
        <ele>3</ele>
        <time>2018-03-10T11:38:47Z</time>
      </trkpt>
      <trkpt lat="46.74552" lon="-1.90625">
        <ele>3</ele>
        <time>2018-03-10T11:39:47Z</time>
      </trkpt>
      <trkpt lat="46.74549" lon="-1.90627">
        <ele>3</ele>
        <time>2018-03-10T11:40:47Z</time>
      </trkpt>
      <trkpt lat="46.7454" lon="-1.90638">
        <ele>4</ele>
        <time>2018-03-10T11:41:47Z</time>
      </trkpt>
      <trkpt lat="46.74534" lon="-1.90643">
        <ele>4</ele>
        <time>2018-03-10T11:42:47Z</time>
      </trkpt>
      <trkpt lat="46.7453" lon="-1.90647">
        <ele>4</ele>
        <time>2018-03-10T11:43:47Z</time>
      </trkpt>
      <trkpt lat="46.74529" lon="-1.90651">
        <ele>4</ele>
        <time>2018-03-10T11:44:47Z</time>
      </trkpt>
      <trkpt lat="46.74529" lon="-1.90653">
        <ele>4</ele>
        <time>2018-03-10T11:45:47Z</time>
      </trkpt>
      <trkpt lat="46.74528" lon="-1.90656">
        <ele>4</ele>
        <time>2018-03-10T11:46:47Z</time>
      </trkpt>
      <trkpt lat="46.74534" lon="-1.90664">
        <ele>4</ele>
        <time>2018-03-10T11:47:47Z</time>
      </trkpt>
      <trkpt lat="46.74545" lon="-1.90687">
        <ele>4</ele>
        <time>2018-03-10T11:48:47Z</time>
      </trkpt>
      <trkpt lat="46.74551" lon="-1.907">
        <ele>4</ele>
        <time>2018-03-10T11:49:47Z</time>
      </trkpt>
      <trkpt lat="46.74557" lon="-1.90713">
        <ele>4</ele>
        <time>2018-03-10T11:50:47Z</time>
      </trkpt>
      <trkpt lat="46.74562" lon="-1.90725">
        <ele>4</ele>
        <time>2018-03-10T11:51:47Z</time>
      </trkpt>
      <trkpt lat="46.74564" lon="-1.90734">
        <ele>4</ele>
        <time>2018-03-10T11:52:47Z</time>
      </trkpt>
      <trkpt lat="46.74565" lon="-1.90746">
        <ele>4</ele>
        <time>2018-03-10T11:53:47Z</time>
      </trkpt>
      <trkpt lat="46.74566" lon="-1.90756">
        <ele>4</ele>
        <time>2018-03-10T11:54:47Z</time>
      </trkpt>
      <trkpt lat="46.74569" lon="-1.9079">
        <ele>4</ele>
        <time>2018-03-10T11:55:47Z</time>
      </trkpt>
      <trkpt lat="46.74572" lon="-1.90814">
        <ele>4</ele>
        <time>2018-03-10T11:56:47Z</time>
      </trkpt>
      <trkpt lat="46.74573" lon="-1.90827">
        <ele>4</ele>
        <time>2018-03-10T11:57:47Z</time>
      </trkpt>
      <trkpt lat="46.74573" lon="-1.90854">
        <ele>4</ele>
        <time>2018-03-10T11:58:47Z</time>
      </trkpt>
      <trkpt lat="46.74573" lon="-1.90866">
        <ele>4</ele>
        <time>2018-03-10T11:59:47Z</time>
      </trkpt>
      <trkpt lat="46.74573" lon="-1.90872">
        <ele>4</ele>
        <time>2018-03-10T12:00:47Z</time>
      </trkpt>
      <trkpt lat="46.74581" lon="-1.90912">
        <ele>3</ele>
        <time>2018-03-10T12:01:47Z</time>
      </trkpt>
      <trkpt lat="46.74591" lon="-1.9094">
        <ele>3</ele>
        <time>2018-03-10T12:02:47Z</time>
      </trkpt>
      <trkpt lat="46.74594" lon="-1.90947">
        <ele>3</ele>
        <time>2018-03-10T12:03:47Z</time>
      </trkpt>
      <trkpt lat="46.74599" lon="-1.9096">
        <ele>3</ele>
        <time>2018-03-10T12:04:47Z</time>
      </trkpt>
      <trkpt lat="46.74602" lon="-1.9097">
        <ele>3</ele>
        <time>2018-03-10T12:05:47Z</time>
      </trkpt>
      <trkpt lat="46.74603" lon="-1.9098">
        <ele>3</ele>
        <time>2018-03-10T12:06:47Z</time>
      </trkpt>
      <trkpt lat="46.74603" lon="-1.9099">
        <ele>3</ele>
        <time>2018-03-10T12:07:47Z</time>
      </trkpt>
      <trkpt lat="46.74602" lon="-1.91001">
        <ele>3</ele>
        <time>2018-03-10T12:08:47Z</time>
      </trkpt>
      <trkpt lat="46.746" lon="-1.91009">
        <ele>3</ele>
        <time>2018-03-10T12:09:47Z</time>
      </trkpt>
      <trkpt lat="46.74598" lon="-1.91015">
        <ele>3</ele>
        <time>2018-03-10T12:10:47Z</time>
      </trkpt>
      <trkpt lat="46.74597" lon="-1.91017">
        <ele>3</ele>
        <time>2018-03-10T12:11:47Z</time>
      </trkpt>
      <trkpt lat="46.74596" lon="-1.91019">
        <ele>3</ele>
        <time>2018-03-10T12:12:47Z</time>
      </trkpt>
      <trkpt lat="46.74591" lon="-1.91026">
        <ele>3</ele>
        <time>2018-03-10T12:13:47Z</time>
      </trkpt>
      <trkpt lat="46.74593" lon="-1.91029">
        <ele>3</ele>
        <time>2018-03-10T12:14:47Z</time>
      </trkpt>
      <trkpt lat="46.74594" lon="-1.91033">
        <ele>3</ele>
        <time>2018-03-10T12:15:47Z</time>
      </trkpt>
      <trkpt lat="46.74594" lon="-1.91036">
        <ele>2</ele>
        <time>2018-03-10T12:16:47Z</time>
      </trkpt>
      <trkpt lat="46.74593" lon="-1.91039">
        <ele>2</ele>
        <time>2018-03-10T12:17:47Z</time>
      </trkpt>
      <trkpt lat="46.74592" lon="-1.91043">
        <ele>2</ele>
        <time>2018-03-10T12:18:47Z</time>
      </trkpt>
      <trkpt lat="46.74589" lon="-1.91044">
        <ele>2</ele>
        <time>2018-03-10T12:19:47Z</time>
      </trkpt>
      <trkpt lat="46.74586" lon="-1.91045">
        <ele>2</ele>
        <time>2018-03-10T12:20:47Z</time>
      </trkpt>
      <trkpt lat="46.74584" lon="-1.91045">
        <ele>2</ele>
        <time>2018-03-10T12:21:47Z</time>
      </trkpt>
      <trkpt lat="46.74576" lon="-1.9106">
        <ele>2</ele>
        <time>2018-03-10T12:22:47Z</time>
      </trkpt>
      <trkpt lat="46.74573" lon="-1.91066">
        <ele>2</ele>
        <time>2018-03-10T12:23:47Z</time>
      </trkpt>
      <trkpt lat="46.74569" lon="-1.91072">
        <ele>2</ele>
        <time>2018-03-10T12:24:47Z</time>
      </trkpt>
      <trkpt lat="46.74563" lon="-1.91079">
        <ele>3</ele>
        <time>2018-03-10T12:25:47Z</time>
      </trkpt>
      <trkpt lat="46.74534" lon="-1.91117">
        <ele>3</ele>
        <time>2018-03-10T12:26:47Z</time>
      </trkpt>
      <trkpt lat="46.74477" lon="-1.91184">
        <ele>4</ele>
        <time>2018-03-10T12:27:47Z</time>
      </trkpt>
      <trkpt lat="46.74469" lon="-1.91194">
        <ele>4</ele>
        <time>2018-03-10T12:28:47Z</time>
      </trkpt>
      <trkpt lat="46.74418" lon="-1.91257">
        <ele>3</ele>
        <time>2018-03-10T12:29:47Z</time>
      </trkpt>
      <trkpt lat="46.74388" lon="-1.91293">
        <ele>3</ele>
        <time>2018-03-10T12:30:47Z</time>
      </trkpt>
      <trkpt lat="46.74385" lon="-1.91297">
        <ele>3</ele>
        <time>2018-03-10T12:31:47Z</time>
      </trkpt>
      <trkpt lat="46.74375" lon="-1.91309">
        <ele>3</ele>
        <time>2018-03-10T12:32:47Z</time>
      </trkpt>
      <trkpt lat="46.74367" lon="-1.91321">
        <ele>4</ele>
        <time>2018-03-10T12:33:47Z</time>
      </trkpt>
      <trkpt lat="46.74358" lon="-1.91334">
        <ele>4</ele>
        <time>2018-03-10T12:34:47Z</time>
      </trkpt>
      <trkpt lat="46.74351" lon="-1.91346">
        <ele>4</ele>
        <time>2018-03-10T12:35:47Z</time>
      </trkpt>
      <trkpt lat="46.74344" lon="-1.9136">
        <ele>4</ele>
        <time>2018-03-10T12:36:47Z</time>
      </trkpt>
      <trkpt lat="46.74333" lon="-1.91384">
        <ele>4</ele>
        <time>2018-03-10T12:37:47Z</time>
      </trkpt>
      <trkpt lat="46.74324" lon="-1.91402">
        <ele>4</ele>
        <time>2018-03-10T12:38:47Z</time>
      </trkpt>
      <trkpt lat="46.74317" lon="-1.91418">
        <ele>4</ele>
        <time>2018-03-10T12:39:47Z</time>
      </trkpt>
      <trkpt lat="46.74311" lon="-1.91431">
        <ele>4</ele>
        <time>2018-03-10T12:40:47Z</time>
      </trkpt>
      <trkpt lat="46.74311" lon="-1.91431">
        <ele>4</ele>
        <time>2018-03-10T12:41:47Z</time>
      </trkpt>
      <trkpt lat="46.74297" lon="-1.91431">
        <ele>4</ele>
        <time>2018-03-10T12:42:47Z</time>
      </trkpt>
      <trkpt lat="46.74294" lon="-1.91432">
        <ele>4</ele>
        <time>2018-03-10T12:43:47Z</time>
      </trkpt>
      <trkpt lat="46.74292" lon="-1.91432">
        <ele>4</ele>
        <time>2018-03-10T12:44:47Z</time>
      </trkpt>
      <trkpt lat="46.74283" lon="-1.91443">
        <ele>4</ele>
        <time>2018-03-10T12:45:47Z</time>
      </trkpt>
      <trkpt lat="46.74245" lon="-1.91482">
        <ele>5</ele>
        <time>2018-03-10T12:46:47Z</time>
      </trkpt>
      <trkpt lat="46.74235" lon="-1.91492">
        <ele>5</ele>
        <time>2018-03-10T12:47:47Z</time>
      </trkpt>
      <trkpt lat="46.74192" lon="-1.91535">
        <ele>5</ele>
        <time>2018-03-10T12:48:47Z</time>
      </trkpt>
      <trkpt lat="46.74174" lon="-1.91553">
        <ele>5</ele>
        <time>2018-03-10T12:49:47Z</time>
      </trkpt>
      <trkpt lat="46.74172" lon="-1.91555">
        <ele>5</ele>
        <time>2018-03-10T12:50:47Z</time>
      </trkpt>
      <trkpt lat="46.74156" lon="-1.9157">
        <ele>5</ele>
        <time>2018-03-10T12:51:47Z</time>
      </trkpt>
      <trkpt lat="46.74143" lon="-1.91582">
        <ele>5</ele>
        <time>2018-03-10T12:52:47Z</time>
      </trkpt>
      <trkpt lat="46.74117" lon="-1.91604">
        <ele>5</ele>
        <time>2018-03-10T12:53:47Z</time>
      </trkpt>
      <trkpt lat="46.74089" lon="-1.91626">
        <ele>5</ele>
        <time>2018-03-10T12:54:47Z</time>
      </trkpt>
      <trkpt lat="46.74036" lon="-1.91667">
        <ele>6</ele>
        <time>2018-03-10T12:55:47Z</time>
      </trkpt>
      <trkpt lat="46.73994" lon="-1.91701">
        <ele>5</ele>
        <time>2018-03-10T12:56:47Z</time>
      </trkpt>
      <trkpt lat="46.73966" lon="-1.91725">
        <ele>5</ele>
        <time>2018-03-10T12:57:47Z</time>
      </trkpt>
      <trkpt lat="46.73966" lon="-1.91725">
        <ele>5</ele>
        <time>2018-03-10T12:58:47Z</time>
      </trkpt>
      <trkpt lat="46.73954" lon="-1.91736">
        <ele>5</ele>
        <time>2018-03-10T12:59:47Z</time>
      </trkpt>
      <trkpt lat="46.73946" lon="-1.91744">
        <ele>4</ele>
        <time>2018-03-10T13:00:47Z</time>
      </trkpt>
      <trkpt lat="46.73929" lon="-1.91762">
        <ele>4</ele>
        <time>2018-03-10T13:01:47Z</time>
      </trkpt>
      <trkpt lat="46.73918" lon="-1.91773">
        <ele>4</ele>
        <time>2018-03-10T13:02:47Z</time>
      </trkpt>
      <trkpt lat="46.73863" lon="-1.91828">
        <ele>4</ele>
        <time>2018-03-10T13:03:47Z</time>
      </trkpt>
      <trkpt lat="46.73813" lon="-1.91873">
        <ele>5</ele>
        <time>2018-03-10T13:04:47Z</time>
      </trkpt>
      <trkpt lat="46.738" lon="-1.91886">
        <ele>5</ele>
        <time>2018-03-10T13:05:47Z</time>
      </trkpt>
      <trkpt lat="46.73793" lon="-1.91895">
        <ele>5</ele>
        <time>2018-03-10T13:06:47Z</time>
      </trkpt>
      <trkpt lat="46.73787" lon="-1.91904">
        <ele>5</ele>
        <time>2018-03-10T13:07:47Z</time>
      </trkpt>
      <trkpt lat="46.73787" lon="-1.91904">
        <ele>5</ele>
        <time>2018-03-10T13:08:47Z</time>
      </trkpt>
      <trkpt lat="46.73784" lon="-1.91895">
        <ele>5</ele>
        <time>2018-03-10T13:09:47Z</time>
      </trkpt>
      <trkpt lat="46.73782" lon="-1.91884">
        <ele>5</ele>
        <time>2018-03-10T13:10:47Z</time>
      </trkpt>
      <trkpt lat="46.73781" lon="-1.91872">
        <ele>5</ele>
        <time>2018-03-10T13:11:47Z</time>
      </trkpt>
      <trkpt lat="46.73781" lon="-1.91858">
        <ele>5</ele>
        <time>2018-03-10T13:12:47Z</time>
      </trkpt>
      <trkpt lat="46.73781" lon="-1.91846">
        <ele>5</ele>
        <time>2018-03-10T13:13:47Z</time>
      </trkpt>
      <trkpt lat="46.73781" lon="-1.91794">
        <ele>5</ele>
        <time>2018-03-10T13:14:47Z</time>
      </trkpt>
      <trkpt lat="46.73781" lon="-1.91789">
        <ele>5</ele>
        <time>2018-03-10T13:15:47Z</time>
      </trkpt>
      <trkpt lat="46.73781" lon="-1.91789">
        <ele>5</ele>
        <time>2018-03-10T13:16:47Z</time>
      </trkpt>
      <trkpt lat="46.7378" lon="-1.91777">
        <ele>5</ele>
        <time>2018-03-10T13:17:47Z</time>
      </trkpt>
      <trkpt lat="46.73779" lon="-1.91762">
        <ele>5</ele>
        <time>2018-03-10T13:18:47Z</time>
      </trkpt>
      <trkpt lat="46.73777" lon="-1.9175">
        <ele>5</ele>
        <time>2018-03-10T13:19:47Z</time>
      </trkpt>
      <trkpt lat="46.73775" lon="-1.9174">
        <ele>5</ele>
        <time>2018-03-10T13:20:47Z</time>
      </trkpt>
      <trkpt lat="46.73771" lon="-1.91727">
        <ele>5</ele>
        <time>2018-03-10T13:21:47Z</time>
      </trkpt>
      <trkpt lat="46.73767" lon="-1.91714">
        <ele>5</ele>
        <time>2018-03-10T13:22:47Z</time>
      </trkpt>
      <trkpt lat="46.73761" lon="-1.91698">
        <ele>5</ele>
        <time>2018-03-10T13:23:47Z</time>
      </trkpt>
      <trkpt lat="46.73752" lon="-1.91678">
        <ele>5</ele>
        <time>2018-03-10T13:24:47Z</time>
      </trkpt>
      <trkpt lat="46.73728" lon="-1.91632">
        <ele>7</ele>
        <time>2018-03-10T13:25:47Z</time>
      </trkpt>
      <trkpt lat="46.73685" lon="-1.91548">
        <ele>6</ele>
        <time>2018-03-10T13:26:47Z</time>
      </trkpt>
      <trkpt lat="46.73651" lon="-1.91488">
        <ele>5</ele>
        <time>2018-03-10T13:27:47Z</time>
      </trkpt>
      <trkpt lat="46.73615" lon="-1.91424">
        <ele>6</ele>
        <time>2018-03-10T13:28:47Z</time>
      </trkpt>
      <trkpt lat="46.73578" lon="-1.91364">
        <ele>7</ele>
        <time>2018-03-10T13:29:47Z</time>
      </trkpt>
      <trkpt lat="46.73569" lon="-1.91351">
        <ele>7</ele>
        <time>2018-03-10T13:30:47Z</time>
      </trkpt>
      <trkpt lat="46.73558" lon="-1.91337">
        <ele>8</ele>
        <time>2018-03-10T13:31:47Z</time>
      </trkpt>
      <trkpt lat="46.73546" lon="-1.91323">
        <ele>8</ele>
        <time>2018-03-10T13:32:47Z</time>
      </trkpt>
      <trkpt lat="46.73522" lon="-1.91298">
        <ele>8</ele>
        <time>2018-03-10T13:33:47Z</time>
      </trkpt>
      <trkpt lat="46.73481" lon="-1.91256">
        <ele>9</ele>
        <time>2018-03-10T13:34:47Z</time>
      </trkpt>
      <trkpt lat="46.73456" lon="-1.91235">
        <ele>10</ele>
        <time>2018-03-10T13:35:47Z</time>
      </trkpt>
      <trkpt lat="46.73456" lon="-1.91235">
        <ele>10</ele>
        <time>2018-03-10T13:36:47Z</time>
      </trkpt>
      <trkpt lat="46.73442" lon="-1.91257">
        <ele>11</ele>
        <time>2018-03-10T13:37:47Z</time>
      </trkpt>
      <trkpt lat="46.73421" lon="-1.91295">
        <ele>11</ele>
        <time>2018-03-10T13:38:47Z</time>
      </trkpt>
      <trkpt lat="46.73392" lon="-1.91347">
        <ele>11</ele>
        <time>2018-03-10T13:39:47Z</time>
      </trkpt>
      <trkpt lat="46.73368" lon="-1.91384">
        <ele>12</ele>
        <time>2018-03-10T13:40:47Z</time>
      </trkpt>
      <trkpt lat="46.7336" lon="-1.91399">
        <ele>12</ele>
        <time>2018-03-10T13:41:47Z</time>
      </trkpt>
      <trkpt lat="46.73357" lon="-1.91405">
        <ele>13</ele>
        <time>2018-03-10T13:42:47Z</time>
      </trkpt>
      <trkpt lat="46.73355" lon="-1.91413">
        <ele>13</ele>
        <time>2018-03-10T13:43:47Z</time>
      </trkpt>
      <trkpt lat="46.73349" lon="-1.91432">
        <ele>13</ele>
        <time>2018-03-10T13:44:47Z</time>
      </trkpt>
      <trkpt lat="46.73344" lon="-1.91455">
        <ele>13</ele>
        <time>2018-03-10T13:45:47Z</time>
      </trkpt>
      <trkpt lat="46.7334" lon="-1.91469">
        <ele>13</ele>
        <time>2018-03-10T13:46:47Z</time>
      </trkpt>
      <trkpt lat="46.73339" lon="-1.91474">
        <ele>14</ele>
        <time>2018-03-10T13:47:47Z</time>
      </trkpt>
      <trkpt lat="46.73337" lon="-1.9148">
        <ele>14</ele>
        <time>2018-03-10T13:48:47Z</time>
      </trkpt>
      <trkpt lat="46.73335" lon="-1.91484">
        <ele>14</ele>
        <time>2018-03-10T13:49:47Z</time>
      </trkpt>
      <trkpt lat="46.73331" lon="-1.9149">
        <ele>14</ele>
        <time>2018-03-10T13:50:47Z</time>
      </trkpt>
      <trkpt lat="46.73331" lon="-1.9149">
        <ele>14</ele>
        <time>2018-03-10T13:51:47Z</time>
      </trkpt>
      <trkpt lat="46.73327" lon="-1.91472">
        <ele>14</ele>
        <time>2018-03-10T13:52:47Z</time>
      </trkpt>
      <trkpt lat="46.73321" lon="-1.91454">
        <ele>14</ele>
        <time>2018-03-10T13:53:47Z</time>
      </trkpt>
      <trkpt lat="46.73312" lon="-1.91432">
        <ele>13</ele>
        <time>2018-03-10T13:54:47Z</time>
      </trkpt>
      <trkpt lat="46.73304" lon="-1.91414">
        <ele>13</ele>
        <time>2018-03-10T13:55:47Z</time>
      </trkpt>
      <trkpt lat="46.73298" lon="-1.91401">
        <ele>13</ele>
        <time>2018-03-10T13:56:47Z</time>
      </trkpt>
      <trkpt lat="46.7328" lon="-1.91361">
        <ele>13</ele>
        <time>2018-03-10T13:57:47Z</time>
      </trkpt>
      <trkpt lat="46.73264" lon="-1.91328">
        <ele>13</ele>
        <time>2018-03-10T13:58:47Z</time>
      </trkpt>
      <trkpt lat="46.7325" lon="-1.91296">
        <ele>12</ele>
        <time>2018-03-10T13:59:47Z</time>
      </trkpt>
      <trkpt lat="46.73239" lon="-1.91274">
        <ele>10</ele>
        <time>2018-03-10T14:00:47Z</time>
      </trkpt>
      <trkpt lat="46.73227" lon="-1.91249">
        <ele>9</ele>
        <time>2018-03-10T14:01:47Z</time>
      </trkpt>
      <trkpt lat="46.73223" lon="-1.91238">
        <ele>9</ele>
        <time>2018-03-10T14:02:47Z</time>
      </trkpt>
      <trkpt lat="46.73208" lon="-1.91204">
        <ele>8</ele>
        <time>2018-03-10T14:03:47Z</time>
      </trkpt>
      <trkpt lat="46.73197" lon="-1.91182">
        <ele>8</ele>
        <time>2018-03-10T14:04:47Z</time>
      </trkpt>
      <trkpt lat="46.73184" lon="-1.91155">
        <ele>7</ele>
        <time>2018-03-10T14:05:47Z</time>
      </trkpt>
      <trkpt lat="46.73174" lon="-1.91134">
        <ele>6</ele>
        <time>2018-03-10T14:06:47Z</time>
      </trkpt>
      <trkpt lat="46.73169" lon="-1.91126">
        <ele>5</ele>
        <time>2018-03-10T14:07:47Z</time>
      </trkpt>
      <trkpt lat="46.73163" lon="-1.91117">
        <ele>5</ele>
        <time>2018-03-10T14:08:47Z</time>
      </trkpt>
      <trkpt lat="46.73151" lon="-1.91102">
        <ele>4</ele>
        <time>2018-03-10T14:09:47Z</time>
      </trkpt>
      <trkpt lat="46.73148" lon="-1.91095">
        <ele>4</ele>
        <time>2018-03-10T14:10:47Z</time>
      </trkpt>
      <trkpt lat="46.73137" lon="-1.91077">
        <ele>4</ele>
        <time>2018-03-10T14:11:47Z</time>
      </trkpt>
      <trkpt lat="46.7313" lon="-1.91067">
        <ele>4</ele>
        <time>2018-03-10T14:12:47Z</time>
      </trkpt>
      <trkpt lat="46.73098" lon="-1.91017">
        <ele>2</ele>
        <time>2018-03-10T14:13:47Z</time>
      </trkpt>
      <trkpt lat="46.73057" lon="-1.90954">
        <ele>1</ele>
        <time>2018-03-10T14:14:47Z</time>
      </trkpt>
      <trkpt lat="46.73019" lon="-1.90898">
        <ele>2.8</ele>
        <time>2018-03-10T14:15:47Z</time>
      </trkpt>
      <trkpt lat="46.72986" lon="-1.90845">
        <ele>1</ele>
        <time>2018-03-10T14:16:47Z</time>
      </trkpt>
      <trkpt lat="46.72951" lon="-1.90792">
        <ele>3.2</ele>
        <time>2018-03-10T14:17:47Z</time>
      </trkpt>
      <trkpt lat="46.72909" lon="-1.90728">
        <ele>2.6</ele>
        <time>2018-03-10T14:18:47Z</time>
      </trkpt>
      <trkpt lat="46.7288" lon="-1.90681">
        <ele>1</ele>
        <time>2018-03-10T14:19:47Z</time>
      </trkpt>
      <trkpt lat="46.72851" lon="-1.9064">
        <ele>3</ele>
        <time>2018-03-10T14:20:47Z</time>
      </trkpt>
      <trkpt lat="46.72831" lon="-1.90608">
        <ele>2.9</ele>
        <time>2018-03-10T14:21:47Z</time>
      </trkpt>
      <trkpt lat="46.72812" lon="-1.9058">
        <ele>3.4</ele>
        <time>2018-03-10T14:22:47Z</time>
      </trkpt>
      <trkpt lat="46.72794" lon="-1.90558">
        <ele>2.5</ele>
        <time>2018-03-10T14:23:47Z</time>
      </trkpt>
      <trkpt lat="46.72781" lon="-1.90543">
        <ele>1</ele>
        <time>2018-03-10T14:24:47Z</time>
      </trkpt>
      <trkpt lat="46.7276" lon="-1.90525">
        <ele>3.2</ele>
        <time>2018-03-10T14:25:47Z</time>
      </trkpt>
      <trkpt lat="46.72749" lon="-1.90513">
        <ele>3</ele>
        <time>2018-03-10T14:26:47Z</time>
      </trkpt>
      <trkpt lat="46.72728" lon="-1.90494">
        <ele>3.2</ele>
        <time>2018-03-10T14:27:47Z</time>
      </trkpt>
      <trkpt lat="46.72728" lon="-1.90494">
        <ele>3.2</ele>
        <time>2018-03-10T14:28:47Z</time>
      </trkpt>
      <trkpt lat="46.7272" lon="-1.90488">
        <ele>3.1</ele>
        <time>2018-03-10T14:29:47Z</time>
      </trkpt>
      <trkpt lat="46.72712" lon="-1.9048">
        <ele>2.3</ele>
        <time>2018-03-10T14:30:47Z</time>
      </trkpt>
      <trkpt lat="46.72704" lon="-1.90472">
        <ele>1.4</ele>
        <time>2018-03-10T14:31:47Z</time>
      </trkpt>
      <trkpt lat="46.72699" lon="-1.90466">
        <ele>1.7</ele>
        <time>2018-03-10T14:32:47Z</time>
      </trkpt>
      <trkpt lat="46.72693" lon="-1.90461">
        <ele>2.3</ele>
        <time>2018-03-10T14:33:47Z</time>
      </trkpt>
      <trkpt lat="46.72682" lon="-1.90451">
        <ele>3.5</ele>
        <time>2018-03-10T14:34:47Z</time>
      </trkpt>
      <trkpt lat="46.72671" lon="-1.9044">
        <ele>3.8</ele>
        <time>2018-03-10T14:35:47Z</time>
      </trkpt>
      <trkpt lat="46.72643" lon="-1.90413">
        <ele>3.7</ele>
        <time>2018-03-10T14:36:47Z</time>
      </trkpt>
      <trkpt lat="46.72603" lon="-1.90372">
        <ele>3.5</ele>
        <time>2018-03-10T14:37:47Z</time>
      </trkpt>
      <trkpt lat="46.72573" lon="-1.90343">
        <ele>1</ele>
        <time>2018-03-10T14:38:47Z</time>
      </trkpt>
      <trkpt lat="46.7254" lon="-1.90311">
        <ele>1</ele>
        <time>2018-03-10T14:39:47Z</time>
      </trkpt>
      <trkpt lat="46.72506" lon="-1.90278">
        <ele>2</ele>
        <time>2018-03-10T14:40:47Z</time>
      </trkpt>
      <trkpt lat="46.72485" lon="-1.90257">
        <ele>2</ele>
        <time>2018-03-10T14:41:47Z</time>
      </trkpt>
      <trkpt lat="46.72468" lon="-1.90239">
        <ele>2</ele>
        <time>2018-03-10T14:42:47Z</time>
      </trkpt>
      <trkpt lat="46.72458" lon="-1.90226">
        <ele>2</ele>
        <time>2018-03-10T14:43:47Z</time>
      </trkpt>
      <trkpt lat="46.7245" lon="-1.90213">
        <ele>2</ele>
        <time>2018-03-10T14:44:47Z</time>
      </trkpt>
      <trkpt lat="46.7244" lon="-1.9019">
        <ele>2</ele>
        <time>2018-03-10T14:45:47Z</time>
      </trkpt>
      <trkpt lat="46.7243" lon="-1.90169">
        <ele>2</ele>
        <time>2018-03-10T14:46:47Z</time>
      </trkpt>
      <trkpt lat="46.72412" lon="-1.90128">
        <ele>2</ele>
        <time>2018-03-10T14:47:47Z</time>
      </trkpt>
      <trkpt lat="46.72403" lon="-1.90108">
        <ele>3</ele>
        <time>2018-03-10T14:48:47Z</time>
      </trkpt>
      <trkpt lat="46.72388" lon="-1.90076">
        <ele>3</ele>
        <time>2018-03-10T14:49:47Z</time>
      </trkpt>
      <trkpt lat="46.72372" lon="-1.90041">
        <ele>4</ele>
        <time>2018-03-10T14:50:47Z</time>
      </trkpt>
      <trkpt lat="46.72358" lon="-1.90013">
        <ele>5</ele>
        <time>2018-03-10T14:51:47Z</time>
      </trkpt>
      <trkpt lat="46.72348" lon="-1.89995">
        <ele>5</ele>
        <time>2018-03-10T14:52:47Z</time>
      </trkpt>
      <trkpt lat="46.72336" lon="-1.89977">
        <ele>6</ele>
        <time>2018-03-10T14:53:47Z</time>
      </trkpt>
      <trkpt lat="46.72329" lon="-1.89969">
        <ele>6</ele>
        <time>2018-03-10T14:54:47Z</time>
      </trkpt>
      <trkpt lat="46.72323" lon="-1.8996">
        <ele>6</ele>
        <time>2018-03-10T14:55:47Z</time>
      </trkpt>
      <trkpt lat="46.72315" lon="-1.89944">
        <ele>6</ele>
        <time>2018-03-10T14:56:47Z</time>
      </trkpt>
      <trkpt lat="46.72307" lon="-1.89925">
        <ele>6</ele>
        <time>2018-03-10T14:57:47Z</time>
      </trkpt>
      <trkpt lat="46.723" lon="-1.89904">
        <ele>6</ele>
        <time>2018-03-10T14:58:47Z</time>
      </trkpt>
      <trkpt lat="46.72292" lon="-1.8988">
        <ele>6</ele>
        <time>2018-03-10T14:59:47Z</time>
      </trkpt>
      <trkpt lat="46.72283" lon="-1.89855">
        <ele>6</ele>
        <time>2018-03-10T15:00:47Z</time>
      </trkpt>
      <trkpt lat="46.72271" lon="-1.89821">
        <ele>6</ele>
        <time>2018-03-10T15:01:47Z</time>
      </trkpt>
      <trkpt lat="46.72261" lon="-1.89791">
        <ele>7</ele>
        <time>2018-03-10T15:02:47Z</time>
      </trkpt>
      <trkpt lat="46.72253" lon="-1.8977">
        <ele>7</ele>
        <time>2018-03-10T15:03:47Z</time>
      </trkpt>
      <trkpt lat="46.72253" lon="-1.8977">
        <ele>7</ele>
        <time>2018-03-10T15:04:47Z</time>
      </trkpt>
      <trkpt lat="46.72225" lon="-1.89792">
        <ele>7</ele>
        <time>2018-03-10T15:05:47Z</time>
      </trkpt>
      <trkpt lat="46.72203" lon="-1.89809">
        <ele>8</ele>
        <time>2018-03-10T15:06:47Z</time>
      </trkpt>
      <trkpt lat="46.72178" lon="-1.8983">
        <ele>9</ele>
        <time>2018-03-10T15:07:47Z</time>
      </trkpt>
      <trkpt lat="46.72143" lon="-1.89859">
        <ele>9</ele>
        <time>2018-03-10T15:08:47Z</time>
      </trkpt>
      <trkpt lat="46.72119" lon="-1.89878">
        <ele>8</ele>
        <time>2018-03-10T15:09:47Z</time>
      </trkpt>
      <trkpt lat="46.72084" lon="-1.89908">
        <ele>7</ele>
        <time>2018-03-10T15:10:47Z</time>
      </trkpt>
      <trkpt lat="46.72056" lon="-1.8993">
        <ele>7</ele>
        <time>2018-03-10T15:11:47Z</time>
      </trkpt>
      <trkpt lat="46.72042" lon="-1.89942">
        <ele>7</ele>
        <time>2018-03-10T15:12:47Z</time>
      </trkpt>
      <trkpt lat="46.72037" lon="-1.89948">
        <ele>7</ele>
        <time>2018-03-10T15:13:47Z</time>
      </trkpt>
      <trkpt lat="46.72029" lon="-1.8996">
        <ele>7</ele>
        <time>2018-03-10T15:14:47Z</time>
      </trkpt>
      <trkpt lat="46.7202" lon="-1.89975">
        <ele>7</ele>
        <time>2018-03-10T15:15:47Z</time>
      </trkpt>
      <trkpt lat="46.72013" lon="-1.89987">
        <ele>6</ele>
        <time>2018-03-10T15:16:47Z</time>
      </trkpt>
      <trkpt lat="46.72002" lon="-1.90007">
        <ele>6</ele>
        <time>2018-03-10T15:17:47Z</time>
      </trkpt>
      <trkpt lat="46.7199" lon="-1.90031">
        <ele>6</ele>
        <time>2018-03-10T15:18:47Z</time>
      </trkpt>
      <trkpt lat="46.71979" lon="-1.9005">
        <ele>6</ele>
        <time>2018-03-10T15:19:47Z</time>
      </trkpt>
      <trkpt lat="46.71973" lon="-1.90062">
        <ele>6</ele>
        <time>2018-03-10T15:20:47Z</time>
      </trkpt>
      <trkpt lat="46.71968" lon="-1.9008">
        <ele>6</ele>
        <time>2018-03-10T15:21:47Z</time>
      </trkpt>
      <trkpt lat="46.71965" lon="-1.90106">
        <ele>6</ele>
        <time>2018-03-10T15:22:47Z</time>
      </trkpt>
      <trkpt lat="46.71962" lon="-1.90125">
        <ele>6</ele>
        <time>2018-03-10T15:23:47Z</time>
      </trkpt>
      <trkpt lat="46.71959" lon="-1.90153">
        <ele>6</ele>
        <time>2018-03-10T15:24:47Z</time>
      </trkpt>
      <trkpt lat="46.71958" lon="-1.90176">
        <ele>6</ele>
        <time>2018-03-10T15:25:47Z</time>
      </trkpt>
      <trkpt lat="46.71956" lon="-1.90191">
        <ele>6</ele>
        <time>2018-03-10T15:26:47Z</time>
      </trkpt>
      <trkpt lat="46.71953" lon="-1.90201">
        <ele>6</ele>
        <time>2018-03-10T15:27:47Z</time>
      </trkpt>
      <trkpt lat="46.71953" lon="-1.90203">
        <ele>6</ele>
        <time>2018-03-10T15:28:47Z</time>
      </trkpt>
      <trkpt lat="46.71949" lon="-1.90211">
        <ele>6</ele>
        <time>2018-03-10T15:29:47Z</time>
      </trkpt>
      <trkpt lat="46.71946" lon="-1.90218">
        <ele>6</ele>
        <time>2018-03-10T15:30:47Z</time>
      </trkpt>
      <trkpt lat="46.71941" lon="-1.90227">
        <ele>6</ele>
        <time>2018-03-10T15:31:47Z</time>
      </trkpt>
      <trkpt lat="46.71934" lon="-1.90235">
        <ele>6</ele>
        <time>2018-03-10T15:32:47Z</time>
      </trkpt>
      <trkpt lat="46.71927" lon="-1.9024">
        <ele>6</ele>
        <time>2018-03-10T15:33:47Z</time>
      </trkpt>
      <trkpt lat="46.71914" lon="-1.90248">
        <ele>6</ele>
        <time>2018-03-10T15:34:47Z</time>
      </trkpt>
      <trkpt lat="46.719" lon="-1.90254">
        <ele>7</ele>
        <time>2018-03-10T15:35:47Z</time>
      </trkpt>
      <trkpt lat="46.71896" lon="-1.90256">
        <ele>7</ele>
        <time>2018-03-10T15:36:47Z</time>
      </trkpt>
      <trkpt lat="46.7189" lon="-1.9026">
        <ele>7</ele>
        <time>2018-03-10T15:37:47Z</time>
      </trkpt>
      <trkpt lat="46.71886" lon="-1.90263">
        <ele>7</ele>
        <time>2018-03-10T15:38:47Z</time>
      </trkpt>
      <trkpt lat="46.71883" lon="-1.90267">
        <ele>7</ele>
        <time>2018-03-10T15:39:47Z</time>
      </trkpt>
      <trkpt lat="46.71879" lon="-1.90274">
        <ele>7</ele>
        <time>2018-03-10T15:40:47Z</time>
      </trkpt>
      <trkpt lat="46.71876" lon="-1.90283">
        <ele>7</ele>
        <time>2018-03-10T15:41:47Z</time>
      </trkpt>
      <trkpt lat="46.71872" lon="-1.90301">
        <ele>6</ele>
        <time>2018-03-10T15:42:47Z</time>
      </trkpt>
      <trkpt lat="46.71869" lon="-1.90308">
        <ele>6</ele>
        <time>2018-03-10T15:43:47Z</time>
      </trkpt>
      <trkpt lat="46.71865" lon="-1.90316">
        <ele>6</ele>
        <time>2018-03-10T15:44:47Z</time>
      </trkpt>
      <trkpt lat="46.71839" lon="-1.90349">
        <ele>6</ele>
        <time>2018-03-10T15:45:47Z</time>
      </trkpt>
      <trkpt lat="46.7179" lon="-1.90406">
        <ele>6</ele>
        <time>2018-03-10T15:46:47Z</time>
      </trkpt>
      <trkpt lat="46.71783" lon="-1.90415">
        <ele>6</ele>
        <time>2018-03-10T15:47:47Z</time>
      </trkpt>
      <trkpt lat="46.71764" lon="-1.90437">
        <ele>7</ele>
        <time>2018-03-10T15:48:47Z</time>
      </trkpt>
      <trkpt lat="46.71729" lon="-1.90479">
        <ele>7</ele>
        <time>2018-03-10T15:49:47Z</time>
      </trkpt>
      <trkpt lat="46.71702" lon="-1.90512">
        <ele>8</ele>
        <time>2018-03-10T15:50:47Z</time>
      </trkpt>
      <trkpt lat="46.71687" lon="-1.9053">
        <ele>8</ele>
        <time>2018-03-10T15:51:47Z</time>
      </trkpt>
      <trkpt lat="46.71673" lon="-1.90547">
        <ele>8</ele>
        <time>2018-03-10T15:52:47Z</time>
      </trkpt>
      <trkpt lat="46.71651" lon="-1.90574">
        <ele>9</ele>
        <time>2018-03-10T15:53:47Z</time>
      </trkpt>
      <trkpt lat="46.71615" lon="-1.90615">
        <ele>9</ele>
        <time>2018-03-10T15:54:47Z</time>
      </trkpt>
      <trkpt lat="46.71615" lon="-1.90616">
        <ele>9</ele>
        <time>2018-03-10T15:55:47Z</time>
      </trkpt>
      <trkpt lat="46.7161" lon="-1.90622">
        <ele>9</ele>
        <time>2018-03-10T15:56:47Z</time>
      </trkpt>
      <trkpt lat="46.71589" lon="-1.90649">
        <ele>9</ele>
        <time>2018-03-10T15:57:47Z</time>
      </trkpt>
      <trkpt lat="46.71557" lon="-1.90688">
        <ele>10</ele>
        <time>2018-03-10T15:58:47Z</time>
      </trkpt>
      <trkpt lat="46.71554" lon="-1.90691">
        <ele>10</ele>
        <time>2018-03-10T15:59:47Z</time>
      </trkpt>
      <trkpt lat="46.71544" lon="-1.90706">
        <ele>10</ele>
        <time>2018-03-10T16:00:47Z</time>
      </trkpt>
      <trkpt lat="46.71545" lon="-1.90706">
        <ele>10</ele>
        <time>2018-03-10T16:01:47Z</time>
      </trkpt>
      <trkpt lat="46.71545" lon="-1.90707">
        <ele>10</ele>
        <time>2018-03-10T16:02:47Z</time>
      </trkpt>
      <trkpt lat="46.71545" lon="-1.90708">
        <ele>10</ele>
        <time>2018-03-10T16:03:47Z</time>
      </trkpt>
      <trkpt lat="46.71546" lon="-1.90708">
        <ele>10</ele>
        <time>2018-03-10T16:04:47Z</time>
      </trkpt>
      <trkpt lat="46.71546" lon="-1.90709">
        <ele>10</ele>
        <time>2018-03-10T16:05:47Z</time>
      </trkpt>
      <trkpt lat="46.71546" lon="-1.9071">
        <ele>10</ele>
        <time>2018-03-10T16:06:47Z</time>
      </trkpt>
      <trkpt lat="46.71546" lon="-1.90711">
        <ele>10</ele>
        <time>2018-03-10T16:07:47Z</time>
      </trkpt>
      <trkpt lat="46.71546" lon="-1.90712">
        <ele>10</ele>
        <time>2018-03-10T16:08:47Z</time>
      </trkpt>
      <trkpt lat="46.71546" lon="-1.90713">
        <ele>10</ele>
        <time>2018-03-10T16:09:47Z</time>
      </trkpt>
      <trkpt lat="46.71546" lon="-1.90714">
        <ele>10</ele>
        <time>2018-03-10T16:10:47Z</time>
      </trkpt>
      <trkpt lat="46.71546" lon="-1.90715">
        <ele>10</ele>
        <time>2018-03-10T16:11:47Z</time>
      </trkpt>
      <trkpt lat="46.71546" lon="-1.90716">
        <ele>10</ele>
        <time>2018-03-10T16:12:47Z</time>
      </trkpt>
      <trkpt lat="46.71546" lon="-1.90717">
        <ele>10</ele>
        <time>2018-03-10T16:13:47Z</time>
      </trkpt>
      <trkpt lat="46.71545" lon="-1.90717">
        <ele>10</ele>
        <time>2018-03-10T16:14:47Z</time>
      </trkpt>
      <trkpt lat="46.71545" lon="-1.90718">
        <ele>10</ele>
        <time>2018-03-10T16:15:47Z</time>
      </trkpt>
      <trkpt lat="46.71545" lon="-1.90719">
        <ele>10</ele>
        <time>2018-03-10T16:16:47Z</time>
      </trkpt>
      <trkpt lat="46.71544" lon="-1.90719">
        <ele>10</ele>
        <time>2018-03-10T16:17:47Z</time>
      </trkpt>
      <trkpt lat="46.71544" lon="-1.9072">
        <ele>10</ele>
        <time>2018-03-10T16:18:47Z</time>
      </trkpt>
      <trkpt lat="46.71543" lon="-1.9072">
        <ele>10</ele>
        <time>2018-03-10T16:19:47Z</time>
      </trkpt>
      <trkpt lat="46.71542" lon="-1.9072">
        <ele>10</ele>
        <time>2018-03-10T16:20:47Z</time>
      </trkpt>
      <trkpt lat="46.71541" lon="-1.9072">
        <ele>10</ele>
        <time>2018-03-10T16:21:47Z</time>
      </trkpt>
      <trkpt lat="46.71541" lon="-1.90721">
        <ele>10</ele>
        <time>2018-03-10T16:22:47Z</time>
      </trkpt>
      <trkpt lat="46.71541" lon="-1.9072">
        <ele>10</ele>
        <time>2018-03-10T16:23:47Z</time>
      </trkpt>
      <trkpt lat="46.7154" lon="-1.9072">
        <ele>10</ele>
        <time>2018-03-10T16:24:47Z</time>
      </trkpt>
      <trkpt lat="46.71539" lon="-1.9072">
        <ele>10</ele>
        <time>2018-03-10T16:25:47Z</time>
      </trkpt>
      <trkpt lat="46.71538" lon="-1.9072">
        <ele>10</ele>
        <time>2018-03-10T16:26:47Z</time>
      </trkpt>
      <trkpt lat="46.71538" lon="-1.90719">
        <ele>10</ele>
        <time>2018-03-10T16:27:47Z</time>
      </trkpt>
      <trkpt lat="46.71537" lon="-1.90719">
        <ele>10</ele>
        <time>2018-03-10T16:28:47Z</time>
      </trkpt>
      <trkpt lat="46.71537" lon="-1.90718">
        <ele>10</ele>
        <time>2018-03-10T16:29:47Z</time>
      </trkpt>
      <trkpt lat="46.71537" lon="-1.90717">
        <ele>10</ele>
        <time>2018-03-10T16:30:47Z</time>
      </trkpt>
      <trkpt lat="46.71504" lon="-1.90753">
        <ele>11</ele>
        <time>2018-03-10T16:31:47Z</time>
      </trkpt>
      <trkpt lat="46.71468" lon="-1.90796">
        <ele>11</ele>
        <time>2018-03-10T16:32:47Z</time>
      </trkpt>
      <trkpt lat="46.71449" lon="-1.90818">
        <ele>12</ele>
        <time>2018-03-10T16:33:47Z</time>
      </trkpt>
      <trkpt lat="46.71439" lon="-1.9083">
        <ele>12</ele>
        <time>2018-03-10T16:34:47Z</time>
      </trkpt>
      <trkpt lat="46.71414" lon="-1.90862">
        <ele>13</ele>
        <time>2018-03-10T16:35:47Z</time>
      </trkpt>
      <trkpt lat="46.71394" lon="-1.90886">
        <ele>13</ele>
        <time>2018-03-10T16:36:47Z</time>
      </trkpt>
      <trkpt lat="46.71377" lon="-1.90906">
        <ele>13</ele>
        <time>2018-03-10T16:37:47Z</time>
      </trkpt>
      <trkpt lat="46.71372" lon="-1.90912">
        <ele>13</ele>
        <time>2018-03-10T16:38:47Z</time>
      </trkpt>
      <trkpt lat="46.71354" lon="-1.90933">
        <ele>12</ele>
        <time>2018-03-10T16:39:47Z</time>
      </trkpt>
      <trkpt lat="46.71332" lon="-1.90962">
        <ele>12</ele>
        <time>2018-03-10T16:40:47Z</time>
      </trkpt>
      <trkpt lat="46.7131" lon="-1.90988">
        <ele>12</ele>
        <time>2018-03-10T16:41:47Z</time>
      </trkpt>
      <trkpt lat="46.713" lon="-1.91004">
        <ele>12</ele>
        <time>2018-03-10T16:42:47Z</time>
      </trkpt>
      <trkpt lat="46.71289" lon="-1.9102">
        <ele>12</ele>
        <time>2018-03-10T16:43:47Z</time>
      </trkpt>
      <trkpt lat="46.71277" lon="-1.9104">
        <ele>12</ele>
        <time>2018-03-10T16:44:47Z</time>
      </trkpt>
      <trkpt lat="46.71264" lon="-1.91064">
        <ele>12</ele>
        <time>2018-03-10T16:45:47Z</time>
      </trkpt>
      <trkpt lat="46.71255" lon="-1.91084">
        <ele>12</ele>
        <time>2018-03-10T16:46:47Z</time>
      </trkpt>
      <trkpt lat="46.71244" lon="-1.91108">
        <ele>12</ele>
        <time>2018-03-10T16:47:47Z</time>
      </trkpt>
      <trkpt lat="46.71231" lon="-1.91139">
        <ele>11</ele>
        <time>2018-03-10T16:48:47Z</time>
      </trkpt>
      <trkpt lat="46.71227" lon="-1.91147">
        <ele>11</ele>
        <time>2018-03-10T16:49:47Z</time>
      </trkpt>
      <trkpt lat="46.71216" lon="-1.91174">
        <ele>11</ele>
        <time>2018-03-10T16:50:47Z</time>
      </trkpt>
      <trkpt lat="46.712" lon="-1.9121">
        <ele>11</ele>
        <time>2018-03-10T16:51:47Z</time>
      </trkpt>
      <trkpt lat="46.71185" lon="-1.91246">
        <ele>11</ele>
        <time>2018-03-10T16:52:47Z</time>
      </trkpt>
      <trkpt lat="46.71175" lon="-1.91271">
        <ele>11</ele>
        <time>2018-03-10T16:53:47Z</time>
      </trkpt>
      <trkpt lat="46.71164" lon="-1.91298">
        <ele>11</ele>
        <time>2018-03-10T16:54:47Z</time>
      </trkpt>
      <trkpt lat="46.71152" lon="-1.91328">
        <ele>12</ele>
        <time>2018-03-10T16:55:47Z</time>
      </trkpt>
      <trkpt lat="46.7115" lon="-1.91334">
        <ele>12</ele>
        <time>2018-03-10T16:56:47Z</time>
      </trkpt>
      <trkpt lat="46.71148" lon="-1.91339">
        <ele>12</ele>
        <time>2018-03-10T16:57:47Z</time>
      </trkpt>
      <trkpt lat="46.71136" lon="-1.91372">
        <ele>12</ele>
        <time>2018-03-10T16:58:47Z</time>
      </trkpt>
      <trkpt lat="46.71122" lon="-1.91407">
        <ele>13</ele>
        <time>2018-03-10T16:59:47Z</time>
      </trkpt>
      <trkpt lat="46.71113" lon="-1.91429">
        <ele>14</ele>
        <time>2018-03-10T17:00:47Z</time>
      </trkpt>
      <trkpt lat="46.71106" lon="-1.91442">
        <ele>14</ele>
        <time>2018-03-10T17:01:47Z</time>
      </trkpt>
      <trkpt lat="46.71103" lon="-1.91449">
        <ele>14</ele>
        <time>2018-03-10T17:02:47Z</time>
      </trkpt>
      <trkpt lat="46.71102" lon="-1.91452">
        <ele>14</ele>
        <time>2018-03-10T17:03:47Z</time>
      </trkpt>
      <trkpt lat="46.71099" lon="-1.91459">
        <ele>14</ele>
        <time>2018-03-10T17:04:47Z</time>
      </trkpt>
      <trkpt lat="46.71097" lon="-1.91462">
        <ele>15</ele>
        <time>2018-03-10T17:05:47Z</time>
      </trkpt>
      <trkpt lat="46.71096" lon="-1.91463">
        <ele>15</ele>
        <time>2018-03-10T17:06:47Z</time>
      </trkpt>
      <trkpt lat="46.71095" lon="-1.91465">
        <ele>15</ele>
        <time>2018-03-10T17:07:47Z</time>
      </trkpt>
      <trkpt lat="46.71085" lon="-1.91481">
        <ele>15</ele>
        <time>2018-03-10T17:08:47Z</time>
      </trkpt>
      <trkpt lat="46.7107" lon="-1.91503">
        <ele>15</ele>
        <time>2018-03-10T17:09:47Z</time>
      </trkpt>
      <trkpt lat="46.71064" lon="-1.91509">
        <ele>15</ele>
        <time>2018-03-10T17:10:47Z</time>
      </trkpt>
      <trkpt lat="46.71054" lon="-1.91523">
        <ele>16</ele>
        <time>2018-03-10T17:11:47Z</time>
      </trkpt>
      <trkpt lat="46.71042" lon="-1.91539">
        <ele>16</ele>
        <time>2018-03-10T17:12:47Z</time>
      </trkpt>
      <trkpt lat="46.71022" lon="-1.91567">
        <ele>16</ele>
        <time>2018-03-10T17:13:47Z</time>
      </trkpt>
      <trkpt lat="46.7102" lon="-1.9157">
        <ele>17</ele>
        <time>2018-03-10T17:14:47Z</time>
      </trkpt>
      <trkpt lat="46.71018" lon="-1.91572">
        <ele>17</ele>
        <time>2018-03-10T17:15:47Z</time>
      </trkpt>
      <trkpt lat="46.70999" lon="-1.91598">
        <ele>17</ele>
        <time>2018-03-10T17:16:47Z</time>
      </trkpt>
      <trkpt lat="46.70971" lon="-1.91634">
        <ele>17</ele>
        <time>2018-03-10T17:17:47Z</time>
      </trkpt>
      <trkpt lat="46.70954" lon="-1.91659">
        <ele>18</ele>
        <time>2018-03-10T17:18:47Z</time>
      </trkpt>
      <trkpt lat="46.70951" lon="-1.91664">
        <ele>18</ele>
        <time>2018-03-10T17:19:47Z</time>
      </trkpt>
      <trkpt lat="46.70946" lon="-1.91669">
        <ele>18</ele>
        <time>2018-03-10T17:20:47Z</time>
      </trkpt>
      <trkpt lat="46.70932" lon="-1.91688">
        <ele>18</ele>
        <time>2018-03-10T17:21:47Z</time>
      </trkpt>
      <trkpt lat="46.70913" lon="-1.91714">
        <ele>18</ele>
        <time>2018-03-10T17:22:47Z</time>
      </trkpt>
      <trkpt lat="46.70894" lon="-1.91739">
        <ele>18</ele>
        <time>2018-03-10T17:23:47Z</time>
      </trkpt>
      <trkpt lat="46.70883" lon="-1.91753">
        <ele>18</ele>
        <time>2018-03-10T17:24:47Z</time>
      </trkpt>
      <trkpt lat="46.7087" lon="-1.91769">
        <ele>19</ele>
        <time>2018-03-10T17:25:47Z</time>
      </trkpt>
      <trkpt lat="46.7087" lon="-1.9177">
        <ele>19</ele>
        <time>2018-03-10T17:26:47Z</time>
      </trkpt>
      <trkpt lat="46.7087" lon="-1.91771">
        <ele>19</ele>
        <time>2018-03-10T17:27:47Z</time>
      </trkpt>
      <trkpt lat="46.70871" lon="-1.91771">
        <ele>19</ele>
        <time>2018-03-10T17:28:47Z</time>
      </trkpt>
      <trkpt lat="46.70871" lon="-1.91772">
        <ele>19</ele>
        <time>2018-03-10T17:29:47Z</time>
      </trkpt>
      <trkpt lat="46.70871" lon="-1.91773">
        <ele>19</ele>
        <time>2018-03-10T17:30:47Z</time>
      </trkpt>
      <trkpt lat="46.70871" lon="-1.91774">
        <ele>19</ele>
        <time>2018-03-10T17:31:47Z</time>
      </trkpt>
      <trkpt lat="46.70871" lon="-1.91775">
        <ele>19</ele>
        <time>2018-03-10T17:32:47Z</time>
      </trkpt>
      <trkpt lat="46.70871" lon="-1.91776">
        <ele>19</ele>
        <time>2018-03-10T17:33:47Z</time>
      </trkpt>
      <trkpt lat="46.70871" lon="-1.91777">
        <ele>19</ele>
        <time>2018-03-10T17:34:47Z</time>
      </trkpt>
      <trkpt lat="46.70871" lon="-1.91778">
        <ele>19</ele>
        <time>2018-03-10T17:35:47Z</time>
      </trkpt>
      <trkpt lat="46.70871" lon="-1.91779">
        <ele>19</ele>
        <time>2018-03-10T17:36:47Z</time>
      </trkpt>
      <trkpt lat="46.7087" lon="-1.91779">
        <ele>19</ele>
        <time>2018-03-10T17:37:47Z</time>
      </trkpt>
      <trkpt lat="46.7087" lon="-1.9178">
        <ele>19</ele>
        <time>2018-03-10T17:38:47Z</time>
      </trkpt>
      <trkpt lat="46.7087" lon="-1.91781">
        <ele>19</ele>
        <time>2018-03-10T17:39:47Z</time>
      </trkpt>
      <trkpt lat="46.7087" lon="-1.91782">
        <ele>19</ele>
        <time>2018-03-10T17:40:47Z</time>
      </trkpt>
      <trkpt lat="46.70869" lon="-1.91782">
        <ele>19</ele>
        <time>2018-03-10T17:41:47Z</time>
      </trkpt>
      <trkpt lat="46.70869" lon="-1.91783">
        <ele>19</ele>
        <time>2018-03-10T17:42:47Z</time>
      </trkpt>
      <trkpt lat="46.70868" lon="-1.91784">
        <ele>19</ele>
        <time>2018-03-10T17:43:47Z</time>
      </trkpt>
      <trkpt lat="46.70868" lon="-1.91785">
        <ele>19</ele>
        <time>2018-03-10T17:44:47Z</time>
      </trkpt>
      <trkpt lat="46.70867" lon="-1.91785">
        <ele>19</ele>
        <time>2018-03-10T17:45:47Z</time>
      </trkpt>
      <trkpt lat="46.70866" lon="-1.91786">
        <ele>19</ele>
        <time>2018-03-10T17:46:47Z</time>
      </trkpt>
      <trkpt lat="46.70865" lon="-1.91786">
        <ele>19</ele>
        <time>2018-03-10T17:47:47Z</time>
      </trkpt>
      <trkpt lat="46.70864" lon="-1.91786">
        <ele>19</ele>
        <time>2018-03-10T17:48:47Z</time>
      </trkpt>
      <trkpt lat="46.70864" lon="-1.91787">
        <ele>19</ele>
        <time>2018-03-10T17:49:47Z</time>
      </trkpt>
      <trkpt lat="46.70863" lon="-1.91787">
        <ele>19</ele>
        <time>2018-03-10T17:50:47Z</time>
      </trkpt>
      <trkpt lat="46.70862" lon="-1.91787">
        <ele>19</ele>
        <time>2018-03-10T17:51:47Z</time>
      </trkpt>
      <trkpt lat="46.70861" lon="-1.91787">
        <ele>19</ele>
        <time>2018-03-10T17:52:47Z</time>
      </trkpt>
      <trkpt lat="46.70861" lon="-1.91786">
        <ele>19</ele>
        <time>2018-03-10T17:53:47Z</time>
      </trkpt>
      <trkpt lat="46.7086" lon="-1.91786">
        <ele>19</ele>
        <time>2018-03-10T17:54:47Z</time>
      </trkpt>
      <trkpt lat="46.70859" lon="-1.91786">
        <ele>19</ele>
        <time>2018-03-10T17:55:47Z</time>
      </trkpt>
      <trkpt lat="46.70859" lon="-1.91785">
        <ele>19</ele>
        <time>2018-03-10T17:56:47Z</time>
      </trkpt>
      <trkpt lat="46.70858" lon="-1.91785">
        <ele>19</ele>
        <time>2018-03-10T17:57:47Z</time>
      </trkpt>
      <trkpt lat="46.70858" lon="-1.91784">
        <ele>19</ele>
        <time>2018-03-10T17:58:47Z</time>
      </trkpt>
      <trkpt lat="46.70836" lon="-1.9181">
        <ele>20</ele>
        <time>2018-03-10T17:59:47Z</time>
      </trkpt>
      <trkpt lat="46.70799" lon="-1.91849">
        <ele>20</ele>
        <time>2018-03-10T18:00:47Z</time>
      </trkpt>
      <trkpt lat="46.70793" lon="-1.91854">
        <ele>20</ele>
        <time>2018-03-10T18:01:47Z</time>
      </trkpt>
      <trkpt lat="46.70789" lon="-1.91861">
        <ele>19</ele>
        <time>2018-03-10T18:02:47Z</time>
      </trkpt>
      <trkpt lat="46.70758" lon="-1.91893">
        <ele>19</ele>
        <time>2018-03-10T18:03:47Z</time>
      </trkpt>
      <trkpt lat="46.7073" lon="-1.91923">
        <ele>18</ele>
        <time>2018-03-10T18:04:47Z</time>
      </trkpt>
      <trkpt lat="46.70726" lon="-1.91928">
        <ele>19</ele>
        <time>2018-03-10T18:05:47Z</time>
      </trkpt>
      <trkpt lat="46.70721" lon="-1.9193">
        <ele>19</ele>
        <time>2018-03-10T18:06:47Z</time>
      </trkpt>
      <trkpt lat="46.70684" lon="-1.91967">
        <ele>19</ele>
        <time>2018-03-10T18:07:47Z</time>
      </trkpt>
      <trkpt lat="46.70677" lon="-1.91974">
        <ele>19</ele>
        <time>2018-03-10T18:08:47Z</time>
      </trkpt>
      <trkpt lat="46.70671" lon="-1.91985">
        <ele>19</ele>
        <time>2018-03-10T18:09:47Z</time>
      </trkpt>
      <trkpt lat="46.70655" lon="-1.92006">
        <ele>19</ele>
        <time>2018-03-10T18:10:47Z</time>
      </trkpt>
      <trkpt lat="46.70655" lon="-1.92006">
        <ele>19</ele>
        <time>2018-03-10T18:11:47Z</time>
      </trkpt>
      <trkpt lat="46.70655" lon="-1.92007">
        <ele>19</ele>
        <time>2018-03-10T18:12:47Z</time>
      </trkpt>
      <trkpt lat="46.70655" lon="-1.92008">
        <ele>19</ele>
        <time>2018-03-10T18:13:47Z</time>
      </trkpt>
      <trkpt lat="46.70655" lon="-1.92009">
        <ele>19</ele>
        <time>2018-03-10T18:14:47Z</time>
      </trkpt>
      <trkpt lat="46.70655" lon="-1.9201">
        <ele>19</ele>
        <time>2018-03-10T18:15:47Z</time>
      </trkpt>
      <trkpt lat="46.70655" lon="-1.92011">
        <ele>19</ele>
        <time>2018-03-10T18:16:47Z</time>
      </trkpt>
      <trkpt lat="46.70655" lon="-1.92012">
        <ele>19</ele>
        <time>2018-03-10T18:17:47Z</time>
      </trkpt>
      <trkpt lat="46.70655" lon="-1.92013">
        <ele>19</ele>
        <time>2018-03-10T18:18:47Z</time>
      </trkpt>
      <trkpt lat="46.70655" lon="-1.92014">
        <ele>19</ele>
        <time>2018-03-10T18:19:47Z</time>
      </trkpt>
      <trkpt lat="46.70655" lon="-1.92015">
        <ele>19</ele>
        <time>2018-03-10T18:20:47Z</time>
      </trkpt>
      <trkpt lat="46.70654" lon="-1.92015">
        <ele>19</ele>
        <time>2018-03-10T18:21:47Z</time>
      </trkpt>
      <trkpt lat="46.70654" lon="-1.92016">
        <ele>19</ele>
        <time>2018-03-10T18:22:47Z</time>
      </trkpt>
      <trkpt lat="46.70654" lon="-1.92017">
        <ele>19</ele>
        <time>2018-03-10T18:23:47Z</time>
      </trkpt>
      <trkpt lat="46.70654" lon="-1.92018">
        <ele>19</ele>
        <time>2018-03-10T18:24:47Z</time>
      </trkpt>
      <trkpt lat="46.70653" lon="-1.92019">
        <ele>19</ele>
        <time>2018-03-10T18:25:47Z</time>
      </trkpt>
      <trkpt lat="46.70653" lon="-1.9202">
        <ele>19</ele>
        <time>2018-03-10T18:26:47Z</time>
      </trkpt>
      <trkpt lat="46.70652" lon="-1.92021">
        <ele>19</ele>
        <time>2018-03-10T18:27:47Z</time>
      </trkpt>
      <trkpt lat="46.70652" lon="-1.92022">
        <ele>19</ele>
        <time>2018-03-10T18:28:47Z</time>
      </trkpt>
      <trkpt lat="46.70651" lon="-1.92022">
        <ele>19</ele>
        <time>2018-03-10T18:29:47Z</time>
      </trkpt>
      <trkpt lat="46.70651" lon="-1.92023">
        <ele>19</ele>
        <time>2018-03-10T18:30:47Z</time>
      </trkpt>
      <trkpt lat="46.7065" lon="-1.92023">
        <ele>19</ele>
        <time>2018-03-10T18:31:47Z</time>
      </trkpt>
      <trkpt lat="46.70649" lon="-1.92024">
        <ele>19</ele>
        <time>2018-03-10T18:32:47Z</time>
      </trkpt>
      <trkpt lat="46.70644" lon="-1.92039">
        <ele>19</ele>
        <time>2018-03-10T18:33:47Z</time>
      </trkpt>
      <trkpt lat="46.70642" lon="-1.9205">
        <ele>19</ele>
        <time>2018-03-10T18:34:47Z</time>
      </trkpt>
      <trkpt lat="46.70642" lon="-1.92056">
        <ele>19</ele>
        <time>2018-03-10T18:35:47Z</time>
      </trkpt>
      <trkpt lat="46.7064" lon="-1.92095">
        <ele>20</ele>
        <time>2018-03-10T18:36:47Z</time>
      </trkpt>
      <trkpt lat="46.7064" lon="-1.92109">
        <ele>20</ele>
        <time>2018-03-10T18:37:47Z</time>
      </trkpt>
      <trkpt lat="46.70639" lon="-1.92134">
        <ele>19</ele>
        <time>2018-03-10T18:38:47Z</time>
      </trkpt>
      <trkpt lat="46.70637" lon="-1.92186">
        <ele>19</ele>
        <time>2018-03-10T18:39:47Z</time>
      </trkpt>
      <trkpt lat="46.70634" lon="-1.92221">
        <ele>19</ele>
        <time>2018-03-10T18:40:47Z</time>
      </trkpt>
      <trkpt lat="46.70628" lon="-1.92248">
        <ele>20</ele>
        <time>2018-03-10T18:41:47Z</time>
      </trkpt>
      <trkpt lat="46.70619" lon="-1.92271">
        <ele>19</ele>
        <time>2018-03-10T18:42:47Z</time>
      </trkpt>
      <trkpt lat="46.7061" lon="-1.92289">
        <ele>19</ele>
        <time>2018-03-10T18:43:47Z</time>
      </trkpt>
      <trkpt lat="46.70602" lon="-1.92304">
        <ele>18</ele>
        <time>2018-03-10T18:44:47Z</time>
      </trkpt>
      <trkpt lat="46.70586" lon="-1.92327">
        <ele>18</ele>
        <time>2018-03-10T18:45:47Z</time>
      </trkpt>
      <trkpt lat="46.70582" lon="-1.92333">
        <ele>18</ele>
        <time>2018-03-10T18:46:47Z</time>
      </trkpt>
      <trkpt lat="46.70571" lon="-1.92356">
        <ele>17</ele>
        <time>2018-03-10T18:47:47Z</time>
      </trkpt>
      <trkpt lat="46.70562" lon="-1.92377">
        <ele>17</ele>
        <time>2018-03-10T18:48:47Z</time>
      </trkpt>
      <trkpt lat="46.70559" lon="-1.92387">
        <ele>16</ele>
        <time>2018-03-10T18:49:47Z</time>
      </trkpt>
      <trkpt lat="46.70555" lon="-1.92398">
        <ele>16</ele>
        <time>2018-03-10T18:50:47Z</time>
      </trkpt>
      <trkpt lat="46.70552" lon="-1.92414">
        <ele>16</ele>
        <time>2018-03-10T18:51:47Z</time>
      </trkpt>
      <trkpt lat="46.70546" lon="-1.92441">
        <ele>15</ele>
        <time>2018-03-10T18:52:47Z</time>
      </trkpt>
      <trkpt lat="46.70541" lon="-1.92464">
        <ele>15</ele>
        <time>2018-03-10T18:53:47Z</time>
      </trkpt>
      <trkpt lat="46.7054" lon="-1.92472">
        <ele>15</ele>
        <time>2018-03-10T18:54:47Z</time>
      </trkpt>
      <trkpt lat="46.70535" lon="-1.92496">
        <ele>14</ele>
        <time>2018-03-10T18:55:47Z</time>
      </trkpt>
      <trkpt lat="46.70534" lon="-1.925">
        <ele>14</ele>
        <time>2018-03-10T18:56:47Z</time>
      </trkpt>
      <trkpt lat="46.70533" lon="-1.92502">
        <ele>14</ele>
        <time>2018-03-10T18:57:47Z</time>
      </trkpt>
      <trkpt lat="46.70527" lon="-1.92538">
        <ele>13</ele>
        <time>2018-03-10T18:58:47Z</time>
      </trkpt>
      <trkpt lat="46.70523" lon="-1.92561">
        <ele>12</ele>
        <time>2018-03-10T18:59:47Z</time>
      </trkpt>
      <trkpt lat="46.70524" lon="-1.92565">
        <ele>12</ele>
        <time>2018-03-10T19:00:47Z</time>
      </trkpt>
      <trkpt lat="46.70525" lon="-1.92575">
        <ele>12</ele>
        <time>2018-03-10T19:01:47Z</time>
      </trkpt>
      <trkpt lat="46.70525" lon="-1.92582">
        <ele>12</ele>
        <time>2018-03-10T19:02:47Z</time>
      </trkpt>
      <trkpt lat="46.70525" lon="-1.92582">
        <ele>12</ele>
        <time>2018-03-10T19:03:47Z</time>
      </trkpt>
      <trkpt lat="46.70529" lon="-1.92587">
        <ele>12</ele>
        <time>2018-03-10T19:04:47Z</time>
      </trkpt>
      <trkpt lat="46.7053" lon="-1.92592">
        <ele>12</ele>
        <time>2018-03-10T19:05:47Z</time>
      </trkpt>
      <trkpt lat="46.70531" lon="-1.92598">
        <ele>12</ele>
        <time>2018-03-10T19:06:47Z</time>
      </trkpt>
      <trkpt lat="46.7053" lon="-1.92602">
        <ele>12</ele>
        <time>2018-03-10T19:07:47Z</time>
      </trkpt>
      <trkpt lat="46.70528" lon="-1.92606">
        <ele>12</ele>
        <time>2018-03-10T19:08:47Z</time>
      </trkpt>
      <trkpt lat="46.70527" lon="-1.92607">
        <ele>12</ele>
        <time>2018-03-10T19:09:47Z</time>
      </trkpt>
      <trkpt lat="46.70525" lon="-1.92609">
        <ele>12</ele>
        <time>2018-03-10T19:10:47Z</time>
      </trkpt>
      <trkpt lat="46.70523" lon="-1.92609">
        <ele>11</ele>
        <time>2018-03-10T19:11:47Z</time>
      </trkpt>
      <trkpt lat="46.70512" lon="-1.92624">
        <ele>11</ele>
        <time>2018-03-10T19:12:47Z</time>
      </trkpt>
      <trkpt lat="46.70507" lon="-1.92632">
        <ele>11</ele>
        <time>2018-03-10T19:13:47Z</time>
      </trkpt>
      <trkpt lat="46.70504" lon="-1.92634">
        <ele>11</ele>
        <time>2018-03-10T19:14:47Z</time>
      </trkpt>
      <trkpt lat="46.70499" lon="-1.9265">
        <ele>11</ele>
        <time>2018-03-10T19:15:47Z</time>
      </trkpt>
      <trkpt lat="46.70496" lon="-1.9267">
        <ele>11</ele>
        <time>2018-03-10T19:16:47Z</time>
      </trkpt>
      <trkpt lat="46.70489" lon="-1.92701">
        <ele>10</ele>
        <time>2018-03-10T19:17:47Z</time>
      </trkpt>
      <trkpt lat="46.70484" lon="-1.9273">
        <ele>9</ele>
        <time>2018-03-10T19:18:47Z</time>
      </trkpt>
      <trkpt lat="46.70482" lon="-1.92747">
        <ele>8</ele>
        <time>2018-03-10T19:19:47Z</time>
      </trkpt>
      <trkpt lat="46.70478" lon="-1.92796">
        <ele>8</ele>
        <time>2018-03-10T19:20:47Z</time>
      </trkpt>
      <trkpt lat="46.70475" lon="-1.92841">
        <ele>8</ele>
        <time>2018-03-10T19:21:47Z</time>
      </trkpt>
      <trkpt lat="46.70472" lon="-1.92898">
        <ele>8</ele>
        <time>2018-03-10T19:22:47Z</time>
      </trkpt>
      <trkpt lat="46.70468" lon="-1.92952">
        <ele>7</ele>
        <time>2018-03-10T19:23:47Z</time>
      </trkpt>
      <trkpt lat="46.70465" lon="-1.93009">
        <ele>6</ele>
        <time>2018-03-10T19:24:47Z</time>
      </trkpt>
      <trkpt lat="46.70462" lon="-1.93045">
        <ele>6</ele>
        <time>2018-03-10T19:25:47Z</time>
      </trkpt>
      <trkpt lat="46.70458" lon="-1.93108">
        <ele>5</ele>
        <time>2018-03-10T19:26:47Z</time>
      </trkpt>
      <trkpt lat="46.70455" lon="-1.93156">
        <ele>5</ele>
        <time>2018-03-10T19:27:47Z</time>
      </trkpt>
      <trkpt lat="46.70452" lon="-1.93209">
        <ele>4</ele>
        <time>2018-03-10T19:28:47Z</time>
      </trkpt>
      <trkpt lat="46.70449" lon="-1.93254">
        <ele>3</ele>
        <time>2018-03-10T19:29:47Z</time>
      </trkpt>
      <trkpt lat="46.70449" lon="-1.93267">
        <ele>3</ele>
        <time>2018-03-10T19:30:47Z</time>
      </trkpt>
      <trkpt lat="46.70449" lon="-1.93267">
        <ele>3</ele>
        <time>2018-03-10T19:31:47Z</time>
      </trkpt>
      <trkpt lat="46.70439" lon="-1.93265">
        <ele>3</ele>
        <time>2018-03-10T19:32:47Z</time>
      </trkpt>
      <trkpt lat="46.70429" lon="-1.93262">
        <ele>3</ele>
        <time>2018-03-10T19:33:47Z</time>
      </trkpt>
      <trkpt lat="46.70419" lon="-1.93258">
        <ele>3</ele>
        <time>2018-03-10T19:34:47Z</time>
      </trkpt>
      <trkpt lat="46.70398" lon="-1.93249">
        <ele>3</ele>
        <time>2018-03-10T19:35:47Z</time>
      </trkpt>
      <trkpt lat="46.70362" lon="-1.9324">
        <ele>2</ele>
        <time>2018-03-10T19:36:47Z</time>
      </trkpt>
      <trkpt lat="46.70328" lon="-1.93232">
        <ele>2</ele>
        <time>2018-03-10T19:37:47Z</time>
      </trkpt>
      <trkpt lat="46.70304" lon="-1.9323">
        <ele>2</ele>
        <time>2018-03-10T19:38:47Z</time>
      </trkpt>
      <trkpt lat="46.70304" lon="-1.9323">
        <ele>2</ele>
        <time>2018-03-10T19:39:47Z</time>
      </trkpt>
      <trkpt lat="46.70295" lon="-1.93245">
        <ele>2</ele>
        <time>2018-03-10T19:40:47Z</time>
      </trkpt>
      <trkpt lat="46.70288" lon="-1.93253">
        <ele>2</ele>
        <time>2018-03-10T19:41:47Z</time>
      </trkpt>
      <trkpt lat="46.7028" lon="-1.9326">
        <ele>2</ele>
        <time>2018-03-10T19:42:47Z</time>
      </trkpt>
      <trkpt lat="46.70276" lon="-1.93263">
        <ele>2</ele>
        <time>2018-03-10T19:43:47Z</time>
      </trkpt>
      <trkpt lat="46.70263" lon="-1.93271">
        <ele>2</ele>
        <time>2018-03-10T19:44:47Z</time>
      </trkpt>
      <trkpt lat="46.70251" lon="-1.9328">
        <ele>2</ele>
        <time>2018-03-10T19:45:47Z</time>
      </trkpt>
      <trkpt lat="46.70239" lon="-1.93295">
        <ele>2</ele>
        <time>2018-03-10T19:46:47Z</time>
      </trkpt>
      <trkpt lat="46.70224" lon="-1.9332">
        <ele>1</ele>
        <time>2018-03-10T19:47:47Z</time>
      </trkpt>
      <trkpt lat="46.70216" lon="-1.93332">
        <ele>1</ele>
        <time>2018-03-10T19:48:47Z</time>
      </trkpt>
      <trkpt lat="46.70211" lon="-1.9334">
        <ele>1</ele>
        <time>2018-03-10T19:49:47Z</time>
      </trkpt>
      <trkpt lat="46.70205" lon="-1.93347">
        <ele>1</ele>
        <time>2018-03-10T19:50:47Z</time>
      </trkpt>
      <trkpt lat="46.70194" lon="-1.93356">
        <ele>1</ele>
        <time>2018-03-10T19:51:47Z</time>
      </trkpt>
      <trkpt lat="46.70181" lon="-1.93366">
        <ele>2</ele>
        <time>2018-03-10T19:52:47Z</time>
      </trkpt>
      <trkpt lat="46.70173" lon="-1.93372">
        <ele>1</ele>
        <time>2018-03-10T19:53:47Z</time>
      </trkpt>
      <trkpt lat="46.7017" lon="-1.93374">
        <ele>1</ele>
        <time>2018-03-10T19:54:47Z</time>
      </trkpt>
      <trkpt lat="46.70166" lon="-1.9338">
        <ele>1</ele>
        <time>2018-03-10T19:55:47Z</time>
      </trkpt>
      <trkpt lat="46.70161" lon="-1.93382">
        <ele>1</ele>
        <time>2018-03-10T19:56:47Z</time>
      </trkpt>
      <trkpt lat="46.70152" lon="-1.93386">
        <ele>1</ele>
        <time>2018-03-10T19:57:47Z</time>
      </trkpt>
      <trkpt lat="46.70141" lon="-1.93391">
        <ele>1</ele>
        <time>2018-03-10T19:58:47Z</time>
      </trkpt>
      <trkpt lat="46.70141" lon="-1.93391">
        <ele>1</ele>
        <time>2018-03-10T19:59:47Z</time>
      </trkpt>
      <trkpt lat="46.70141" lon="-1.93393">
        <ele>1</ele>
        <time>2018-03-10T20:00:47Z</time>
      </trkpt>
      <trkpt lat="46.70141" lon="-1.93394">
        <ele>1</ele>
        <time>2018-03-10T20:01:47Z</time>
      </trkpt>
      <trkpt lat="46.70141" lon="-1.93395">
        <ele>1</ele>
        <time>2018-03-10T20:02:47Z</time>
      </trkpt>
      <trkpt lat="46.7014" lon="-1.93396">
        <ele>1</ele>
        <time>2018-03-10T20:03:47Z</time>
      </trkpt>
      <trkpt lat="46.7014" lon="-1.93397">
        <ele>1</ele>
        <time>2018-03-10T20:04:47Z</time>
      </trkpt>
      <trkpt lat="46.7014" lon="-1.93398">
        <ele>1</ele>
        <time>2018-03-10T20:05:47Z</time>
      </trkpt>
      <trkpt lat="46.70139" lon="-1.93399">
        <ele>1</ele>
        <time>2018-03-10T20:06:47Z</time>
      </trkpt>
      <trkpt lat="46.70139" lon="-1.93401">
        <ele>1</ele>
        <time>2018-03-10T20:07:47Z</time>
      </trkpt>
      <trkpt lat="46.70138" lon="-1.93402">
        <ele>1</ele>
        <time>2018-03-10T20:08:47Z</time>
      </trkpt>
      <trkpt lat="46.70138" lon="-1.93403">
        <ele>1</ele>
        <time>2018-03-10T20:09:47Z</time>
      </trkpt>
      <trkpt lat="46.70137" lon="-1.93403">
        <ele>1</ele>
        <time>2018-03-10T20:10:47Z</time>
      </trkpt>
      <trkpt lat="46.70136" lon="-1.93404">
        <ele>1</ele>
        <time>2018-03-10T20:11:47Z</time>
      </trkpt>
      <trkpt lat="46.70136" lon="-1.93405">
        <ele>1</ele>
        <time>2018-03-10T20:12:47Z</time>
      </trkpt>
      <trkpt lat="46.70135" lon="-1.93406">
        <ele>1</ele>
        <time>2018-03-10T20:13:47Z</time>
      </trkpt>
      <trkpt lat="46.70134" lon="-1.93406">
        <ele>1</ele>
        <time>2018-03-10T20:14:47Z</time>
      </trkpt>
      <trkpt lat="46.70133" lon="-1.93407">
        <ele>1</ele>
        <time>2018-03-10T20:15:47Z</time>
      </trkpt>
      <trkpt lat="46.70132" lon="-1.93408">
        <ele>1</ele>
        <time>2018-03-10T20:16:47Z</time>
      </trkpt>
      <trkpt lat="46.70131" lon="-1.93408">
        <ele>1</ele>
        <time>2018-03-10T20:17:47Z</time>
      </trkpt>
      <trkpt lat="46.7013" lon="-1.93409">
        <ele>1</ele>
        <time>2018-03-10T20:18:47Z</time>
      </trkpt>
      <trkpt lat="46.70129" lon="-1.93409">
        <ele>1</ele>
        <time>2018-03-10T20:19:47Z</time>
      </trkpt>
      <trkpt lat="46.70128" lon="-1.93409">
        <ele>1</ele>
        <time>2018-03-10T20:20:47Z</time>
      </trkpt>
      <trkpt lat="46.70127" lon="-1.93409">
        <ele>1</ele>
        <time>2018-03-10T20:21:47Z</time>
      </trkpt>
      <trkpt lat="46.70126" lon="-1.93409">
        <ele>1</ele>
        <time>2018-03-10T20:22:47Z</time>
      </trkpt>
      <trkpt lat="46.70125" lon="-1.93409">
        <ele>1</ele>
        <time>2018-03-10T20:23:47Z</time>
      </trkpt>
      <trkpt lat="46.70124" lon="-1.93408">
        <ele>2</ele>
        <time>2018-03-10T20:24:47Z</time>
      </trkpt>
      <trkpt lat="46.70123" lon="-1.93408">
        <ele>2</ele>
        <time>2018-03-10T20:25:47Z</time>
      </trkpt>
      <trkpt lat="46.70122" lon="-1.93407">
        <ele>2</ele>
        <time>2018-03-10T20:26:47Z</time>
      </trkpt>
      <trkpt lat="46.70121" lon="-1.93407">
        <ele>2</ele>
        <time>2018-03-10T20:27:47Z</time>
      </trkpt>
      <trkpt lat="46.7012" lon="-1.93406">
        <ele>2</ele>
        <time>2018-03-10T20:28:47Z</time>
      </trkpt>
      <trkpt lat="46.7012" lon="-1.93405">
        <ele>2</ele>
        <time>2018-03-10T20:29:47Z</time>
      </trkpt>
      <trkpt lat="46.70119" lon="-1.93405">
        <ele>2</ele>
        <time>2018-03-10T20:30:47Z</time>
      </trkpt>
      <trkpt lat="46.70107" lon="-1.93404">
        <ele>2</ele>
        <time>2018-03-10T20:31:47Z</time>
      </trkpt>
      <trkpt lat="46.701" lon="-1.93405">
        <ele>2</ele>
        <time>2018-03-10T20:32:47Z</time>
      </trkpt>
      <trkpt lat="46.70092" lon="-1.93406">
        <ele>2</ele>
        <time>2018-03-10T20:33:47Z</time>
      </trkpt>
      <trkpt lat="46.70088" lon="-1.93406">
        <ele>2</ele>
        <time>2018-03-10T20:34:47Z</time>
      </trkpt>
      <trkpt lat="46.70085" lon="-1.93405">
        <ele>2</ele>
        <time>2018-03-10T20:35:47Z</time>
      </trkpt>
      <trkpt lat="46.70083" lon="-1.93405">
        <ele>2</ele>
        <time>2018-03-10T20:36:47Z</time>
      </trkpt>
      <trkpt lat="46.70062" lon="-1.93405">
        <ele>2</ele>
        <time>2018-03-10T20:37:47Z</time>
      </trkpt>
      <trkpt lat="46.70062" lon="-1.93406">
        <ele>2</ele>
        <time>2018-03-10T20:38:47Z</time>
      </trkpt>
      <trkpt lat="46.70062" lon="-1.93407">
        <ele>2</ele>
        <time>2018-03-10T20:39:47Z</time>
      </trkpt>
      <trkpt lat="46.70062" lon="-1.93408">
        <ele>2</ele>
        <time>2018-03-10T20:40:47Z</time>
      </trkpt>
      <trkpt lat="46.70062" lon="-1.93409">
        <ele>2</ele>
        <time>2018-03-10T20:41:47Z</time>
      </trkpt>
      <trkpt lat="46.70062" lon="-1.9341">
        <ele>2</ele>
        <time>2018-03-10T20:42:47Z</time>
      </trkpt>
      <trkpt lat="46.70061" lon="-1.9341">
        <ele>2</ele>
        <time>2018-03-10T20:43:47Z</time>
      </trkpt>
      <trkpt lat="46.70061" lon="-1.93411">
        <ele>2</ele>
        <time>2018-03-10T20:44:47Z</time>
      </trkpt>
      <trkpt lat="46.7006" lon="-1.93411">
        <ele>2</ele>
        <time>2018-03-10T20:45:47Z</time>
      </trkpt>
      <trkpt lat="46.7006" lon="-1.93412">
        <ele>2</ele>
        <time>2018-03-10T20:46:47Z</time>
      </trkpt>
      <trkpt lat="46.70059" lon="-1.93412">
        <ele>2</ele>
        <time>2018-03-10T20:47:47Z</time>
      </trkpt>
      <trkpt lat="46.70059" lon="-1.93413">
        <ele>2</ele>
        <time>2018-03-10T20:48:47Z</time>
      </trkpt>
      <trkpt lat="46.70058" lon="-1.93413">
        <ele>2</ele>
        <time>2018-03-10T20:49:47Z</time>
      </trkpt>
      <trkpt lat="46.70057" lon="-1.93413">
        <ele>2</ele>
        <time>2018-03-10T20:50:47Z</time>
      </trkpt>
      <trkpt lat="46.70056" lon="-1.93413">
        <ele>2</ele>
        <time>2018-03-10T20:51:47Z</time>
      </trkpt>
      <trkpt lat="46.70055" lon="-1.93413">
        <ele>2</ele>
        <time>2018-03-10T20:52:47Z</time>
      </trkpt>
      <trkpt lat="46.70055" lon="-1.93412">
        <ele>2</ele>
        <time>2018-03-10T20:53:47Z</time>
      </trkpt>
      <trkpt lat="46.70054" lon="-1.93412">
        <ele>2</ele>
        <time>2018-03-10T20:54:47Z</time>
      </trkpt>
      <trkpt lat="46.70054" lon="-1.93411">
        <ele>2</ele>
        <time>2018-03-10T20:55:47Z</time>
      </trkpt>
      <trkpt lat="46.70053" lon="-1.93411">
        <ele>2</ele>
        <time>2018-03-10T20:56:47Z</time>
      </trkpt>
      <trkpt lat="46.70053" lon="-1.9341">
        <ele>2</ele>
        <time>2018-03-10T20:57:47Z</time>
      </trkpt>
      <trkpt lat="46.70053" lon="-1.93409">
        <ele>2</ele>
        <time>2018-03-10T20:58:47Z</time>
      </trkpt>
      <trkpt lat="46.70052" lon="-1.93409">
        <ele>2</ele>
        <time>2018-03-10T20:59:47Z</time>
      </trkpt>
      <trkpt lat="46.70052" lon="-1.93408">
        <ele>2</ele>
        <time>2018-03-10T21:00:47Z</time>
      </trkpt>
      <trkpt lat="46.70052" lon="-1.93407">
        <ele>2</ele>
        <time>2018-03-10T21:01:47Z</time>
      </trkpt>
      <trkpt lat="46.70052" lon="-1.93406">
        <ele>2</ele>
        <time>2018-03-10T21:02:47Z</time>
      </trkpt>
      <trkpt lat="46.70052" lon="-1.93405">
        <ele>2</ele>
        <time>2018-03-10T21:03:47Z</time>
      </trkpt>
      <trkpt lat="46.70046" lon="-1.93402">
        <ele>2</ele>
        <time>2018-03-10T21:04:47Z</time>
      </trkpt>
      <trkpt lat="46.70043" lon="-1.93401">
        <ele>2</ele>
        <time>2018-03-10T21:05:47Z</time>
      </trkpt>
      <trkpt lat="46.70041" lon="-1.934">
        <ele>2</ele>
        <time>2018-03-10T21:06:47Z</time>
      </trkpt>
      <trkpt lat="46.70038" lon="-1.93398">
        <ele>2</ele>
        <time>2018-03-10T21:07:47Z</time>
      </trkpt>
      <trkpt lat="46.70036" lon="-1.93397">
        <ele>2</ele>
        <time>2018-03-10T21:08:47Z</time>
      </trkpt>
      <trkpt lat="46.70033" lon="-1.93394">
        <ele>2</ele>
        <time>2018-03-10T21:09:47Z</time>
      </trkpt>
      <trkpt lat="46.7003" lon="-1.93391">
        <ele>3</ele>
        <time>2018-03-10T21:10:47Z</time>
      </trkpt>
      <trkpt lat="46.70028" lon="-1.93388">
        <ele>3</ele>
        <time>2018-03-10T21:11:47Z</time>
      </trkpt>
      <trkpt lat="46.70025" lon="-1.93386">
        <ele>3</ele>
        <time>2018-03-10T21:12:47Z</time>
      </trkpt>
      <trkpt lat="46.70023" lon="-1.93384">
        <ele>3</ele>
        <time>2018-03-10T21:13:47Z</time>
      </trkpt>
      <trkpt lat="46.7002" lon="-1.93382">
        <ele>3</ele>
        <time>2018-03-10T21:14:47Z</time>
      </trkpt>
      <trkpt lat="46.70015" lon="-1.9338">
        <ele>3</ele>
        <time>2018-03-10T21:15:47Z</time>
      </trkpt>
      <trkpt lat="46.70002" lon="-1.93375">
        <ele>3</ele>
        <time>2018-03-10T21:16:47Z</time>
      </trkpt>
      <trkpt lat="46.69987" lon="-1.93369">
        <ele>3</ele>
        <time>2018-03-10T21:17:47Z</time>
      </trkpt>
      <trkpt lat="46.69982" lon="-1.93367">
        <ele>3</ele>
        <time>2018-03-10T21:18:47Z</time>
      </trkpt>
      <trkpt lat="46.69979" lon="-1.93366">
        <ele>3</ele>
        <time>2018-03-10T21:19:47Z</time>
      </trkpt>
      <trkpt lat="46.69978" lon="-1.93366">
        <ele>3</ele>
        <time>2018-03-10T21:20:47Z</time>
      </trkpt>
      <trkpt lat="46.69976" lon="-1.93367">
        <ele>4</ele>
        <time>2018-03-10T21:21:47Z</time>
      </trkpt>
      <trkpt lat="46.69973" lon="-1.93367">
        <ele>4</ele>
        <time>2018-03-10T21:22:47Z</time>
      </trkpt>
      <trkpt lat="46.69969" lon="-1.9337">
        <ele>4</ele>
        <time>2018-03-10T21:23:47Z</time>
      </trkpt>
      <trkpt lat="46.69963" lon="-1.93373">
        <ele>4</ele>
        <time>2018-03-10T21:24:47Z</time>
      </trkpt>
      <trkpt lat="46.69958" lon="-1.93375">
        <ele>4</ele>
        <time>2018-03-10T21:25:47Z</time>
      </trkpt>
      <trkpt lat="46.69953" lon="-1.93377">
        <ele>4</ele>
        <time>2018-03-10T21:26:47Z</time>
      </trkpt>
      <trkpt lat="46.69949" lon="-1.93379">
        <ele>4</ele>
        <time>2018-03-10T21:27:47Z</time>
      </trkpt>
      <trkpt lat="46.69944" lon="-1.93381">
        <ele>4</ele>
        <time>2018-03-10T21:28:47Z</time>
      </trkpt>
      <trkpt lat="46.69935" lon="-1.93382">
        <ele>4</ele>
        <time>2018-03-10T21:29:47Z</time>
      </trkpt>
      <trkpt lat="46.69925" lon="-1.93383">
        <ele>4</ele>
        <time>2018-03-10T21:30:47Z</time>
      </trkpt>
      <trkpt lat="46.69922" lon="-1.93383">
        <ele>4</ele>
        <time>2018-03-10T21:31:47Z</time>
      </trkpt>
      <trkpt lat="46.69915" lon="-1.93383">
        <ele>4</ele>
        <time>2018-03-10T21:32:47Z</time>
      </trkpt>
      <trkpt lat="46.69915" lon="-1.93384">
        <ele>4</ele>
        <time>2018-03-10T21:33:47Z</time>
      </trkpt>
      <trkpt lat="46.69913" lon="-1.93385">
        <ele>4</ele>
        <time>2018-03-10T21:34:47Z</time>
      </trkpt>
      <trkpt lat="46.69912" lon="-1.93386">
        <ele>4</ele>
        <time>2018-03-10T21:35:47Z</time>
      </trkpt>
      <trkpt lat="46.69911" lon="-1.93386">
        <ele>4</ele>
        <time>2018-03-10T21:36:47Z</time>
      </trkpt>
      <trkpt lat="46.69909" lon="-1.93385">
        <ele>4</ele>
        <time>2018-03-10T21:37:47Z</time>
      </trkpt>
      <trkpt lat="46.69908" lon="-1.93383">
        <ele>4</ele>
        <time>2018-03-10T21:38:47Z</time>
      </trkpt>
      <trkpt lat="46.69901" lon="-1.93383">
        <ele>5</ele>
        <time>2018-03-10T21:39:47Z</time>
      </trkpt>
      <trkpt lat="46.69898" lon="-1.93383">
        <ele>5</ele>
        <time>2018-03-10T21:40:47Z</time>
      </trkpt>
      <trkpt lat="46.69892" lon="-1.93385">
        <ele>5</ele>
        <time>2018-03-10T21:41:47Z</time>
      </trkpt>
      <trkpt lat="46.69824" lon="-1.93411">
        <ele>5</ele>
        <time>2018-03-10T21:42:47Z</time>
      </trkpt>
    </trkseg>
  </trk>
</gpx>